<gpx xmlns="http://www.topografix.com/GPX/1/1" xmlns:xsi="http://www.w3.org/2001/XMLSchema-instance" version="1.1" xsi:schemaLocation="http://www.topografix.com/GPX/1/1 http://www.topografix.com/GPX/1/1/gpx.xsd" creator="MotionXGPSFull 24.1 Build 5049R64">
<trk>
<name>Kingscliff Run</name>
<desc>2 Dec 2015  7:32 am</desc>
<trkseg>
<trkpt lat="-27.3569360" lon="152.9565061">
<ele>26.544</ele>
<time>2015-12-01T20:32:29.013Z</time>
</trkpt>
<trkpt lat="-27.3569360" lon="152.9565061">
<ele>26.532</ele>
<time>2015-12-01T20:32:32.999Z</time>
</trkpt>
<trkpt lat="-27.3569360" lon="152.9565061">
<ele>26.525</ele>
<time>2015-12-01T20:41:04.674Z</time>
</trkpt>
<trkpt lat="-27.3568033" lon="152.9565130">
<ele>26.517</ele>
<time>2015-12-01T20:41:10.559Z</time>
</trkpt>
<trkpt lat="-27.3566052" lon="152.9566512">
<ele>25.372</ele>
<time>2015-12-01T20:41:13.660Z</time>
</trkpt>
<trkpt lat="-27.3563164" lon="152.9568471">
<ele>22.277</ele>
<time>2015-12-01T20:41:16.884Z</time>
</trkpt>
<trkpt lat="-27.3559937" lon="152.9570665">
<ele>18.874</ele>
<time>2015-12-01T20:41:20.122Z</time>
</trkpt>
<trkpt lat="-27.3556691" lon="152.9572364">
<ele>16.855</ele>
<time>2015-12-01T20:41:23.402Z</time>
</trkpt>
<trkpt lat="-27.3554587" lon="152.9572888">
<ele>15.972</ele>
<time>2015-12-01T20:41:25.804Z</time>
</trkpt>
<trkpt lat="-27.3551917" lon="152.9573478">
<ele>15.678</ele>
<time>2015-12-01T20:41:28.861Z</time>
</trkpt>
<trkpt lat="-27.3549673" lon="152.9572197">
<ele>15.617</ele>
<time>2015-12-01T20:41:31.597Z</time>
</trkpt>
<trkpt lat="-27.3549285" lon="152.9580607">
<ele>15.546</ele>
<time>2015-12-01T20:41:39.550Z</time>
</trkpt>
<trkpt lat="-27.3549408" lon="152.9585114">
<ele>16.055</ele>
<time>2015-12-01T20:41:42.726Z</time>
</trkpt>
<trkpt lat="-27.3549548" lon="152.9588433">
<ele>17.894</ele>
<time>2015-12-01T20:41:44.841Z</time>
</trkpt>
<trkpt lat="-27.3550069" lon="152.9592966">
<ele>20.582</ele>
<time>2015-12-01T20:41:47.740Z</time>
</trkpt>
<trkpt lat="-27.3550855" lon="152.9595838">
<ele>22.459</ele>
<time>2015-12-01T20:41:49.674Z</time>
</trkpt>
<trkpt lat="-27.3552043" lon="152.9598871">
<ele>22.855</ele>
<time>2015-12-01T20:41:51.768Z</time>
</trkpt>
<trkpt lat="-27.3553896" lon="152.9603122">
<ele>22.404</ele>
<time>2015-12-01T20:41:54.776Z</time>
</trkpt>
<trkpt lat="-27.3555588" lon="152.9607179">
<ele>21.673</ele>
<time>2015-12-01T20:41:57.773Z</time>
</trkpt>
<trkpt lat="-27.3556384" lon="152.9609631">
<ele>20.818</ele>
<time>2015-12-01T20:41:59.658Z</time>
</trkpt>
<trkpt lat="-27.3556980" lon="152.9612103">
<ele>19.860</ele>
<time>2015-12-01T20:42:01.653Z</time>
</trkpt>
<trkpt lat="-27.3557699" lon="152.9614265">
<ele>18.802</ele>
<time>2015-12-01T20:42:03.489Z</time>
</trkpt>
<trkpt lat="-27.3559911" lon="152.9618182">
<ele>17.865</ele>
<time>2015-12-01T20:42:06.779Z</time>
</trkpt>
<trkpt lat="-27.3562049" lon="152.9622741">
<ele>17.670</ele>
<time>2015-12-01T20:42:09.884Z</time>
</trkpt>
<trkpt lat="-27.3563709" lon="152.9625930">
<ele>18.621</ele>
<time>2015-12-01T20:42:11.983Z</time>
</trkpt>
<trkpt lat="-27.3565191" lon="152.9628878">
<ele>20.127</ele>
<time>2015-12-01T20:42:13.928Z</time>
</trkpt>
<trkpt lat="-27.3567628" lon="152.9632978">
<ele>21.234</ele>
<time>2015-12-01T20:42:16.804Z</time>
</trkpt>
<trkpt lat="-27.3569842" lon="152.9635614">
<ele>21.687</ele>
<time>2015-12-01T20:42:18.900Z</time>
</trkpt>
<trkpt lat="-27.3573147" lon="152.9639181">
<ele>21.985</ele>
<time>2015-12-01T20:42:21.812Z</time>
</trkpt>
<trkpt lat="-27.3576699" lon="152.9643108">
<ele>22.867</ele>
<time>2015-12-01T20:42:24.903Z</time>
</trkpt>
<trkpt lat="-27.3578974" lon="152.9645773">
<ele>24.929</ele>
<time>2015-12-01T20:42:26.917Z</time>
</trkpt>
<trkpt lat="-27.3581136" lon="152.9648235">
<ele>28.088</ele>
<time>2015-12-01T20:42:28.815Z</time>
</trkpt>
<trkpt lat="-27.3584271" lon="152.9652462">
<ele>31.518</ele>
<time>2015-12-01T20:42:31.888Z</time>
</trkpt>
<trkpt lat="-27.3586459" lon="152.9657028">
<ele>34.263</ele>
<time>2015-12-01T20:42:34.870Z</time>
</trkpt>
<trkpt lat="-27.3587340" lon="152.9660297">
<ele>35.831</ele>
<time>2015-12-01T20:42:36.885Z</time>
</trkpt>
<trkpt lat="-27.3587627" lon="152.9663608">
<ele>36.163</ele>
<time>2015-12-01T20:42:38.865Z</time>
</trkpt>
<trkpt lat="-27.3587429" lon="152.9666936">
<ele>35.424</ele>
<time>2015-12-01T20:42:40.845Z</time>
</trkpt>
<trkpt lat="-27.3585926" lon="152.9671733">
<ele>33.865</ele>
<time>2015-12-01T20:42:43.858Z</time>
</trkpt>
<trkpt lat="-27.3584574" lon="152.9674667">
<ele>31.977</ele>
<time>2015-12-01T20:42:45.838Z</time>
</trkpt>
<trkpt lat="-27.3583205" lon="152.9677538">
<ele>30.214</ele>
<time>2015-12-01T20:42:47.815Z</time>
</trkpt>
<trkpt lat="-27.3581181" lon="152.9681890">
<ele>28.641</ele>
<time>2015-12-01T20:42:50.812Z</time>
</trkpt>
<trkpt lat="-27.3579243" lon="152.9686171">
<ele>27.256</ele>
<time>2015-12-01T20:42:53.827Z</time>
</trkpt>
<trkpt lat="-27.3578045" lon="152.9688792">
<ele>26.056</ele>
<time>2015-12-01T20:42:55.808Z</time>
</trkpt>
<trkpt lat="-27.3576928" lon="152.9691136">
<ele>24.829</ele>
<time>2015-12-01T20:42:57.781Z</time>
</trkpt>
<trkpt lat="-27.3576053" lon="152.9692989">
<ele>23.430</ele>
<time>2015-12-01T20:42:59.670Z</time>
</trkpt>
<trkpt lat="-27.3575565" lon="152.9694042">
<ele>21.782</ele>
<time>2015-12-01T20:43:01.000Z</time>
</trkpt>
<trkpt lat="-27.3575565" lon="152.9694042">
<ele>20.073</ele>
<time>2015-12-01T20:43:05.000Z</time>
</trkpt>
<trkpt lat="-27.3575565" lon="152.9694042">
<ele>19.078</ele>
<time>2015-12-01T20:44:33.013Z</time>
</trkpt>
<trkpt lat="-27.3575374" lon="152.9696059">
<ele>19.375</ele>
<time>2015-12-01T20:44:38.454Z</time>
</trkpt>
<trkpt lat="-27.3577093" lon="152.9697717">
<ele>21.140</ele>
<time>2015-12-01T20:44:41.468Z</time>
</trkpt>
<trkpt lat="-27.3579665" lon="152.9698738">
<ele>24.005</ele>
<time>2015-12-01T20:44:43.805Z</time>
</trkpt>
<trkpt lat="-27.3582880" lon="152.9700282">
<ele>27.131</ele>
<time>2015-12-01T20:44:46.283Z</time>
</trkpt>
<trkpt lat="-27.3588340" lon="152.9704437">
<ele>30.161</ele>
<time>2015-12-01T20:44:50.407Z</time>
</trkpt>
<trkpt lat="-27.3591503" lon="152.9706704">
<ele>32.991</ele>
<time>2015-12-01T20:44:52.522Z</time>
</trkpt>
<trkpt lat="-27.3595863" lon="152.9710282">
<ele>35.025</ele>
<time>2015-12-01T20:44:55.674Z</time>
</trkpt>
<trkpt lat="-27.3598585" lon="152.9712214">
<ele>36.109</ele>
<time>2015-12-01T20:44:57.738Z</time>
</trkpt>
<trkpt lat="-27.3603013" lon="152.9714247">
<ele>36.648</ele>
<time>2015-12-01T20:45:01.801Z</time>
</trkpt>
<trkpt lat="-27.3605198" lon="152.9715740">
<ele>37.024</ele>
<time>2015-12-01T20:45:05.772Z</time>
</trkpt>
<trkpt lat="-27.3607334" lon="152.9716989">
<ele>37.383</ele>
<time>2015-12-01T20:45:09.577Z</time>
</trkpt>
<trkpt lat="-27.3608526" lon="152.9717777">
<ele>37.438</ele>
<time>2015-12-01T20:45:11.349Z</time>
</trkpt>
<trkpt lat="-27.3610153" lon="152.9718810">
<ele>36.950</ele>
<time>2015-12-01T20:45:12.986Z</time>
</trkpt>
<trkpt lat="-27.3612479" lon="152.9720182">
<ele>36.767</ele>
<time>2015-12-01T20:45:14.699Z</time>
</trkpt>
<trkpt lat="-27.3615532" lon="152.9721823">
<ele>38.169</ele>
<time>2015-12-01T20:45:16.606Z</time>
</trkpt>
<trkpt lat="-27.3618872" lon="152.9723688">
<ele>41.351</ele>
<time>2015-12-01T20:45:18.543Z</time>
</trkpt>
<trkpt lat="-27.3623691" lon="152.9727194">
<ele>45.332</ele>
<time>2015-12-01T20:45:21.516Z</time>
</trkpt>
<trkpt lat="-27.3627616" lon="152.9730834">
<ele>48.794</ele>
<time>2015-12-01T20:45:24.238Z</time>
</trkpt>
<trkpt lat="-27.3630276" lon="152.9733411">
<ele>50.901</ele>
<time>2015-12-01T20:45:26.195Z</time>
</trkpt>
<trkpt lat="-27.3634343" lon="152.9736305">
<ele>51.687</ele>
<time>2015-12-01T20:45:28.958Z</time>
</trkpt>
<trkpt lat="-27.3637157" lon="152.9737913">
<ele>51.723</ele>
<time>2015-12-01T20:45:30.930Z</time>
</trkpt>
<trkpt lat="-27.3639683" lon="152.9739237">
<ele>51.524</ele>
<time>2015-12-01T20:45:32.956Z</time>
</trkpt>
<trkpt lat="-27.3641500" lon="152.9740234">
<ele>51.219</ele>
<time>2015-12-01T20:45:35.019Z</time>
</trkpt>
<trkpt lat="-27.3642768" lon="152.9741025">
<ele>50.423</ele>
<time>2015-12-01T20:45:37.000Z</time>
</trkpt>
<trkpt lat="-27.3642768" lon="152.9741025">
<ele>49.108</ele>
<time>2015-12-01T20:45:40.000Z</time>
</trkpt>
<trkpt lat="-27.3642768" lon="152.9741025">
<ele>48.171</ele>
<time>2015-12-01T20:45:53.650Z</time>
</trkpt>
<trkpt lat="-27.3644340" lon="152.9741944">
<ele>48.187</ele>
<time>2015-12-01T20:45:58.031Z</time>
</trkpt>
<trkpt lat="-27.3646966" lon="152.9743991">
<ele>48.652</ele>
<time>2015-12-01T20:46:01.194Z</time>
</trkpt>
<trkpt lat="-27.3649259" lon="152.9745933">
<ele>49.016</ele>
<time>2015-12-01T20:46:03.252Z</time>
</trkpt>
<trkpt lat="-27.3651559" lon="152.9748330">
<ele>49.317</ele>
<time>2015-12-01T20:46:05.347Z</time>
</trkpt>
<trkpt lat="-27.3653755" lon="152.9751008">
<ele>49.694</ele>
<time>2015-12-01T20:46:07.369Z</time>
</trkpt>
<trkpt lat="-27.3655840" lon="152.9753939">
<ele>49.674</ele>
<time>2015-12-01T20:46:09.262Z</time>
</trkpt>
<trkpt lat="-27.3659002" lon="152.9759075">
<ele>48.706</ele>
<time>2015-12-01T20:46:12.232Z</time>
</trkpt>
<trkpt lat="-27.3661169" lon="152.9762590">
<ele>47.039</ele>
<time>2015-12-01T20:46:14.191Z</time>
</trkpt>
<trkpt lat="-27.3664415" lon="152.9767767">
<ele>45.319</ele>
<time>2015-12-01T20:46:17.120Z</time>
</trkpt>
<trkpt lat="-27.3667530" lon="152.9773042">
<ele>44.037</ele>
<time>2015-12-01T20:46:20.114Z</time>
</trkpt>
<trkpt lat="-27.3670457" lon="152.9776728">
<ele>43.480</ele>
<time>2015-12-01T20:46:22.472Z</time>
</trkpt>
<trkpt lat="-27.3673781" lon="152.9781481">
<ele>43.684</ele>
<time>2015-12-01T20:46:25.418Z</time>
</trkpt>
<trkpt lat="-27.3676243" lon="152.9784074">
<ele>44.432</ele>
<time>2015-12-01T20:46:27.355Z</time>
</trkpt>
<trkpt lat="-27.3680336" lon="152.9787264">
<ele>45.253</ele>
<time>2015-12-01T20:46:30.193Z</time>
</trkpt>
<trkpt lat="-27.3685239" lon="152.9790346">
<ele>45.733</ele>
<time>2015-12-01T20:46:33.116Z</time>
</trkpt>
<trkpt lat="-27.3688832" lon="152.9792244">
<ele>45.576</ele>
<time>2015-12-01T20:46:35.019Z</time>
</trkpt>
<trkpt lat="-27.3694476" lon="152.9794996">
<ele>44.602</ele>
<time>2015-12-01T20:46:37.940Z</time>
</trkpt>
<trkpt lat="-27.3698268" lon="152.9796793">
<ele>43.253</ele>
<time>2015-12-01T20:46:39.913Z</time>
</trkpt>
<trkpt lat="-27.3701932" lon="152.9798553">
<ele>42.372</ele>
<time>2015-12-01T20:46:41.847Z</time>
</trkpt>
<trkpt lat="-27.3707487" lon="152.9801171">
<ele>42.448</ele>
<time>2015-12-01T20:46:44.759Z</time>
</trkpt>
<trkpt lat="-27.3711397" lon="152.9802499">
<ele>43.941</ele>
<time>2015-12-01T20:46:46.707Z</time>
</trkpt>
<trkpt lat="-27.3715406" lon="152.9803621">
<ele>46.999</ele>
<time>2015-12-01T20:46:48.677Z</time>
</trkpt>
<trkpt lat="-27.3719441" lon="152.9804254">
<ele>50.721</ele>
<time>2015-12-01T20:46:50.635Z</time>
</trkpt>
<trkpt lat="-27.3725725" lon="152.9804600">
<ele>54.109</ele>
<time>2015-12-01T20:46:53.676Z</time>
</trkpt>
<trkpt lat="-27.3729783" lon="152.9804538">
<ele>56.831</ele>
<time>2015-12-01T20:46:55.643Z</time>
</trkpt>
<trkpt lat="-27.3733853" lon="152.9804356">
<ele>58.642</ele>
<time>2015-12-01T20:46:57.611Z</time>
</trkpt>
<trkpt lat="-27.3739984" lon="152.9804083">
<ele>59.418</ele>
<time>2015-12-01T20:47:00.588Z</time>
</trkpt>
<trkpt lat="-27.3743937" lon="152.9803937">
<ele>59.391</ele>
<time>2015-12-01T20:47:02.551Z</time>
</trkpt>
<trkpt lat="-27.3749772" lon="152.9804035">
<ele>58.643</ele>
<time>2015-12-01T20:47:05.501Z</time>
</trkpt>
<trkpt lat="-27.3753617" lon="152.9804120">
<ele>57.247</ele>
<time>2015-12-01T20:47:07.494Z</time>
</trkpt>
<trkpt lat="-27.3757285" lon="152.9804211">
<ele>55.821</ele>
<time>2015-12-01T20:47:09.474Z</time>
</trkpt>
<trkpt lat="-27.3762562" lon="152.9804591">
<ele>55.313</ele>
<time>2015-12-01T20:47:12.475Z</time>
</trkpt>
<trkpt lat="-27.3767350" lon="152.9805036">
<ele>55.978</ele>
<time>2015-12-01T20:47:15.384Z</time>
</trkpt>
<trkpt lat="-27.3771944" lon="152.9805560">
<ele>57.092</ele>
<time>2015-12-01T20:47:18.334Z</time>
</trkpt>
<trkpt lat="-27.3775511" lon="152.9806331">
<ele>57.761</ele>
<time>2015-12-01T20:47:20.773Z</time>
</trkpt>
<trkpt lat="-27.3777992" lon="152.9806699">
<ele>57.767</ele>
<time>2015-12-01T20:47:22.625Z</time>
</trkpt>
<trkpt lat="-27.3781304" lon="152.9807094">
<ele>57.413</ele>
<time>2015-12-01T20:47:25.564Z</time>
</trkpt>
<trkpt lat="-27.3782487" lon="152.9807293">
<ele>56.527</ele>
<time>2015-12-01T20:47:27.000Z</time>
</trkpt>
<trkpt lat="-27.3782487" lon="152.9807293">
<ele>54.920</ele>
<time>2015-12-01T20:47:32.000Z</time>
</trkpt>
<trkpt lat="-27.3782487" lon="152.9807293">
<ele>53.672</ele>
<time>2015-12-01T20:47:38.782Z</time>
</trkpt>
<trkpt lat="-27.3785042" lon="152.9807754">
<ele>53.683</ele>
<time>2015-12-01T20:47:43.301Z</time>
</trkpt>
<trkpt lat="-27.3788137" lon="152.9808139">
<ele>54.255</ele>
<time>2015-12-01T20:47:45.847Z</time>
</trkpt>
<trkpt lat="-27.3791290" lon="152.9808795">
<ele>54.576</ele>
<time>2015-12-01T20:47:47.976Z</time>
</trkpt>
<trkpt lat="-27.3794717" lon="152.9809432">
<ele>54.652</ele>
<time>2015-12-01T20:47:50.182Z</time>
</trkpt>
<trkpt lat="-27.3799649" lon="152.9811142">
<ele>54.718</ele>
<time>2015-12-01T20:47:53.218Z</time>
</trkpt>
<trkpt lat="-27.3802881" lon="152.9813119">
<ele>54.164</ele>
<time>2015-12-01T20:47:55.231Z</time>
</trkpt>
<trkpt lat="-27.3805937" lon="152.9815248">
<ele>52.322</ele>
<time>2015-12-01T20:47:57.171Z</time>
</trkpt>
<trkpt lat="-27.3808852" lon="152.9817787">
<ele>49.894</ele>
<time>2015-12-01T20:47:59.141Z</time>
</trkpt>
<trkpt lat="-27.3812898" lon="152.9821902">
<ele>47.816</ele>
<time>2015-12-01T20:48:02.043Z</time>
</trkpt>
<trkpt lat="-27.3815541" lon="152.9824725">
<ele>46.177</ele>
<time>2015-12-01T20:48:03.976Z</time>
</trkpt>
<trkpt lat="-27.3818183" lon="152.9827377">
<ele>45.034</ele>
<time>2015-12-01T20:48:05.884Z</time>
</trkpt>
<trkpt lat="-27.3822630" lon="152.9830459">
<ele>44.478</ele>
<time>2015-12-01T20:48:08.738Z</time>
</trkpt>
<trkpt lat="-27.3826075" lon="152.9831961">
<ele>44.615</ele>
<time>2015-12-01T20:48:10.802Z</time>
</trkpt>
<trkpt lat="-27.3831035" lon="152.9833414">
<ele>45.627</ele>
<time>2015-12-01T20:48:13.687Z</time>
</trkpt>
<trkpt lat="-27.3834463" lon="152.9834230">
<ele>47.420</ele>
<time>2015-12-01T20:48:15.629Z</time>
</trkpt>
<trkpt lat="-27.3837590" lon="152.9835029">
<ele>49.712</ele>
<time>2015-12-01T20:48:17.349Z</time>
</trkpt>
<trkpt lat="-27.3841656" lon="152.9836049">
<ele>52.435</ele>
<time>2015-12-01T20:48:19.579Z</time>
</trkpt>
<trkpt lat="-27.3846768" lon="152.9837954">
<ele>55.755</ele>
<time>2015-12-01T20:48:22.566Z</time>
</trkpt>
<trkpt lat="-27.3851017" lon="152.9840859">
<ele>59.368</ele>
<time>2015-12-01T20:48:25.473Z</time>
</trkpt>
<trkpt lat="-27.3855053" lon="152.9844117">
<ele>62.209</ele>
<time>2015-12-01T20:48:28.434Z</time>
</trkpt>
<trkpt lat="-27.3859200" lon="152.9847128">
<ele>63.572</ele>
<time>2015-12-01T20:48:31.345Z</time>
</trkpt>
<trkpt lat="-27.3862504" lon="152.9848148">
<ele>63.707</ele>
<time>2015-12-01T20:48:33.348Z</time>
</trkpt>
<trkpt lat="-27.3865961" lon="152.9848390">
<ele>63.106</ele>
<time>2015-12-01T20:48:35.362Z</time>
</trkpt>
<trkpt lat="-27.3871163" lon="152.9848731">
<ele>62.241</ele>
<time>2015-12-01T20:48:38.403Z</time>
</trkpt>
<trkpt lat="-27.3874385" lon="152.9849024">
<ele>61.293</ele>
<time>2015-12-01T20:48:40.359Z</time>
</trkpt>
<trkpt lat="-27.3877582" lon="152.9849300">
<ele>60.162</ele>
<time>2015-12-01T20:48:42.367Z</time>
</trkpt>
<trkpt lat="-27.3880578" lon="152.9849618">
<ele>59.102</ele>
<time>2015-12-01T20:48:44.307Z</time>
</trkpt>
<trkpt lat="-27.3885060" lon="152.9850444">
<ele>58.649</ele>
<time>2015-12-01T20:48:47.304Z</time>
</trkpt>
<trkpt lat="-27.3889453" lon="152.9851302">
<ele>59.175</ele>
<time>2015-12-01T20:48:50.349Z</time>
</trkpt>
<trkpt lat="-27.3892192" lon="152.9851162">
<ele>60.670</ele>
<time>2015-12-01T20:48:52.313Z</time>
</trkpt>
<trkpt lat="-27.3894365" lon="152.9851360">
<ele>62.504</ele>
<time>2015-12-01T20:48:53.908Z</time>
</trkpt>
<trkpt lat="-27.3897643" lon="152.9851520">
<ele>63.962</ele>
<time>2015-12-01T20:48:56.292Z</time>
</trkpt>
<trkpt lat="-27.3901929" lon="152.9851863">
<ele>65.002</ele>
<time>2015-12-01T20:48:59.391Z</time>
</trkpt>
<trkpt lat="-27.3904529" lon="152.9852077">
<ele>66.159</ele>
<time>2015-12-01T20:49:01.351Z</time>
</trkpt>
<trkpt lat="-27.3907034" lon="152.9852062">
<ele>67.538</ele>
<time>2015-12-01T20:49:03.271Z</time>
</trkpt>
<trkpt lat="-27.3910889" lon="152.9851587">
<ele>68.554</ele>
<time>2015-12-01T20:49:06.200Z</time>
</trkpt>
<trkpt lat="-27.3913692" lon="152.9851196">
<ele>69.038</ele>
<time>2015-12-01T20:49:08.265Z</time>
</trkpt>
<trkpt lat="-27.3917728" lon="152.9850507">
<ele>69.318</ele>
<time>2015-12-01T20:49:11.214Z</time>
</trkpt>
<trkpt lat="-27.3920462" lon="152.9850023">
<ele>69.309</ele>
<time>2015-12-01T20:49:13.149Z</time>
</trkpt>
<trkpt lat="-27.3924777" lon="152.9849765">
<ele>68.659</ele>
<time>2015-12-01T20:49:16.089Z</time>
</trkpt>
<trkpt lat="-27.3927651" lon="152.9850534">
<ele>66.925</ele>
<time>2015-12-01T20:49:18.079Z</time>
</trkpt>
<trkpt lat="-27.3931626" lon="152.9852109">
<ele>63.940</ele>
<time>2015-12-01T20:49:20.950Z</time>
</trkpt>
<trkpt lat="-27.3935597" lon="152.9853819">
<ele>60.497</ele>
<time>2015-12-01T20:49:23.849Z</time>
</trkpt>
<trkpt lat="-27.3938480" lon="152.9855007">
<ele>57.869</ele>
<time>2015-12-01T20:49:25.877Z</time>
</trkpt>
<trkpt lat="-27.3942686" lon="152.9856829">
<ele>57.269</ele>
<time>2015-12-01T20:49:28.825Z</time>
</trkpt>
<trkpt lat="-27.3945454" lon="152.9858034">
<ele>59.248</ele>
<time>2015-12-01T20:49:30.780Z</time>
</trkpt>
<trkpt lat="-27.3948257" lon="152.9859320">
<ele>62.442</ele>
<time>2015-12-01T20:49:32.739Z</time>
</trkpt>
<trkpt lat="-27.3952600" lon="152.9861215">
<ele>64.534</ele>
<time>2015-12-01T20:49:35.659Z</time>
</trkpt>
<trkpt lat="-27.3955842" lon="152.9862645">
<ele>64.323</ele>
<time>2015-12-01T20:49:37.774Z</time>
</trkpt>
<trkpt lat="-27.3959768" lon="152.9864166">
<ele>61.940</ele>
<time>2015-12-01T20:49:40.299Z</time>
</trkpt>
<trkpt lat="-27.3964564" lon="152.9866593">
<ele>58.342</ele>
<time>2015-12-01T20:49:43.696Z</time>
</trkpt>
<trkpt lat="-27.3967056" lon="152.9867769">
<ele>55.054</ele>
<time>2015-12-01T20:49:45.655Z</time>
</trkpt>
<trkpt lat="-27.3969105" lon="152.9868763">
<ele>53.515</ele>
<time>2015-12-01T20:49:47.608Z</time>
</trkpt>
<trkpt lat="-27.3971071" lon="152.9869728">
<ele>53.887</ele>
<time>2015-12-01T20:49:50.000Z</time>
</trkpt>
<trkpt lat="-27.3971071" lon="152.9869728">
<ele>54.999</ele>
<time>2015-12-01T20:49:55.000Z</time>
</trkpt>
<trkpt lat="-27.3971071" lon="152.9869728">
<ele>55.654</ele>
<time>2015-12-01T20:50:14.972Z</time>
</trkpt>
<trkpt lat="-27.3973407" lon="152.9870521">
<ele>55.588</ele>
<time>2015-12-01T20:50:20.599Z</time>
</trkpt>
<trkpt lat="-27.3975089" lon="152.9870868">
<ele>55.703</ele>
<time>2015-12-01T20:50:22.567Z</time>
</trkpt>
<trkpt lat="-27.3977685" lon="152.9870178">
<ele>57.016</ele>
<time>2015-12-01T20:50:25.462Z</time>
</trkpt>
<trkpt lat="-27.3979436" lon="152.9869373">
<ele>59.243</ele>
<time>2015-12-01T20:50:27.498Z</time>
</trkpt>
<trkpt lat="-27.3980915" lon="152.9868196">
<ele>61.240</ele>
<time>2015-12-01T20:50:29.451Z</time>
</trkpt>
<trkpt lat="-27.3983123" lon="152.9866477">
<ele>62.210</ele>
<time>2015-12-01T20:50:32.262Z</time>
</trkpt>
<trkpt lat="-27.3985660" lon="152.9864678">
<ele>61.936</ele>
<time>2015-12-01T20:50:35.183Z</time>
</trkpt>
<trkpt lat="-27.3988541" lon="152.9863001">
<ele>60.668</ele>
<time>2015-12-01T20:50:38.087Z</time>
</trkpt>
<trkpt lat="-27.3990902" lon="152.9862610">
<ele>58.673</ele>
<time>2015-12-01T20:50:40.062Z</time>
</trkpt>
<trkpt lat="-27.3994644" lon="152.9863104">
<ele>56.117</ele>
<time>2015-12-01T20:50:43.276Z</time>
</trkpt>
<trkpt lat="-27.3997435" lon="152.9863670">
<ele>52.969</ele>
<time>2015-12-01T20:50:46.292Z</time>
</trkpt>
<trkpt lat="-27.3998633" lon="152.9863955">
<ele>48.762</ele>
<time>2015-12-01T20:50:48.309Z</time>
</trkpt>
<trkpt lat="-27.3999776" lon="152.9864252">
<ele>43.808</ele>
<time>2015-12-01T20:50:50.892Z</time>
</trkpt>
<trkpt lat="-27.4000774" lon="152.9864458">
<ele>39.632</ele>
<time>2015-12-01T20:50:53.997Z</time>
</trkpt>
<trkpt lat="-27.4001858" lon="152.9864716">
<ele>37.078</ele>
<time>2015-12-01T20:50:58.046Z</time>
</trkpt>
<trkpt lat="-27.4002970" lon="152.9864986">
<ele>35.849</ele>
<time>2015-12-01T20:51:02.061Z</time>
</trkpt>
<trkpt lat="-27.4003899" lon="152.9865233">
<ele>35.416</ele>
<time>2015-12-01T20:51:05.181Z</time>
</trkpt>
<trkpt lat="-27.4004830" lon="152.9865403">
<ele>35.295</ele>
<time>2015-12-01T20:51:08.181Z</time>
</trkpt>
<trkpt lat="-27.4005817" lon="152.9865627">
<ele>35.201</ele>
<time>2015-12-01T20:51:12.000Z</time>
</trkpt>
<trkpt lat="-27.4005817" lon="152.9865627">
<ele>35.060</ele>
<time>2015-12-01T20:51:15.000Z</time>
</trkpt>
<trkpt lat="-27.4005817" lon="152.9865627">
<ele>34.946</ele>
<time>2015-12-01T20:52:01.907Z</time>
</trkpt>
<trkpt lat="-27.4007633" lon="152.9865950">
<ele>34.954</ele>
<time>2015-12-01T20:52:11.759Z</time>
</trkpt>
<trkpt lat="-27.4008633" lon="152.9866232">
<ele>35.424</ele>
<time>2015-12-01T20:52:14.569Z</time>
</trkpt>
<trkpt lat="-27.4009695" lon="152.9866636">
<ele>36.496</ele>
<time>2015-12-01T20:52:17.222Z</time>
</trkpt>
<trkpt lat="-27.4010883" lon="152.9867243">
<ele>37.508</ele>
<time>2015-12-01T20:52:19.909Z</time>
</trkpt>
<trkpt lat="-27.4011818" lon="152.9867725">
<ele>37.859</ele>
<time>2015-12-01T20:52:21.666Z</time>
</trkpt>
<trkpt lat="-27.4013356" lon="152.9868652">
<ele>37.692</ele>
<time>2015-12-01T20:52:24.474Z</time>
</trkpt>
<trkpt lat="-27.4014514" lon="152.9869214">
<ele>37.269</ele>
<time>2015-12-01T20:52:26.356Z</time>
</trkpt>
<trkpt lat="-27.4016980" lon="152.9869677">
<ele>36.741</ele>
<time>2015-12-01T20:52:30.068Z</time>
</trkpt>
<trkpt lat="-27.4018850" lon="152.9869911">
<ele>36.026</ele>
<time>2015-12-01T20:52:32.975Z</time>
</trkpt>
<trkpt lat="-27.4019915" lon="152.9870025">
<ele>34.988</ele>
<time>2015-12-01T20:52:34.861Z</time>
</trkpt>
<trkpt lat="-27.4021207" lon="152.9870134">
<ele>33.831</ele>
<time>2015-12-01T20:52:37.443Z</time>
</trkpt>
<trkpt lat="-27.4022442" lon="152.9870350">
<ele>32.885</ele>
<time>2015-12-01T20:52:40.203Z</time>
</trkpt>
<trkpt lat="-27.4023666" lon="152.9870505">
<ele>32.255</ele>
<time>2015-12-01T20:52:43.000Z</time>
</trkpt>
<trkpt lat="-27.4023666" lon="152.9870505">
<ele>31.952</ele>
<time>2015-12-01T20:52:48.000Z</time>
</trkpt>
<trkpt lat="-27.4023666" lon="152.9870505">
<ele>31.882</ele>
<time>2015-12-01T20:53:36.236Z</time>
</trkpt>
<trkpt lat="-27.4026278" lon="152.9871321">
<ele>31.893</ele>
<time>2015-12-01T20:53:55.724Z</time>
</trkpt>
<trkpt lat="-27.4027107" lon="152.9871801">
<ele>31.843</ele>
<time>2015-12-01T20:53:59.109Z</time>
</trkpt>
<trkpt lat="-27.4028634" lon="152.9872907">
<ele>31.682</ele>
<time>2015-12-01T20:54:05.142Z</time>
</trkpt>
<trkpt lat="-27.4029459" lon="152.9873533">
<ele>31.511</ele>
<time>2015-12-01T20:54:08.581Z</time>
</trkpt>
<trkpt lat="-27.4030167" lon="152.9874192">
<ele>31.430</ele>
<time>2015-12-01T20:54:12.247Z</time>
</trkpt>
<trkpt lat="-27.4031028" lon="152.9874995">
<ele>31.419</ele>
<time>2015-12-01T20:54:16.805Z</time>
</trkpt>
<trkpt lat="-27.4031932" lon="152.9875791">
<ele>31.425</ele>
<time>2015-12-01T20:54:21.480Z</time>
</trkpt>
<trkpt lat="-27.4032713" lon="152.9876495">
<ele>31.402</ele>
<time>2015-12-01T20:54:24.478Z</time>
</trkpt>
<trkpt lat="-27.4033512" lon="152.9877202">
<ele>31.319</ele>
<time>2015-12-01T20:54:26.759Z</time>
</trkpt>
<trkpt lat="-27.4034521" lon="152.9878075">
<ele>31.197</ele>
<time>2015-12-01T20:54:29.792Z</time>
</trkpt>
<trkpt lat="-27.4035400" lon="152.9878840">
<ele>31.044</ele>
<time>2015-12-01T20:54:32.853Z</time>
</trkpt>
<trkpt lat="-27.4036156" lon="152.9879520">
<ele>30.862</ele>
<time>2015-12-01T20:54:36.083Z</time>
</trkpt>
<trkpt lat="-27.4036903" lon="152.9880182">
<ele>30.654</ele>
<time>2015-12-01T20:54:40.069Z</time>
</trkpt>
<trkpt lat="-27.4038296" lon="152.9881405">
<ele>30.432</ele>
<time>2015-12-01T20:54:48.826Z</time>
</trkpt>
<trkpt lat="-27.4039071" lon="152.9882033">
<ele>30.193</ele>
<time>2015-12-01T20:54:53.570Z</time>
</trkpt>
<trkpt lat="-27.4039810" lon="152.9882629">
<ele>29.948</ele>
<time>2015-12-01T20:54:58.000Z</time>
</trkpt>
<trkpt lat="-27.4039810" lon="152.9882629">
<ele>29.744</ele>
<time>2015-12-01T20:55:02.000Z</time>
</trkpt>
<trkpt lat="-27.4039810" lon="152.9882629">
<ele>29.648</ele>
<time>2015-12-01T20:55:17.140Z</time>
</trkpt>
<trkpt lat="-27.4041640" lon="152.9884148">
<ele>29.646</ele>
<time>2015-12-01T20:55:35.322Z</time>
</trkpt>
<trkpt lat="-27.4042461" lon="152.9884805">
<ele>29.625</ele>
<time>2015-12-01T20:55:38.252Z</time>
</trkpt>
<trkpt lat="-27.4043280" lon="152.9885407">
<ele>29.500</ele>
<time>2015-12-01T20:55:40.208Z</time>
</trkpt>
<trkpt lat="-27.4044647" lon="152.9886533">
<ele>29.345</ele>
<time>2015-12-01T20:55:43.023Z</time>
</trkpt>
<trkpt lat="-27.4045569" lon="152.9887450">
<ele>29.294</ele>
<time>2015-12-01T20:55:44.856Z</time>
</trkpt>
<trkpt lat="-27.4046745" lon="152.9889303">
<ele>29.389</ele>
<time>2015-12-01T20:55:48.058Z</time>
</trkpt>
<trkpt lat="-27.4047935" lon="152.9891352">
<ele>29.530</ele>
<time>2015-12-01T20:55:52.158Z</time>
</trkpt>
<trkpt lat="-27.4048423" lon="152.9892321">
<ele>29.517</ele>
<time>2015-12-01T20:55:54.470Z</time>
</trkpt>
<trkpt lat="-27.4049097" lon="152.9893452">
<ele>29.253</ele>
<time>2015-12-01T20:55:57.176Z</time>
</trkpt>
<trkpt lat="-27.4049929" lon="152.9894935">
<ele>28.881</ele>
<time>2015-12-01T20:56:00.332Z</time>
</trkpt>
<trkpt lat="-27.4050692" lon="152.9896131">
<ele>28.620</ele>
<time>2015-12-01T20:56:03.082Z</time>
</trkpt>
<trkpt lat="-27.4051407" lon="152.9897244">
<ele>28.561</ele>
<time>2015-12-01T20:56:05.855Z</time>
</trkpt>
<trkpt lat="-27.4052095" lon="152.9898234">
<ele>28.608</ele>
<time>2015-12-01T20:56:08.688Z</time>
</trkpt>
<trkpt lat="-27.4052758" lon="152.9899113">
<ele>28.609</ele>
<time>2015-12-01T20:56:12.000Z</time>
</trkpt>
<trkpt lat="-27.4052758" lon="152.9899113">
<ele>28.538</ele>
<time>2015-12-01T20:56:15.000Z</time>
</trkpt>
<trkpt lat="-27.4052758" lon="152.9899113">
<ele>28.482</ele>
<time>2015-12-01T20:56:32.457Z</time>
</trkpt>
<trkpt lat="-27.4054091" lon="152.9900928">
<ele>28.482</ele>
<time>2015-12-01T20:56:54.000Z</time>
</trkpt>
<trkpt lat="-27.4054091" lon="152.9900928">
<ele>28.512</ele>
<time>2015-12-01T20:57:05.000Z</time>
</trkpt>
<trkpt lat="-27.4054091" lon="152.9900928">
<ele>28.523</ele>
<time>2015-12-01T20:57:09.200Z</time>
</trkpt>
<trkpt lat="-27.4055087" lon="152.9902165">
<ele>28.507</ele>
<time>2015-12-01T20:57:19.350Z</time>
</trkpt>
<trkpt lat="-27.4055730" lon="152.9902977">
<ele>28.487</ele>
<time>2015-12-01T20:57:23.465Z</time>
</trkpt>
<trkpt lat="-27.4056456" lon="152.9903877">
<ele>28.502</ele>
<time>2015-12-01T20:57:26.666Z</time>
</trkpt>
<trkpt lat="-27.4057137" lon="152.9904787">
<ele>28.578</ele>
<time>2015-12-01T20:57:28.676Z</time>
</trkpt>
<trkpt lat="-27.4057914" lon="152.9905734">
<ele>28.694</ele>
<time>2015-12-01T20:57:30.373Z</time>
</trkpt>
<trkpt lat="-27.4059424" lon="152.9907187">
<ele>28.841</ele>
<time>2015-12-01T20:57:33.003Z</time>
</trkpt>
<trkpt lat="-27.4061335" lon="152.9908043">
<ele>29.028</ele>
<time>2015-12-01T20:57:35.332Z</time>
</trkpt>
<trkpt lat="-27.4063227" lon="152.9908438">
<ele>29.206</ele>
<time>2015-12-01T20:57:37.353Z</time>
</trkpt>
<trkpt lat="-27.4064957" lon="152.9908689">
<ele>29.333</ele>
<time>2015-12-01T20:57:39.220Z</time>
</trkpt>
<trkpt lat="-27.4066581" lon="152.9908871">
<ele>29.414</ele>
<time>2015-12-01T20:57:41.309Z</time>
</trkpt>
<trkpt lat="-27.4068213" lon="152.9909050">
<ele>29.355</ele>
<time>2015-12-01T20:57:44.035Z</time>
</trkpt>
<trkpt lat="-27.4069182" lon="152.9909214">
<ele>28.979</ele>
<time>2015-12-01T20:57:46.385Z</time>
</trkpt>
<trkpt lat="-27.4070240" lon="152.9909436">
<ele>28.372</ele>
<time>2015-12-01T20:57:50.000Z</time>
</trkpt>
<trkpt lat="-27.4070240" lon="152.9909436">
<ele>27.889</ele>
<time>2015-12-01T20:57:54.000Z</time>
</trkpt>
<trkpt lat="-27.4070240" lon="152.9909436">
<ele>27.709</ele>
<time>2015-12-01T20:58:07.419Z</time>
</trkpt>
<trkpt lat="-27.4071989" lon="152.9909719">
<ele>27.794</ele>
<time>2015-12-01T20:58:13.659Z</time>
</trkpt>
<trkpt lat="-27.4071353" lon="152.9912227">
<ele>28.052</ele>
<time>2015-12-01T20:58:16.318Z</time>
</trkpt>
<trkpt lat="-27.4071004" lon="152.9914899">
<ele>28.492</ele>
<time>2015-12-01T20:58:18.316Z</time>
</trkpt>
<trkpt lat="-27.4070329" lon="152.9917967">
<ele>29.311</ele>
<time>2015-12-01T20:58:20.410Z</time>
</trkpt>
<trkpt lat="-27.4069688" lon="152.9921527">
<ele>30.543</ele>
<time>2015-12-01T20:58:22.579Z</time>
</trkpt>
<trkpt lat="-27.4069615" lon="152.9926550">
<ele>31.768</ele>
<time>2015-12-01T20:58:25.354Z</time>
</trkpt>
<trkpt lat="-27.4070123" lon="152.9930065">
<ele>32.502</ele>
<time>2015-12-01T20:58:27.265Z</time>
</trkpt>
<trkpt lat="-27.4070955" lon="152.9935340">
<ele>32.661</ele>
<time>2015-12-01T20:58:30.143Z</time>
</trkpt>
<trkpt lat="-27.4071712" lon="152.9940675">
<ele>32.483</ele>
<time>2015-12-01T20:58:33.063Z</time>
</trkpt>
<trkpt lat="-27.4072452" lon="152.9945905">
<ele>32.142</ele>
<time>2015-12-01T20:58:35.920Z</time>
</trkpt>
<trkpt lat="-27.4073246" lon="152.9951136">
<ele>31.765</ele>
<time>2015-12-01T20:58:38.710Z</time>
</trkpt>
<trkpt lat="-27.4074140" lon="152.9956654">
<ele>31.605</ele>
<time>2015-12-01T20:58:41.581Z</time>
</trkpt>
<trkpt lat="-27.4074766" lon="152.9962188">
<ele>31.786</ele>
<time>2015-12-01T20:58:44.441Z</time>
</trkpt>
<trkpt lat="-27.4074791" lon="152.9965710">
<ele>32.214</ele>
<time>2015-12-01T20:58:46.382Z</time>
</trkpt>
<trkpt lat="-27.4074109" lon="152.9970082">
<ele>32.894</ele>
<time>2015-12-01T20:58:49.032Z</time>
</trkpt>
<trkpt lat="-27.4073668" lon="152.9972779">
<ele>33.815</ele>
<time>2015-12-01T20:58:51.028Z</time>
</trkpt>
<trkpt lat="-27.4073147" lon="152.9975969">
<ele>34.739</ele>
<time>2015-12-01T20:58:53.973Z</time>
</trkpt>
<trkpt lat="-27.4072810" lon="152.9978099">
<ele>35.405</ele>
<time>2015-12-01T20:58:56.955Z</time>
</trkpt>
<trkpt lat="-27.4072663" lon="152.9979132">
<ele>35.818</ele>
<time>2015-12-01T20:58:59.438Z</time>
</trkpt>
<trkpt lat="-27.4072536" lon="152.9980154">
<ele>36.189</ele>
<time>2015-12-01T20:59:05.000Z</time>
</trkpt>
<trkpt lat="-27.4072536" lon="152.9980154">
<ele>36.555</ele>
<time>2015-12-01T20:59:06.000Z</time>
</trkpt>
<trkpt lat="-27.4072536" lon="152.9980154">
<ele>36.742</ele>
<time>2015-12-01T20:59:40.642Z</time>
</trkpt>
<trkpt lat="-27.4072086" lon="152.9982328">
<ele>36.710</ele>
<time>2015-12-01T20:59:45.415Z</time>
</trkpt>
<trkpt lat="-27.4072205" lon="152.9985111">
<ele>36.803</ele>
<time>2015-12-01T20:59:48.557Z</time>
</trkpt>
<trkpt lat="-27.4072940" lon="152.9987038">
<ele>37.552</ele>
<time>2015-12-01T20:59:50.389Z</time>
</trkpt>
<trkpt lat="-27.4074086" lon="152.9989278">
<ele>39.005</ele>
<time>2015-12-01T20:59:52.334Z</time>
</trkpt>
<trkpt lat="-27.4076259" lon="152.9993487">
<ele>40.778</ele>
<time>2015-12-01T20:59:55.592Z</time>
</trkpt>
<trkpt lat="-27.4078611" lon="152.9998053">
<ele>42.916</ele>
<time>2015-12-01T20:59:58.807Z</time>
</trkpt>
<trkpt lat="-27.4080078" lon="153.0000867">
<ele>45.266</ele>
<time>2015-12-01T21:00:00.813Z</time>
</trkpt>
<trkpt lat="-27.4081666" lon="153.0005231">
<ele>47.018</ele>
<time>2015-12-01T21:00:03.703Z</time>
</trkpt>
<trkpt lat="-27.4082202" lon="153.0008620">
<ele>47.695</ele>
<time>2015-12-01T21:00:05.721Z</time>
</trkpt>
<trkpt lat="-27.4082705" lon="153.0012099">
<ele>47.387</ele>
<time>2015-12-01T21:00:07.755Z</time>
</trkpt>
<trkpt lat="-27.4083205" lon="153.0015319">
<ele>46.366</ele>
<time>2015-12-01T21:00:09.589Z</time>
</trkpt>
<trkpt lat="-27.4083956" lon="153.0020693">
<ele>45.171</ele>
<time>2015-12-01T21:00:12.579Z</time>
</trkpt>
<trkpt lat="-27.4084761" lon="153.0026188">
<ele>44.063</ele>
<time>2015-12-01T21:00:15.619Z</time>
</trkpt>
<trkpt lat="-27.4085590" lon="153.0031447">
<ele>42.761</ele>
<time>2015-12-01T21:00:18.610Z</time>
</trkpt>
<trkpt lat="-27.4086103" lon="153.0034799">
<ele>40.915</ele>
<time>2015-12-01T21:00:20.555Z</time>
</trkpt>
<trkpt lat="-27.4086830" lon="153.0039959">
<ele>38.533</ele>
<time>2015-12-01T21:00:23.549Z</time>
</trkpt>
<trkpt lat="-27.4087329" lon="153.0043321">
<ele>36.182</ele>
<time>2015-12-01T21:00:25.575Z</time>
</trkpt>
<trkpt lat="-27.4088036" lon="153.0048117">
<ele>34.513</ele>
<time>2015-12-01T21:00:28.618Z</time>
</trkpt>
<trkpt lat="-27.4088712" lon="153.0052558">
<ele>33.357</ele>
<time>2015-12-01T21:00:31.751Z</time>
</trkpt>
<trkpt lat="-27.4089334" lon="153.0056446">
<ele>32.109</ele>
<time>2015-12-01T21:00:34.981Z</time>
</trkpt>
<trkpt lat="-27.4089620" lon="153.0058467">
<ele>30.606</ele>
<time>2015-12-01T21:00:37.377Z</time>
</trkpt>
<trkpt lat="-27.4089850" lon="153.0060558">
<ele>28.854</ele>
<time>2015-12-01T21:00:40.772Z</time>
</trkpt>
<trkpt lat="-27.4090030" lon="153.0061854">
<ele>26.692</ele>
<time>2015-12-01T21:00:43.110Z</time>
</trkpt>
<trkpt lat="-27.4090168" lon="153.0063113">
<ele>24.280</ele>
<time>2015-12-01T21:00:44.775Z</time>
</trkpt>
<trkpt lat="-27.4090429" lon="153.0064820">
<ele>22.324</ele>
<time>2015-12-01T21:00:46.712Z</time>
</trkpt>
<trkpt lat="-27.4090852" lon="153.0068022">
<ele>21.460</ele>
<time>2015-12-01T21:00:49.869Z</time>
</trkpt>
<trkpt lat="-27.4091283" lon="153.0071031">
<ele>21.565</ele>
<time>2015-12-01T21:00:53.151Z</time>
</trkpt>
<trkpt lat="-27.4091583" lon="153.0073295">
<ele>21.851</ele>
<time>2015-12-01T21:00:56.126Z</time>
</trkpt>
<trkpt lat="-27.4091746" lon="153.0074628">
<ele>21.554</ele>
<time>2015-12-01T21:00:57.659Z</time>
</trkpt>
<trkpt lat="-27.4092093" lon="153.0077110">
<ele>20.715</ele>
<time>2015-12-01T21:01:00.176Z</time>
</trkpt>
<trkpt lat="-27.4092500" lon="153.0080131">
<ele>20.108</ele>
<time>2015-12-01T21:01:02.763Z</time>
</trkpt>
<trkpt lat="-27.4093006" lon="153.0083655">
<ele>20.184</ele>
<time>2015-12-01T21:01:05.834Z</time>
</trkpt>
<trkpt lat="-27.4093322" lon="153.0085808">
<ele>20.598</ele>
<time>2015-12-01T21:01:07.946Z</time>
</trkpt>
<trkpt lat="-27.4093555" lon="153.0087665">
<ele>20.810</ele>
<time>2015-12-01T21:01:09.965Z</time>
</trkpt>
<trkpt lat="-27.4093876" lon="153.0090272">
<ele>20.567</ele>
<time>2015-12-01T21:01:12.982Z</time>
</trkpt>
<trkpt lat="-27.4094096" lon="153.0091863">
<ele>20.006</ele>
<time>2015-12-01T21:01:14.991Z</time>
</trkpt>
<trkpt lat="-27.4094323" lon="153.0093355">
<ele>19.407</ele>
<time>2015-12-01T21:01:16.907Z</time>
</trkpt>
<trkpt lat="-27.4094537" lon="153.0094971">
<ele>18.912</ele>
<time>2015-12-01T21:01:19.005Z</time>
</trkpt>
<trkpt lat="-27.4094745" lon="153.0096539">
<ele>18.615</ele>
<time>2015-12-01T21:01:21.265Z</time>
</trkpt>
<trkpt lat="-27.4094959" lon="153.0097853">
<ele>18.489</ele>
<time>2015-12-01T21:01:23.670Z</time>
</trkpt>
<trkpt lat="-27.4095124" lon="153.0099205">
<ele>18.364</ele>
<time>2015-12-01T21:01:26.502Z</time>
</trkpt>
<trkpt lat="-27.4095357" lon="153.0100555">
<ele>18.160</ele>
<time>2015-12-01T21:01:29.086Z</time>
</trkpt>
<trkpt lat="-27.4095604" lon="153.0102243">
<ele>17.939</ele>
<time>2015-12-01T21:01:31.600Z</time>
</trkpt>
<trkpt lat="-27.4095850" lon="153.0104099">
<ele>17.799</ele>
<time>2015-12-01T21:01:33.458Z</time>
</trkpt>
<trkpt lat="-27.4096330" lon="153.0107609">
<ele>17.895</ele>
<time>2015-12-01T21:01:36.435Z</time>
</trkpt>
<trkpt lat="-27.4096834" lon="153.0111629">
<ele>18.469</ele>
<time>2015-12-01T21:01:39.391Z</time>
</trkpt>
<trkpt lat="-27.4097205" lon="153.0114514">
<ele>19.452</ele>
<time>2015-12-01T21:01:41.338Z</time>
</trkpt>
<trkpt lat="-27.4097905" lon="153.0119012">
<ele>20.380</ele>
<time>2015-12-01T21:01:44.337Z</time>
</trkpt>
<trkpt lat="-27.4098391" lon="153.0121858">
<ele>20.952</ele>
<time>2015-12-01T21:01:46.323Z</time>
</trkpt>
<trkpt lat="-27.4098792" lon="153.0124561">
<ele>21.197</ele>
<time>2015-12-01T21:01:48.374Z</time>
</trkpt>
<trkpt lat="-27.4099102" lon="153.0126949">
<ele>21.129</ele>
<time>2015-12-01T21:01:50.333Z</time>
</trkpt>
<trkpt lat="-27.4099357" lon="153.0129241">
<ele>20.812</ele>
<time>2015-12-01T21:01:52.335Z</time>
</trkpt>
<trkpt lat="-27.4099820" lon="153.0132562">
<ele>20.384</ele>
<time>2015-12-01T21:01:55.350Z</time>
</trkpt>
<trkpt lat="-27.4100167" lon="153.0135817">
<ele>19.970</ele>
<time>2015-12-01T21:01:58.352Z</time>
</trkpt>
<trkpt lat="-27.4100466" lon="153.0138055">
<ele>19.824</ele>
<time>2015-12-01T21:02:00.877Z</time>
</trkpt>
<trkpt lat="-27.4100849" lon="153.0140617">
<ele>20.093</ele>
<time>2015-12-01T21:02:04.220Z</time>
</trkpt>
<trkpt lat="-27.4101061" lon="153.0142663">
<ele>20.245</ele>
<time>2015-12-01T21:02:07.075Z</time>
</trkpt>
<trkpt lat="-27.4101290" lon="153.0144251">
<ele>19.853</ele>
<time>2015-12-01T21:02:09.069Z</time>
</trkpt>
<trkpt lat="-27.4101495" lon="153.0145878">
<ele>19.283</ele>
<time>2015-12-01T21:02:11.185Z</time>
</trkpt>
<trkpt lat="-27.4101768" lon="153.0147761">
<ele>18.926</ele>
<time>2015-12-01T21:02:13.780Z</time>
</trkpt>
<trkpt lat="-27.4102100" lon="153.0149913">
<ele>18.671</ele>
<time>2015-12-01T21:02:16.701Z</time>
</trkpt>
<trkpt lat="-27.4102332" lon="153.0151695">
<ele>18.406</ele>
<time>2015-12-01T21:02:18.681Z</time>
</trkpt>
<trkpt lat="-27.4102604" lon="153.0153886">
<ele>18.252</ele>
<time>2015-12-01T21:02:20.728Z</time>
</trkpt>
<trkpt lat="-27.4103105" lon="153.0157448">
<ele>18.385</ele>
<time>2015-12-01T21:02:23.895Z</time>
</trkpt>
<trkpt lat="-27.4103277" lon="153.0158919">
<ele>18.802</ele>
<time>2015-12-01T21:02:25.286Z</time>
</trkpt>
<trkpt lat="-27.4103537" lon="153.0161278">
<ele>19.282</ele>
<time>2015-12-01T21:02:27.983Z</time>
</trkpt>
<trkpt lat="-27.4103782" lon="153.0163259">
<ele>19.558</ele>
<time>2015-12-01T21:02:31.198Z</time>
</trkpt>
<trkpt lat="-27.4103942" lon="153.0164376">
<ele>19.566</ele>
<time>2015-12-01T21:02:33.999Z</time>
</trkpt>
<trkpt lat="-27.4103942" lon="153.0164376">
<ele>19.435</ele>
<time>2015-12-01T21:02:35.999Z</time>
</trkpt>
<trkpt lat="-27.4103942" lon="153.0164376">
<ele>19.335</ele>
<time>2015-12-01T21:04:07.585Z</time>
</trkpt>
<trkpt lat="-27.4104407" lon="153.0166869">
<ele>19.348</ele>
<time>2015-12-01T21:04:12.328Z</time>
</trkpt>
<trkpt lat="-27.4104824" lon="153.0170376">
<ele>19.499</ele>
<time>2015-12-01T21:04:15.549Z</time>
</trkpt>
<trkpt lat="-27.4105207" lon="153.0173159">
<ele>19.853</ele>
<time>2015-12-01T21:04:17.592Z</time>
</trkpt>
<trkpt lat="-27.4105871" lon="153.0177888">
<ele>20.343</ele>
<time>2015-12-01T21:04:20.839Z</time>
</trkpt>
<trkpt lat="-27.4106553" lon="153.0182458">
<ele>20.708</ele>
<time>2015-12-01T21:04:23.878Z</time>
</trkpt>
<trkpt lat="-27.4107010" lon="153.0185275">
<ele>20.730</ele>
<time>2015-12-01T21:04:25.805Z</time>
</trkpt>
<trkpt lat="-27.4107360" lon="153.0188079">
<ele>20.465</ele>
<time>2015-12-01T21:04:27.769Z</time>
</trkpt>
<trkpt lat="-27.4107924" lon="153.0192258">
<ele>20.257</ele>
<time>2015-12-01T21:04:30.672Z</time>
</trkpt>
<trkpt lat="-27.4108515" lon="153.0196650">
<ele>20.333</ele>
<time>2015-12-01T21:04:33.583Z</time>
</trkpt>
<trkpt lat="-27.4109025" lon="153.0201541">
<ele>20.521</ele>
<time>2015-12-01T21:04:36.672Z</time>
</trkpt>
<trkpt lat="-27.4109350" lon="153.0204739">
<ele>20.611</ele>
<time>2015-12-01T21:04:38.655Z</time>
</trkpt>
<trkpt lat="-27.4109797" lon="153.0207952">
<ele>20.375</ele>
<time>2015-12-01T21:04:40.630Z</time>
</trkpt>
<trkpt lat="-27.4110177" lon="153.0211308">
<ele>19.727</ele>
<time>2015-12-01T21:04:42.711Z</time>
</trkpt>
<trkpt lat="-27.4110864" lon="153.0215973">
<ele>19.065</ele>
<time>2015-12-01T21:04:45.658Z</time>
</trkpt>
<trkpt lat="-27.4111339" lon="153.0219384">
<ele>18.916</ele>
<time>2015-12-01T21:04:47.808Z</time>
</trkpt>
<trkpt lat="-27.4111717" lon="153.0222644">
<ele>19.511</ele>
<time>2015-12-01T21:04:49.842Z</time>
</trkpt>
<trkpt lat="-27.4112144" lon="153.0225890">
<ele>20.680</ele>
<time>2015-12-01T21:04:51.843Z</time>
</trkpt>
<trkpt lat="-27.4112829" lon="153.0230823">
<ele>21.852</ele>
<time>2015-12-01T21:04:54.812Z</time>
</trkpt>
<trkpt lat="-27.4113335" lon="153.0234205">
<ele>22.599</ele>
<time>2015-12-01T21:04:56.821Z</time>
</trkpt>
<trkpt lat="-27.4113828" lon="153.0237548">
<ele>22.927</ele>
<time>2015-12-01T21:04:58.793Z</time>
</trkpt>
<trkpt lat="-27.4114273" lon="153.0240954">
<ele>23.223</ele>
<time>2015-12-01T21:05:00.863Z</time>
</trkpt>
<trkpt lat="-27.4114892" lon="153.0245711">
<ele>24.082</ele>
<time>2015-12-01T21:05:03.849Z</time>
</trkpt>
<trkpt lat="-27.4115284" lon="153.0248841">
<ele>25.499</ele>
<time>2015-12-01T21:05:05.820Z</time>
</trkpt>
<trkpt lat="-27.4115707" lon="153.0251985">
<ele>26.891</ele>
<time>2015-12-01T21:05:07.787Z</time>
</trkpt>
<trkpt lat="-27.4116319" lon="153.0256834">
<ele>28.230</ele>
<time>2015-12-01T21:05:10.807Z</time>
</trkpt>
<trkpt lat="-27.4116923" lon="153.0261768">
<ele>29.748</ele>
<time>2015-12-01T21:05:13.858Z</time>
</trkpt>
<trkpt lat="-27.4117298" lon="153.0264971">
<ele>31.217</ele>
<time>2015-12-01T21:05:15.872Z</time>
</trkpt>
<trkpt lat="-27.4117683" lon="153.0268100">
<ele>32.319</ele>
<time>2015-12-01T21:05:17.866Z</time>
</trkpt>
<trkpt lat="-27.4118114" lon="153.0271261">
<ele>32.871</ele>
<time>2015-12-01T21:05:19.832Z</time>
</trkpt>
<trkpt lat="-27.4118532" lon="153.0274523">
<ele>32.867</ele>
<time>2015-12-01T21:05:21.790Z</time>
</trkpt>
<trkpt lat="-27.4118956" lon="153.0278024">
<ele>32.553</ele>
<time>2015-12-01T21:05:23.873Z</time>
</trkpt>
<trkpt lat="-27.4119568" lon="153.0282995">
<ele>32.168</ele>
<time>2015-12-01T21:05:26.849Z</time>
</trkpt>
<trkpt lat="-27.4120162" lon="153.0287797">
<ele>31.569</ele>
<time>2015-12-01T21:05:29.776Z</time>
</trkpt>
<trkpt lat="-27.4120528" lon="153.0291092">
<ele>30.344</ele>
<time>2015-12-01T21:05:31.828Z</time>
</trkpt>
<trkpt lat="-27.4121152" lon="153.0295770">
<ele>28.392</ele>
<time>2015-12-01T21:05:34.776Z</time>
</trkpt>
<trkpt lat="-27.4121554" lon="153.0298899">
<ele>26.018</ele>
<time>2015-12-01T21:05:36.713Z</time>
</trkpt>
<trkpt lat="-27.4122127" lon="153.0303824">
<ele>23.826</ele>
<time>2015-12-01T21:05:39.710Z</time>
</trkpt>
<trkpt lat="-27.4122376" lon="153.0306901">
<ele>22.105</ele>
<time>2015-12-01T21:05:41.543Z</time>
</trkpt>
<trkpt lat="-27.4122545" lon="153.0310545">
<ele>20.374</ele>
<time>2015-12-01T21:05:43.685Z</time>
</trkpt>
<trkpt lat="-27.4122784" lon="153.0315673">
<ele>18.273</ele>
<time>2015-12-01T21:05:46.686Z</time>
</trkpt>
<trkpt lat="-27.4123055" lon="153.0318873">
<ele>15.881</ele>
<time>2015-12-01T21:05:48.603Z</time>
</trkpt>
<trkpt lat="-27.4123327" lon="153.0322046">
<ele>13.284</ele>
<time>2015-12-01T21:05:50.562Z</time>
</trkpt>
<trkpt lat="-27.4123715" lon="153.0326728">
<ele>10.660</ele>
<time>2015-12-01T21:05:53.500Z</time>
</trkpt>
<trkpt lat="-27.4124194" lon="153.0329804">
<ele>7.901</ele>
<time>2015-12-01T21:05:55.507Z</time>
</trkpt>
<trkpt lat="-27.4126587" lon="153.0337034">
<ele>3.073</ele>
<time>2015-12-01T21:06:00.229Z</time>
</trkpt>
<trkpt lat="-27.4126587" lon="153.0337034">
<ele>3.073</ele>
<time>2015-12-01T21:06:00.229Z</time>
</trkpt>
<trkpt lat="-27.4440493" lon="153.0319486">
<ele>10.552</ele>
<time>2015-12-01T21:09:07.051Z</time>
</trkpt>
<trkpt lat="-27.4444316" lon="153.0321000">
<ele>10.547</ele>
<time>2015-12-01T21:09:09.121Z</time>
</trkpt>
<trkpt lat="-27.4449947" lon="153.0323461">
<ele>10.494</ele>
<time>2015-12-01T21:09:12.278Z</time>
</trkpt>
<trkpt lat="-27.4455425" lon="153.0325841">
<ele>10.352</ele>
<time>2015-12-01T21:09:15.363Z</time>
</trkpt>
<trkpt lat="-27.4458905" lon="153.0327316">
<ele>10.155</ele>
<time>2015-12-01T21:09:17.271Z</time>
</trkpt>
<trkpt lat="-27.4464824" lon="153.0328570">
<ele>10.003</ele>
<time>2015-12-01T21:09:20.365Z</time>
</trkpt>
<trkpt lat="-27.4468680" lon="153.0328569">
<ele>9.931</ele>
<time>2015-12-01T21:09:22.388Z</time>
</trkpt>
<trkpt lat="-27.4472521" lon="153.0328116">
<ele>9.868</ele>
<time>2015-12-01T21:09:24.386Z</time>
</trkpt>
<trkpt lat="-27.4476342" lon="153.0327681">
<ele>9.705</ele>
<time>2015-12-01T21:09:26.354Z</time>
</trkpt>
<trkpt lat="-27.4480036" lon="153.0327452">
<ele>8.951</ele>
<time>2015-12-01T21:09:28.251Z</time>
</trkpt>
<trkpt lat="-27.4480036" lon="153.0327452">
<ele>8.951</ele>
<time>2015-12-01T21:09:28.251Z</time>
</trkpt>
<trkpt lat="-27.4934420" lon="153.0357921">
<ele>18.578</ele>
<time>2015-12-01T21:13:21.544Z</time>
</trkpt>
<trkpt lat="-27.4937278" lon="153.0361217">
<ele>18.570</ele>
<time>2015-12-01T21:13:23.534Z</time>
</trkpt>
<trkpt lat="-27.4940342" lon="153.0364387">
<ele>18.629</ele>
<time>2015-12-01T21:13:25.541Z</time>
</trkpt>
<trkpt lat="-27.4943551" lon="153.0367374">
<ele>18.863</ele>
<time>2015-12-01T21:13:27.541Z</time>
</trkpt>
<trkpt lat="-27.4946888" lon="153.0370209">
<ele>19.268</ele>
<time>2015-12-01T21:13:29.549Z</time>
</trkpt>
<trkpt lat="-27.4952120" lon="153.0374116">
<ele>19.755</ele>
<time>2015-12-01T21:13:32.559Z</time>
</trkpt>
<trkpt lat="-27.4955633" lon="153.0376655">
<ele>20.384</ele>
<time>2015-12-01T21:13:34.549Z</time>
</trkpt>
<trkpt lat="-27.4961112" lon="153.0380403">
<ele>21.180</ele>
<time>2015-12-01T21:13:37.540Z</time>
</trkpt>
<trkpt lat="-27.4966821" lon="153.0384708">
<ele>21.899</ele>
<time>2015-12-01T21:13:40.629Z</time>
</trkpt>
<trkpt lat="-27.4972475" lon="153.0388775">
<ele>22.329</ele>
<time>2015-12-01T21:13:43.614Z</time>
</trkpt>
<trkpt lat="-27.4976284" lon="153.0391360">
<ele>22.502</ele>
<time>2015-12-01T21:13:45.597Z</time>
</trkpt>
<trkpt lat="-27.4982455" lon="153.0394702">
<ele>22.410</ele>
<time>2015-12-01T21:13:48.631Z</time>
</trkpt>
<trkpt lat="-27.4986678" lon="153.0396455">
<ele>22.086</ele>
<time>2015-12-01T21:13:50.621Z</time>
</trkpt>
<trkpt lat="-27.4991038" lon="153.0397708">
<ele>21.744</ele>
<time>2015-12-01T21:13:52.616Z</time>
</trkpt>
<trkpt lat="-27.4997709" lon="153.0398861">
<ele>21.256</ele>
<time>2015-12-01T21:13:55.626Z</time>
</trkpt>
<trkpt lat="-27.5002122" lon="153.0398995">
<ele>19.850</ele>
<time>2015-12-01T21:13:57.593Z</time>
</trkpt>
<trkpt lat="-27.5008989" lon="153.0398470">
<ele>17.537</ele>
<time>2015-12-01T21:14:00.620Z</time>
</trkpt>
<trkpt lat="-27.5013470" lon="153.0397691">
<ele>15.498</ele>
<time>2015-12-01T21:14:02.604Z</time>
</trkpt>
<trkpt lat="-27.5020291" lon="153.0396379">
<ele>14.423</ele>
<time>2015-12-01T21:14:05.678Z</time>
</trkpt>
<trkpt lat="-27.5024276" lon="153.0395802">
<ele>13.977</ele>
<time>2015-12-01T21:14:07.512Z</time>
</trkpt>
<trkpt lat="-27.5030747" lon="153.0394584">
<ele>13.784</ele>
<time>2015-12-01T21:14:10.516Z</time>
</trkpt>
<trkpt lat="-27.5037804" lon="153.0393290">
<ele>13.802</ele>
<time>2015-12-01T21:14:13.634Z</time>
</trkpt>
<trkpt lat="-27.5044914" lon="153.0392023">
<ele>14.564</ele>
<time>2015-12-01T21:14:16.657Z</time>
</trkpt>
<trkpt lat="-27.5049608" lon="153.0391138">
<ele>16.279</ele>
<time>2015-12-01T21:14:18.656Z</time>
</trkpt>
<trkpt lat="-27.5054146" lon="153.0390333">
<ele>18.034</ele>
<time>2015-12-01T21:14:20.614Z</time>
</trkpt>
<trkpt lat="-27.5058682" lon="153.0389454">
<ele>18.799</ele>
<time>2015-12-01T21:14:22.608Z</time>
</trkpt>
<trkpt lat="-27.5065527" lon="153.0388263">
<ele>18.447</ele>
<time>2015-12-01T21:14:25.632Z</time>
</trkpt>
<trkpt lat="-27.5072169" lon="153.0387453">
<ele>17.536</ele>
<time>2015-12-01T21:14:28.564Z</time>
</trkpt>
<trkpt lat="-27.5077137" lon="153.0387064">
<ele>16.803</ele>
<time>2015-12-01T21:14:30.709Z</time>
</trkpt>
<trkpt lat="-27.5081932" lon="153.0387435">
<ele>16.409</ele>
<time>2015-12-01T21:14:32.746Z</time>
</trkpt>
<trkpt lat="-27.5086550" lon="153.0388311">
<ele>16.131</ele>
<time>2015-12-01T21:14:34.749Z</time>
</trkpt>
<trkpt lat="-27.5090973" lon="153.0389635">
<ele>15.994</ele>
<time>2015-12-01T21:14:36.713Z</time>
</trkpt>
<trkpt lat="-27.5097632" lon="153.0392602">
<ele>16.084</ele>
<time>2015-12-01T21:14:39.711Z</time>
</trkpt>
<trkpt lat="-27.5104703" lon="153.0396303">
<ele>16.253</ele>
<time>2015-12-01T21:14:42.819Z</time>
</trkpt>
<trkpt lat="-27.5111428" lon="153.0399974">
<ele>16.276</ele>
<time>2015-12-01T21:14:45.765Z</time>
</trkpt>
<trkpt lat="-27.5118249" lon="153.0403583">
<ele>16.103</ele>
<time>2015-12-01T21:14:48.756Z</time>
</trkpt>
<trkpt lat="-27.5124864" lon="153.0407830">
<ele>15.889</ele>
<time>2015-12-01T21:14:51.785Z</time>
</trkpt>
<trkpt lat="-27.5128911" lon="153.0411077">
<ele>15.705</ele>
<time>2015-12-01T21:14:53.785Z</time>
</trkpt>
<trkpt lat="-27.5134297" lon="153.0416849">
<ele>15.374</ele>
<time>2015-12-01T21:14:56.772Z</time>
</trkpt>
<trkpt lat="-27.5138973" lon="153.0423649">
<ele>14.708</ele>
<time>2015-12-01T21:14:59.792Z</time>
</trkpt>
<trkpt lat="-27.5141600" lon="153.0428465">
<ele>13.865</ele>
<time>2015-12-01T21:15:01.774Z</time>
</trkpt>
<trkpt lat="-27.5145382" lon="153.0435698">
<ele>13.253</ele>
<time>2015-12-01T21:15:04.750Z</time>
</trkpt>
<trkpt lat="-27.5147704" lon="153.0440556">
<ele>13.036</ele>
<time>2015-12-01T21:15:06.710Z</time>
</trkpt>
<trkpt lat="-27.5150177" lon="153.0445627">
<ele>12.983</ele>
<time>2015-12-01T21:15:08.759Z</time>
</trkpt>
<trkpt lat="-27.5153762" lon="153.0453111">
<ele>12.811</ele>
<time>2015-12-01T21:15:11.789Z</time>
</trkpt>
<trkpt lat="-27.5157483" lon="153.0460268">
<ele>12.474</ele>
<time>2015-12-01T21:15:14.774Z</time>
</trkpt>
<trkpt lat="-27.5159751" lon="153.0465087">
<ele>12.156</ele>
<time>2015-12-01T21:15:16.757Z</time>
</trkpt>
<trkpt lat="-27.5163134" lon="153.0472284">
<ele>12.007</ele>
<time>2015-12-01T21:15:19.743Z</time>
</trkpt>
<trkpt lat="-27.5165472" lon="153.0477012">
<ele>12.040</ele>
<time>2015-12-01T21:15:21.719Z</time>
</trkpt>
<trkpt lat="-27.5168068" lon="153.0481711">
<ele>12.467</ele>
<time>2015-12-01T21:15:23.719Z</time>
</trkpt>
<trkpt lat="-27.5170666" lon="153.0486504">
<ele>13.552</ele>
<time>2015-12-01T21:15:25.725Z</time>
</trkpt>
<trkpt lat="-27.5175038" lon="153.0493556">
<ele>15.121</ele>
<time>2015-12-01T21:15:28.748Z</time>
</trkpt>
<trkpt lat="-27.5178222" lon="153.0497998">
<ele>16.660</ele>
<time>2015-12-01T21:15:30.733Z</time>
</trkpt>
<trkpt lat="-27.5183541" lon="153.0504269">
<ele>17.777</ele>
<time>2015-12-01T21:15:33.756Z</time>
</trkpt>
<trkpt lat="-27.5187219" lon="153.0508047">
<ele>18.546</ele>
<time>2015-12-01T21:15:35.739Z</time>
</trkpt>
<trkpt lat="-27.5192937" lon="153.0513082">
<ele>19.384</ele>
<time>2015-12-01T21:15:38.682Z</time>
</trkpt>
<trkpt lat="-27.5196869" lon="153.0516384">
<ele>20.293</ele>
<time>2015-12-01T21:15:40.682Z</time>
</trkpt>
<trkpt lat="-27.5200920" lon="153.0519434">
<ele>21.169</ele>
<time>2015-12-01T21:15:42.660Z</time>
</trkpt>
<trkpt lat="-27.5206915" lon="153.0524349">
<ele>22.066</ele>
<time>2015-12-01T21:15:45.676Z</time>
</trkpt>
<trkpt lat="-27.5211053" lon="153.0527466">
<ele>22.761</ele>
<time>2015-12-01T21:15:47.711Z</time>
</trkpt>
<trkpt lat="-27.5217083" lon="153.0532343">
<ele>23.062</ele>
<time>2015-12-01T21:15:50.760Z</time>
</trkpt>
<trkpt lat="-27.5222799" lon="153.0537278">
<ele>23.200</ele>
<time>2015-12-01T21:15:53.747Z</time>
</trkpt>
<trkpt lat="-27.5226744" lon="153.0540588">
<ele>23.518</ele>
<time>2015-12-01T21:15:55.785Z</time>
</trkpt>
<trkpt lat="-27.5232756" lon="153.0545455">
<ele>24.102</ele>
<time>2015-12-01T21:15:58.810Z</time>
</trkpt>
<trkpt lat="-27.5236707" lon="153.0548461">
<ele>24.720</ele>
<time>2015-12-01T21:16:00.731Z</time>
</trkpt>
<trkpt lat="-27.5243338" lon="153.0552753">
<ele>25.303</ele>
<time>2015-12-01T21:16:03.771Z</time>
</trkpt>
<trkpt lat="-27.5247940" lon="153.0555351">
<ele>25.984</ele>
<time>2015-12-01T21:16:05.758Z</time>
</trkpt>
<trkpt lat="-27.5252905" lon="153.0557731">
<ele>26.721</ele>
<time>2015-12-01T21:16:07.779Z</time>
</trkpt>
<trkpt lat="-27.5257921" lon="153.0560109">
<ele>27.767</ele>
<time>2015-12-01T21:16:09.793Z</time>
</trkpt>
<trkpt lat="-27.5265361" lon="153.0563347">
<ele>29.297</ele>
<time>2015-12-01T21:16:12.753Z</time>
</trkpt>
<trkpt lat="-27.5270481" lon="153.0565280">
<ele>30.670</ele>
<time>2015-12-01T21:16:14.763Z</time>
</trkpt>
<trkpt lat="-27.5275690" lon="153.0566964">
<ele>31.300</ele>
<time>2015-12-01T21:16:16.793Z</time>
</trkpt>
<trkpt lat="-27.5283372" lon="153.0569079">
<ele>31.379</ele>
<time>2015-12-01T21:16:19.787Z</time>
</trkpt>
<trkpt lat="-27.5288448" lon="153.0570049">
<ele>31.078</ele>
<time>2015-12-01T21:16:21.775Z</time>
</trkpt>
<trkpt lat="-27.5293553" lon="153.0571131">
<ele>30.395</ele>
<time>2015-12-01T21:16:23.801Z</time>
</trkpt>
<trkpt lat="-27.5298598" lon="153.0572267">
<ele>29.539</ele>
<time>2015-12-01T21:16:25.797Z</time>
</trkpt>
<trkpt lat="-27.5306331" lon="153.0573819">
<ele>28.925</ele>
<time>2015-12-01T21:16:28.841Z</time>
</trkpt>
<trkpt lat="-27.5311303" lon="153.0574959">
<ele>29.053</ele>
<time>2015-12-01T21:16:30.833Z</time>
</trkpt>
<trkpt lat="-27.5318594" lon="153.0576657">
<ele>29.929</ele>
<time>2015-12-01T21:16:33.769Z</time>
</trkpt>
<trkpt lat="-27.5326227" lon="153.0578315">
<ele>30.847</ele>
<time>2015-12-01T21:16:36.795Z</time>
</trkpt>
<trkpt lat="-27.5331214" lon="153.0579485">
<ele>31.513</ele>
<time>2015-12-01T21:16:38.774Z</time>
</trkpt>
<trkpt lat="-27.5336355" lon="153.0580614">
<ele>32.219</ele>
<time>2015-12-01T21:16:40.806Z</time>
</trkpt>
<trkpt lat="-27.5343778" lon="153.0582360">
<ele>32.971</ele>
<time>2015-12-01T21:16:43.746Z</time>
</trkpt>
<trkpt lat="-27.5351364" lon="153.0583966">
<ele>33.795</ele>
<time>2015-12-01T21:16:46.739Z</time>
</trkpt>
<trkpt lat="-27.5356606" lon="153.0585117">
<ele>35.161</ele>
<time>2015-12-01T21:16:48.778Z</time>
</trkpt>
<trkpt lat="-27.5364491" lon="153.0586759">
<ele>37.115</ele>
<time>2015-12-01T21:16:51.810Z</time>
</trkpt>
<trkpt lat="-27.5372076" lon="153.0588396">
<ele>39.244</ele>
<time>2015-12-01T21:16:54.748Z</time>
</trkpt>
<trkpt lat="-27.5377217" lon="153.0589537">
<ele>41.616</ele>
<time>2015-12-01T21:16:56.756Z</time>
</trkpt>
<trkpt lat="-27.5382423" lon="153.0590585">
<ele>44.595</ele>
<time>2015-12-01T21:16:58.780Z</time>
</trkpt>
<trkpt lat="-27.5390236" lon="153.0592362">
<ele>47.790</ele>
<time>2015-12-01T21:17:01.817Z</time>
</trkpt>
<trkpt lat="-27.5395297" lon="153.0593952">
<ele>50.782</ele>
<time>2015-12-01T21:17:03.810Z</time>
</trkpt>
<trkpt lat="-27.5400517" lon="153.0595829">
<ele>53.799</ele>
<time>2015-12-01T21:17:05.880Z</time>
</trkpt>
<trkpt lat="-27.5407922" lon="153.0598714">
<ele>56.746</ele>
<time>2015-12-01T21:17:08.843Z</time>
</trkpt>
<trkpt lat="-27.5415239" lon="153.0601805">
<ele>59.630</ele>
<time>2015-12-01T21:17:11.802Z</time>
</trkpt>
<trkpt lat="-27.5420168" lon="153.0604311">
<ele>62.599</ele>
<time>2015-12-01T21:17:13.830Z</time>
</trkpt>
<trkpt lat="-27.5427274" lon="153.0608458">
<ele>65.472</ele>
<time>2015-12-01T21:17:16.805Z</time>
</trkpt>
<trkpt lat="-27.5432006" lon="153.0611402">
<ele>68.623</ele>
<time>2015-12-01T21:17:18.807Z</time>
</trkpt>
<trkpt lat="-27.5438861" lon="153.0616317">
<ele>72.010</ele>
<time>2015-12-01T21:17:21.825Z</time>
</trkpt>
<trkpt lat="-27.5443319" lon="153.0619550">
<ele>74.407</ele>
<time>2015-12-01T21:17:23.832Z</time>
</trkpt>
<trkpt lat="-27.5447458" lon="153.0622895">
<ele>75.401</ele>
<time>2015-12-01T21:17:25.805Z</time>
</trkpt>
<trkpt lat="-27.5453487" lon="153.0628023">
<ele>75.510</ele>
<time>2015-12-01T21:17:28.779Z</time>
</trkpt>
<trkpt lat="-27.5459608" lon="153.0633069">
<ele>75.125</ele>
<time>2015-12-01T21:17:31.797Z</time>
</trkpt>
<trkpt lat="-27.5463616" lon="153.0636486">
<ele>74.523</ele>
<time>2015-12-01T21:17:33.804Z</time>
</trkpt>
<trkpt lat="-27.5469624" lon="153.0641678">
<ele>73.885</ele>
<time>2015-12-01T21:17:36.822Z</time>
</trkpt>
<trkpt lat="-27.5475646" lon="153.0646923">
<ele>73.086</ele>
<time>2015-12-01T21:17:39.847Z</time>
</trkpt>
<trkpt lat="-27.5481532" lon="153.0652044">
<ele>71.840</ele>
<time>2015-12-01T21:17:42.838Z</time>
</trkpt>
<trkpt lat="-27.5487256" lon="153.0657089">
<ele>69.932</ele>
<time>2015-12-01T21:17:45.763Z</time>
</trkpt>
<trkpt lat="-27.5493788" lon="153.0662482">
<ele>67.734</ele>
<time>2015-12-01T21:17:48.834Z</time>
</trkpt>
<trkpt lat="-27.5500485" lon="153.0668172">
<ele>66.460</ele>
<time>2015-12-01T21:17:51.843Z</time>
</trkpt>
<trkpt lat="-27.5507209" lon="153.0673716">
<ele>66.879</ele>
<time>2015-12-01T21:17:54.836Z</time>
</trkpt>
<trkpt lat="-27.5511615" lon="153.0677387">
<ele>68.265</ele>
<time>2015-12-01T21:17:56.844Z</time>
</trkpt>
<trkpt lat="-27.5518157" lon="153.0682924">
<ele>69.041</ele>
<time>2015-12-01T21:17:59.859Z</time>
</trkpt>
<trkpt lat="-27.5522529" lon="153.0686628">
<ele>68.231</ele>
<time>2015-12-01T21:18:01.886Z</time>
</trkpt>
<trkpt lat="-27.5528920" lon="153.0692132">
<ele>66.122</ele>
<time>2015-12-01T21:18:04.901Z</time>
</trkpt>
<trkpt lat="-27.5533209" lon="153.0695527">
<ele>63.450</ele>
<time>2015-12-01T21:18:06.907Z</time>
</trkpt>
<trkpt lat="-27.5539241" lon="153.0700719">
<ele>60.557</ele>
<time>2015-12-01T21:18:09.851Z</time>
</trkpt>
<trkpt lat="-27.5545292" lon="153.0705931">
<ele>57.944</ele>
<time>2015-12-01T21:18:12.834Z</time>
</trkpt>
<trkpt lat="-27.5549340" lon="153.0709378">
<ele>56.242</ele>
<time>2015-12-01T21:18:14.825Z</time>
</trkpt>
<trkpt lat="-27.5553380" lon="153.0712982">
<ele>55.556</ele>
<time>2015-12-01T21:18:16.845Z</time>
</trkpt>
<trkpt lat="-27.5559499" lon="153.0718289">
<ele>55.415</ele>
<time>2015-12-01T21:18:19.852Z</time>
</trkpt>
<trkpt lat="-27.5565781" lon="153.0723586">
<ele>55.368</ele>
<time>2015-12-01T21:18:22.885Z</time>
</trkpt>
<trkpt lat="-27.5569904" lon="153.0727072">
<ele>54.808</ele>
<time>2015-12-01T21:18:24.889Z</time>
</trkpt>
<trkpt lat="-27.5575949" lon="153.0732335">
<ele>53.343</ele>
<time>2015-12-01T21:18:27.891Z</time>
</trkpt>
<trkpt lat="-27.5580001" lon="153.0735643">
<ele>51.455</ele>
<time>2015-12-01T21:18:29.866Z</time>
</trkpt>
<trkpt lat="-27.5584182" lon="153.0739093">
<ele>49.601</ele>
<time>2015-12-01T21:18:31.865Z</time>
</trkpt>
<trkpt lat="-27.5588621" lon="153.0742830">
<ele>47.764</ele>
<time>2015-12-01T21:18:33.931Z</time>
</trkpt>
<trkpt lat="-27.5594830" lon="153.0748738">
<ele>46.387</ele>
<time>2015-12-01T21:18:36.914Z</time>
</trkpt>
<trkpt lat="-27.5598917" lon="153.0752862">
<ele>45.650</ele>
<time>2015-12-01T21:18:38.929Z</time>
</trkpt>
<trkpt lat="-27.5602859" lon="153.0756846">
<ele>45.142</ele>
<time>2015-12-01T21:18:40.879Z</time>
</trkpt>
<trkpt lat="-27.5608840" lon="153.0763189">
<ele>45.124</ele>
<time>2015-12-01T21:18:43.903Z</time>
</trkpt>
<trkpt lat="-27.5612465" lon="153.0767656">
<ele>46.006</ele>
<time>2015-12-01T21:18:45.904Z</time>
</trkpt>
<trkpt lat="-27.5615950" lon="153.0771933">
<ele>47.348</ele>
<time>2015-12-01T21:18:47.858Z</time>
</trkpt>
<trkpt lat="-27.5619432" lon="153.0776234">
<ele>48.562</ele>
<time>2015-12-01T21:18:49.839Z</time>
</trkpt>
<trkpt lat="-27.5624577" lon="153.0782890">
<ele>49.583</ele>
<time>2015-12-01T21:18:52.847Z</time>
</trkpt>
<trkpt lat="-27.5627889" lon="153.0787397">
<ele>50.909</ele>
<time>2015-12-01T21:18:54.843Z</time>
</trkpt>
<trkpt lat="-27.5631198" lon="153.0791922">
<ele>52.972</ele>
<time>2015-12-01T21:18:56.856Z</time>
</trkpt>
<trkpt lat="-27.5634325" lon="153.0796323">
<ele>55.275</ele>
<time>2015-12-01T21:18:58.809Z</time>
</trkpt>
<trkpt lat="-27.5637332" lon="153.0800874">
<ele>56.929</ele>
<time>2015-12-01T21:19:00.790Z</time>
</trkpt>
<trkpt lat="-27.5641794" lon="153.0807915">
<ele>57.810</ele>
<time>2015-12-01T21:19:03.814Z</time>
</trkpt>
<trkpt lat="-27.5646185" lon="153.0815032">
<ele>58.288</ele>
<time>2015-12-01T21:19:06.826Z</time>
</trkpt>
<trkpt lat="-27.5649186" lon="153.0819644">
<ele>58.430</ele>
<time>2015-12-01T21:19:08.808Z</time>
</trkpt>
<trkpt lat="-27.5652027" lon="153.0824417">
<ele>58.169</ele>
<time>2015-12-01T21:19:10.811Z</time>
</trkpt>
<trkpt lat="-27.5655123" lon="153.0829022">
<ele>57.539</ele>
<time>2015-12-01T21:19:12.845Z</time>
</trkpt>
<trkpt lat="-27.5659534" lon="153.0835853">
<ele>56.079</ele>
<time>2015-12-01T21:19:15.841Z</time>
</trkpt>
<trkpt lat="-27.5662407" lon="153.0840361">
<ele>53.437</ele>
<time>2015-12-01T21:19:17.823Z</time>
</trkpt>
<trkpt lat="-27.5665233" lon="153.0845031">
<ele>50.047</ele>
<time>2015-12-01T21:19:19.839Z</time>
</trkpt>
<trkpt lat="-27.5669700" lon="153.0851837">
<ele>46.697</ele>
<time>2015-12-01T21:19:22.829Z</time>
</trkpt>
<trkpt lat="-27.5673995" lon="153.0858756">
<ele>43.995</ele>
<time>2015-12-01T21:19:25.791Z</time>
</trkpt>
<trkpt lat="-27.5676938" lon="153.0863493">
<ele>41.990</ele>
<time>2015-12-01T21:19:27.827Z</time>
</trkpt>
<trkpt lat="-27.5681185" lon="153.0870288">
<ele>40.187</ele>
<time>2015-12-01T21:19:30.767Z</time>
</trkpt>
<trkpt lat="-27.5685599" lon="153.0877147">
<ele>38.356</ele>
<time>2015-12-01T21:19:33.769Z</time>
</trkpt>
<trkpt lat="-27.5689661" lon="153.0884255">
<ele>36.729</ele>
<time>2015-12-01T21:19:36.755Z</time>
</trkpt>
<trkpt lat="-27.5692185" lon="153.0888913">
<ele>35.621</ele>
<time>2015-12-01T21:19:38.677Z</time>
</trkpt>
<trkpt lat="-27.5694834" lon="153.0893838">
<ele>35.410</ele>
<time>2015-12-01T21:19:40.686Z</time>
</trkpt>
<trkpt lat="-27.5697460" lon="153.0898810">
<ele>36.357</ele>
<time>2015-12-01T21:19:42.688Z</time>
</trkpt>
<trkpt lat="-27.5701550" lon="153.0906253">
<ele>38.286</ele>
<time>2015-12-01T21:19:45.711Z</time>
</trkpt>
<trkpt lat="-27.5705560" lon="153.0913620">
<ele>40.711</ele>
<time>2015-12-01T21:19:48.697Z</time>
</trkpt>
<trkpt lat="-27.5709550" lon="153.0920914">
<ele>42.993</ele>
<time>2015-12-01T21:19:51.660Z</time>
</trkpt>
<trkpt lat="-27.5713528" lon="153.0928361">
<ele>44.600</ele>
<time>2015-12-01T21:19:54.670Z</time>
</trkpt>
<trkpt lat="-27.5716236" lon="153.0933119">
<ele>45.389</ele>
<time>2015-12-01T21:19:56.626Z</time>
</trkpt>
<trkpt lat="-27.5718929" lon="153.0938030">
<ele>45.520</ele>
<time>2015-12-01T21:19:58.623Z</time>
</trkpt>
<trkpt lat="-27.5723001" lon="153.0945201">
<ele>45.351</ele>
<time>2015-12-01T21:20:01.586Z</time>
</trkpt>
<trkpt lat="-27.5725715" lon="153.0950000">
<ele>45.167</ele>
<time>2015-12-01T21:20:03.586Z</time>
</trkpt>
<trkpt lat="-27.5729669" lon="153.0957243">
<ele>44.883</ele>
<time>2015-12-01T21:20:06.579Z</time>
</trkpt>
<trkpt lat="-27.5733740" lon="153.0964569">
<ele>44.371</ele>
<time>2015-12-01T21:20:09.613Z</time>
</trkpt>
<trkpt lat="-27.5736571" lon="153.0969094">
<ele>43.876</ele>
<time>2015-12-01T21:20:11.572Z</time>
</trkpt>
<trkpt lat="-27.5741213" lon="153.0975612">
<ele>43.683</ele>
<time>2015-12-01T21:20:14.536Z</time>
</trkpt>
<trkpt lat="-27.5745008" lon="153.0979963">
<ele>43.980</ele>
<time>2015-12-01T21:20:16.651Z</time>
</trkpt>
<trkpt lat="-27.5748622" lon="153.0984254">
<ele>45.416</ele>
<time>2015-12-01T21:20:18.686Z</time>
</trkpt>
<trkpt lat="-27.5754136" lon="153.0990213">
<ele>47.960</ele>
<time>2015-12-01T21:20:21.654Z</time>
</trkpt>
<trkpt lat="-27.5758047" lon="153.0994139">
<ele>50.359</ele>
<time>2015-12-01T21:20:23.680Z</time>
</trkpt>
<trkpt lat="-27.5764254" lon="153.0999480">
<ele>51.744</ele>
<time>2015-12-01T21:20:26.680Z</time>
</trkpt>
<trkpt lat="-27.5768607" lon="153.1002875">
<ele>52.018</ele>
<time>2015-12-01T21:20:28.705Z</time>
</trkpt>
<trkpt lat="-27.5773184" lon="153.1005970">
<ele>51.120</ele>
<time>2015-12-01T21:20:30.748Z</time>
</trkpt>
<trkpt lat="-27.5779849" lon="153.1010325">
<ele>49.262</ele>
<time>2015-12-01T21:20:33.697Z</time>
</trkpt>
<trkpt lat="-27.5786716" lon="153.1014843">
<ele>46.482</ele>
<time>2015-12-01T21:20:36.719Z</time>
</trkpt>
<trkpt lat="-27.5791329" lon="153.1017917">
<ele>42.588</ele>
<time>2015-12-01T21:20:38.738Z</time>
</trkpt>
<trkpt lat="-27.5798188" lon="153.1022352">
<ele>38.355</ele>
<time>2015-12-01T21:20:41.721Z</time>
</trkpt>
<trkpt lat="-27.5804947" lon="153.1026689">
<ele>35.319</ele>
<time>2015-12-01T21:20:44.680Z</time>
</trkpt>
<trkpt lat="-27.5809506" lon="153.1029614">
<ele>33.529</ele>
<time>2015-12-01T21:20:46.687Z</time>
</trkpt>
<trkpt lat="-27.5816384" lon="153.1033860">
<ele>32.042</ele>
<time>2015-12-01T21:20:49.683Z</time>
</trkpt>
<trkpt lat="-27.5820897" lon="153.1036844">
<ele>30.887</ele>
<time>2015-12-01T21:20:51.689Z</time>
</trkpt>
<trkpt lat="-27.5827756" lon="153.1041139">
<ele>30.475</ele>
<time>2015-12-01T21:20:54.709Z</time>
</trkpt>
<trkpt lat="-27.5834463" lon="153.1045492">
<ele>30.602</ele>
<time>2015-12-01T21:20:57.684Z</time>
</trkpt>
<trkpt lat="-27.5839162" lon="153.1048357">
<ele>30.959</ele>
<time>2015-12-01T21:20:59.723Z</time>
</trkpt>
<trkpt lat="-27.5843731" lon="153.1051349">
<ele>31.322</ele>
<time>2015-12-01T21:21:01.724Z</time>
</trkpt>
<trkpt lat="-27.5850574" lon="153.1056004">
<ele>31.735</ele>
<time>2015-12-01T21:21:04.736Z</time>
</trkpt>
<trkpt lat="-27.5857408" lon="153.1060594">
<ele>32.512</ele>
<time>2015-12-01T21:21:07.731Z</time>
</trkpt>
<trkpt lat="-27.5864136" lon="153.1065269">
<ele>33.462</ele>
<time>2015-12-01T21:21:10.725Z</time>
</trkpt>
<trkpt lat="-27.5868615" lon="153.1068314">
<ele>33.966</ele>
<time>2015-12-01T21:21:12.716Z</time>
</trkpt>
<trkpt lat="-27.5875442" lon="153.1072849">
<ele>33.988</ele>
<time>2015-12-01T21:21:15.735Z</time>
</trkpt>
<trkpt lat="-27.5882299" lon="153.1077266">
<ele>34.047</ele>
<time>2015-12-01T21:21:18.745Z</time>
</trkpt>
<trkpt lat="-27.5889190" lon="153.1081684">
<ele>34.565</ele>
<time>2015-12-01T21:21:21.760Z</time>
</trkpt>
<trkpt lat="-27.5895982" lon="153.1086050">
<ele>35.633</ele>
<time>2015-12-01T21:21:24.744Z</time>
</trkpt>
<trkpt lat="-27.5900488" lon="153.1088892">
<ele>36.881</ele>
<time>2015-12-01T21:21:26.727Z</time>
</trkpt>
<trkpt lat="-27.5907190" lon="153.1093101">
<ele>37.802</ele>
<time>2015-12-01T21:21:29.695Z</time>
</trkpt>
<trkpt lat="-27.5911673" lon="153.1095916">
<ele>38.091</ele>
<time>2015-12-01T21:21:31.699Z</time>
</trkpt>
<trkpt lat="-27.5916105" lon="153.1098716">
<ele>37.859</ele>
<time>2015-12-01T21:21:33.683Z</time>
</trkpt>
<trkpt lat="-27.5922867" lon="153.1102884">
<ele>37.817</ele>
<time>2015-12-01T21:21:36.700Z</time>
</trkpt>
<trkpt lat="-27.5929543" lon="153.1106925">
<ele>38.946</ele>
<time>2015-12-01T21:21:39.681Z</time>
</trkpt>
<trkpt lat="-27.5936327" lon="153.1111260">
<ele>41.346</ele>
<time>2015-12-01T21:21:42.728Z</time>
</trkpt>
<trkpt lat="-27.5943048" lon="153.1115452">
<ele>44.082</ele>
<time>2015-12-01T21:21:45.704Z</time>
</trkpt>
<trkpt lat="-27.5947700" lon="153.1118263">
<ele>46.277</ele>
<time>2015-12-01T21:21:47.742Z</time>
</trkpt>
<trkpt lat="-27.5952166" lon="153.1121278">
<ele>47.679</ele>
<time>2015-12-01T21:21:49.743Z</time>
</trkpt>
<trkpt lat="-27.5959044" lon="153.1125635">
<ele>48.698</ele>
<time>2015-12-01T21:21:52.766Z</time>
</trkpt>
<trkpt lat="-27.5963692" lon="153.1128468">
<ele>49.751</ele>
<time>2015-12-01T21:21:54.786Z</time>
</trkpt>
<trkpt lat="-27.5970378" lon="153.1132885">
<ele>50.546</ele>
<time>2015-12-01T21:21:57.755Z</time>
</trkpt>
<trkpt lat="-27.5974897" lon="153.1135818">
<ele>50.561</ele>
<time>2015-12-01T21:21:59.757Z</time>
</trkpt>
<trkpt lat="-27.5981741" lon="153.1140179">
<ele>49.853</ele>
<time>2015-12-01T21:22:02.775Z</time>
</trkpt>
<trkpt lat="-27.5988593" lon="153.1144564">
<ele>48.938</ele>
<time>2015-12-01T21:22:05.795Z</time>
</trkpt>
<trkpt lat="-27.5993074" lon="153.1147522">
<ele>48.050</ele>
<time>2015-12-01T21:22:07.809Z</time>
</trkpt>
<trkpt lat="-27.5999486" lon="153.1151868">
<ele>46.849</ele>
<time>2015-12-01T21:22:10.757Z</time>
</trkpt>
<trkpt lat="-27.6006014" lon="153.1156062">
<ele>44.740</ele>
<time>2015-12-01T21:22:13.727Z</time>
</trkpt>
<trkpt lat="-27.6010590" lon="153.1158737">
<ele>41.807</ele>
<time>2015-12-01T21:22:15.745Z</time>
</trkpt>
<trkpt lat="-27.6015015" lon="153.1161670">
<ele>39.141</ele>
<time>2015-12-01T21:22:17.774Z</time>
</trkpt>
<trkpt lat="-27.6021346" lon="153.1165792">
<ele>37.300</ele>
<time>2015-12-01T21:22:20.716Z</time>
</trkpt>
<trkpt lat="-27.6025481" lon="153.1168619">
<ele>35.736</ele>
<time>2015-12-01T21:22:22.681Z</time>
</trkpt>
<trkpt lat="-27.6031938" lon="153.1172868">
<ele>34.318</ele>
<time>2015-12-01T21:22:25.672Z</time>
</trkpt>
<trkpt lat="-27.6036372" lon="153.1175757">
<ele>33.564</ele>
<time>2015-12-01T21:22:27.672Z</time>
</trkpt>
<trkpt lat="-27.6040886" lon="153.1178707">
<ele>33.739</ele>
<time>2015-12-01T21:22:29.673Z</time>
</trkpt>
<trkpt lat="-27.6047965" lon="153.1183275">
<ele>34.548</ele>
<time>2015-12-01T21:22:32.726Z</time>
</trkpt>
<trkpt lat="-27.6055242" lon="153.1187665">
<ele>35.877</ele>
<time>2015-12-01T21:22:35.763Z</time>
</trkpt>
<trkpt lat="-27.6062179" lon="153.1192250">
<ele>37.723</ele>
<time>2015-12-01T21:22:38.759Z</time>
</trkpt>
<trkpt lat="-27.6066753" lon="153.1195201">
<ele>39.493</ele>
<time>2015-12-01T21:22:40.765Z</time>
</trkpt>
<trkpt lat="-27.6071382" lon="153.1197940">
<ele>40.514</ele>
<time>2015-12-01T21:22:42.768Z</time>
</trkpt>
<trkpt lat="-27.6078251" lon="153.1202249">
<ele>40.748</ele>
<time>2015-12-01T21:22:45.778Z</time>
</trkpt>
<trkpt lat="-27.6084965" lon="153.1206656">
<ele>40.240</ele>
<time>2015-12-01T21:22:48.764Z</time>
</trkpt>
<trkpt lat="-27.6089483" lon="153.1209568">
<ele>38.799</ele>
<time>2015-12-01T21:22:50.795Z</time>
</trkpt>
<trkpt lat="-27.6095964" lon="153.1213884">
<ele>36.582</ele>
<time>2015-12-01T21:22:53.763Z</time>
</trkpt>
<trkpt lat="-27.6100325" lon="153.1216740">
<ele>34.215</ele>
<time>2015-12-01T21:22:55.766Z</time>
</trkpt>
<trkpt lat="-27.6106840" lon="153.1220925">
<ele>31.784</ele>
<time>2015-12-01T21:22:58.727Z</time>
</trkpt>
<trkpt lat="-27.6111516" lon="153.1223530">
<ele>28.967</ele>
<time>2015-12-01T21:23:00.754Z</time>
</trkpt>
<trkpt lat="-27.6116242" lon="153.1226193">
<ele>26.182</ele>
<time>2015-12-01T21:23:02.791Z</time>
</trkpt>
<trkpt lat="-27.6122938" lon="153.1230326">
<ele>24.252</ele>
<time>2015-12-01T21:23:05.727Z</time>
</trkpt>
<trkpt lat="-27.6130821" lon="153.1232671">
<ele>22.919</ele>
<time>2015-12-01T21:23:08.875Z</time>
</trkpt>
<trkpt lat="-27.6135761" lon="153.1234325">
<ele>21.495</ele>
<time>2015-12-01T21:23:10.878Z</time>
</trkpt>
<trkpt lat="-27.6143174" lon="153.1236522">
<ele>20.237</ele>
<time>2015-12-01T21:23:13.868Z</time>
</trkpt>
<trkpt lat="-27.6148117" lon="153.1237956">
<ele>19.783</ele>
<time>2015-12-01T21:23:15.837Z</time>
</trkpt>
<trkpt lat="-27.6155586" lon="153.1241078">
<ele>20.178</ele>
<time>2015-12-01T21:23:18.838Z</time>
</trkpt>
<trkpt lat="-27.6163101" lon="153.1244955">
<ele>21.035</ele>
<time>2015-12-01T21:23:21.872Z</time>
</trkpt>
<trkpt lat="-27.6167858" lon="153.1247848">
<ele>22.284</ele>
<time>2015-12-01T21:23:23.854Z</time>
</trkpt>
<trkpt lat="-27.6174974" lon="153.1252271">
<ele>23.929</ele>
<time>2015-12-01T21:23:26.857Z</time>
</trkpt>
<trkpt lat="-27.6182118" lon="153.1256422">
<ele>25.187</ele>
<time>2015-12-01T21:23:29.836Z</time>
</trkpt>
<trkpt lat="-27.6187100" lon="153.1258979">
<ele>25.137</ele>
<time>2015-12-01T21:23:31.857Z</time>
</trkpt>
<trkpt lat="-27.6192021" lon="153.1261456">
<ele>23.783</ele>
<time>2015-12-01T21:23:33.838Z</time>
</trkpt>
<trkpt lat="-27.6199714" lon="153.1264760">
<ele>21.795</ele>
<time>2015-12-01T21:23:36.868Z</time>
</trkpt>
<trkpt lat="-27.6207155" lon="153.1268330">
<ele>19.724</ele>
<time>2015-12-01T21:23:39.861Z</time>
</trkpt>
<trkpt lat="-27.6214552" lon="153.1271835">
<ele>17.764</ele>
<time>2015-12-01T21:23:42.851Z</time>
</trkpt>
<trkpt lat="-27.6219483" lon="153.1274103">
<ele>16.285</ele>
<time>2015-12-01T21:23:44.852Z</time>
</trkpt>
<trkpt lat="-27.6226816" lon="153.1277446">
<ele>15.476</ele>
<time>2015-12-01T21:23:47.838Z</time>
</trkpt>
<trkpt lat="-27.6231763" lon="153.1279699">
<ele>15.223</ele>
<time>2015-12-01T21:23:49.872Z</time>
</trkpt>
<trkpt lat="-27.6238854" lon="153.1283222">
<ele>15.420</ele>
<time>2015-12-01T21:23:52.835Z</time>
</trkpt>
<trkpt lat="-27.6243787" lon="153.1285436">
<ele>15.799</ele>
<time>2015-12-01T21:23:54.829Z</time>
</trkpt>
<trkpt lat="-27.6251664" lon="153.1288630">
<ele>16.040</ele>
<time>2015-12-01T21:23:57.892Z</time>
</trkpt>
<trkpt lat="-27.6259505" lon="153.1291603">
<ele>16.687</ele>
<time>2015-12-01T21:24:00.869Z</time>
</trkpt>
<trkpt lat="-27.6264794" lon="153.1293669">
<ele>18.169</ele>
<time>2015-12-01T21:24:02.889Z</time>
</trkpt>
<trkpt lat="-27.6270017" lon="153.1295780">
<ele>19.653</ele>
<time>2015-12-01T21:24:04.889Z</time>
</trkpt>
<trkpt lat="-27.6277808" lon="153.1299104">
<ele>20.191</ele>
<time>2015-12-01T21:24:07.893Z</time>
</trkpt>
<trkpt lat="-27.6282859" lon="153.1301342">
<ele>19.934</ele>
<time>2015-12-01T21:24:09.887Z</time>
</trkpt>
<trkpt lat="-27.6287810" lon="153.1303379">
<ele>19.470</ele>
<time>2015-12-01T21:24:11.880Z</time>
</trkpt>
<trkpt lat="-27.6292548" lon="153.1305351">
<ele>18.986</ele>
<time>2015-12-01T21:24:13.858Z</time>
</trkpt>
<trkpt lat="-27.6299598" lon="153.1308115">
<ele>18.371</ele>
<time>2015-12-01T21:24:16.855Z</time>
</trkpt>
<trkpt lat="-27.6306434" lon="153.1311116">
<ele>17.932</ele>
<time>2015-12-01T21:24:19.844Z</time>
</trkpt>
<trkpt lat="-27.6310780" lon="153.1313615">
<ele>18.333</ele>
<time>2015-12-01T21:24:21.849Z</time>
</trkpt>
<trkpt lat="-27.6317258" lon="153.1317820">
<ele>19.611</ele>
<time>2015-12-01T21:24:24.915Z</time>
</trkpt>
<trkpt lat="-27.6321179" lon="153.1321017">
<ele>21.035</ele>
<time>2015-12-01T21:24:26.910Z</time>
</trkpt>
<trkpt lat="-27.6326717" lon="153.1326185">
<ele>21.982</ele>
<time>2015-12-01T21:24:29.913Z</time>
</trkpt>
<trkpt lat="-27.6331845" lon="153.1331658">
<ele>21.945</ele>
<time>2015-12-01T21:24:32.883Z</time>
</trkpt>
<trkpt lat="-27.6335512" lon="153.1335244">
<ele>20.668</ele>
<time>2015-12-01T21:24:34.913Z</time>
</trkpt>
<trkpt lat="-27.6338944" lon="153.1338845">
<ele>18.781</ele>
<time>2015-12-01T21:24:36.879Z</time>
</trkpt>
<trkpt lat="-27.6344209" lon="153.1344136">
<ele>17.163</ele>
<time>2015-12-01T21:24:39.846Z</time>
</trkpt>
<trkpt lat="-27.6347696" lon="153.1347803">
<ele>15.965</ele>
<time>2015-12-01T21:24:41.842Z</time>
</trkpt>
<trkpt lat="-27.6352949" lon="153.1353535">
<ele>14.818</ele>
<time>2015-12-01T21:24:44.881Z</time>
</trkpt>
<trkpt lat="-27.6358127" lon="153.1359267">
<ele>13.456</ele>
<time>2015-12-01T21:24:47.902Z</time>
</trkpt>
<trkpt lat="-27.6363437" lon="153.1364814">
<ele>11.793</ele>
<time>2015-12-01T21:24:50.938Z</time>
</trkpt>
<trkpt lat="-27.6366866" lon="153.1368418">
<ele>9.953</ele>
<time>2015-12-01T21:24:52.910Z</time>
</trkpt>
<trkpt lat="-27.6371993" lon="153.1374102">
<ele>8.447</ele>
<time>2015-12-01T21:24:55.937Z</time>
</trkpt>
<trkpt lat="-27.6375406" lon="153.1377765">
<ele>7.522</ele>
<time>2015-12-01T21:24:57.926Z</time>
</trkpt>
<trkpt lat="-27.6378746" lon="153.1381432">
<ele>6.864</ele>
<time>2015-12-01T21:24:59.908Z</time>
</trkpt>
<trkpt lat="-27.6382089" lon="153.1385176">
<ele>6.209</ele>
<time>2015-12-01T21:25:01.912Z</time>
</trkpt>
<trkpt lat="-27.6387129" lon="153.1390815">
<ele>5.601</ele>
<time>2015-12-01T21:25:04.903Z</time>
</trkpt>
<trkpt lat="-27.6392496" lon="153.1396611">
<ele>5.208</ele>
<time>2015-12-01T21:25:07.980Z</time>
</trkpt>
<trkpt lat="-27.6397605" lon="153.1402467">
<ele>5.070</ele>
<time>2015-12-01T21:25:10.952Z</time>
</trkpt>
<trkpt lat="-27.6401133" lon="153.1406372">
<ele>5.090</ele>
<time>2015-12-01T21:25:12.944Z</time>
</trkpt>
<trkpt lat="-27.6404483" lon="153.1410641">
<ele>5.125</ele>
<time>2015-12-01T21:25:14.938Z</time>
</trkpt>
<trkpt lat="-27.6409618" lon="153.1417457">
<ele>5.111</ele>
<time>2015-12-01T21:25:17.993Z</time>
</trkpt>
<trkpt lat="-27.6412932" lon="153.1421867">
<ele>5.767</ele>
<time>2015-12-01T21:25:19.947Z</time>
</trkpt>
<trkpt lat="-27.6417844" lon="153.1428511">
<ele>7.750</ele>
<time>2015-12-01T21:25:22.878Z</time>
</trkpt>
<trkpt lat="-27.6421218" lon="153.1433047">
<ele>10.567</ele>
<time>2015-12-01T21:25:24.883Z</time>
</trkpt>
<trkpt lat="-27.6425864" lon="153.1440295">
<ele>13.342</ele>
<time>2015-12-01T21:25:27.932Z</time>
</trkpt>
<trkpt lat="-27.6429039" lon="153.1444908">
<ele>15.501</ele>
<time>2015-12-01T21:25:29.952Z</time>
</trkpt>
<trkpt lat="-27.6433774" lon="153.1451557">
<ele>16.699</ele>
<time>2015-12-01T21:25:32.921Z</time>
</trkpt>
<trkpt lat="-27.6438524" lon="153.1458209">
<ele>17.092</ele>
<time>2015-12-01T21:25:35.904Z</time>
</trkpt>
<trkpt lat="-27.6443472" lon="153.1464896">
<ele>17.051</ele>
<time>2015-12-01T21:25:38.928Z</time>
</trkpt>
<trkpt lat="-27.6448332" lon="153.1472014">
<ele>16.878</ele>
<time>2015-12-01T21:25:42.027Z</time>
</trkpt>
<trkpt lat="-27.6452915" lon="153.1478618">
<ele>16.421</ele>
<time>2015-12-01T21:25:44.928Z</time>
</trkpt>
<trkpt lat="-27.6457426" lon="153.1485765">
<ele>15.581</ele>
<time>2015-12-01T21:25:47.960Z</time>
</trkpt>
<trkpt lat="-27.6460147" lon="153.1490523">
<ele>14.812</ele>
<time>2015-12-01T21:25:49.922Z</time>
</trkpt>
<trkpt lat="-27.6462502" lon="153.1495580">
<ele>14.399</ele>
<time>2015-12-01T21:25:51.932Z</time>
</trkpt>
<trkpt lat="-27.6464600" lon="153.1500597">
<ele>13.885</ele>
<time>2015-12-01T21:25:53.922Z</time>
</trkpt>
<trkpt lat="-27.6467134" lon="153.1508127">
<ele>12.865</ele>
<time>2015-12-01T21:25:56.881Z</time>
</trkpt>
<trkpt lat="-27.6469302" lon="153.1515574">
<ele>11.612</ele>
<time>2015-12-01T21:25:59.834Z</time>
</trkpt>
<trkpt lat="-27.6470777" lon="153.1520704">
<ele>10.227</ele>
<time>2015-12-01T21:26:01.862Z</time>
</trkpt>
<trkpt lat="-27.6473033" lon="153.1528396">
<ele>8.643</ele>
<time>2015-12-01T21:26:04.865Z</time>
</trkpt>
<trkpt lat="-27.6474588" lon="153.1533522">
<ele>7.408</ele>
<time>2015-12-01T21:26:06.843Z</time>
</trkpt>
<trkpt lat="-27.6476222" lon="153.1538743">
<ele>6.868</ele>
<time>2015-12-01T21:26:08.860Z</time>
</trkpt>
<trkpt lat="-27.6478572" lon="153.1546440">
<ele>6.529</ele>
<time>2015-12-01T21:26:11.842Z</time>
</trkpt>
<trkpt lat="-27.6481302" lon="153.1553878">
<ele>5.682</ele>
<time>2015-12-01T21:26:14.797Z</time>
</trkpt>
<trkpt lat="-27.6484686" lon="153.1561656">
<ele>4.284</ele>
<time>2015-12-01T21:26:17.952Z</time>
</trkpt>
<trkpt lat="-27.6487244" lon="153.1566348">
<ele>3.014</ele>
<time>2015-12-01T21:26:19.947Z</time>
</trkpt>
<trkpt lat="-27.6490191" lon="153.1570838">
<ele>2.386</ele>
<time>2015-12-01T21:26:21.972Z</time>
</trkpt>
<trkpt lat="-27.6495039" lon="153.1577040">
<ele>2.352</ele>
<time>2015-12-01T21:26:24.978Z</time>
</trkpt>
<trkpt lat="-27.6498502" lon="153.1581023">
<ele>2.694</ele>
<time>2015-12-01T21:26:27.004Z</time>
</trkpt>
<trkpt lat="-27.6501899" lon="153.1584873">
<ele>3.314</ele>
<time>2015-12-01T21:26:28.983Z</time>
</trkpt>
<trkpt lat="-27.6507030" lon="153.1590507">
<ele>4.017</ele>
<time>2015-12-01T21:26:31.961Z</time>
</trkpt>
<trkpt lat="-27.6510260" lon="153.1594320">
<ele>4.626</ele>
<time>2015-12-01T21:26:33.958Z</time>
</trkpt>
<trkpt lat="-27.6513470" lon="153.1598025">
<ele>5.201</ele>
<time>2015-12-01T21:26:35.966Z</time>
</trkpt>
<trkpt lat="-27.6518077" lon="153.1603519">
<ele>5.627</ele>
<time>2015-12-01T21:26:38.961Z</time>
</trkpt>
<trkpt lat="-27.6522546" lon="153.1608865">
<ele>5.699</ele>
<time>2015-12-01T21:26:41.948Z</time>
</trkpt>
<trkpt lat="-27.6525646" lon="153.1612224">
<ele>5.459</ele>
<time>2015-12-01T21:26:43.941Z</time>
</trkpt>
<trkpt lat="-27.6528694" lon="153.1615628">
<ele>4.964</ele>
<time>2015-12-01T21:26:45.935Z</time>
</trkpt>
<trkpt lat="-27.6532975" lon="153.1620814">
<ele>4.413</ele>
<time>2015-12-01T21:26:48.853Z</time>
</trkpt>
<trkpt lat="-27.6535937" lon="153.1624710">
<ele>4.035</ele>
<time>2015-12-01T21:26:50.911Z</time>
</trkpt>
<trkpt lat="-27.6540566" lon="153.1630224">
<ele>3.879</ele>
<time>2015-12-01T21:26:53.892Z</time>
</trkpt>
<trkpt lat="-27.6543655" lon="153.1633945">
<ele>4.373</ele>
<time>2015-12-01T21:26:55.902Z</time>
</trkpt>
<trkpt lat="-27.6548386" lon="153.1638818">
<ele>5.903</ele>
<time>2015-12-01T21:26:58.839Z</time>
</trkpt>
<trkpt lat="-27.6551259" lon="153.1642245">
<ele>7.715</ele>
<time>2015-12-01T21:27:00.835Z</time>
</trkpt>
<trkpt lat="-27.6555528" lon="153.1647426">
<ele>8.098</ele>
<time>2015-12-01T21:27:03.873Z</time>
</trkpt>
<trkpt lat="-27.6558262" lon="153.1650813">
<ele>6.488</ele>
<time>2015-12-01T21:27:05.860Z</time>
</trkpt>
<trkpt lat="-27.6561084" lon="153.1654168">
<ele>4.236</ele>
<time>2015-12-01T21:27:07.876Z</time>
</trkpt>
<trkpt lat="-27.6565496" lon="153.1658910">
<ele>2.713</ele>
<time>2015-12-01T21:27:10.908Z</time>
</trkpt>
<trkpt lat="-27.6569829" lon="153.1663172">
<ele>1.916</ele>
<time>2015-12-01T21:27:13.903Z</time>
</trkpt>
<trkpt lat="-27.6573691" lon="153.1667016">
<ele>1.493</ele>
<time>2015-12-01T21:27:16.842Z</time>
</trkpt>
<trkpt lat="-27.6577288" lon="153.1670638">
<ele>0.946</ele>
<time>2015-12-01T21:27:19.824Z</time>
</trkpt>
<trkpt lat="-27.6579671" lon="153.1672836">
<ele>0.000</ele>
<time>2015-12-01T21:27:21.823Z</time>
</trkpt>
<trkpt lat="-27.6582010" lon="153.1674864">
<ele>0.000</ele>
<time>2015-12-01T21:27:23.761Z</time>
</trkpt>
<trkpt lat="-27.6585430" lon="153.1678272">
<ele>0.000</ele>
<time>2015-12-01T21:27:26.697Z</time>
</trkpt>
<trkpt lat="-27.6588485" lon="153.1680305">
<ele>0.000</ele>
<time>2015-12-01T21:27:28.878Z</time>
</trkpt>
<trkpt lat="-27.6592459" lon="153.1683647">
<ele>0.000</ele>
<time>2015-12-01T21:27:31.879Z</time>
</trkpt>
<trkpt lat="-27.6595148" lon="153.1685872">
<ele>0.103</ele>
<time>2015-12-01T21:27:33.894Z</time>
</trkpt>
<trkpt lat="-27.6597707" lon="153.1687955">
<ele>1.398</ele>
<time>2015-12-01T21:27:35.808Z</time>
</trkpt>
<trkpt lat="-27.6600380" lon="153.1690204">
<ele>2.266</ele>
<time>2015-12-01T21:27:37.868Z</time>
</trkpt>
<trkpt lat="-27.6602869" lon="153.1692423">
<ele>2.725</ele>
<time>2015-12-01T21:27:39.881Z</time>
</trkpt>
<trkpt lat="-27.6606806" lon="153.1695367">
<ele>2.990</ele>
<time>2015-12-01T21:27:42.929Z</time>
</trkpt>
<trkpt lat="-27.6609228" lon="153.1697422">
<ele>3.624</ele>
<time>2015-12-01T21:27:44.866Z</time>
</trkpt>
<trkpt lat="-27.6612871" lon="153.1700879">
<ele>5.225</ele>
<time>2015-12-01T21:27:47.915Z</time>
</trkpt>
<trkpt lat="-27.6615077" lon="153.1703263">
<ele>7.818</ele>
<time>2015-12-01T21:27:49.928Z</time>
</trkpt>
<trkpt lat="-27.6617039" lon="153.1705706">
<ele>10.577</ele>
<time>2015-12-01T21:27:51.926Z</time>
</trkpt>
<trkpt lat="-27.6619405" lon="153.1709748">
<ele>12.485</ele>
<time>2015-12-01T21:27:54.941Z</time>
</trkpt>
<trkpt lat="-27.6620326" lon="153.1712781">
<ele>13.192</ele>
<time>2015-12-01T21:27:56.988Z</time>
</trkpt>
<trkpt lat="-27.6621117" lon="153.1715614">
<ele>12.954</ele>
<time>2015-12-01T21:27:58.967Z</time>
</trkpt>
<trkpt lat="-27.6621792" lon="153.1719860">
<ele>11.921</ele>
<time>2015-12-01T21:28:02.108Z</time>
</trkpt>
<trkpt lat="-27.6622055" lon="153.1722019">
<ele>9.937</ele>
<time>2015-12-01T21:28:04.086Z</time>
</trkpt>
<trkpt lat="-27.6622208" lon="153.1723626">
<ele>7.097</ele>
<time>2015-12-01T21:28:06.166Z</time>
</trkpt>
<trkpt lat="-27.6622450" lon="153.1724717">
<ele>4.030</ele>
<time>2015-12-01T21:28:07.999Z</time>
</trkpt>
<trkpt lat="-27.6622450" lon="153.1724717">
<ele>1.592</ele>
<time>2015-12-01T21:28:11.999Z</time>
</trkpt>
<trkpt lat="-27.6622450" lon="153.1724717">
<ele>0.463</ele>
<time>2015-12-01T21:28:13.672Z</time>
</trkpt>
<trkpt lat="-27.6622710" lon="153.1727575">
<ele>0.590</ele>
<time>2015-12-01T21:28:18.122Z</time>
</trkpt>
<trkpt lat="-27.6623273" lon="153.1730218">
<ele>1.159</ele>
<time>2015-12-01T21:28:20.070Z</time>
</trkpt>
<trkpt lat="-27.6624299" lon="153.1734970">
<ele>1.641</ele>
<time>2015-12-01T21:28:23.159Z</time>
</trkpt>
<trkpt lat="-27.6624961" lon="153.1739217">
<ele>2.007</ele>
<time>2015-12-01T21:28:26.126Z</time>
</trkpt>
<trkpt lat="-27.6625198" lon="153.1741422">
<ele>1.902</ele>
<time>2015-12-01T21:28:27.999Z</time>
</trkpt>
<trkpt lat="-27.6625198" lon="153.1741422">
<ele>1.101</ele>
<time>2015-12-01T21:28:31.999Z</time>
</trkpt>
<trkpt lat="-27.6625198" lon="153.1741422">
<ele>0.371</ele>
<time>2015-12-01T21:29:19.586Z</time>
</trkpt>
<trkpt lat="-27.6625285" lon="153.1744006">
<ele>0.375</ele>
<time>2015-12-01T21:29:25.200Z</time>
</trkpt>
<trkpt lat="-27.6625904" lon="153.1747351">
<ele>0.397</ele>
<time>2015-12-01T21:29:28.205Z</time>
</trkpt>
<trkpt lat="-27.6626132" lon="153.1750209">
<ele>0.000</ele>
<time>2015-12-01T21:29:30.031Z</time>
</trkpt>
<trkpt lat="-27.6626790" lon="153.1755400">
<ele>0.000</ele>
<time>2015-12-01T21:29:33.014Z</time>
</trkpt>
<trkpt lat="-27.6627244" lon="153.1758856">
<ele>0.000</ele>
<time>2015-12-01T21:29:34.855Z</time>
</trkpt>
<trkpt lat="-27.6627916" lon="153.1763968">
<ele>0.631</ele>
<time>2015-12-01T21:29:37.543Z</time>
</trkpt>
<trkpt lat="-27.6628774" lon="153.1769021">
<ele>1.973</ele>
<time>2015-12-01T21:29:40.244Z</time>
</trkpt>
<trkpt lat="-27.6629219" lon="153.1772147">
<ele>2.690</ele>
<time>2015-12-01T21:29:41.994Z</time>
</trkpt>
<trkpt lat="-27.6629974" lon="153.1776132">
<ele>2.605</ele>
<time>2015-12-01T21:29:44.555Z</time>
</trkpt>
<trkpt lat="-27.6630406" lon="153.1777958">
<ele>1.796</ele>
<time>2015-12-01T21:29:45.967Z</time>
</trkpt>
<trkpt lat="-27.6630522" lon="153.1779339">
<ele>0.469</ele>
<time>2015-12-01T21:29:47.164Z</time>
</trkpt>
<trkpt lat="-27.6630663" lon="153.1780498">
<ele>0.000</ele>
<time>2015-12-01T21:29:48.724Z</time>
</trkpt>
<trkpt lat="-27.6630982" lon="153.1781845">
<ele>0.000</ele>
<time>2015-12-01T21:29:51.000Z</time>
</trkpt>
<trkpt lat="-27.6632804" lon="153.1781510">
<ele>0.000</ele>
<time>2015-12-01T21:29:56.279Z</time>
</trkpt>
<trkpt lat="-27.6631565" lon="153.1778638">
<ele>0.000</ele>
<time>2015-12-01T21:30:04.047Z</time>
</trkpt>
<trkpt lat="-27.6631607" lon="153.1777459">
<ele>0.000</ele>
<time>2015-12-01T21:30:07.179Z</time>
</trkpt>
<trkpt lat="-27.6631354" lon="153.1776480">
<ele>0.000</ele>
<time>2015-12-01T21:30:10.483Z</time>
</trkpt>
<trkpt lat="-27.6631197" lon="153.1775410">
<ele>0.000</ele>
<time>2015-12-01T21:30:15.999Z</time>
</trkpt>
<trkpt lat="-27.6631197" lon="153.1775410">
<ele>0.000</ele>
<time>2015-12-01T21:30:16.999Z</time>
</trkpt>
<trkpt lat="-27.6631197" lon="153.1775410">
<ele>0.000</ele>
<time>2015-12-01T21:35:31.737Z</time>
</trkpt>
<trkpt lat="-27.6633358" lon="153.1775014">
<ele>0.000</ele>
<time>2015-12-01T21:36:10.999Z</time>
</trkpt>
<trkpt lat="-27.6633358" lon="153.1775014">
<ele>0.000</ele>
<time>2015-12-01T21:36:15.999Z</time>
</trkpt>
<trkpt lat="-27.6633358" lon="153.1775014">
<ele>0.182</ele>
<time>2015-12-01T21:41:42.362Z</time>
</trkpt>
<trkpt lat="-27.6631045" lon="153.1773884">
<ele>0.309</ele>
<time>2015-12-01T21:41:58.075Z</time>
</trkpt>
<trkpt lat="-27.6630150" lon="153.1772355">
<ele>1.407</ele>
<time>2015-12-01T21:42:02.326Z</time>
</trkpt>
<trkpt lat="-27.6629595" lon="153.1769872">
<ele>4.494</ele>
<time>2015-12-01T21:42:06.634Z</time>
</trkpt>
<trkpt lat="-27.6628819" lon="153.1766106">
<ele>8.052</ele>
<time>2015-12-01T21:42:10.000Z</time>
</trkpt>
<trkpt lat="-27.6628819" lon="153.1766106">
<ele>10.382</ele>
<time>2015-12-01T21:42:17.000Z</time>
</trkpt>
<trkpt lat="-27.6628819" lon="153.1766106">
<ele>11.302</ele>
<time>2015-12-01T21:42:17.100Z</time>
</trkpt>
<trkpt lat="-27.6628395" lon="153.1763061">
<ele>10.837</ele>
<time>2015-12-01T21:42:31.503Z</time>
</trkpt>
<trkpt lat="-27.6627282" lon="153.1762068">
<ele>9.506</ele>
<time>2015-12-01T21:42:34.036Z</time>
</trkpt>
<trkpt lat="-27.6627876" lon="153.1765365">
<ele>8.259</ele>
<time>2015-12-01T21:42:36.972Z</time>
</trkpt>
<trkpt lat="-27.6628237" lon="153.1767318">
<ele>7.970</ele>
<time>2015-12-01T21:42:38.265Z</time>
</trkpt>
<trkpt lat="-27.6628807" lon="153.1770105">
<ele>8.969</ele>
<time>2015-12-01T21:42:40.000Z</time>
</trkpt>
<trkpt lat="-27.6629299" lon="153.1773154">
<ele>11.015</ele>
<time>2015-12-01T21:42:41.815Z</time>
</trkpt>
<trkpt lat="-27.6629880" lon="153.1776077">
<ele>13.234</ele>
<time>2015-12-01T21:42:43.584Z</time>
</trkpt>
<trkpt lat="-27.6630563" lon="153.1779797">
<ele>14.704</ele>
<time>2015-12-01T21:42:46.393Z</time>
</trkpt>
<trkpt lat="-27.6630939" lon="153.1781236">
<ele>15.024</ele>
<time>2015-12-01T21:42:48.107Z</time>
</trkpt>
<trkpt lat="-27.6633419" lon="153.1781034">
<ele>14.181</ele>
<time>2015-12-01T21:42:51.515Z</time>
</trkpt>
<trkpt lat="-27.6634613" lon="153.1780597">
<ele>12.494</ele>
<time>2015-12-01T21:42:54.226Z</time>
</trkpt>
<trkpt lat="-27.6635155" lon="153.1781678">
<ele>10.722</ele>
<time>2015-12-01T21:42:57.244Z</time>
</trkpt>
<trkpt lat="-27.6634536" lon="153.1782784">
<ele>9.494</ele>
<time>2015-12-01T21:43:00.515Z</time>
</trkpt>
<trkpt lat="-27.6635168" lon="153.1783616">
<ele>9.033</ele>
<time>2015-12-01T21:43:03.421Z</time>
</trkpt>
<trkpt lat="-27.6635080" lon="153.1785672">
<ele>9.196</ele>
<time>2015-12-01T21:43:08.874Z</time>
</trkpt>
<trkpt lat="-27.6636020" lon="153.1786293">
<ele>9.566</ele>
<time>2015-12-01T21:43:12.155Z</time>
</trkpt>
<trkpt lat="-27.6634194" lon="153.1786306">
<ele>9.840</ele>
<time>2015-12-01T21:43:16.949Z</time>
</trkpt>
<trkpt lat="-27.6635347" lon="153.1787366">
<ele>9.961</ele>
<time>2015-12-01T21:43:23.000Z</time>
</trkpt>
<trkpt lat="-27.6635347" lon="153.1787366">
<ele>9.980</ele>
<time>2015-12-01T21:43:25.000Z</time>
</trkpt>
</trkseg>
<trkseg>
<trkpt lat="-28.2772089" lon="153.5782337">
<ele>6.793</ele>
<time>2015-12-02T02:52:51.000Z</time>
</trkpt>
<trkpt lat="-28.2772089" lon="153.5782337">
<ele>6.791</ele>
<time>2015-12-02T02:52:57.586Z</time>
</trkpt>
<trkpt lat="-28.2771378" lon="153.5780525">
<ele>6.789</ele>
<time>2015-12-02T02:53:02.666Z</time>
</trkpt>
<trkpt lat="-28.2770953" lon="153.5778400">
<ele>6.638</ele>
<time>2015-12-02T02:53:06.724Z</time>
</trkpt>
<trkpt lat="-28.2770869" lon="153.5777340">
<ele>6.247</ele>
<time>2015-12-02T02:53:09.200Z</time>
</trkpt>
<trkpt lat="-28.2770660" lon="153.5776240">
<ele>5.786</ele>
<time>2015-12-02T02:53:11.595Z</time>
</trkpt>
<trkpt lat="-28.2770324" lon="153.5774779">
<ele>5.447</ele>
<time>2015-12-02T02:53:14.224Z</time>
</trkpt>
<trkpt lat="-28.2769547" lon="153.5773240">
<ele>5.271</ele>
<time>2015-12-02T02:53:17.048Z</time>
</trkpt>
<trkpt lat="-28.2768922" lon="153.5772008">
<ele>5.285</ele>
<time>2015-12-02T02:53:19.151Z</time>
</trkpt>
<trkpt lat="-28.2768356" lon="153.5770734">
<ele>5.387</ele>
<time>2015-12-02T02:53:21.179Z</time>
</trkpt>
<trkpt lat="-28.2767874" lon="153.5768674">
<ele>5.449</ele>
<time>2015-12-02T02:53:24.324Z</time>
</trkpt>
<trkpt lat="-28.2768015" lon="153.5766657">
<ele>5.434</ele>
<time>2015-12-02T02:53:27.600Z</time>
</trkpt>
<trkpt lat="-28.2768446" lon="153.5765619">
<ele>5.367</ele>
<time>2015-12-02T02:53:29.522Z</time>
</trkpt>
<trkpt lat="-28.2768950" lon="153.5764549">
<ele>5.168</ele>
<time>2015-12-02T02:53:31.601Z</time>
</trkpt>
<trkpt lat="-28.2769147" lon="153.5762896">
<ele>4.808</ele>
<time>2015-12-02T02:53:34.419Z</time>
</trkpt>
<trkpt lat="-28.2769209" lon="153.5761700">
<ele>4.465</ele>
<time>2015-12-02T02:53:36.263Z</time>
</trkpt>
<trkpt lat="-28.2769580" lon="153.5759562">
<ele>4.288</ele>
<time>2015-12-02T02:53:39.420Z</time>
</trkpt>
<trkpt lat="-28.2769971" lon="153.5758296">
<ele>4.213</ele>
<time>2015-12-02T02:53:41.187Z</time>
</trkpt>
<trkpt lat="-28.2771040" lon="153.5756509">
<ele>4.185</ele>
<time>2015-12-02T02:53:43.600Z</time>
</trkpt>
<trkpt lat="-28.2772794" lon="153.5755648">
<ele>4.279</ele>
<time>2015-12-02T02:53:45.579Z</time>
</trkpt>
<trkpt lat="-28.2774781" lon="153.5754909">
<ele>4.557</ele>
<time>2015-12-02T02:53:47.624Z</time>
</trkpt>
<trkpt lat="-28.2776611" lon="153.5753821">
<ele>4.879</ele>
<time>2015-12-02T02:53:49.645Z</time>
</trkpt>
<trkpt lat="-28.2778136" lon="153.5752343">
<ele>4.848</ele>
<time>2015-12-02T02:53:51.536Z</time>
</trkpt>
<trkpt lat="-28.2780365" lon="153.5749437">
<ele>4.163</ele>
<time>2015-12-02T02:53:54.583Z</time>
</trkpt>
<trkpt lat="-28.2782339" lon="153.5745996">
<ele>3.046</ele>
<time>2015-12-02T02:53:57.701Z</time>
</trkpt>
<trkpt lat="-28.2784571" lon="153.5743057">
<ele>2.056</ele>
<time>2015-12-02T02:54:00.610Z</time>
</trkpt>
<trkpt lat="-28.2787656" lon="153.5741101">
<ele>1.505</ele>
<time>2015-12-02T02:54:03.542Z</time>
</trkpt>
<trkpt lat="-28.2790181" lon="153.5740659">
<ele>1.352</ele>
<time>2015-12-02T02:54:05.636Z</time>
</trkpt>
<trkpt lat="-28.2793909" lon="153.5740708">
<ele>1.400</ele>
<time>2015-12-02T02:54:08.805Z</time>
</trkpt>
<trkpt lat="-28.2797134" lon="153.5741353">
<ele>1.492</ele>
<time>2015-12-02T02:54:11.917Z</time>
</trkpt>
<trkpt lat="-28.2798938" lon="153.5741896">
<ele>1.360</ele>
<time>2015-12-02T02:54:14.131Z</time>
</trkpt>
<trkpt lat="-28.2801233" lon="153.5742645">
<ele>0.813</ele>
<time>2015-12-02T02:54:17.009Z</time>
</trkpt>
<trkpt lat="-28.2803755" lon="153.5742323">
<ele>0.127</ele>
<time>2015-12-02T02:54:19.739Z</time>
</trkpt>
<trkpt lat="-28.2805965" lon="153.5742142">
<ele>0.000</ele>
<time>2015-12-02T02:54:21.836Z</time>
</trkpt>
<trkpt lat="-28.2808065" lon="153.5741997">
<ele>0.000</ele>
<time>2015-12-02T02:54:23.880Z</time>
</trkpt>
<trkpt lat="-28.2811004" lon="153.5741545">
<ele>0.350</ele>
<time>2015-12-02T02:54:26.877Z</time>
</trkpt>
<trkpt lat="-28.2812675" lon="153.5740969">
<ele>0.751</ele>
<time>2015-12-02T02:54:28.684Z</time>
</trkpt>
<trkpt lat="-28.2814500" lon="153.5740486">
<ele>0.869</ele>
<time>2015-12-02T02:54:30.508Z</time>
</trkpt>
<trkpt lat="-28.2817745" lon="153.5739783">
<ele>0.772</ele>
<time>2015-12-02T02:54:33.402Z</time>
</trkpt>
<trkpt lat="-28.2821578" lon="153.5739073">
<ele>0.690</ele>
<time>2015-12-02T02:54:36.568Z</time>
</trkpt>
<trkpt lat="-28.2825235" lon="153.5738350">
<ele>0.760</ele>
<time>2015-12-02T02:54:39.632Z</time>
</trkpt>
<trkpt lat="-28.2827489" lon="153.5737881">
<ele>0.716</ele>
<time>2015-12-02T02:54:41.615Z</time>
</trkpt>
<trkpt lat="-28.2829721" lon="153.5737441">
<ele>0.194</ele>
<time>2015-12-02T02:54:43.566Z</time>
</trkpt>
<trkpt lat="-28.2833178" lon="153.5736844">
<ele>0.000</ele>
<time>2015-12-02T02:54:46.580Z</time>
</trkpt>
<trkpt lat="-28.2835355" lon="153.5736644">
<ele>0.000</ele>
<time>2015-12-02T02:54:48.580Z</time>
</trkpt>
<trkpt lat="-28.2837463" lon="153.5736328">
<ele>0.000</ele>
<time>2015-12-02T02:54:50.714Z</time>
</trkpt>
<trkpt lat="-28.2839243" lon="153.5736006">
<ele>0.000</ele>
<time>2015-12-02T02:54:52.774Z</time>
</trkpt>
<trkpt lat="-28.2840823" lon="153.5736382">
<ele>0.000</ele>
<time>2015-12-02T02:54:54.797Z</time>
</trkpt>
<trkpt lat="-28.2843161" lon="153.5736093">
<ele>0.000</ele>
<time>2015-12-02T02:54:57.581Z</time>
</trkpt>
<trkpt lat="-28.2845808" lon="153.5734995">
<ele>0.000</ele>
<time>2015-12-02T02:55:00.605Z</time>
</trkpt>
<trkpt lat="-28.2847725" lon="153.5734441">
<ele>0.000</ele>
<time>2015-12-02T02:55:02.642Z</time>
</trkpt>
<trkpt lat="-28.2849539" lon="153.5733957">
<ele>0.000</ele>
<time>2015-12-02T02:55:04.446Z</time>
</trkpt>
<trkpt lat="-28.2851684" lon="153.5733601">
<ele>0.000</ele>
<time>2015-12-02T02:55:06.348Z</time>
</trkpt>
<trkpt lat="-28.2854234" lon="153.5733072">
<ele>0.000</ele>
<time>2015-12-02T02:55:08.457Z</time>
</trkpt>
<trkpt lat="-28.2856681" lon="153.5732537">
<ele>0.000</ele>
<time>2015-12-02T02:55:10.436Z</time>
</trkpt>
<trkpt lat="-28.2860358" lon="153.5731758">
<ele>0.000</ele>
<time>2015-12-02T02:55:13.430Z</time>
</trkpt>
<trkpt lat="-28.2863843" lon="153.5731092">
<ele>0.220</ele>
<time>2015-12-02T02:55:16.298Z</time>
</trkpt>
<trkpt lat="-28.2866271" lon="153.5730600">
<ele>0.534</ele>
<time>2015-12-02T02:55:18.347Z</time>
</trkpt>
<trkpt lat="-28.2868416" lon="153.5730123">
<ele>0.817</ele>
<time>2015-12-02T02:55:20.316Z</time>
</trkpt>
<trkpt lat="-28.2871450" lon="153.5729445">
<ele>0.889</ele>
<time>2015-12-02T02:55:23.369Z</time>
</trkpt>
<trkpt lat="-28.2873244" lon="153.5729009">
<ele>0.305</ele>
<time>2015-12-02T02:55:25.415Z</time>
</trkpt>
<trkpt lat="-28.2874951" lon="153.5728976">
<ele>0.000</ele>
<time>2015-12-02T02:55:27.371Z</time>
</trkpt>
<trkpt lat="-28.2877444" lon="153.5729461">
<ele>0.000</ele>
<time>2015-12-02T02:55:30.163Z</time>
</trkpt>
<trkpt lat="-28.2879499" lon="153.5728918">
<ele>0.000</ele>
<time>2015-12-02T02:55:32.312Z</time>
</trkpt>
<trkpt lat="-28.2882406" lon="153.5728283">
<ele>0.000</ele>
<time>2015-12-02T02:55:35.289Z</time>
</trkpt>
<trkpt lat="-28.2885298" lon="153.5727704">
<ele>0.000</ele>
<time>2015-12-02T02:55:38.251Z</time>
</trkpt>
<trkpt lat="-28.2887322" lon="153.5727318">
<ele>0.000</ele>
<time>2015-12-02T02:55:40.341Z</time>
</trkpt>
<trkpt lat="-28.2890152" lon="153.5726873">
<ele>0.000</ele>
<time>2015-12-02T02:55:43.279Z</time>
</trkpt>
<trkpt lat="-28.2892150" lon="153.5726648">
<ele>0.000</ele>
<time>2015-12-02T02:55:45.319Z</time>
</trkpt>
<trkpt lat="-28.2895039" lon="153.5727090">
<ele>0.000</ele>
<time>2015-12-02T02:55:48.233Z</time>
</trkpt>
<trkpt lat="-28.2897619" lon="153.5728875">
<ele>0.000</ele>
<time>2015-12-02T02:55:51.249Z</time>
</trkpt>
<trkpt lat="-28.2900651" lon="153.5730548">
<ele>0.000</ele>
<time>2015-12-02T02:55:54.763Z</time>
</trkpt>
<trkpt lat="-28.2903143" lon="153.5731202">
<ele>0.000</ele>
<time>2015-12-02T02:55:57.501Z</time>
</trkpt>
<trkpt lat="-28.2905114" lon="153.5731043">
<ele>0.000</ele>
<time>2015-12-02T02:55:59.471Z</time>
</trkpt>
<trkpt lat="-28.2907162" lon="153.5730619">
<ele>0.000</ele>
<time>2015-12-02T02:56:01.486Z</time>
</trkpt>
<trkpt lat="-28.2910006" lon="153.5729836">
<ele>0.000</ele>
<time>2015-12-02T02:56:04.447Z</time>
</trkpt>
<trkpt lat="-28.2912504" lon="153.5729140">
<ele>0.000</ele>
<time>2015-12-02T02:56:07.296Z</time>
</trkpt>
<trkpt lat="-28.2914149" lon="153.5728759">
<ele>0.000</ele>
<time>2015-12-02T02:56:09.301Z</time>
</trkpt>
<trkpt lat="-28.2916537" lon="153.5728530">
<ele>0.000</ele>
<time>2015-12-02T02:56:12.314Z</time>
</trkpt>
<trkpt lat="-28.2917932" lon="153.5728467">
<ele>0.000</ele>
<time>2015-12-02T02:56:14.235Z</time>
</trkpt>
<trkpt lat="-28.2919196" lon="153.5727811">
<ele>0.000</ele>
<time>2015-12-02T02:56:16.107Z</time>
</trkpt>
<trkpt lat="-28.2920854" lon="153.5727082">
<ele>0.000</ele>
<time>2015-12-02T02:56:18.222Z</time>
</trkpt>
<trkpt lat="-28.2923694" lon="153.5726261">
<ele>0.000</ele>
<time>2015-12-02T02:56:21.377Z</time>
</trkpt>
<trkpt lat="-28.2925525" lon="153.5725750">
<ele>0.000</ele>
<time>2015-12-02T02:56:23.315Z</time>
</trkpt>
<trkpt lat="-28.2928363" lon="153.5725035">
<ele>0.000</ele>
<time>2015-12-02T02:56:26.332Z</time>
</trkpt>
<trkpt lat="-28.2930131" lon="153.5724553">
<ele>0.000</ele>
<time>2015-12-02T02:56:28.223Z</time>
</trkpt>
<trkpt lat="-28.2932150" lon="153.5724050">
<ele>0.000</ele>
<time>2015-12-02T02:56:30.232Z</time>
</trkpt>
<trkpt lat="-28.2935296" lon="153.5723111">
<ele>0.000</ele>
<time>2015-12-02T02:56:33.159Z</time>
</trkpt>
<trkpt lat="-28.2937709" lon="153.5722494">
<ele>0.000</ele>
<time>2015-12-02T02:56:35.198Z</time>
</trkpt>
<trkpt lat="-28.2940144" lon="153.5721866">
<ele>0.000</ele>
<time>2015-12-02T02:56:37.262Z</time>
</trkpt>
<trkpt lat="-28.2943565" lon="153.5721133">
<ele>0.000</ele>
<time>2015-12-02T02:56:40.347Z</time>
</trkpt>
<trkpt lat="-28.2945474" lon="153.5720806">
<ele>0.349</ele>
<time>2015-12-02T02:56:42.529Z</time>
</trkpt>
<trkpt lat="-28.2947608" lon="153.5720760">
<ele>0.526</ele>
<time>2015-12-02T02:56:45.441Z</time>
</trkpt>
<trkpt lat="-28.2949238" lon="153.5720188">
<ele>0.187</ele>
<time>2015-12-02T02:56:47.890Z</time>
</trkpt>
<trkpt lat="-28.2951680" lon="153.5719103">
<ele>0.000</ele>
<time>2015-12-02T02:56:50.982Z</time>
</trkpt>
<trkpt lat="-28.2953697" lon="153.5718388">
<ele>0.000</ele>
<time>2015-12-02T02:56:53.075Z</time>
</trkpt>
<trkpt lat="-28.2956395" lon="153.5716985">
<ele>0.000</ele>
<time>2015-12-02T02:56:56.053Z</time>
</trkpt>
<trkpt lat="-28.2958715" lon="153.5715655">
<ele>0.077</ele>
<time>2015-12-02T02:56:58.928Z</time>
</trkpt>
<trkpt lat="-28.2960075" lon="153.5714733">
<ele>0.000</ele>
<time>2015-12-02T02:57:00.876Z</time>
</trkpt>
<trkpt lat="-28.2961442" lon="153.5713841">
<ele>0.000</ele>
<time>2015-12-02T02:57:02.806Z</time>
</trkpt>
<trkpt lat="-28.2963201" lon="153.5713165">
<ele>0.000</ele>
<time>2015-12-02T02:57:04.965Z</time>
</trkpt>
<trkpt lat="-28.2965432" lon="153.5712048">
<ele>0.000</ele>
<time>2015-12-02T02:57:07.830Z</time>
</trkpt>
<trkpt lat="-28.2967665" lon="153.5711676">
<ele>0.000</ele>
<time>2015-12-02T02:57:10.810Z</time>
</trkpt>
<trkpt lat="-28.2968899" lon="153.5711735">
<ele>0.000</ele>
<time>2015-12-02T02:57:12.800Z</time>
</trkpt>
<trkpt lat="-28.2970096" lon="153.5710520">
<ele>0.000</ele>
<time>2015-12-02T02:57:15.759Z</time>
</trkpt>
<trkpt lat="-28.2969939" lon="153.5709442">
<ele>0.000</ele>
<time>2015-12-02T02:57:17.523Z</time>
</trkpt>
<trkpt lat="-28.2968826" lon="153.5707307">
<ele>0.000</ele>
<time>2015-12-02T02:57:20.755Z</time>
</trkpt>
<trkpt lat="-28.2968490" lon="153.5705375">
<ele>0.000</ele>
<time>2015-12-02T02:57:22.864Z</time>
</trkpt>
<trkpt lat="-28.2968201" lon="153.5703454">
<ele>0.000</ele>
<time>2015-12-02T02:57:24.879Z</time>
</trkpt>
<trkpt lat="-28.2967708" lon="153.5700524">
<ele>0.000</ele>
<time>2015-12-02T02:57:28.059Z</time>
</trkpt>
<trkpt lat="-28.2967575" lon="153.5698958">
<ele>0.000</ele>
<time>2015-12-02T02:57:30.116Z</time>
</trkpt>
<trkpt lat="-28.2967386" lon="153.5697899">
<ele>0.000</ele>
<time>2015-12-02T02:57:32.279Z</time>
</trkpt>
<trkpt lat="-28.2967351" lon="153.5696867">
<ele>0.000</ele>
<time>2015-12-02T02:57:35.000Z</time>
</trkpt>
<trkpt lat="-28.2967351" lon="153.5696867">
<ele>0.000</ele>
<time>2015-12-02T02:57:37.000Z</time>
</trkpt>
<trkpt lat="-28.2967351" lon="153.5696867">
<ele>0.000</ele>
<time>2015-12-02T02:57:58.464Z</time>
</trkpt>
<trkpt lat="-28.2967273" lon="153.5695045">
<ele>0.000</ele>
<time>2015-12-02T02:58:04.734Z</time>
</trkpt>
<trkpt lat="-28.2966468" lon="153.5693264">
<ele>0.000</ele>
<time>2015-12-02T02:58:07.717Z</time>
</trkpt>
<trkpt lat="-28.2964240" lon="153.5692488">
<ele>0.000</ele>
<time>2015-12-02T02:58:10.658Z</time>
</trkpt>
<trkpt lat="-28.2962278" lon="153.5692133">
<ele>0.000</ele>
<time>2015-12-02T02:58:12.777Z</time>
</trkpt>
<trkpt lat="-28.2960476" lon="153.5691512">
<ele>0.000</ele>
<time>2015-12-02T02:58:14.664Z</time>
</trkpt>
<trkpt lat="-28.2958481" lon="153.5690633">
<ele>0.000</ele>
<time>2015-12-02T02:58:16.581Z</time>
</trkpt>
<trkpt lat="-28.2955268" lon="153.5688716">
<ele>0.000</ele>
<time>2015-12-02T02:58:19.561Z</time>
</trkpt>
<trkpt lat="-28.2952308" lon="153.5685513">
<ele>0.000</ele>
<time>2015-12-02T02:58:22.519Z</time>
</trkpt>
<trkpt lat="-28.2949062" lon="153.5681661">
<ele>0.000</ele>
<time>2015-12-02T02:58:25.528Z</time>
</trkpt>
<trkpt lat="-28.2945427" lon="153.5677588">
<ele>0.000</ele>
<time>2015-12-02T02:58:28.558Z</time>
</trkpt>
<trkpt lat="-28.2942971" lon="153.5674968">
<ele>0.000</ele>
<time>2015-12-02T02:58:30.492Z</time>
</trkpt>
<trkpt lat="-28.2940450" lon="153.5672117">
<ele>0.931</ele>
<time>2015-12-02T02:58:32.471Z</time>
</trkpt>
<trkpt lat="-28.2937927" lon="153.5669113">
<ele>1.761</ele>
<time>2015-12-02T02:58:34.397Z</time>
</trkpt>
<trkpt lat="-28.2933831" lon="153.5664256">
<ele>2.105</ele>
<time>2015-12-02T02:58:37.417Z</time>
</trkpt>
<trkpt lat="-28.2931107" lon="153.5660948">
<ele>2.235</ele>
<time>2015-12-02T02:58:39.400Z</time>
</trkpt>
<trkpt lat="-28.2927958" lon="153.5657763">
<ele>2.395</ele>
<time>2015-12-02T02:58:41.466Z</time>
</trkpt>
<trkpt lat="-28.2923152" lon="153.5653698">
<ele>2.582</ele>
<time>2015-12-02T02:58:44.355Z</time>
</trkpt>
<trkpt lat="-28.2919603" lon="153.5651057">
<ele>2.741</ele>
<time>2015-12-02T02:58:46.323Z</time>
</trkpt>
<trkpt lat="-28.2913473" lon="153.5647782">
<ele>2.948</ele>
<time>2015-12-02T02:58:49.405Z</time>
</trkpt>
<trkpt lat="-28.2907218" lon="153.5645384">
<ele>3.501</ele>
<time>2015-12-02T02:58:52.384Z</time>
</trkpt>
<trkpt lat="-28.2900888" lon="153.5642992">
<ele>4.447</ele>
<time>2015-12-02T02:58:55.387Z</time>
</trkpt>
<trkpt lat="-28.2896663" lon="153.5641464">
<ele>5.116</ele>
<time>2015-12-02T02:58:57.378Z</time>
</trkpt>
<trkpt lat="-28.2892408" lon="153.5639986">
<ele>5.054</ele>
<time>2015-12-02T02:58:59.416Z</time>
</trkpt>
<trkpt lat="-28.2886298" lon="153.5639003">
<ele>4.600</ele>
<time>2015-12-02T02:59:02.353Z</time>
</trkpt>
<trkpt lat="-28.2880264" lon="153.5637415">
<ele>4.186</ele>
<time>2015-12-02T02:59:05.372Z</time>
</trkpt>
<trkpt lat="-28.2876481" lon="153.5635930">
<ele>3.978</ele>
<time>2015-12-02T02:59:07.297Z</time>
</trkpt>
<trkpt lat="-28.2870566" lon="153.5633220">
<ele>4.071</ele>
<time>2015-12-02T02:59:10.312Z</time>
</trkpt>
<trkpt lat="-28.2866569" lon="153.5631291">
<ele>4.688</ele>
<time>2015-12-02T02:59:12.336Z</time>
</trkpt>
<trkpt lat="-28.2862482" lon="153.5629424">
<ele>5.781</ele>
<time>2015-12-02T02:59:14.396Z</time>
</trkpt>
<trkpt lat="-28.2858567" lon="153.5627571">
<ele>6.728</ele>
<time>2015-12-02T02:59:16.393Z</time>
</trkpt>
<trkpt lat="-28.2852753" lon="153.5624621">
<ele>6.948</ele>
<time>2015-12-02T02:59:19.398Z</time>
</trkpt>
<trkpt lat="-28.2848935" lon="153.5622539">
<ele>6.408</ele>
<time>2015-12-02T02:59:21.412Z</time>
</trkpt>
<trkpt lat="-28.2845216" lon="153.5620614">
<ele>5.495</ele>
<time>2015-12-02T02:59:23.361Z</time>
</trkpt>
<trkpt lat="-28.2839281" lon="153.5617610">
<ele>4.719</ele>
<time>2015-12-02T02:59:26.471Z</time>
</trkpt>
<trkpt lat="-28.2835750" lon="153.5615988">
<ele>4.476</ele>
<time>2015-12-02T02:59:28.347Z</time>
</trkpt>
<trkpt lat="-28.2829827" lon="153.5614943">
<ele>4.935</ele>
<time>2015-12-02T02:59:31.337Z</time>
</trkpt>
<trkpt lat="-28.2825888" lon="153.5615182">
<ele>6.163</ele>
<time>2015-12-02T02:59:33.268Z</time>
</trkpt>
<trkpt lat="-28.2819524" lon="153.5616048">
<ele>8.153</ele>
<time>2015-12-02T02:59:36.359Z</time>
</trkpt>
<trkpt lat="-28.2815473" lon="153.5616721">
<ele>10.721</ele>
<time>2015-12-02T02:59:38.317Z</time>
</trkpt>
<trkpt lat="-28.2809148" lon="153.5617759">
<ele>13.206</ele>
<time>2015-12-02T02:59:41.354Z</time>
</trkpt>
<trkpt lat="-28.2804989" lon="153.5618439">
<ele>14.709</ele>
<time>2015-12-02T02:59:43.353Z</time>
</trkpt>
<trkpt lat="-28.2798888" lon="153.5619494">
<ele>14.732</ele>
<time>2015-12-02T02:59:46.320Z</time>
</trkpt>
<trkpt lat="-28.2792949" lon="153.5620655">
<ele>13.350</ele>
<time>2015-12-02T02:59:49.253Z</time>
</trkpt>
<trkpt lat="-28.2786924" lon="153.5621620">
<ele>11.311</ele>
<time>2015-12-02T02:59:52.231Z</time>
</trkpt>
<trkpt lat="-28.2782944" lon="153.5622228">
<ele>10.092</ele>
<time>2015-12-02T02:59:54.214Z</time>
</trkpt>
<trkpt lat="-28.2778937" lon="153.5622826">
<ele>10.320</ele>
<time>2015-12-02T02:59:56.244Z</time>
</trkpt>
<trkpt lat="-28.2775201" lon="153.5623227">
<ele>11.135</ele>
<time>2015-12-02T02:59:58.184Z</time>
</trkpt>
<trkpt lat="-28.2769653" lon="153.5622608">
<ele>11.579</ele>
<time>2015-12-02T03:00:01.131Z</time>
</trkpt>
<trkpt lat="-28.2766092" lon="153.5621318">
<ele>11.458</ele>
<time>2015-12-02T03:00:03.123Z</time>
</trkpt>
<trkpt lat="-28.2762671" lon="153.5619107">
<ele>10.963</ele>
<time>2015-12-02T03:00:05.160Z</time>
</trkpt>
<trkpt lat="-28.2757853" lon="153.5614912">
<ele>10.374</ele>
<time>2015-12-02T03:00:08.192Z</time>
</trkpt>
<trkpt lat="-28.2754594" lon="153.5611870">
<ele>9.870</ele>
<time>2015-12-02T03:00:10.219Z</time>
</trkpt>
<trkpt lat="-28.2751224" lon="153.5609038">
<ele>9.404</ele>
<time>2015-12-02T03:00:12.221Z</time>
</trkpt>
<trkpt lat="-28.2745870" lon="153.5605722">
<ele>8.818</ele>
<time>2015-12-02T03:00:15.145Z</time>
</trkpt>
<trkpt lat="-28.2739766" lon="153.5604126">
<ele>7.980</ele>
<time>2015-12-02T03:00:18.117Z</time>
</trkpt>
<trkpt lat="-28.2735260" lon="153.5604192">
<ele>6.899</ele>
<time>2015-12-02T03:00:20.146Z</time>
</trkpt>
<trkpt lat="-28.2728089" lon="153.5605275">
<ele>5.920</ele>
<time>2015-12-02T03:00:23.165Z</time>
</trkpt>
<trkpt lat="-28.2720658" lon="153.5606520">
<ele>5.530</ele>
<time>2015-12-02T03:00:26.209Z</time>
</trkpt>
<trkpt lat="-28.2715818" lon="153.5607241">
<ele>5.761</ele>
<time>2015-12-02T03:00:28.248Z</time>
</trkpt>
<trkpt lat="-28.2708924" lon="153.5608220">
<ele>5.807</ele>
<time>2015-12-02T03:00:31.248Z</time>
</trkpt>
<trkpt lat="-28.2704512" lon="153.5608900">
<ele>4.507</ele>
<time>2015-12-02T03:00:33.270Z</time>
</trkpt>
<trkpt lat="-28.2698248" lon="153.5609849">
<ele>2.019</ele>
<time>2015-12-02T03:00:36.231Z</time>
</trkpt>
<trkpt lat="-28.2692355" lon="153.5611104">
<ele>0.000</ele>
<time>2015-12-02T03:00:39.191Z</time>
</trkpt>
<trkpt lat="-28.2686765" lon="153.5611958">
<ele>0.000</ele>
<time>2015-12-02T03:00:42.200Z</time>
</trkpt>
<trkpt lat="-28.2681561" lon="153.5612697">
<ele>0.000</ele>
<time>2015-12-02T03:00:45.229Z</time>
</trkpt>
<trkpt lat="-28.2676851" lon="153.5613430">
<ele>0.806</ele>
<time>2015-12-02T03:00:48.226Z</time>
</trkpt>
<trkpt lat="-28.2674017" lon="153.5613776">
<ele>2.435</ele>
<time>2015-12-02T03:00:50.240Z</time>
</trkpt>
<trkpt lat="-28.2671504" lon="153.5614063">
<ele>3.462</ele>
<time>2015-12-02T03:00:52.235Z</time>
</trkpt>
<trkpt lat="-28.2669231" lon="153.5614376">
<ele>3.243</ele>
<time>2015-12-02T03:00:54.385Z</time>
</trkpt>
<trkpt lat="-28.2666602" lon="153.5614648">
<ele>2.211</ele>
<time>2015-12-02T03:00:57.315Z</time>
</trkpt>
<trkpt lat="-28.2664552" lon="153.5614945">
<ele>0.912</ele>
<time>2015-12-02T03:01:00.018Z</time>
</trkpt>
<trkpt lat="-28.2663152" lon="153.5615165">
<ele>0.000</ele>
<time>2015-12-02T03:01:02.139Z</time>
</trkpt>
<trkpt lat="-28.2661455" lon="153.5615446">
<ele>0.000</ele>
<time>2015-12-02T03:01:05.413Z</time>
</trkpt>
<trkpt lat="-28.2660443" lon="153.5615569">
<ele>0.000</ele>
<time>2015-12-02T03:01:07.996Z</time>
</trkpt>
<trkpt lat="-28.2660443" lon="153.5615569">
<ele>0.000</ele>
<time>2015-12-02T03:01:10.996Z</time>
</trkpt>
<trkpt lat="-28.2660443" lon="153.5615569">
<ele>0.000</ele>
<time>2015-12-02T03:01:16.588Z</time>
</trkpt>
<trkpt lat="-28.2658875" lon="153.5615833">
<ele>0.000</ele>
<time>2015-12-02T03:01:21.223Z</time>
</trkpt>
<trkpt lat="-28.2657133" lon="153.5616119">
<ele>0.000</ele>
<time>2015-12-02T03:01:23.255Z</time>
</trkpt>
<trkpt lat="-28.2654822" lon="153.5616515">
<ele>0.808</ele>
<time>2015-12-02T03:01:25.379Z</time>
</trkpt>
<trkpt lat="-28.2650467" lon="153.5617102">
<ele>1.897</ele>
<time>2015-12-02T03:01:28.787Z</time>
</trkpt>
<trkpt lat="-28.2645918" lon="153.5618024">
<ele>2.712</ele>
<time>2015-12-02T03:01:31.999Z</time>
</trkpt>
<trkpt lat="-28.2641108" lon="153.5618894">
<ele>2.807</ele>
<time>2015-12-02T03:01:35.095Z</time>
</trkpt>
<trkpt lat="-28.2637653" lon="153.5619245">
<ele>2.161</ele>
<time>2015-12-02T03:01:37.231Z</time>
</trkpt>
<trkpt lat="-28.2632942" lon="153.5620102">
<ele>1.152</ele>
<time>2015-12-02T03:01:40.125Z</time>
</trkpt>
<trkpt lat="-28.2629597" lon="153.5620470">
<ele>0.177</ele>
<time>2015-12-02T03:01:42.051Z</time>
</trkpt>
<trkpt lat="-28.2624146" lon="153.5620292">
<ele>0.000</ele>
<time>2015-12-02T03:01:45.078Z</time>
</trkpt>
<trkpt lat="-28.2620461" lon="153.5619915">
<ele>0.000</ele>
<time>2015-12-02T03:01:47.074Z</time>
</trkpt>
<trkpt lat="-28.2615075" lon="153.5618555">
<ele>0.000</ele>
<time>2015-12-02T03:01:50.052Z</time>
</trkpt>
<trkpt lat="-28.2611600" lon="153.5617053">
<ele>0.000</ele>
<time>2015-12-02T03:01:52.062Z</time>
</trkpt>
<trkpt lat="-28.2606406" lon="153.5614147">
<ele>0.000</ele>
<time>2015-12-02T03:01:55.127Z</time>
</trkpt>
<trkpt lat="-28.2602879" lon="153.5612145">
<ele>0.000</ele>
<time>2015-12-02T03:01:57.107Z</time>
</trkpt>
<trkpt lat="-28.2597374" lon="153.5609037">
<ele>0.000</ele>
<time>2015-12-02T03:02:00.162Z</time>
</trkpt>
<trkpt lat="-28.2592097" lon="153.5605954">
<ele>0.000</ele>
<time>2015-12-02T03:02:03.124Z</time>
</trkpt>
<trkpt lat="-28.2586851" lon="153.5603200">
<ele>0.000</ele>
<time>2015-12-02T03:02:06.052Z</time>
</trkpt>
<trkpt lat="-28.2583452" lon="153.5601347">
<ele>0.000</ele>
<time>2015-12-02T03:02:08.005Z</time>
</trkpt>
<trkpt lat="-28.2579928" lon="153.5599629">
<ele>0.000</ele>
<time>2015-12-02T03:02:09.989Z</time>
</trkpt>
<trkpt lat="-28.2574398" lon="153.5597797">
<ele>0.000</ele>
<time>2015-12-02T03:02:13.015Z</time>
</trkpt>
<trkpt lat="-28.2568951" lon="153.5596925">
<ele>0.000</ele>
<time>2015-12-02T03:02:16.013Z</time>
</trkpt>
<trkpt lat="-28.2565443" lon="153.5596856">
<ele>0.000</ele>
<time>2015-12-02T03:02:17.985Z</time>
</trkpt>
<trkpt lat="-28.2561915" lon="153.5596675">
<ele>0.000</ele>
<time>2015-12-02T03:02:19.978Z</time>
</trkpt>
<trkpt lat="-28.2556696" lon="153.5596675">
<ele>0.000</ele>
<time>2015-12-02T03:02:22.937Z</time>
</trkpt>
<trkpt lat="-28.2553204" lon="153.5596631">
<ele>0.000</ele>
<time>2015-12-02T03:02:24.882Z</time>
</trkpt>
<trkpt lat="-28.2547840" lon="153.5596449">
<ele>0.000</ele>
<time>2015-12-02T03:02:27.788Z</time>
</trkpt>
<trkpt lat="-28.2542148" lon="153.5595760">
<ele>0.000</ele>
<time>2015-12-02T03:02:30.781Z</time>
</trkpt>
<trkpt lat="-28.2538323" lon="153.5595141">
<ele>0.000</ele>
<time>2015-12-02T03:02:32.762Z</time>
</trkpt>
<trkpt lat="-28.2532550" lon="153.5593644">
<ele>0.000</ele>
<time>2015-12-02T03:02:35.876Z</time>
</trkpt>
<trkpt lat="-28.2529036" lon="153.5592367">
<ele>0.000</ele>
<time>2015-12-02T03:02:37.905Z</time>
</trkpt>
<trkpt lat="-28.2524233" lon="153.5589223">
<ele>0.000</ele>
<time>2015-12-02T03:02:40.940Z</time>
</trkpt>
<trkpt lat="-28.2521450" lon="153.5586334">
<ele>0.000</ele>
<time>2015-12-02T03:02:42.895Z</time>
</trkpt>
<trkpt lat="-28.2518746" lon="153.5582948">
<ele>0.000</ele>
<time>2015-12-02T03:02:44.917Z</time>
</trkpt>
<trkpt lat="-28.2515999" lon="153.5579604">
<ele>0.000</ele>
<time>2015-12-02T03:02:46.927Z</time>
</trkpt>
<trkpt lat="-28.2511630" lon="153.5574735">
<ele>0.000</ele>
<time>2015-12-02T03:02:49.983Z</time>
</trkpt>
<trkpt lat="-28.2508952" lon="153.5571571">
<ele>0.284</ele>
<time>2015-12-02T03:02:51.924Z</time>
</trkpt>
<trkpt lat="-28.2506292" lon="153.5568259">
<ele>0.545</ele>
<time>2015-12-02T03:02:53.910Z</time>
</trkpt>
<trkpt lat="-28.2503431" lon="153.5564925">
<ele>0.121</ele>
<time>2015-12-02T03:02:55.999Z</time>
</trkpt>
<trkpt lat="-28.2499131" lon="153.5560643">
<ele>0.000</ele>
<time>2015-12-02T03:02:58.968Z</time>
</trkpt>
<trkpt lat="-28.2494429" lon="153.5557256">
<ele>0.000</ele>
<time>2015-12-02T03:03:01.898Z</time>
</trkpt>
<trkpt lat="-28.2491083" lon="153.5555205">
<ele>0.000</ele>
<time>2015-12-02T03:03:03.912Z</time>
</trkpt>
<trkpt lat="-28.2486239" lon="153.5552192">
<ele>0.000</ele>
<time>2015-12-02T03:03:06.895Z</time>
</trkpt>
<trkpt lat="-28.2483148" lon="153.5550085">
<ele>0.000</ele>
<time>2015-12-02T03:03:08.970Z</time>
</trkpt>
<trkpt lat="-28.2480288" lon="153.5548154">
<ele>0.000</ele>
<time>2015-12-02T03:03:11.051Z</time>
</trkpt>
<trkpt lat="-28.2477650" lon="153.5546352">
<ele>0.000</ele>
<time>2015-12-02T03:03:13.189Z</time>
</trkpt>
<trkpt lat="-28.2473895" lon="153.5544378">
<ele>0.000</ele>
<time>2015-12-02T03:03:16.171Z</time>
</trkpt>
<trkpt lat="-28.2471401" lon="153.5543265">
<ele>0.000</ele>
<time>2015-12-02T03:03:17.992Z</time>
</trkpt>
<trkpt lat="-28.2468339" lon="153.5542089">
<ele>0.000</ele>
<time>2015-12-02T03:03:20.059Z</time>
</trkpt>
<trkpt lat="-28.2465280" lon="153.5541065">
<ele>0.000</ele>
<time>2015-12-02T03:03:22.178Z</time>
</trkpt>
<trkpt lat="-28.2462394" lon="153.5540674">
<ele>0.000</ele>
<time>2015-12-02T03:03:24.309Z</time>
</trkpt>
<trkpt lat="-28.2458689" lon="153.5539726">
<ele>0.000</ele>
<time>2015-12-02T03:03:27.576Z</time>
</trkpt>
<trkpt lat="-28.2456881" lon="153.5538599">
<ele>0.000</ele>
<time>2015-12-02T03:03:29.735Z</time>
</trkpt>
<trkpt lat="-28.2454974" lon="153.5536914">
<ele>0.000</ele>
<time>2015-12-02T03:03:33.211Z</time>
</trkpt>
<trkpt lat="-28.2454243" lon="153.5535474">
<ele>0.000</ele>
<time>2015-12-02T03:03:36.030Z</time>
</trkpt>
<trkpt lat="-28.2453456" lon="153.5534527">
<ele>0.000</ele>
<time>2015-12-02T03:03:38.219Z</time>
</trkpt>
<trkpt lat="-28.2452420" lon="153.5533065">
<ele>0.000</ele>
<time>2015-12-02T03:03:40.713Z</time>
</trkpt>
<trkpt lat="-28.2451673" lon="153.5530724">
<ele>0.000</ele>
<time>2015-12-02T03:03:43.497Z</time>
</trkpt>
<trkpt lat="-28.2451347" lon="153.5527642">
<ele>0.000</ele>
<time>2015-12-02T03:03:46.346Z</time>
</trkpt>
<trkpt lat="-28.2451279" lon="153.5525172">
<ele>0.000</ele>
<time>2015-12-02T03:03:48.409Z</time>
</trkpt>
<trkpt lat="-28.2449991" lon="153.5521834">
<ele>0.000</ele>
<time>2015-12-02T03:03:51.436Z</time>
</trkpt>
<trkpt lat="-28.2448443" lon="153.5520027">
<ele>0.000</ele>
<time>2015-12-02T03:03:53.526Z</time>
</trkpt>
<trkpt lat="-28.2446463" lon="153.5518934">
<ele>0.000</ele>
<time>2015-12-02T03:03:55.654Z</time>
</trkpt>
<trkpt lat="-28.2444425" lon="153.5519158">
<ele>0.000</ele>
<time>2015-12-02T03:03:57.701Z</time>
</trkpt>
<trkpt lat="-28.2442532" lon="153.5519822">
<ele>0.000</ele>
<time>2015-12-02T03:03:59.726Z</time>
</trkpt>
<trkpt lat="-28.2441119" lon="153.5522351">
<ele>0.000</ele>
<time>2015-12-02T03:04:02.305Z</time>
</trkpt>
<trkpt lat="-28.2440522" lon="153.5526081">
<ele>0.000</ele>
<time>2015-12-02T03:04:05.274Z</time>
</trkpt>
<trkpt lat="-28.2440879" lon="153.5528799">
<ele>0.000</ele>
<time>2015-12-02T03:04:07.254Z</time>
</trkpt>
<trkpt lat="-28.2440607" lon="153.5533034">
<ele>0.000</ele>
<time>2015-12-02T03:04:10.035Z</time>
</trkpt>
<trkpt lat="-28.2439513" lon="153.5536547">
<ele>0.000</ele>
<time>2015-12-02T03:04:12.104Z</time>
</trkpt>
<trkpt lat="-28.2438045" lon="153.5542123">
<ele>0.000</ele>
<time>2015-12-02T03:04:15.213Z</time>
</trkpt>
<trkpt lat="-28.2437095" lon="153.5545728">
<ele>0.000</ele>
<time>2015-12-02T03:04:17.134Z</time>
</trkpt>
<trkpt lat="-28.2436006" lon="153.5549577">
<ele>0.000</ele>
<time>2015-12-02T03:04:19.115Z</time>
</trkpt>
<trkpt lat="-28.2434223" lon="153.5555542">
<ele>0.000</ele>
<time>2015-12-02T03:04:22.157Z</time>
</trkpt>
<trkpt lat="-28.2432991" lon="153.5559554">
<ele>0.000</ele>
<time>2015-12-02T03:04:24.159Z</time>
</trkpt>
<trkpt lat="-28.2431520" lon="153.5563480">
<ele>0.000</ele>
<time>2015-12-02T03:04:26.102Z</time>
</trkpt>
<trkpt lat="-28.2430312" lon="153.5567665">
<ele>0.000</ele>
<time>2015-12-02T03:04:27.978Z</time>
</trkpt>
<trkpt lat="-28.2428721" lon="153.5574496">
<ele>0.000</ele>
<time>2015-12-02T03:04:30.833Z</time>
</trkpt>
<trkpt lat="-28.2427218" lon="153.5579408">
<ele>0.000</ele>
<time>2015-12-02T03:04:32.784Z</time>
</trkpt>
<trkpt lat="-28.2425427" lon="153.5584561">
<ele>0.000</ele>
<time>2015-12-02T03:04:34.742Z</time>
</trkpt>
<trkpt lat="-28.2423321" lon="153.5590108">
<ele>0.000</ele>
<time>2015-12-02T03:04:36.812Z</time>
</trkpt>
<trkpt lat="-28.2419499" lon="153.5597552">
<ele>1.140</ele>
<time>2015-12-02T03:04:39.719Z</time>
</trkpt>
<trkpt lat="-28.2414117" lon="153.5604341">
<ele>2.493</ele>
<time>2015-12-02T03:04:42.780Z</time>
</trkpt>
<trkpt lat="-28.2410036" lon="153.5608295">
<ele>3.479</ele>
<time>2015-12-02T03:04:44.765Z</time>
</trkpt>
<trkpt lat="-28.2402835" lon="153.5613505">
<ele>4.339</ele>
<time>2015-12-02T03:04:47.874Z</time>
</trkpt>
<trkpt lat="-28.2398019" lon="153.5616580">
<ele>5.573</ele>
<time>2015-12-02T03:04:49.957Z</time>
</trkpt>
<trkpt lat="-28.2391125" lon="153.5619457">
<ele>7.326</ele>
<time>2015-12-02T03:04:52.830Z</time>
</trkpt>
<trkpt lat="-28.2386356" lon="153.5620656">
<ele>8.628</ele>
<time>2015-12-02T03:04:54.767Z</time>
</trkpt>
<trkpt lat="-28.2378595" lon="153.5621792">
<ele>8.790</ele>
<time>2015-12-02T03:04:57.839Z</time>
</trkpt>
<trkpt lat="-28.2373420" lon="153.5621625">
<ele>8.655</ele>
<time>2015-12-02T03:04:59.848Z</time>
</trkpt>
<trkpt lat="-28.2368332" lon="153.5621132">
<ele>9.301</ele>
<time>2015-12-02T03:05:01.771Z</time>
</trkpt>
<trkpt lat="-28.2360288" lon="153.5619645">
<ele>10.602</ele>
<time>2015-12-02T03:05:04.807Z</time>
</trkpt>
<trkpt lat="-28.2352566" lon="153.5618125">
<ele>11.583</ele>
<time>2015-12-02T03:05:07.729Z</time>
</trkpt>
<trkpt lat="-28.2344680" lon="153.5616630">
<ele>11.701</ele>
<time>2015-12-02T03:05:10.729Z</time>
</trkpt>
<trkpt lat="-28.2339552" lon="153.5615506">
<ele>11.099</ele>
<time>2015-12-02T03:05:12.718Z</time>
</trkpt>
<trkpt lat="-28.2334633" lon="153.5614126">
<ele>10.089</ele>
<time>2015-12-02T03:05:14.689Z</time>
</trkpt>
<trkpt lat="-28.2329782" lon="153.5612802">
<ele>8.916</ele>
<time>2015-12-02T03:05:16.628Z</time>
</trkpt>
<trkpt lat="-28.2322177" lon="153.5610183">
<ele>7.700</ele>
<time>2015-12-02T03:05:19.685Z</time>
</trkpt>
<trkpt lat="-28.2317190" lon="153.5608270">
<ele>6.639</ele>
<time>2015-12-02T03:05:21.733Z</time>
</trkpt>
<trkpt lat="-28.2312487" lon="153.5606389">
<ele>6.013</ele>
<time>2015-12-02T03:05:23.745Z</time>
</trkpt>
<trkpt lat="-28.2305817" lon="153.5603050">
<ele>5.310</ele>
<time>2015-12-02T03:05:26.719Z</time>
</trkpt>
<trkpt lat="-28.2301563" lon="153.5600697">
<ele>3.907</ele>
<time>2015-12-02T03:05:28.598Z</time>
</trkpt>
<trkpt lat="-28.2294769" lon="153.5596716">
<ele>2.406</ele>
<time>2015-12-02T03:05:31.520Z</time>
</trkpt>
<trkpt lat="-28.2289984" lon="153.5593360">
<ele>1.687</ele>
<time>2015-12-02T03:05:33.586Z</time>
</trkpt>
<trkpt lat="-28.2283222" lon="153.5588459">
<ele>1.910</ele>
<time>2015-12-02T03:05:36.584Z</time>
</trkpt>
<trkpt lat="-28.2277014" lon="153.5583398">
<ele>2.733</ele>
<time>2015-12-02T03:05:39.541Z</time>
</trkpt>
<trkpt lat="-28.2271036" lon="153.5577908">
<ele>3.341</ele>
<time>2015-12-02T03:05:42.541Z</time>
</trkpt>
<trkpt lat="-28.2265204" lon="153.5572116">
<ele>3.281</ele>
<time>2015-12-02T03:05:45.521Z</time>
</trkpt>
<trkpt lat="-28.2259339" lon="153.5565983">
<ele>3.317</ele>
<time>2015-12-02T03:05:48.621Z</time>
</trkpt>
<trkpt lat="-28.2254263" lon="153.5560427">
<ele>4.385</ele>
<time>2015-12-02T03:05:51.497Z</time>
</trkpt>
<trkpt lat="-28.2249261" lon="153.5554774">
<ele>6.250</ele>
<time>2015-12-02T03:05:54.522Z</time>
</trkpt>
<trkpt lat="-28.2246078" lon="153.5551287">
<ele>7.926</ele>
<time>2015-12-02T03:05:56.509Z</time>
</trkpt>
<trkpt lat="-28.2242939" lon="153.5548010">
<ele>8.817</ele>
<time>2015-12-02T03:05:58.490Z</time>
</trkpt>
<trkpt lat="-28.2239916" lon="153.5544677">
<ele>8.922</ele>
<time>2015-12-02T03:06:00.475Z</time>
</trkpt>
<trkpt lat="-28.2235327" lon="153.5539567">
<ele>8.518</ele>
<time>2015-12-02T03:06:03.451Z</time>
</trkpt>
<trkpt lat="-28.2232041" lon="153.5536000">
<ele>7.969</ele>
<time>2015-12-02T03:06:05.430Z</time>
</trkpt>
<trkpt lat="-28.2228501" lon="153.5532368">
<ele>7.600</ele>
<time>2015-12-02T03:06:07.411Z</time>
</trkpt>
<trkpt lat="-28.2224715" lon="153.5528726">
<ele>7.901</ele>
<time>2015-12-02T03:06:09.439Z</time>
</trkpt>
<trkpt lat="-28.2221104" lon="153.5525025">
<ele>9.218</ele>
<time>2015-12-02T03:06:11.482Z</time>
</trkpt>
<trkpt lat="-28.2216050" lon="153.5519675">
<ele>10.923</ele>
<time>2015-12-02T03:06:14.490Z</time>
</trkpt>
<trkpt lat="-28.2212997" lon="153.5515976">
<ele>12.034</ele>
<time>2015-12-02T03:06:16.519Z</time>
</trkpt>
<trkpt lat="-28.2208457" lon="153.5510977">
<ele>12.540</ele>
<time>2015-12-02T03:06:19.402Z</time>
</trkpt>
<trkpt lat="-28.2204172" lon="153.5505159">
<ele>13.060</ele>
<time>2015-12-02T03:06:22.410Z</time>
</trkpt>
<trkpt lat="-28.2201254" lon="153.5501150">
<ele>14.314</ele>
<time>2015-12-02T03:06:24.420Z</time>
</trkpt>
<trkpt lat="-28.2198225" lon="153.5497088">
<ele>16.730</ele>
<time>2015-12-02T03:06:26.460Z</time>
</trkpt>
<trkpt lat="-28.2193403" lon="153.5491434">
<ele>20.287</ele>
<time>2015-12-02T03:06:29.492Z</time>
</trkpt>
<trkpt lat="-28.2190137" lon="153.5488102">
<ele>24.252</ele>
<time>2015-12-02T03:06:31.436Z</time>
</trkpt>
<trkpt lat="-28.2186735" lon="153.5484791">
<ele>27.456</ele>
<time>2015-12-02T03:06:33.402Z</time>
</trkpt>
<trkpt lat="-28.2181185" lon="153.5480207">
<ele>29.342</ele>
<time>2015-12-02T03:06:36.357Z</time>
</trkpt>
<trkpt lat="-28.2177223" lon="153.5477200">
<ele>30.413</ele>
<time>2015-12-02T03:06:38.351Z</time>
</trkpt>
<trkpt lat="-28.2171145" lon="153.5472966">
<ele>31.139</ele>
<time>2015-12-02T03:06:41.296Z</time>
</trkpt>
<trkpt lat="-28.2164551" lon="153.5469091">
<ele>31.453</ele>
<time>2015-12-02T03:06:44.304Z</time>
</trkpt>
<trkpt lat="-28.2159460" lon="153.5466388">
<ele>30.992</ele>
<time>2015-12-02T03:06:46.538Z</time>
</trkpt>
<trkpt lat="-28.2152539" lon="153.5463363">
<ele>29.667</ele>
<time>2015-12-02T03:06:49.477Z</time>
</trkpt>
<trkpt lat="-28.2147692" lon="153.5461720">
<ele>27.692</ele>
<time>2015-12-02T03:06:51.449Z</time>
</trkpt>
<trkpt lat="-28.2140003" lon="153.5459311">
<ele>25.339</ele>
<time>2015-12-02T03:06:54.545Z</time>
</trkpt>
<trkpt lat="-28.2135053" lon="153.5457978">
<ele>22.939</ele>
<time>2015-12-02T03:06:56.550Z</time>
</trkpt>
<trkpt lat="-28.2130162" lon="153.5456602">
<ele>20.875</ele>
<time>2015-12-02T03:06:58.596Z</time>
</trkpt>
<trkpt lat="-28.2123222" lon="153.5454512">
<ele>18.789</ele>
<time>2015-12-02T03:07:01.612Z</time>
</trkpt>
<trkpt lat="-28.2116616" lon="153.5452769">
<ele>15.911</ele>
<time>2015-12-02T03:07:04.563Z</time>
</trkpt>
<trkpt lat="-28.2109857" lon="153.5450813">
<ele>12.374</ele>
<time>2015-12-02T03:07:07.621Z</time>
</trkpt>
<trkpt lat="-28.2105451" lon="153.5449682">
<ele>9.295</ele>
<time>2015-12-02T03:07:09.554Z</time>
</trkpt>
<trkpt lat="-28.2098709" lon="153.5447448">
<ele>7.556</ele>
<time>2015-12-02T03:07:12.483Z</time>
</trkpt>
<trkpt lat="-28.2094149" lon="153.5445387">
<ele>7.256</ele>
<time>2015-12-02T03:07:14.468Z</time>
</trkpt>
<trkpt lat="-28.2089719" lon="153.5443149">
<ele>7.896</ele>
<time>2015-12-02T03:07:16.440Z</time>
</trkpt>
<trkpt lat="-28.2083446" lon="153.5439088">
<ele>8.763</ele>
<time>2015-12-02T03:07:19.427Z</time>
</trkpt>
<trkpt lat="-28.2077788" lon="153.5434290">
<ele>9.010</ele>
<time>2015-12-02T03:07:22.416Z</time>
</trkpt>
<trkpt lat="-28.2072631" lon="153.5428908">
<ele>8.175</ele>
<time>2015-12-02T03:07:25.426Z</time>
</trkpt>
<trkpt lat="-28.2069392" lon="153.5425112">
<ele>6.506</ele>
<time>2015-12-02T03:07:27.447Z</time>
</trkpt>
<trkpt lat="-28.2065164" lon="153.5418999">
<ele>4.712</ele>
<time>2015-12-02T03:07:30.417Z</time>
</trkpt>
<trkpt lat="-28.2062359" lon="153.5414634">
<ele>3.212</ele>
<time>2015-12-02T03:07:32.438Z</time>
</trkpt>
<trkpt lat="-28.2059680" lon="153.5410263">
<ele>2.005</ele>
<time>2015-12-02T03:07:34.405Z</time>
</trkpt>
<trkpt lat="-28.2055534" lon="153.5403568">
<ele>1.178</ele>
<time>2015-12-02T03:07:37.424Z</time>
</trkpt>
<trkpt lat="-28.2051538" lon="153.5397020">
<ele>0.648</ele>
<time>2015-12-02T03:07:40.389Z</time>
</trkpt>
<trkpt lat="-28.2047581" lon="153.5390471">
<ele>0.012</ele>
<time>2015-12-02T03:07:43.395Z</time>
</trkpt>
<trkpt lat="-28.2045090" lon="153.5386151">
<ele>0.000</ele>
<time>2015-12-02T03:07:45.411Z</time>
</trkpt>
<trkpt lat="-28.2041386" lon="153.5379959">
<ele>0.000</ele>
<time>2015-12-02T03:07:48.350Z</time>
</trkpt>
<trkpt lat="-28.2037618" lon="153.5373701">
<ele>0.000</ele>
<time>2015-12-02T03:07:51.262Z</time>
</trkpt>
<trkpt lat="-28.2033435" lon="153.5367173">
<ele>0.000</ele>
<time>2015-12-02T03:07:54.268Z</time>
</trkpt>
<trkpt lat="-28.2030508" lon="153.5362959">
<ele>0.000</ele>
<time>2015-12-02T03:07:56.263Z</time>
</trkpt>
<trkpt lat="-28.2026395" lon="153.5356619">
<ele>0.889</ele>
<time>2015-12-02T03:07:59.202Z</time>
</trkpt>
<trkpt lat="-28.2022000" lon="153.5350351">
<ele>2.060</ele>
<time>2015-12-02T03:08:02.156Z</time>
</trkpt>
<trkpt lat="-28.2017169" lon="153.5343897">
<ele>3.536</ele>
<time>2015-12-02T03:08:05.189Z</time>
</trkpt>
<trkpt lat="-28.2011714" lon="153.5337947">
<ele>5.377</ele>
<time>2015-12-02T03:08:08.201Z</time>
</trkpt>
<trkpt lat="-28.2008310" lon="153.5333492">
<ele>6.849</ele>
<time>2015-12-02T03:08:10.254Z</time>
</trkpt>
<trkpt lat="-28.2005000" lon="153.5329296">
<ele>7.259</ele>
<time>2015-12-02T03:08:12.234Z</time>
</trkpt>
<trkpt lat="-28.2001622" lon="153.5325353">
<ele>6.314</ele>
<time>2015-12-02T03:08:14.181Z</time>
</trkpt>
<trkpt lat="-28.1996535" lon="153.5319090">
<ele>4.231</ele>
<time>2015-12-02T03:08:17.208Z</time>
</trkpt>
<trkpt lat="-28.1993113" lon="153.5315222">
<ele>1.846</ele>
<time>2015-12-02T03:08:19.184Z</time>
</trkpt>
<trkpt lat="-28.1989875" lon="153.5311397">
<ele>0.000</ele>
<time>2015-12-02T03:08:21.125Z</time>
</trkpt>
<trkpt lat="-28.1984916" lon="153.5305441">
<ele>0.000</ele>
<time>2015-12-02T03:08:24.132Z</time>
</trkpt>
<trkpt lat="-28.1979532" lon="153.5300168">
<ele>0.000</ele>
<time>2015-12-02T03:08:27.096Z</time>
</trkpt>
<trkpt lat="-28.1973898" lon="153.5295110">
<ele>0.000</ele>
<time>2015-12-02T03:08:30.100Z</time>
</trkpt>
<trkpt lat="-28.1968025" lon="153.5290333">
<ele>0.000</ele>
<time>2015-12-02T03:08:33.122Z</time>
</trkpt>
<trkpt lat="-28.1964008" lon="153.5287627">
<ele>0.000</ele>
<time>2015-12-02T03:08:35.060Z</time>
</trkpt>
<trkpt lat="-28.1959831" lon="153.5284801">
<ele>0.000</ele>
<time>2015-12-02T03:08:37.062Z</time>
</trkpt>
<trkpt lat="-28.1953332" lon="153.5280812">
<ele>1.379</ele>
<time>2015-12-02T03:08:40.077Z</time>
</trkpt>
<trkpt lat="-28.1946491" lon="153.5277287">
<ele>1.767</ele>
<time>2015-12-02T03:08:43.106Z</time>
</trkpt>
<trkpt lat="-28.1941797" lon="153.5275205">
<ele>1.404</ele>
<time>2015-12-02T03:08:45.143Z</time>
</trkpt>
<trkpt lat="-28.1937319" lon="153.5273450">
<ele>1.313</ele>
<time>2015-12-02T03:08:47.090Z</time>
</trkpt>
<trkpt lat="-28.1932722" lon="153.5271997">
<ele>2.089</ele>
<time>2015-12-02T03:08:49.072Z</time>
</trkpt>
<trkpt lat="-28.1927813" lon="153.5270313">
<ele>3.251</ele>
<time>2015-12-02T03:08:51.194Z</time>
</trkpt>
<trkpt lat="-28.1923113" lon="153.5269066">
<ele>4.020</ele>
<time>2015-12-02T03:08:53.166Z</time>
</trkpt>
<trkpt lat="-28.1915746" lon="153.5266798">
<ele>4.630</ele>
<time>2015-12-02T03:08:56.282Z</time>
</trkpt>
<trkpt lat="-28.1908869" lon="153.5264855">
<ele>5.640</ele>
<time>2015-12-02T03:08:59.207Z</time>
</trkpt>
<trkpt lat="-28.1904223" lon="153.5263627">
<ele>6.772</ele>
<time>2015-12-02T03:09:01.165Z</time>
</trkpt>
<trkpt lat="-28.1899354" lon="153.5262111">
<ele>6.905</ele>
<time>2015-12-02T03:09:03.199Z</time>
</trkpt>
<trkpt lat="-28.1892151" lon="153.5259919">
<ele>5.702</ele>
<time>2015-12-02T03:09:06.170Z</time>
</trkpt>
<trkpt lat="-28.1884962" lon="153.5257383">
<ele>4.213</ele>
<time>2015-12-02T03:09:09.162Z</time>
</trkpt>
<trkpt lat="-28.1880419" lon="153.5255814">
<ele>3.120</ele>
<time>2015-12-02T03:09:11.078Z</time>
</trkpt>
<trkpt lat="-28.1873586" lon="153.5252799">
<ele>2.133</ele>
<time>2015-12-02T03:09:14.070Z</time>
</trkpt>
<trkpt lat="-28.1866885" lon="153.5249935">
<ele>1.335</ele>
<time>2015-12-02T03:09:17.011Z</time>
</trkpt>
<trkpt lat="-28.1860128" lon="153.5246885">
<ele>1.215</ele>
<time>2015-12-02T03:09:19.998Z</time>
</trkpt>
<trkpt lat="-28.1853405" lon="153.5243880">
<ele>1.812</ele>
<time>2015-12-02T03:09:22.964Z</time>
</trkpt>
<trkpt lat="-28.1848891" lon="153.5241780">
<ele>2.621</ele>
<time>2015-12-02T03:09:24.957Z</time>
</trkpt>
<trkpt lat="-28.1844336" lon="153.5239639">
<ele>3.124</ele>
<time>2015-12-02T03:09:26.938Z</time>
</trkpt>
<trkpt lat="-28.1839556" lon="153.5237163">
<ele>3.281</ele>
<time>2015-12-02T03:09:29.003Z</time>
</trkpt>
<trkpt lat="-28.1834999" lon="153.5234914">
<ele>3.310</ele>
<time>2015-12-02T03:09:30.947Z</time>
</trkpt>
<trkpt lat="-28.1828411" lon="153.5230666">
<ele>3.350</ele>
<time>2015-12-02T03:09:33.950Z</time>
</trkpt>
<trkpt lat="-28.1824344" lon="153.5227802">
<ele>3.187</ele>
<time>2015-12-02T03:09:35.908Z</time>
</trkpt>
<trkpt lat="-28.1820354" lon="153.5224814">
<ele>2.696</ele>
<time>2015-12-02T03:09:37.883Z</time>
</trkpt>
<trkpt lat="-28.1814386" lon="153.5219813">
<ele>2.080</ele>
<time>2015-12-02T03:09:40.895Z</time>
</trkpt>
<trkpt lat="-28.1808487" lon="153.5214503">
<ele>1.497</ele>
<time>2015-12-02T03:09:43.888Z</time>
</trkpt>
<trkpt lat="-28.1802808" lon="153.5208709">
<ele>0.976</ele>
<time>2015-12-02T03:09:46.909Z</time>
</trkpt>
<trkpt lat="-28.1797592" lon="153.5202485">
<ele>0.459</ele>
<time>2015-12-02T03:09:49.907Z</time>
</trkpt>
<trkpt lat="-28.1794182" lon="153.5198109">
<ele>0.000</ele>
<time>2015-12-02T03:09:51.934Z</time>
</trkpt>
<trkpt lat="-28.1790823" lon="153.5193719">
<ele>0.000</ele>
<time>2015-12-02T03:09:53.947Z</time>
</trkpt>
<trkpt lat="-28.1786292" lon="153.5186835">
<ele>0.000</ele>
<time>2015-12-02T03:09:56.934Z</time>
</trkpt>
<trkpt lat="-28.1783546" lon="153.5182090">
<ele>0.000</ele>
<time>2015-12-02T03:09:58.917Z</time>
</trkpt>
<trkpt lat="-28.1779666" lon="153.5174693">
<ele>0.000</ele>
<time>2015-12-02T03:10:01.917Z</time>
</trkpt>
<trkpt lat="-28.1775984" lon="153.5166949">
<ele>0.000</ele>
<time>2015-12-02T03:10:04.952Z</time>
</trkpt>
<trkpt lat="-28.1772510" lon="153.5159144">
<ele>0.000</ele>
<time>2015-12-02T03:10:07.958Z</time>
</trkpt>
<trkpt lat="-28.1769095" lon="153.5151479">
<ele>0.000</ele>
<time>2015-12-02T03:10:10.957Z</time>
</trkpt>
<trkpt lat="-28.1767104" lon="153.5146464">
<ele>0.000</ele>
<time>2015-12-02T03:10:12.938Z</time>
</trkpt>
<trkpt lat="-28.1767104" lon="153.5146464">
<ele>0.000</ele>
<time>2015-12-02T03:10:12.938Z</time>
</trkpt>
<trkpt lat="-28.1743969" lon="153.5085453">
<ele>0.000</ele>
<time>2015-12-02T03:10:37.351Z</time>
</trkpt>
<trkpt lat="-28.1742220" lon="153.5080683">
<ele>0.000</ele>
<time>2015-12-02T03:10:39.302Z</time>
</trkpt>
<trkpt lat="-28.1740227" lon="153.5076093">
<ele>0.000</ele>
<time>2015-12-02T03:10:41.212Z</time>
</trkpt>
<trkpt lat="-28.1736941" lon="153.5069189">
<ele>0.000</ele>
<time>2015-12-02T03:10:44.102Z</time>
</trkpt>
<trkpt lat="-28.1734372" lon="153.5064532">
<ele>0.000</ele>
<time>2015-12-02T03:10:46.078Z</time>
</trkpt>
<trkpt lat="-28.1730068" lon="153.5057775">
<ele>0.000</ele>
<time>2015-12-02T03:10:49.044Z</time>
</trkpt>
<trkpt lat="-28.1726999" lon="153.5053197">
<ele>0.000</ele>
<time>2015-12-02T03:10:51.091Z</time>
</trkpt>
<trkpt lat="-28.1724059" lon="153.5048796">
<ele>0.000</ele>
<time>2015-12-02T03:10:53.062Z</time>
</trkpt>
<trkpt lat="-28.1719170" lon="153.5042358">
<ele>0.000</ele>
<time>2015-12-02T03:10:56.079Z</time>
</trkpt>
<trkpt lat="-28.1714096" lon="153.5036133">
<ele>0.000</ele>
<time>2015-12-02T03:10:59.067Z</time>
</trkpt>
<trkpt lat="-28.1708642" lon="153.5030389">
<ele>0.000</ele>
<time>2015-12-02T03:11:02.058Z</time>
</trkpt>
<trkpt lat="-28.1704852" lon="153.5026666">
<ele>0.000</ele>
<time>2015-12-02T03:11:04.093Z</time>
</trkpt>
<trkpt lat="-28.1701035" lon="153.5023452">
<ele>0.000</ele>
<time>2015-12-02T03:11:06.030Z</time>
</trkpt>
<trkpt lat="-28.1697052" lon="153.5020239">
<ele>0.000</ele>
<time>2015-12-02T03:11:08.027Z</time>
</trkpt>
<trkpt lat="-28.1692936" lon="153.5017245">
<ele>0.000</ele>
<time>2015-12-02T03:11:10.024Z</time>
</trkpt>
<trkpt lat="-28.1686741" lon="153.5013254">
<ele>0.000</ele>
<time>2015-12-02T03:11:12.922Z</time>
</trkpt>
<trkpt lat="-28.1680062" lon="153.5009233">
<ele>0.000</ele>
<time>2015-12-02T03:11:15.953Z</time>
</trkpt>
<trkpt lat="-28.1672915" lon="153.5005532">
<ele>0.000</ele>
<time>2015-12-02T03:11:19.048Z</time>
</trkpt>
<trkpt lat="-28.1668031" lon="153.5003139">
<ele>0.000</ele>
<time>2015-12-02T03:11:21.139Z</time>
</trkpt>
<trkpt lat="-28.1663365" lon="153.5000934">
<ele>0.000</ele>
<time>2015-12-02T03:11:23.132Z</time>
</trkpt>
<trkpt lat="-28.1656619" lon="153.4997383">
<ele>0.000</ele>
<time>2015-12-02T03:11:26.061Z</time>
</trkpt>
<trkpt lat="-28.1652043" lon="153.4994822">
<ele>0.419</ele>
<time>2015-12-02T03:11:28.078Z</time>
</trkpt>
<trkpt lat="-28.1647797" lon="153.4992113">
<ele>0.000</ele>
<time>2015-12-02T03:11:30.014Z</time>
</trkpt>
<trkpt lat="-28.1641312" lon="153.4987823">
<ele>0.000</ele>
<time>2015-12-02T03:11:33.006Z</time>
</trkpt>
<trkpt lat="-28.1637181" lon="153.4984860">
<ele>0.000</ele>
<time>2015-12-02T03:11:34.981Z</time>
</trkpt>
<trkpt lat="-28.1631305" lon="153.4980053">
<ele>0.000</ele>
<time>2015-12-02T03:11:37.947Z</time>
</trkpt>
<trkpt lat="-28.1627419" lon="153.4976664">
<ele>0.000</ele>
<time>2015-12-02T03:11:39.975Z</time>
</trkpt>
<trkpt lat="-28.1623687" lon="153.4973357">
<ele>0.000</ele>
<time>2015-12-02T03:11:41.946Z</time>
</trkpt>
<trkpt lat="-28.1620128" lon="153.4969811">
<ele>0.000</ele>
<time>2015-12-02T03:11:43.909Z</time>
</trkpt>
<trkpt lat="-28.1616467" lon="153.4966005">
<ele>0.000</ele>
<time>2015-12-02T03:11:45.926Z</time>
</trkpt>
<trkpt lat="-28.1611114" lon="153.4959933">
<ele>0.000</ele>
<time>2015-12-02T03:11:48.958Z</time>
</trkpt>
<trkpt lat="-28.1606106" lon="153.4953578">
<ele>0.000</ele>
<time>2015-12-02T03:11:51.972Z</time>
</trkpt>
<trkpt lat="-28.1601339" lon="153.4947128">
<ele>0.000</ele>
<time>2015-12-02T03:11:54.967Z</time>
</trkpt>
<trkpt lat="-28.1598461" lon="153.4942886">
<ele>0.000</ele>
<time>2015-12-02T03:11:56.894Z</time>
</trkpt>
<trkpt lat="-28.1595667" lon="153.4938408">
<ele>0.000</ele>
<time>2015-12-02T03:11:58.882Z</time>
</trkpt>
<trkpt lat="-28.1592081" lon="153.4931069">
<ele>0.000</ele>
<time>2015-12-02T03:12:01.893Z</time>
</trkpt>
<trkpt lat="-28.1588138" lon="153.4923551">
<ele>0.000</ele>
<time>2015-12-02T03:12:04.951Z</time>
</trkpt>
<trkpt lat="-28.1585808" lon="153.4918494">
<ele>0.000</ele>
<time>2015-12-02T03:12:06.956Z</time>
</trkpt>
<trkpt lat="-28.1582318" lon="153.4910958">
<ele>0.000</ele>
<time>2015-12-02T03:12:10.068Z</time>
</trkpt>
<trkpt lat="-28.1580395" lon="153.4906228">
<ele>0.000</ele>
<time>2015-12-02T03:12:12.105Z</time>
</trkpt>
<trkpt lat="-28.1578574" lon="153.4901487">
<ele>0.000</ele>
<time>2015-12-02T03:12:14.245Z</time>
</trkpt>
<trkpt lat="-28.1576338" lon="153.4899001">
<ele>0.000</ele>
<time>2015-12-02T03:12:15.769Z</time>
</trkpt>
<trkpt lat="-28.1573565" lon="153.4893391">
<ele>0.000</ele>
<time>2015-12-02T03:12:18.661Z</time>
</trkpt>
<trkpt lat="-28.1571091" lon="153.4889732">
<ele>0.000</ele>
<time>2015-12-02T03:12:20.738Z</time>
</trkpt>
<trkpt lat="-28.1567478" lon="153.4884414">
<ele>0.000</ele>
<time>2015-12-02T03:12:23.734Z</time>
</trkpt>
<trkpt lat="-28.1564914" lon="153.4881103">
<ele>0.000</ele>
<time>2015-12-02T03:12:25.702Z</time>
</trkpt>
<trkpt lat="-28.1562368" lon="153.4877979">
<ele>0.785</ele>
<time>2015-12-02T03:12:27.640Z</time>
</trkpt>
<trkpt lat="-28.1558702" lon="153.4873411">
<ele>2.696</ele>
<time>2015-12-02T03:12:30.518Z</time>
</trkpt>
<trkpt lat="-28.1556245" lon="153.4870053">
<ele>3.842</ele>
<time>2015-12-02T03:12:32.569Z</time>
</trkpt>
<trkpt lat="-28.1552792" lon="153.4865046">
<ele>4.778</ele>
<time>2015-12-02T03:12:35.540Z</time>
</trkpt>
<trkpt lat="-28.1550456" lon="153.4861472">
<ele>5.857</ele>
<time>2015-12-02T03:12:37.585Z</time>
</trkpt>
<trkpt lat="-28.1547393" lon="153.4855705">
<ele>7.026</ele>
<time>2015-12-02T03:12:40.641Z</time>
</trkpt>
<trkpt lat="-28.1544338" lon="153.4849951">
<ele>8.334</ele>
<time>2015-12-02T03:12:43.696Z</time>
</trkpt>
<trkpt lat="-28.1541683" lon="153.4844016">
<ele>9.666</ele>
<time>2015-12-02T03:12:46.720Z</time>
</trkpt>
<trkpt lat="-28.1539869" lon="153.4840023">
<ele>10.581</ele>
<time>2015-12-02T03:12:48.738Z</time>
</trkpt>
<trkpt lat="-28.1537055" lon="153.4834197">
<ele>10.905</ele>
<time>2015-12-02T03:12:51.712Z</time>
</trkpt>
<trkpt lat="-28.1535128" lon="153.4830521">
<ele>10.897</ele>
<time>2015-12-02T03:12:53.615Z</time>
</trkpt>
<trkpt lat="-28.1531867" lon="153.4824964">
<ele>10.785</ele>
<time>2015-12-02T03:12:56.566Z</time>
</trkpt>
<trkpt lat="-28.1528383" lon="153.4819490">
<ele>10.635</ele>
<time>2015-12-02T03:12:59.542Z</time>
</trkpt>
<trkpt lat="-28.1525345" lon="153.4816236">
<ele>10.422</ele>
<time>2015-12-02T03:13:01.632Z</time>
</trkpt>
<trkpt lat="-28.1520681" lon="153.4811673">
<ele>9.918</ele>
<time>2015-12-02T03:13:04.671Z</time>
</trkpt>
<trkpt lat="-28.1517526" lon="153.4808778">
<ele>8.926</ele>
<time>2015-12-02T03:13:06.606Z</time>
</trkpt>
<trkpt lat="-28.1513944" lon="153.4805997">
<ele>7.585</ele>
<time>2015-12-02T03:13:08.626Z</time>
</trkpt>
<trkpt lat="-28.1510201" lon="153.4803794">
<ele>6.218</ele>
<time>2015-12-02T03:13:10.576Z</time>
</trkpt>
<trkpt lat="-28.1504395" lon="153.4801048">
<ele>4.793</ele>
<time>2015-12-02T03:13:13.496Z</time>
</trkpt>
<trkpt lat="-28.1498354" lon="153.4798771">
<ele>3.005</ele>
<time>2015-12-02T03:13:16.455Z</time>
</trkpt>
<trkpt lat="-28.1494246" lon="153.4798102">
<ele>0.756</ele>
<time>2015-12-02T03:13:18.384Z</time>
</trkpt>
<trkpt lat="-28.1490032" lon="153.4797435">
<ele>0.000</ele>
<time>2015-12-02T03:13:20.365Z</time>
</trkpt>
<trkpt lat="-28.1483382" lon="153.4797566">
<ele>0.000</ele>
<time>2015-12-02T03:13:23.412Z</time>
</trkpt>
<trkpt lat="-28.1478711" lon="153.4798219">
<ele>0.000</ele>
<time>2015-12-02T03:13:25.503Z</time>
</trkpt>
<trkpt lat="-28.1471962" lon="153.4798527">
<ele>0.000</ele>
<time>2015-12-02T03:13:28.449Z</time>
</trkpt>
<trkpt lat="-28.1465145" lon="153.4798214">
<ele>0.000</ele>
<time>2015-12-02T03:13:31.405Z</time>
</trkpt>
<trkpt lat="-28.1458278" lon="153.4797204">
<ele>0.000</ele>
<time>2015-12-02T03:13:34.394Z</time>
</trkpt>
<trkpt lat="-28.1453283" lon="153.4795824">
<ele>0.000</ele>
<time>2015-12-02T03:13:36.554Z</time>
</trkpt>
<trkpt lat="-28.1448428" lon="153.4794269">
<ele>0.000</ele>
<time>2015-12-02T03:13:38.619Z</time>
</trkpt>
<trkpt lat="-28.1441652" lon="153.4791287">
<ele>0.000</ele>
<time>2015-12-02T03:13:41.582Z</time>
</trkpt>
<trkpt lat="-28.1435355" lon="153.4787288">
<ele>0.000</ele>
<time>2015-12-02T03:13:44.548Z</time>
</trkpt>
<trkpt lat="-28.1429411" lon="153.4782337">
<ele>0.000</ele>
<time>2015-12-02T03:13:47.579Z</time>
</trkpt>
<trkpt lat="-28.1425782" lon="153.4778472">
<ele>0.000</ele>
<time>2015-12-02T03:13:49.610Z</time>
</trkpt>
<trkpt lat="-28.1422399" lon="153.4774545">
<ele>0.000</ele>
<time>2015-12-02T03:13:51.564Z</time>
</trkpt>
<trkpt lat="-28.1418997" lon="153.4770329">
<ele>0.000</ele>
<time>2015-12-02T03:13:53.560Z</time>
</trkpt>
<trkpt lat="-28.1415325" lon="153.4766124">
<ele>0.000</ele>
<time>2015-12-02T03:13:55.597Z</time>
</trkpt>
<trkpt lat="-28.1410076" lon="153.4760175">
<ele>0.000</ele>
<time>2015-12-02T03:13:58.503Z</time>
</trkpt>
<trkpt lat="-28.1406703" lon="153.4756139">
<ele>0.000</ele>
<time>2015-12-02T03:14:00.469Z</time>
</trkpt>
<trkpt lat="-28.1401680" lon="153.4750240">
<ele>0.000</ele>
<time>2015-12-02T03:14:03.451Z</time>
</trkpt>
<trkpt lat="-28.1398405" lon="153.4746595">
<ele>0.000</ele>
<time>2015-12-02T03:14:05.394Z</time>
</trkpt>
<trkpt lat="-28.1393631" lon="153.4741006">
<ele>0.000</ele>
<time>2015-12-02T03:14:08.333Z</time>
</trkpt>
<trkpt lat="-28.1390206" lon="153.4737345">
<ele>0.000</ele>
<time>2015-12-02T03:14:10.342Z</time>
</trkpt>
<trkpt lat="-28.1384685" lon="153.4732149">
<ele>0.000</ele>
<time>2015-12-02T03:14:13.338Z</time>
</trkpt>
<trkpt lat="-28.1380780" lon="153.4729027">
<ele>0.000</ele>
<time>2015-12-02T03:14:15.279Z</time>
</trkpt>
<trkpt lat="-28.1374138" lon="153.4724801">
<ele>0.000</ele>
<time>2015-12-02T03:14:18.337Z</time>
</trkpt>
<trkpt lat="-28.1367626" lon="153.4720727">
<ele>0.000</ele>
<time>2015-12-02T03:14:21.333Z</time>
</trkpt>
<trkpt lat="-28.1363355" lon="153.4717984">
<ele>0.196</ele>
<time>2015-12-02T03:14:23.358Z</time>
</trkpt>
<trkpt lat="-28.1357265" lon="153.4714319">
<ele>0.928</ele>
<time>2015-12-02T03:14:26.313Z</time>
</trkpt>
<trkpt lat="-28.1353304" lon="153.4711925">
<ele>0.740</ele>
<time>2015-12-02T03:14:28.289Z</time>
</trkpt>
<trkpt lat="-28.1347363" lon="153.4708271">
<ele>0.000</ele>
<time>2015-12-02T03:14:31.241Z</time>
</trkpt>
<trkpt lat="-28.1341061" lon="153.4704328">
<ele>0.000</ele>
<time>2015-12-02T03:14:34.295Z</time>
</trkpt>
<trkpt lat="-28.1337004" lon="153.4701639">
<ele>0.000</ele>
<time>2015-12-02T03:14:36.248Z</time>
</trkpt>
<trkpt lat="-28.1330774" lon="153.4697703">
<ele>0.000</ele>
<time>2015-12-02T03:14:39.227Z</time>
</trkpt>
<trkpt lat="-28.1326461" lon="153.4695190">
<ele>0.000</ele>
<time>2015-12-02T03:14:41.285Z</time>
</trkpt>
<trkpt lat="-28.1320260" lon="153.4691479">
<ele>0.000</ele>
<time>2015-12-02T03:14:44.257Z</time>
</trkpt>
<trkpt lat="-28.1313590" lon="153.4687538">
<ele>0.000</ele>
<time>2015-12-02T03:14:47.346Z</time>
</trkpt>
<trkpt lat="-28.1307034" lon="153.4683580">
<ele>0.000</ele>
<time>2015-12-02T03:14:50.342Z</time>
</trkpt>
<trkpt lat="-28.1302693" lon="153.4681018">
<ele>0.000</ele>
<time>2015-12-02T03:14:52.345Z</time>
</trkpt>
<trkpt lat="-28.1296415" lon="153.4677091">
<ele>0.000</ele>
<time>2015-12-02T03:14:55.360Z</time>
</trkpt>
<trkpt lat="-28.1292564" lon="153.4674640">
<ele>0.000</ele>
<time>2015-12-02T03:14:57.275Z</time>
</trkpt>
<trkpt lat="-28.1288533" lon="153.4672471">
<ele>0.000</ele>
<time>2015-12-02T03:14:59.228Z</time>
</trkpt>
<trkpt lat="-28.1284338" lon="153.4669721">
<ele>0.000</ele>
<time>2015-12-02T03:15:01.325Z</time>
</trkpt>
<trkpt lat="-28.1277826" lon="153.4666141">
<ele>0.000</ele>
<time>2015-12-02T03:15:04.330Z</time>
</trkpt>
<trkpt lat="-28.1273308" lon="153.4663554">
<ele>0.000</ele>
<time>2015-12-02T03:15:06.388Z</time>
</trkpt>
<trkpt lat="-28.1267108" lon="153.4659511">
<ele>0.000</ele>
<time>2015-12-02T03:15:09.352Z</time>
</trkpt>
<trkpt lat="-28.1263077" lon="153.4657121">
<ele>0.000</ele>
<time>2015-12-02T03:15:11.301Z</time>
</trkpt>
<trkpt lat="-28.1259058" lon="153.4654704">
<ele>0.000</ele>
<time>2015-12-02T03:15:13.277Z</time>
</trkpt>
<trkpt lat="-28.1254904" lon="153.4652389">
<ele>0.000</ele>
<time>2015-12-02T03:15:15.297Z</time>
</trkpt>
<trkpt lat="-28.1250931" lon="153.4649919">
<ele>0.000</ele>
<time>2015-12-02T03:15:17.274Z</time>
</trkpt>
<trkpt lat="-28.1244324" lon="153.4646127">
<ele>0.000</ele>
<time>2015-12-02T03:15:20.393Z</time>
</trkpt>
<trkpt lat="-28.1239775" lon="153.4643274">
<ele>0.000</ele>
<time>2015-12-02T03:15:22.461Z</time>
</trkpt>
<trkpt lat="-28.1233227" lon="153.4638767">
<ele>0.000</ele>
<time>2015-12-02T03:15:25.442Z</time>
</trkpt>
<trkpt lat="-28.1226837" lon="153.4633542">
<ele>0.000</ele>
<time>2015-12-02T03:15:28.500Z</time>
</trkpt>
<trkpt lat="-28.1222915" lon="153.4629759">
<ele>0.369</ele>
<time>2015-12-02T03:15:30.533Z</time>
</trkpt>
<trkpt lat="-28.1217423" lon="153.4624231">
<ele>0.000</ele>
<time>2015-12-02T03:15:33.509Z</time>
</trkpt>
<trkpt lat="-28.1211924" lon="153.4618477">
<ele>0.000</ele>
<time>2015-12-02T03:15:36.550Z</time>
</trkpt>
<trkpt lat="-28.1206712" lon="153.4612316">
<ele>0.000</ele>
<time>2015-12-02T03:15:39.588Z</time>
</trkpt>
<trkpt lat="-28.1203709" lon="153.4608301">
<ele>0.000</ele>
<time>2015-12-02T03:15:41.508Z</time>
</trkpt>
<trkpt lat="-28.1200855" lon="153.4604214">
<ele>0.000</ele>
<time>2015-12-02T03:15:43.497Z</time>
</trkpt>
<trkpt lat="-28.1197152" lon="153.4598571">
<ele>0.000</ele>
<time>2015-12-02T03:15:46.319Z</time>
</trkpt>
<trkpt lat="-28.1193761" lon="153.4592515">
<ele>0.000</ele>
<time>2015-12-02T03:15:49.291Z</time>
</trkpt>
<trkpt lat="-28.1191675" lon="153.4588297">
<ele>0.000</ele>
<time>2015-12-02T03:15:51.293Z</time>
</trkpt>
<trkpt lat="-28.1189655" lon="153.4584086">
<ele>0.000</ele>
<time>2015-12-02T03:15:53.289Z</time>
</trkpt>
<trkpt lat="-28.1187790" lon="153.4579340">
<ele>0.000</ele>
<time>2015-12-02T03:15:55.424Z</time>
</trkpt>
<trkpt lat="-28.1185204" lon="153.4572330">
<ele>0.000</ele>
<time>2015-12-02T03:15:58.440Z</time>
</trkpt>
<trkpt lat="-28.1182616" lon="153.4565386">
<ele>0.000</ele>
<time>2015-12-02T03:16:01.353Z</time>
</trkpt>
<trkpt lat="-28.1180955" lon="153.4560517">
<ele>0.000</ele>
<time>2015-12-02T03:16:03.343Z</time>
</trkpt>
<trkpt lat="-28.1179497" lon="153.4555516">
<ele>0.000</ele>
<time>2015-12-02T03:16:05.361Z</time>
</trkpt>
<trkpt lat="-28.1177498" lon="153.4548315">
<ele>0.000</ele>
<time>2015-12-02T03:16:08.296Z</time>
</trkpt>
<trkpt lat="-28.1175642" lon="153.4540688">
<ele>0.000</ele>
<time>2015-12-02T03:16:11.347Z</time>
</trkpt>
<trkpt lat="-28.1173739" lon="153.4532956">
<ele>0.000</ele>
<time>2015-12-02T03:16:14.415Z</time>
</trkpt>
<trkpt lat="-28.1172597" lon="153.4527847">
<ele>0.000</ele>
<time>2015-12-02T03:16:16.453Z</time>
</trkpt>
<trkpt lat="-28.1170792" lon="153.4520996">
<ele>0.000</ele>
<time>2015-12-02T03:16:19.329Z</time>
</trkpt>
<trkpt lat="-28.1169590" lon="153.4516832">
<ele>0.000</ele>
<time>2015-12-02T03:16:21.204Z</time>
</trkpt>
<trkpt lat="-28.1167798" lon="153.4509851">
<ele>0.000</ele>
<time>2015-12-02T03:16:24.357Z</time>
</trkpt>
<trkpt lat="-28.1166662" lon="153.4505516">
<ele>0.000</ele>
<time>2015-12-02T03:16:26.318Z</time>
</trkpt>
<trkpt lat="-28.1165642" lon="153.4500519">
<ele>0.000</ele>
<time>2015-12-02T03:16:28.538Z</time>
</trkpt>
<trkpt lat="-28.1163552" lon="153.4494090">
<ele>0.000</ele>
<time>2015-12-02T03:16:31.416Z</time>
</trkpt>
<trkpt lat="-28.1162259" lon="153.4489456">
<ele>0.000</ele>
<time>2015-12-02T03:16:33.406Z</time>
</trkpt>
<trkpt lat="-28.1160964" lon="153.4484698">
<ele>0.000</ele>
<time>2015-12-02T03:16:35.447Z</time>
</trkpt>
<trkpt lat="-28.1159838" lon="153.4479819">
<ele>0.000</ele>
<time>2015-12-02T03:16:37.514Z</time>
</trkpt>
<trkpt lat="-28.1157925" lon="153.4472904">
<ele>0.000</ele>
<time>2015-12-02T03:16:40.480Z</time>
</trkpt>
<trkpt lat="-28.1156958" lon="153.4468104">
<ele>0.000</ele>
<time>2015-12-02T03:16:42.483Z</time>
</trkpt>
<trkpt lat="-28.1155269" lon="153.4461155">
<ele>0.000</ele>
<time>2015-12-02T03:16:45.461Z</time>
</trkpt>
<trkpt lat="-28.1153371" lon="153.4454509">
<ele>0.000</ele>
<time>2015-12-02T03:16:48.403Z</time>
</trkpt>
<trkpt lat="-28.1152138" lon="153.4449842">
<ele>0.000</ele>
<time>2015-12-02T03:16:50.426Z</time>
</trkpt>
<trkpt lat="-28.1150248" lon="153.4442589">
<ele>0.000</ele>
<time>2015-12-02T03:16:53.473Z</time>
</trkpt>
<trkpt lat="-28.1149047" lon="153.4437567">
<ele>0.000</ele>
<time>2015-12-02T03:16:55.491Z</time>
</trkpt>
<trkpt lat="-28.1147151" lon="153.4429721">
<ele>0.000</ele>
<time>2015-12-02T03:16:58.524Z</time>
</trkpt>
<trkpt lat="-28.1145128" lon="153.4421885">
<ele>0.000</ele>
<time>2015-12-02T03:17:01.477Z</time>
</trkpt>
<trkpt lat="-28.1143826" lon="153.4416594">
<ele>0.000</ele>
<time>2015-12-02T03:17:03.453Z</time>
</trkpt>
<trkpt lat="-28.1141675" lon="153.4408669">
<ele>1.759</ele>
<time>2015-12-02T03:17:06.467Z</time>
</trkpt>
<trkpt lat="-28.1139745" lon="153.4400772">
<ele>3.895</ele>
<time>2015-12-02T03:17:09.477Z</time>
</trkpt>
<trkpt lat="-28.1137757" lon="153.4392625">
<ele>4.144</ele>
<time>2015-12-02T03:17:12.544Z</time>
</trkpt>
<trkpt lat="-28.1135725" lon="153.4384465">
<ele>3.779</ele>
<time>2015-12-02T03:17:15.538Z</time>
</trkpt>
<trkpt lat="-28.1134680" lon="153.4378839">
<ele>3.899</ele>
<time>2015-12-02T03:17:17.546Z</time>
</trkpt>
<trkpt lat="-28.1133928" lon="153.4373700">
<ele>4.409</ele>
<time>2015-12-02T03:17:19.380Z</time>
</trkpt>
<trkpt lat="-28.1133746" lon="153.4367864">
<ele>4.830</ele>
<time>2015-12-02T03:17:21.415Z</time>
</trkpt>
<trkpt lat="-28.1134866" lon="153.4358660">
<ele>4.662</ele>
<time>2015-12-02T03:17:24.587Z</time>
</trkpt>
<trkpt lat="-28.1137211" lon="153.4350633">
<ele>3.694</ele>
<time>2015-12-02T03:17:27.537Z</time>
</trkpt>
<trkpt lat="-28.1139852" lon="153.4343145">
<ele>2.110</ele>
<time>2015-12-02T03:17:30.485Z</time>
</trkpt>
<trkpt lat="-28.1142147" lon="153.4338247">
<ele>0.326</ele>
<time>2015-12-02T03:17:32.535Z</time>
</trkpt>
<trkpt lat="-28.1145536" lon="153.4331384">
<ele>0.000</ele>
<time>2015-12-02T03:17:35.425Z</time>
</trkpt>
<trkpt lat="-28.1149616" lon="153.4324740">
<ele>0.091</ele>
<time>2015-12-02T03:17:38.390Z</time>
</trkpt>
<trkpt lat="-28.1152339" lon="153.4319991">
<ele>1.462</ele>
<time>2015-12-02T03:17:40.407Z</time>
</trkpt>
<trkpt lat="-28.1156284" lon="153.4312570">
<ele>2.792</ele>
<time>2015-12-02T03:17:43.444Z</time>
</trkpt>
<trkpt lat="-28.1159362" lon="153.4305000">
<ele>4.155</ele>
<time>2015-12-02T03:17:46.431Z</time>
</trkpt>
<trkpt lat="-28.1160897" lon="153.4300047">
<ele>5.478</ele>
<time>2015-12-02T03:17:48.377Z</time>
</trkpt>
<trkpt lat="-28.1162010" lon="153.4294891">
<ele>6.611</ele>
<time>2015-12-02T03:17:50.372Z</time>
</trkpt>
<trkpt lat="-28.1162506" lon="153.4289418">
<ele>7.536</ele>
<time>2015-12-02T03:17:52.430Z</time>
</trkpt>
<trkpt lat="-28.1162835" lon="153.4281481">
<ele>8.382</ele>
<time>2015-12-02T03:17:55.383Z</time>
</trkpt>
<trkpt lat="-28.1162518" lon="153.4273693">
<ele>9.230</ele>
<time>2015-12-02T03:17:58.316Z</time>
</trkpt>
<trkpt lat="-28.1162225" lon="153.4265547">
<ele>9.957</ele>
<time>2015-12-02T03:18:01.405Z</time>
</trkpt>
<trkpt lat="-28.1161755" lon="153.4257790">
<ele>10.810</ele>
<time>2015-12-02T03:18:04.350Z</time>
</trkpt>
<trkpt lat="-28.1161410" lon="153.4249904">
<ele>12.081</ele>
<time>2015-12-02T03:18:07.336Z</time>
</trkpt>
<trkpt lat="-28.1160869" lon="153.4242224">
<ele>13.656</ele>
<time>2015-12-02T03:18:10.255Z</time>
</trkpt>
<trkpt lat="-28.1160656" lon="153.4236977">
<ele>15.676</ele>
<time>2015-12-02T03:18:12.272Z</time>
</trkpt>
<trkpt lat="-28.1160305" lon="153.4229273">
<ele>17.980</ele>
<time>2015-12-02T03:18:15.269Z</time>
</trkpt>
<trkpt lat="-28.1159710" lon="153.4222121">
<ele>19.697</ele>
<time>2015-12-02T03:18:18.159Z</time>
</trkpt>
<trkpt lat="-28.1159162" lon="153.4217594">
<ele>20.525</ele>
<time>2015-12-02T03:18:20.079Z</time>
</trkpt>
<trkpt lat="-28.1158428" lon="153.4213318">
<ele>20.750</ele>
<time>2015-12-02T03:18:21.962Z</time>
</trkpt>
<trkpt lat="-28.1157211" lon="153.4206894">
<ele>20.565</ele>
<time>2015-12-02T03:18:24.855Z</time>
</trkpt>
<trkpt lat="-28.1155883" lon="153.4200086">
<ele>20.055</ele>
<time>2015-12-02T03:18:27.937Z</time>
</trkpt>
<trkpt lat="-28.1154759" lon="153.4195648">
<ele>19.326</ele>
<time>2015-12-02T03:18:29.966Z</time>
</trkpt>
<trkpt lat="-28.1152572" lon="153.4189228">
<ele>18.346</ele>
<time>2015-12-02T03:18:32.886Z</time>
</trkpt>
<trkpt lat="-28.1150116" lon="153.4181769">
<ele>17.231</ele>
<time>2015-12-02T03:18:36.051Z</time>
</trkpt>
<trkpt lat="-28.1148351" lon="153.4177752">
<ele>16.234</ele>
<time>2015-12-02T03:18:37.795Z</time>
</trkpt>
<trkpt lat="-28.1145195" lon="153.4171365">
<ele>15.469</ele>
<time>2015-12-02T03:18:40.706Z</time>
</trkpt>
<trkpt lat="-28.1142885" lon="153.4167156">
<ele>14.853</ele>
<time>2015-12-02T03:18:42.697Z</time>
</trkpt>
<trkpt lat="-28.1139385" lon="153.4160646">
<ele>14.350</ele>
<time>2015-12-02T03:18:45.724Z</time>
</trkpt>
<trkpt lat="-28.1136710" lon="153.4156269">
<ele>14.404</ele>
<time>2015-12-02T03:18:47.818Z</time>
</trkpt>
<trkpt lat="-28.1134378" lon="153.4151948">
<ele>15.316</ele>
<time>2015-12-02T03:18:49.816Z</time>
</trkpt>
<trkpt lat="-28.1132091" lon="153.4147759">
<ele>16.296</ele>
<time>2015-12-02T03:18:51.788Z</time>
</trkpt>
<trkpt lat="-28.1128644" lon="153.4141446">
<ele>16.618</ele>
<time>2015-12-02T03:18:54.784Z</time>
</trkpt>
<trkpt lat="-28.1125255" lon="153.4135211">
<ele>16.689</ele>
<time>2015-12-02T03:18:57.723Z</time>
</trkpt>
<trkpt lat="-28.1122983" lon="153.4131022">
<ele>17.185</ele>
<time>2015-12-02T03:18:59.688Z</time>
</trkpt>
<trkpt lat="-28.1120689" lon="153.4126782">
<ele>18.230</ele>
<time>2015-12-02T03:19:01.667Z</time>
</trkpt>
<trkpt lat="-28.1118329" lon="153.4122448">
<ele>19.435</ele>
<time>2015-12-02T03:19:03.659Z</time>
</trkpt>
<trkpt lat="-28.1114681" lon="153.4115865">
<ele>20.405</ele>
<time>2015-12-02T03:19:06.628Z</time>
</trkpt>
<trkpt lat="-28.1110918" lon="153.4108921">
<ele>20.932</ele>
<time>2015-12-02T03:19:09.697Z</time>
</trkpt>
<trkpt lat="-28.1108294" lon="153.4104424">
<ele>21.020</ele>
<time>2015-12-02T03:19:11.704Z</time>
</trkpt>
<trkpt lat="-28.1104003" lon="153.4098170">
<ele>20.491</ele>
<time>2015-12-02T03:19:14.681Z</time>
</trkpt>
<trkpt lat="-28.1101053" lon="153.4094555">
<ele>18.832</ele>
<time>2015-12-02T03:19:16.613Z</time>
</trkpt>
<trkpt lat="-28.1096447" lon="153.4089040">
<ele>15.976</ele>
<time>2015-12-02T03:19:19.634Z</time>
</trkpt>
<trkpt lat="-28.1093194" lon="153.4085465">
<ele>12.682</ele>
<time>2015-12-02T03:19:21.641Z</time>
</trkpt>
<trkpt lat="-28.1087937" lon="153.4080325">
<ele>10.004</ele>
<time>2015-12-02T03:19:24.677Z</time>
</trkpt>
<trkpt lat="-28.1082185" lon="153.4075573">
<ele>8.660</ele>
<time>2015-12-02T03:19:27.725Z</time>
</trkpt>
<trkpt lat="-28.1078216" lon="153.4072510">
<ele>8.571</ele>
<time>2015-12-02T03:19:29.722Z</time>
</trkpt>
<trkpt lat="-28.1072112" lon="153.4068387">
<ele>9.086</ele>
<time>2015-12-02T03:19:32.631Z</time>
</trkpt>
<trkpt lat="-28.1067885" lon="153.4065742">
<ele>9.600</ele>
<time>2015-12-02T03:19:34.611Z</time>
</trkpt>
<trkpt lat="-28.1063639" lon="153.4063134">
<ele>9.557</ele>
<time>2015-12-02T03:19:36.596Z</time>
</trkpt>
<trkpt lat="-28.1057455" lon="153.4059350">
<ele>8.778</ele>
<time>2015-12-02T03:19:39.538Z</time>
</trkpt>
<trkpt lat="-28.1051276" lon="153.4055498">
<ele>7.630</ele>
<time>2015-12-02T03:19:42.556Z</time>
</trkpt>
<trkpt lat="-28.1047349" lon="153.4053201">
<ele>6.354</ele>
<time>2015-12-02T03:19:44.479Z</time>
</trkpt>
<trkpt lat="-28.1041356" lon="153.4049509">
<ele>4.940</ele>
<time>2015-12-02T03:19:47.499Z</time>
</trkpt>
<trkpt lat="-28.1037361" lon="153.4047210">
<ele>3.578</ele>
<time>2015-12-02T03:19:49.498Z</time>
</trkpt>
<trkpt lat="-28.1033574" lon="153.4044943">
<ele>2.510</ele>
<time>2015-12-02T03:19:51.417Z</time>
</trkpt>
<trkpt lat="-28.1029559" lon="153.4042054">
<ele>1.900</ele>
<time>2015-12-02T03:19:53.554Z</time>
</trkpt>
<trkpt lat="-28.1025805" lon="153.4039319">
<ele>1.729</ele>
<time>2015-12-02T03:19:55.551Z</time>
</trkpt>
<trkpt lat="-28.1020231" lon="153.4034740">
<ele>2.056</ele>
<time>2015-12-02T03:19:58.589Z</time>
</trkpt>
<trkpt lat="-28.1014870" lon="153.4029714">
<ele>2.961</ele>
<time>2015-12-02T03:20:01.642Z</time>
</trkpt>
<trkpt lat="-28.1011513" lon="153.4026110">
<ele>4.024</ele>
<time>2015-12-02T03:20:03.673Z</time>
</trkpt>
<trkpt lat="-28.1006651" lon="153.4020883">
<ele>4.680</ele>
<time>2015-12-02T03:20:06.591Z</time>
</trkpt>
<trkpt lat="-28.1003574" lon="153.4017202">
<ele>4.848</ele>
<time>2015-12-02T03:20:08.521Z</time>
</trkpt>
<trkpt lat="-28.1000170" lon="153.4013446">
<ele>4.834</ele>
<time>2015-12-02T03:20:10.565Z</time>
</trkpt>
<trkpt lat="-28.0997050" lon="153.4009577">
<ele>4.882</ele>
<time>2015-12-02T03:20:12.548Z</time>
</trkpt>
<trkpt lat="-28.0992408" lon="153.4003861">
<ele>4.978</ele>
<time>2015-12-02T03:20:15.488Z</time>
</trkpt>
<trkpt lat="-28.0989061" lon="153.4000203">
<ele>5.261</ele>
<time>2015-12-02T03:20:17.529Z</time>
</trkpt>
<trkpt lat="-28.0986136" lon="153.3996813">
<ele>6.066</ele>
<time>2015-12-02T03:20:19.443Z</time>
</trkpt>
<trkpt lat="-28.0981864" lon="153.3991801">
<ele>7.383</ele>
<time>2015-12-02T03:20:22.353Z</time>
</trkpt>
<trkpt lat="-28.0978810" lon="153.3988274">
<ele>8.715</ele>
<time>2015-12-02T03:20:24.429Z</time>
</trkpt>
<trkpt lat="-28.0976230" lon="153.3984529">
<ele>9.651</ele>
<time>2015-12-02T03:20:26.406Z</time>
</trkpt>
<trkpt lat="-28.0972158" lon="153.3978531">
<ele>10.192</ele>
<time>2015-12-02T03:20:29.474Z</time>
</trkpt>
<trkpt lat="-28.0969370" lon="153.3974298">
<ele>10.407</ele>
<time>2015-12-02T03:20:31.546Z</time>
</trkpt>
<trkpt lat="-28.0966671" lon="153.3969844">
<ele>10.183</ele>
<time>2015-12-02T03:20:33.624Z</time>
</trkpt>
<trkpt lat="-28.0962781" lon="153.3963495">
<ele>9.298</ele>
<time>2015-12-02T03:20:36.581Z</time>
</trkpt>
<trkpt lat="-28.0960069" lon="153.3959119">
<ele>7.946</ele>
<time>2015-12-02T03:20:38.601Z</time>
</trkpt>
<trkpt lat="-28.0957262" lon="153.3954746">
<ele>6.908</ele>
<time>2015-12-02T03:20:40.607Z</time>
</trkpt>
<trkpt lat="-28.0954322" lon="153.3950262">
<ele>6.932</ele>
<time>2015-12-02T03:20:42.646Z</time>
</trkpt>
<trkpt lat="-28.0950080" lon="153.3943365">
<ele>7.906</ele>
<time>2015-12-02T03:20:45.671Z</time>
</trkpt>
<trkpt lat="-28.0947177" lon="153.3938890">
<ele>8.651</ele>
<time>2015-12-02T03:20:47.658Z</time>
</trkpt>
<trkpt lat="-28.0942678" lon="153.3932195">
<ele>8.352</ele>
<time>2015-12-02T03:20:50.653Z</time>
</trkpt>
<trkpt lat="-28.0939627" lon="153.3927669">
<ele>7.631</ele>
<time>2015-12-02T03:20:52.667Z</time>
</trkpt>
<trkpt lat="-28.0934520" lon="153.3921252">
<ele>7.316</ele>
<time>2015-12-02T03:20:55.713Z</time>
</trkpt>
<trkpt lat="-28.0929438" lon="153.3915612">
<ele>7.477</ele>
<time>2015-12-02T03:20:58.616Z</time>
</trkpt>
<trkpt lat="-28.0925965" lon="153.3912324">
<ele>7.520</ele>
<time>2015-12-02T03:21:00.528Z</time>
</trkpt>
<trkpt lat="-28.0922365" lon="153.3909184">
<ele>7.031</ele>
<time>2015-12-02T03:21:02.489Z</time>
</trkpt>
<trkpt lat="-28.0916865" lon="153.3904499">
<ele>6.559</ele>
<time>2015-12-02T03:21:05.471Z</time>
</trkpt>
<trkpt lat="-28.0912902" lon="153.3901464">
<ele>6.651</ele>
<time>2015-12-02T03:21:07.526Z</time>
</trkpt>
<trkpt lat="-28.0906832" lon="153.3896988">
<ele>7.031</ele>
<time>2015-12-02T03:21:10.583Z</time>
</trkpt>
<trkpt lat="-28.0902902" lon="153.3893963">
<ele>7.298</ele>
<time>2015-12-02T03:21:12.562Z</time>
</trkpt>
<trkpt lat="-28.0896992" lon="153.3889079">
<ele>7.422</ele>
<time>2015-12-02T03:21:15.593Z</time>
</trkpt>
<trkpt lat="-28.0890785" lon="153.3884233">
<ele>7.651</ele>
<time>2015-12-02T03:21:18.676Z</time>
</trkpt>
<trkpt lat="-28.0886630" lon="153.3881111">
<ele>8.575</ele>
<time>2015-12-02T03:21:20.693Z</time>
</trkpt>
<trkpt lat="-28.0882547" lon="153.3877689">
<ele>10.250</ele>
<time>2015-12-02T03:21:22.754Z</time>
</trkpt>
<trkpt lat="-28.0876592" lon="153.3872667">
<ele>11.926</ele>
<time>2015-12-02T03:21:25.773Z</time>
</trkpt>
<trkpt lat="-28.0870926" lon="153.3868064">
<ele>13.360</ele>
<time>2015-12-02T03:21:28.639Z</time>
</trkpt>
<trkpt lat="-28.0867315" lon="153.3864709">
<ele>14.946</ele>
<time>2015-12-02T03:21:30.582Z</time>
</trkpt>
<trkpt lat="-28.0862368" lon="153.3858795">
<ele>16.631</ele>
<time>2015-12-02T03:21:33.588Z</time>
</trkpt>
<trkpt lat="-28.0859597" lon="153.3854973">
<ele>18.400</ele>
<time>2015-12-02T03:21:35.421Z</time>
</trkpt>
<trkpt lat="-28.0856570" lon="153.3850144">
<ele>20.234</ele>
<time>2015-12-02T03:21:37.629Z</time>
</trkpt>
<trkpt lat="-28.0852942" lon="153.3843477">
<ele>21.581</ele>
<time>2015-12-02T03:21:40.600Z</time>
</trkpt>
<trkpt lat="-28.0849717" lon="153.3836547">
<ele>22.070</ele>
<time>2015-12-02T03:21:43.651Z</time>
</trkpt>
<trkpt lat="-28.0848055" lon="153.3831910">
<ele>21.776</ele>
<time>2015-12-02T03:21:45.642Z</time>
</trkpt>
<trkpt lat="-28.0845696" lon="153.3824163">
<ele>20.883</ele>
<time>2015-12-02T03:21:48.816Z</time>
</trkpt>
<trkpt lat="-28.0844110" lon="153.3818727">
<ele>19.946</ele>
<time>2015-12-02T03:21:50.877Z</time>
</trkpt>
<trkpt lat="-28.0842806" lon="153.3813154">
<ele>19.842</ele>
<time>2015-12-02T03:21:52.886Z</time>
</trkpt>
<trkpt lat="-28.0840645" lon="153.3804908">
<ele>20.761</ele>
<time>2015-12-02T03:21:55.859Z</time>
</trkpt>
<trkpt lat="-28.0839076" lon="153.3799060">
<ele>21.476</ele>
<time>2015-12-02T03:21:57.950Z</time>
</trkpt>
<trkpt lat="-28.0837063" lon="153.3790991">
<ele>20.286</ele>
<time>2015-12-02T03:22:00.809Z</time>
</trkpt>
<trkpt lat="-28.0835796" lon="153.3785648">
<ele>17.190</ele>
<time>2015-12-02T03:22:02.720Z</time>
</trkpt>
<trkpt lat="-28.0833903" lon="153.3777356">
<ele>13.917</ele>
<time>2015-12-02T03:22:05.701Z</time>
</trkpt>
<trkpt lat="-28.0831907" lon="153.3769182">
<ele>11.788</ele>
<time>2015-12-02T03:22:08.662Z</time>
</trkpt>
<trkpt lat="-28.0829694" lon="153.3761674">
<ele>10.692</ele>
<time>2015-12-02T03:22:11.484Z</time>
</trkpt>
<trkpt lat="-28.0828090" lon="153.3756733">
<ele>9.709</ele>
<time>2015-12-02T03:22:13.410Z</time>
</trkpt>
<trkpt lat="-28.0825243" lon="153.3749355">
<ele>7.863</ele>
<time>2015-12-02T03:22:16.457Z</time>
</trkpt>
<trkpt lat="-28.0823140" lon="153.3744834">
<ele>4.870</ele>
<time>2015-12-02T03:22:18.430Z</time>
</trkpt>
<trkpt lat="-28.0820275" lon="153.3738003">
<ele>1.655</ele>
<time>2015-12-02T03:22:21.360Z</time>
</trkpt>
<trkpt lat="-28.0818182" lon="153.3733253">
<ele>0.000</ele>
<time>2015-12-02T03:22:23.400Z</time>
</trkpt>
<trkpt lat="-28.0816005" lon="153.3728324">
<ele>0.087</ele>
<time>2015-12-02T03:22:25.464Z</time>
</trkpt>
<trkpt lat="-28.0813762" lon="153.3723528">
<ele>1.722</ele>
<time>2015-12-02T03:22:27.461Z</time>
</trkpt>
<trkpt lat="-28.0810915" lon="153.3716435">
<ele>3.407</ele>
<time>2015-12-02T03:22:30.382Z</time>
</trkpt>
<trkpt lat="-28.0808070" lon="153.3709721">
<ele>4.185</ele>
<time>2015-12-02T03:22:33.272Z</time>
</trkpt>
<trkpt lat="-28.0806200" lon="153.3705322">
<ele>3.565</ele>
<time>2015-12-02T03:22:35.195Z</time>
</trkpt>
<trkpt lat="-28.0803301" lon="153.3698787">
<ele>1.951</ele>
<time>2015-12-02T03:22:38.134Z</time>
</trkpt>
<trkpt lat="-28.0800127" lon="153.3692432">
<ele>0.507</ele>
<time>2015-12-02T03:22:41.137Z</time>
</trkpt>
<trkpt lat="-28.0798175" lon="153.3688055">
<ele>0.000</ele>
<time>2015-12-02T03:22:43.170Z</time>
</trkpt>
<trkpt lat="-28.0794489" lon="153.3681843">
<ele>0.000</ele>
<time>2015-12-02T03:22:46.248Z</time>
</trkpt>
<trkpt lat="-28.0789823" lon="153.3675772">
<ele>0.081</ele>
<time>2015-12-02T03:22:49.366Z</time>
</trkpt>
<trkpt lat="-28.0784753" lon="153.3670041">
<ele>1.106</ele>
<time>2015-12-02T03:22:52.352Z</time>
</trkpt>
<trkpt lat="-28.0779846" lon="153.3664802">
<ele>2.769</ele>
<time>2015-12-02T03:22:55.222Z</time>
</trkpt>
<trkpt lat="-28.0774356" lon="153.3660155">
<ele>3.869</ele>
<time>2015-12-02T03:22:58.220Z</time>
</trkpt>
<trkpt lat="-28.0768184" lon="153.3655869">
<ele>3.700</ele>
<time>2015-12-02T03:23:01.334Z</time>
</trkpt>
<trkpt lat="-28.0763789" lon="153.3653373">
<ele>3.434</ele>
<time>2015-12-02T03:23:03.386Z</time>
</trkpt>
<trkpt lat="-28.0756850" lon="153.3650226">
<ele>4.166</ele>
<time>2015-12-02T03:23:06.425Z</time>
</trkpt>
<trkpt lat="-28.0749455" lon="153.3647222">
<ele>5.415</ele>
<time>2015-12-02T03:23:09.513Z</time>
</trkpt>
<trkpt lat="-28.0744453" lon="153.3645344">
<ele>6.540</ele>
<time>2015-12-02T03:23:11.527Z</time>
</trkpt>
<trkpt lat="-28.0739331" lon="153.3643302">
<ele>7.543</ele>
<time>2015-12-02T03:23:13.570Z</time>
</trkpt>
<trkpt lat="-28.0734226" lon="153.3641246">
<ele>8.264</ele>
<time>2015-12-02T03:23:15.589Z</time>
</trkpt>
<trkpt lat="-28.0726621" lon="153.3638157">
<ele>8.518</ele>
<time>2015-12-02T03:23:18.587Z</time>
</trkpt>
<trkpt lat="-28.0719142" lon="153.3634925">
<ele>8.390</ele>
<time>2015-12-02T03:23:21.580Z</time>
</trkpt>
<trkpt lat="-28.0714219" lon="153.3633023">
<ele>7.821</ele>
<time>2015-12-02T03:23:23.552Z</time>
</trkpt>
<trkpt lat="-28.0706851" lon="153.3630019">
<ele>6.850</ele>
<time>2015-12-02T03:23:26.546Z</time>
</trkpt>
<trkpt lat="-28.0702008" lon="153.3628077">
<ele>6.103</ele>
<time>2015-12-02T03:23:28.538Z</time>
</trkpt>
<trkpt lat="-28.0695000" lon="153.3625206">
<ele>5.996</ele>
<time>2015-12-02T03:23:31.488Z</time>
</trkpt>
<trkpt lat="-28.0687873" lon="153.3622355">
<ele>6.015</ele>
<time>2015-12-02T03:23:34.499Z</time>
</trkpt>
<trkpt lat="-28.0680441" lon="153.3619584">
<ele>5.664</ele>
<time>2015-12-02T03:23:37.572Z</time>
</trkpt>
<trkpt lat="-28.0675599" lon="153.3617742">
<ele>4.934</ele>
<time>2015-12-02T03:23:39.576Z</time>
</trkpt>
<trkpt lat="-28.0670729" lon="153.3615961">
<ele>3.911</ele>
<time>2015-12-02T03:23:41.590Z</time>
</trkpt>
<trkpt lat="-28.0665890" lon="153.3614443">
<ele>2.866</ele>
<time>2015-12-02T03:23:43.572Z</time>
</trkpt>
<trkpt lat="-28.0660947" lon="153.3612823">
<ele>2.192</ele>
<time>2015-12-02T03:23:45.615Z</time>
</trkpt>
<trkpt lat="-28.0656129" lon="153.3611256">
<ele>1.915</ele>
<time>2015-12-02T03:23:47.603Z</time>
</trkpt>
<trkpt lat="-28.0651258" lon="153.3609677">
<ele>2.030</ele>
<time>2015-12-02T03:23:49.594Z</time>
</trkpt>
<trkpt lat="-28.0643952" lon="153.3607122">
<ele>2.553</ele>
<time>2015-12-02T03:23:52.592Z</time>
</trkpt>
<trkpt lat="-28.0636845" lon="153.3604663">
<ele>3.176</ele>
<time>2015-12-02T03:23:55.540Z</time>
</trkpt>
<trkpt lat="-28.0632006" lon="153.3603011">
<ele>3.552</ele>
<time>2015-12-02T03:23:57.550Z</time>
</trkpt>
<trkpt lat="-28.0624777" lon="153.3600404">
<ele>3.713</ele>
<time>2015-12-02T03:24:00.547Z</time>
</trkpt>
<trkpt lat="-28.0619856" lon="153.3598751">
<ele>3.832</ele>
<time>2015-12-02T03:24:02.577Z</time>
</trkpt>
<trkpt lat="-28.0615005" lon="153.3597125">
<ele>3.817</ele>
<time>2015-12-02T03:24:04.590Z</time>
</trkpt>
<trkpt lat="-28.0607874" lon="153.3594817">
<ele>3.543</ele>
<time>2015-12-02T03:24:07.564Z</time>
</trkpt>
<trkpt lat="-28.0603100" lon="153.3593294">
<ele>3.196</ele>
<time>2015-12-02T03:24:09.553Z</time>
</trkpt>
<trkpt lat="-28.0595901" lon="153.3590718">
<ele>3.162</ele>
<time>2015-12-02T03:24:12.550Z</time>
</trkpt>
<trkpt lat="-28.0588674" lon="153.3588179">
<ele>3.866</ele>
<time>2015-12-02T03:24:15.525Z</time>
</trkpt>
<trkpt lat="-28.0583755" lon="153.3586281">
<ele>5.197</ele>
<time>2015-12-02T03:24:17.563Z</time>
</trkpt>
<trkpt lat="-28.0578512" lon="153.3584695">
<ele>6.371</ele>
<time>2015-12-02T03:24:19.664Z</time>
</trkpt>
<trkpt lat="-28.0570429" lon="153.3582095">
<ele>7.445</ele>
<time>2015-12-02T03:24:22.798Z</time>
</trkpt>
<trkpt lat="-28.0562763" lon="153.3579633">
<ele>9.025</ele>
<time>2015-12-02T03:24:25.736Z</time>
</trkpt>
<trkpt lat="-28.0557880" lon="153.3577984">
<ele>10.630</ele>
<time>2015-12-02T03:24:27.678Z</time>
</trkpt>
<trkpt lat="-28.0550850" lon="153.3575391">
<ele>11.009</ele>
<time>2015-12-02T03:24:30.620Z</time>
</trkpt>
<trkpt lat="-28.0543805" lon="153.3573098">
<ele>9.506</ele>
<time>2015-12-02T03:24:33.610Z</time>
</trkpt>
<trkpt lat="-28.0536869" lon="153.3570663">
<ele>6.695</ele>
<time>2015-12-02T03:24:36.611Z</time>
</trkpt>
<trkpt lat="-28.0530067" lon="153.3568232">
<ele>4.077</ele>
<time>2015-12-02T03:24:39.585Z</time>
</trkpt>
<trkpt lat="-28.0525523" lon="153.3566724">
<ele>2.707</ele>
<time>2015-12-02T03:24:41.550Z</time>
</trkpt>
<trkpt lat="-28.0518174" lon="153.3564255">
<ele>2.595</ele>
<time>2015-12-02T03:24:44.657Z</time>
</trkpt>
<trkpt lat="-28.0510815" lon="153.3561529">
<ele>3.582</ele>
<time>2015-12-02T03:24:47.714Z</time>
</trkpt>
<trkpt lat="-28.0506270" lon="153.3559951">
<ele>5.342</ele>
<time>2015-12-02T03:24:49.596Z</time>
</trkpt>
<trkpt lat="-28.0499114" lon="153.3557459">
<ele>6.901</ele>
<time>2015-12-02T03:24:52.596Z</time>
</trkpt>
<trkpt lat="-28.0494368" lon="153.3555769">
<ele>7.777</ele>
<time>2015-12-02T03:24:54.592Z</time>
</trkpt>
<trkpt lat="-28.0486902" lon="153.3553192">
<ele>8.354</ele>
<time>2015-12-02T03:24:57.667Z</time>
</trkpt>
<trkpt lat="-28.0482064" lon="153.3551486">
<ele>8.732</ele>
<time>2015-12-02T03:24:59.640Z</time>
</trkpt>
<trkpt lat="-28.0474847" lon="153.3548751">
<ele>8.880</ele>
<time>2015-12-02T03:25:02.624Z</time>
</trkpt>
<trkpt lat="-28.0470028" lon="153.3546976">
<ele>8.952</ele>
<time>2015-12-02T03:25:04.626Z</time>
</trkpt>
<trkpt lat="-28.0465238" lon="153.3545413">
<ele>9.158</ele>
<time>2015-12-02T03:25:06.619Z</time>
</trkpt>
<trkpt lat="-28.0458092" lon="153.3543008">
<ele>9.875</ele>
<time>2015-12-02T03:25:09.600Z</time>
</trkpt>
<trkpt lat="-28.0450656" lon="153.3540455">
<ele>11.107</ele>
<time>2015-12-02T03:25:12.651Z</time>
</trkpt>
<trkpt lat="-28.0443273" lon="153.3538037">
<ele>12.199</ele>
<time>2015-12-02T03:25:15.642Z</time>
</trkpt>
<trkpt lat="-28.0438235" lon="153.3536418">
<ele>12.729</ele>
<time>2015-12-02T03:25:17.679Z</time>
</trkpt>
<trkpt lat="-28.0431121" lon="153.3534541">
<ele>12.842</ele>
<time>2015-12-02T03:25:20.552Z</time>
</trkpt>
<trkpt lat="-28.0426202" lon="153.3533223">
<ele>12.592</ele>
<time>2015-12-02T03:25:22.570Z</time>
</trkpt>
<trkpt lat="-28.0418705" lon="153.3531653">
<ele>12.030</ele>
<time>2015-12-02T03:25:25.599Z</time>
</trkpt>
<trkpt lat="-28.0411124" lon="153.3530268">
<ele>11.784</ele>
<time>2015-12-02T03:25:28.621Z</time>
</trkpt>
<trkpt lat="-28.0406029" lon="153.3529678">
<ele>12.414</ele>
<time>2015-12-02T03:25:30.647Z</time>
</trkpt>
<trkpt lat="-28.0398711" lon="153.3528593">
<ele>13.465</ele>
<time>2015-12-02T03:25:33.586Z</time>
</trkpt>
<trkpt lat="-28.0393753" lon="153.3527758">
<ele>14.307</ele>
<time>2015-12-02T03:25:35.583Z</time>
</trkpt>
<trkpt lat="-28.0388674" lon="153.3526923">
<ele>14.852</ele>
<time>2015-12-02T03:25:37.620Z</time>
</trkpt>
<trkpt lat="-28.0383708" lon="153.3526266">
<ele>15.026</ele>
<time>2015-12-02T03:25:39.589Z</time>
</trkpt>
<trkpt lat="-28.0378610" lon="153.3525682">
<ele>14.797</ele>
<time>2015-12-02T03:25:41.587Z</time>
</trkpt>
<trkpt lat="-28.0371027" lon="153.3524510">
<ele>14.444</ele>
<time>2015-12-02T03:25:44.540Z</time>
</trkpt>
<trkpt lat="-28.0362961" lon="153.3523400">
<ele>13.653</ele>
<time>2015-12-02T03:25:47.658Z</time>
</trkpt>
<trkpt lat="-28.0358009" lon="153.3522805">
<ele>11.787</ele>
<time>2015-12-02T03:25:49.581Z</time>
</trkpt>
<trkpt lat="-28.0352898" lon="153.3521118">
<ele>9.538</ele>
<time>2015-12-02T03:25:51.657Z</time>
</trkpt>
<trkpt lat="-28.0347637" lon="153.3521164">
<ele>8.222</ele>
<time>2015-12-02T03:25:53.709Z</time>
</trkpt>
<trkpt lat="-28.0342554" lon="153.3520591">
<ele>8.123</ele>
<time>2015-12-02T03:25:55.691Z</time>
</trkpt>
<trkpt lat="-28.0334956" lon="153.3519555">
<ele>8.709</ele>
<time>2015-12-02T03:25:58.660Z</time>
</trkpt>
<trkpt lat="-28.0327295" lon="153.3518757">
<ele>9.116</ele>
<time>2015-12-02T03:26:01.654Z</time>
</trkpt>
<trkpt lat="-28.0319557" lon="153.3517656">
<ele>8.840</ele>
<time>2015-12-02T03:26:04.672Z</time>
</trkpt>
<trkpt lat="-28.0311533" lon="153.3516684">
<ele>8.288</ele>
<time>2015-12-02T03:26:07.717Z</time>
</trkpt>
<trkpt lat="-28.0303275" lon="153.3515499">
<ele>8.527</ele>
<time>2015-12-02T03:26:10.772Z</time>
</trkpt>
<trkpt lat="-28.0295290" lon="153.3514438">
<ele>9.922</ele>
<time>2015-12-02T03:26:13.727Z</time>
</trkpt>
<trkpt lat="-28.0289972" lon="153.3513833">
<ele>11.374</ele>
<time>2015-12-02T03:26:15.702Z</time>
</trkpt>
<trkpt lat="-28.0281772" lon="153.3512524">
<ele>11.894</ele>
<time>2015-12-02T03:26:18.759Z</time>
</trkpt>
<trkpt lat="-28.0276674" lon="153.3511843">
<ele>11.767</ele>
<time>2015-12-02T03:26:20.678Z</time>
</trkpt>
<trkpt lat="-28.0268614" lon="153.3510777">
<ele>12.130</ele>
<time>2015-12-02T03:26:23.716Z</time>
</trkpt>
<trkpt lat="-28.0263199" lon="153.3510069">
<ele>13.880</ele>
<time>2015-12-02T03:26:25.731Z</time>
</trkpt>
<trkpt lat="-28.0257668" lon="153.3509096">
<ele>16.772</ele>
<time>2015-12-02T03:26:27.788Z</time>
</trkpt>
<trkpt lat="-28.0252353" lon="153.3508121">
<ele>19.788</ele>
<time>2015-12-02T03:26:29.772Z</time>
</trkpt>
<trkpt lat="-28.0244725" lon="153.3506791">
<ele>22.200</ele>
<time>2015-12-02T03:26:32.709Z</time>
</trkpt>
<trkpt lat="-28.0239823" lon="153.3506170">
<ele>23.747</ele>
<time>2015-12-02T03:26:34.649Z</time>
</trkpt>
<trkpt lat="-28.0234654" lon="153.3505585">
<ele>24.544</ele>
<time>2015-12-02T03:26:36.700Z</time>
</trkpt>
<trkpt lat="-28.0227044" lon="153.3504551">
<ele>24.854</ele>
<time>2015-12-02T03:26:39.712Z</time>
</trkpt>
<trkpt lat="-28.0219378" lon="153.3503219">
<ele>25.404</ele>
<time>2015-12-02T03:26:42.714Z</time>
</trkpt>
<trkpt lat="-28.0214082" lon="153.3502111">
<ele>26.814</ele>
<time>2015-12-02T03:26:44.758Z</time>
</trkpt>
<trkpt lat="-28.0208970" lon="153.3501018">
<ele>28.665</ele>
<time>2015-12-02T03:26:46.728Z</time>
</trkpt>
<trkpt lat="-28.0201501" lon="153.3499184">
<ele>29.934</ele>
<time>2015-12-02T03:26:49.687Z</time>
</trkpt>
<trkpt lat="-28.0194492" lon="153.3497668">
<ele>30.063</ele>
<time>2015-12-02T03:26:52.494Z</time>
</trkpt>
<trkpt lat="-28.0189526" lon="153.3495902">
<ele>29.172</ele>
<time>2015-12-02T03:26:54.558Z</time>
</trkpt>
<trkpt lat="-28.0182472" lon="153.3493355">
<ele>27.991</ele>
<time>2015-12-02T03:26:57.533Z</time>
</trkpt>
<trkpt lat="-28.0175399" lon="153.3490698">
<ele>26.942</ele>
<time>2015-12-02T03:27:00.529Z</time>
</trkpt>
<trkpt lat="-28.0170586" lon="153.3488760">
<ele>25.611</ele>
<time>2015-12-02T03:27:02.558Z</time>
</trkpt>
<trkpt lat="-28.0165683" lon="153.3486725">
<ele>23.932</ele>
<time>2015-12-02T03:27:04.600Z</time>
</trkpt>
<trkpt lat="-28.0158447" lon="153.3483525">
<ele>22.304</ele>
<time>2015-12-02T03:27:07.633Z</time>
</trkpt>
<trkpt lat="-28.0154065" lon="153.3481465">
<ele>20.815</ele>
<time>2015-12-02T03:27:09.531Z</time>
</trkpt>
<trkpt lat="-28.0149277" lon="153.3479261">
<ele>19.399</ele>
<time>2015-12-02T03:27:11.636Z</time>
</trkpt>
<trkpt lat="-28.0142395" lon="153.3475467">
<ele>18.121</ele>
<time>2015-12-02T03:27:14.729Z</time>
</trkpt>
<trkpt lat="-28.0135372" lon="153.3471217">
<ele>17.157</ele>
<time>2015-12-02T03:27:17.860Z</time>
</trkpt>
<trkpt lat="-28.0130762" lon="153.3468172">
<ele>17.145</ele>
<time>2015-12-02T03:27:19.904Z</time>
</trkpt>
<trkpt lat="-28.0126202" lon="153.3465385">
<ele>18.531</ele>
<time>2015-12-02T03:27:21.884Z</time>
</trkpt>
<trkpt lat="-28.0119515" lon="153.3461227">
<ele>20.555</ele>
<time>2015-12-02T03:27:24.832Z</time>
</trkpt>
<trkpt lat="-28.0115127" lon="153.3457907">
<ele>22.391</ele>
<time>2015-12-02T03:27:26.884Z</time>
</trkpt>
<trkpt lat="-28.0108840" lon="153.3453567">
<ele>23.953</ele>
<time>2015-12-02T03:27:29.763Z</time>
</trkpt>
<trkpt lat="-28.0104881" lon="153.3450093">
<ele>24.751</ele>
<time>2015-12-02T03:27:31.747Z</time>
</trkpt>
<trkpt lat="-28.0100724" lon="153.3446932">
<ele>24.111</ele>
<time>2015-12-02T03:27:33.755Z</time>
</trkpt>
<trkpt lat="-28.0094520" lon="153.3442161">
<ele>22.400</ele>
<time>2015-12-02T03:27:36.742Z</time>
</trkpt>
<trkpt lat="-28.0090326" lon="153.3438901">
<ele>20.572</ele>
<time>2015-12-02T03:27:38.719Z</time>
</trkpt>
<trkpt lat="-28.0085776" lon="153.3435327">
<ele>19.294</ele>
<time>2015-12-02T03:27:40.814Z</time>
</trkpt>
<trkpt lat="-28.0081308" lon="153.3432111">
<ele>18.160</ele>
<time>2015-12-02T03:27:42.793Z</time>
</trkpt>
<trkpt lat="-28.0077183" lon="153.3428910">
<ele>16.347</ele>
<time>2015-12-02T03:27:44.695Z</time>
</trkpt>
<trkpt lat="-28.0073015" lon="153.3425753">
<ele>14.076</ele>
<time>2015-12-02T03:27:46.651Z</time>
</trkpt>
<trkpt lat="-28.0066910" lon="153.3420883">
<ele>12.324</ele>
<time>2015-12-02T03:27:49.608Z</time>
</trkpt>
<trkpt lat="-28.0062806" lon="153.3417662">
<ele>11.500</ele>
<time>2015-12-02T03:27:51.586Z</time>
</trkpt>
<trkpt lat="-28.0056732" lon="153.3412571">
<ele>11.376</ele>
<time>2015-12-02T03:27:54.570Z</time>
</trkpt>
<trkpt lat="-28.0050356" lon="153.3407916">
<ele>11.150</ele>
<time>2015-12-02T03:27:57.557Z</time>
</trkpt>
<trkpt lat="-28.0045771" lon="153.3405193">
<ele>9.883</ele>
<time>2015-12-02T03:27:59.588Z</time>
</trkpt>
<trkpt lat="-28.0041195" lon="153.3403071">
<ele>7.784</ele>
<time>2015-12-02T03:28:01.538Z</time>
</trkpt>
<trkpt lat="-28.0036485" lon="153.3400994">
<ele>6.064</ele>
<time>2015-12-02T03:28:03.554Z</time>
</trkpt>
<trkpt lat="-28.0031801" lon="153.3399250">
<ele>4.980</ele>
<time>2015-12-02T03:28:05.539Z</time>
</trkpt>
<trkpt lat="-28.0027059" lon="153.3397836">
<ele>3.982</ele>
<time>2015-12-02T03:28:07.538Z</time>
</trkpt>
<trkpt lat="-28.0020016" lon="153.3396227">
<ele>3.152</ele>
<time>2015-12-02T03:28:10.521Z</time>
</trkpt>
<trkpt lat="-28.0015332" lon="153.3395860">
<ele>2.779</ele>
<time>2015-12-02T03:28:12.498Z</time>
</trkpt>
<trkpt lat="-28.0010343" lon="153.3395530">
<ele>2.749</ele>
<time>2015-12-02T03:28:14.615Z</time>
</trkpt>
<trkpt lat="-28.0002962" lon="153.3395611">
<ele>2.876</ele>
<time>2015-12-02T03:28:17.703Z</time>
</trkpt>
<trkpt lat="-27.9995718" lon="153.3396135">
<ele>3.149</ele>
<time>2015-12-02T03:28:20.689Z</time>
</trkpt>
<trkpt lat="-27.9987754" lon="153.3396223">
<ele>3.735</ele>
<time>2015-12-02T03:28:23.880Z</time>
</trkpt>
<trkpt lat="-27.9982547" lon="153.3396533">
<ele>4.808</ele>
<time>2015-12-02T03:28:25.901Z</time>
</trkpt>
<trkpt lat="-27.9974959" lon="153.3397159">
<ele>6.168</ele>
<time>2015-12-02T03:28:28.831Z</time>
</trkpt>
<trkpt lat="-27.9969782" lon="153.3397859">
<ele>7.195</ele>
<time>2015-12-02T03:28:30.824Z</time>
</trkpt>
<trkpt lat="-27.9961493" lon="153.3398710">
<ele>7.652</ele>
<time>2015-12-02T03:28:33.916Z</time>
</trkpt>
<trkpt lat="-27.9956018" lon="153.3399308">
<ele>8.431</ele>
<time>2015-12-02T03:28:35.929Z</time>
</trkpt>
<trkpt lat="-27.9947883" lon="153.3399610">
<ele>10.055</ele>
<time>2015-12-02T03:28:38.921Z</time>
</trkpt>
<trkpt lat="-27.9942378" lon="153.3400005">
<ele>11.259</ele>
<time>2015-12-02T03:28:40.951Z</time>
</trkpt>
<trkpt lat="-27.9934309" lon="153.3400078">
<ele>10.862</ele>
<time>2015-12-02T03:28:43.942Z</time>
</trkpt>
<trkpt lat="-27.9926704" lon="153.3400719">
<ele>9.281</ele>
<time>2015-12-02T03:28:46.819Z</time>
</trkpt>
<trkpt lat="-27.9919141" lon="153.3402170">
<ele>7.536</ele>
<time>2015-12-02T03:28:49.759Z</time>
</trkpt>
<trkpt lat="-27.9911196" lon="153.3403386">
<ele>6.364</ele>
<time>2015-12-02T03:28:52.824Z</time>
</trkpt>
<trkpt lat="-27.9905881" lon="153.3404360">
<ele>5.843</ele>
<time>2015-12-02T03:28:54.853Z</time>
</trkpt>
<trkpt lat="-27.9897937" lon="153.3405769">
<ele>5.619</ele>
<time>2015-12-02T03:28:57.852Z</time>
</trkpt>
<trkpt lat="-27.9892754" lon="153.3406619">
<ele>5.547</ele>
<time>2015-12-02T03:28:59.798Z</time>
</trkpt>
<trkpt lat="-27.9884650" lon="153.3407898">
<ele>5.589</ele>
<time>2015-12-02T03:29:02.847Z</time>
</trkpt>
<trkpt lat="-27.9876647" lon="153.3409242">
<ele>5.718</ele>
<time>2015-12-02T03:29:05.851Z</time>
</trkpt>
<trkpt lat="-27.9868681" lon="153.3410454">
<ele>5.938</ele>
<time>2015-12-02T03:29:08.823Z</time>
</trkpt>
<trkpt lat="-27.9863404" lon="153.3411284">
<ele>6.379</ele>
<time>2015-12-02T03:29:10.801Z</time>
</trkpt>
<trkpt lat="-27.9858255" lon="153.3412375">
<ele>7.287</ele>
<time>2015-12-02T03:29:12.778Z</time>
</trkpt>
<trkpt lat="-27.9850761" lon="153.3413722">
<ele>8.442</ele>
<time>2015-12-02T03:29:15.718Z</time>
</trkpt>
<trkpt lat="-27.9843463" lon="153.3415159">
<ele>9.249</ele>
<time>2015-12-02T03:29:18.625Z</time>
</trkpt>
<trkpt lat="-27.9835386" lon="153.3416431">
<ele>9.716</ele>
<time>2015-12-02T03:29:21.785Z</time>
</trkpt>
<trkpt lat="-27.9827418" lon="153.3417419">
<ele>10.610</ele>
<time>2015-12-02T03:29:24.810Z</time>
</trkpt>
<trkpt lat="-27.9821941" lon="153.3418380">
<ele>12.248</ele>
<time>2015-12-02T03:29:26.893Z</time>
</trkpt>
<trkpt lat="-27.9814063" lon="153.3419751">
<ele>13.951</ele>
<time>2015-12-02T03:29:29.892Z</time>
</trkpt>
<trkpt lat="-27.9806076" lon="153.3421330">
<ele>14.936</ele>
<time>2015-12-02T03:29:32.900Z</time>
</trkpt>
<trkpt lat="-27.9800762" lon="153.3422950">
<ele>15.019</ele>
<time>2015-12-02T03:29:34.914Z</time>
</trkpt>
<trkpt lat="-27.9795586" lon="153.3424853">
<ele>14.519</ele>
<time>2015-12-02T03:29:36.903Z</time>
</trkpt>
<trkpt lat="-27.9788409" lon="153.3428067">
<ele>13.971</ele>
<time>2015-12-02T03:29:39.787Z</time>
</trkpt>
<trkpt lat="-27.9783676" lon="153.3430792">
<ele>13.494</ele>
<time>2015-12-02T03:29:41.789Z</time>
</trkpt>
<trkpt lat="-27.9776708" lon="153.3435690">
<ele>12.945</ele>
<time>2015-12-02T03:29:44.844Z</time>
</trkpt>
<trkpt lat="-27.9772602" lon="153.3439150">
<ele>12.484</ele>
<time>2015-12-02T03:29:46.774Z</time>
</trkpt>
<trkpt lat="-27.9767424" lon="153.3445040">
<ele>12.524</ele>
<time>2015-12-02T03:29:49.638Z</time>
</trkpt>
<trkpt lat="-27.9763515" lon="153.3448584">
<ele>13.404</ele>
<time>2015-12-02T03:29:51.615Z</time>
</trkpt>
<trkpt lat="-27.9759222" lon="153.3452115">
<ele>15.182</ele>
<time>2015-12-02T03:29:53.675Z</time>
</trkpt>
<trkpt lat="-27.9751933" lon="153.3456723">
<ele>17.869</ele>
<time>2015-12-02T03:29:56.807Z</time>
</trkpt>
<trkpt lat="-27.9747162" lon="153.3459453">
<ele>21.678</ele>
<time>2015-12-02T03:29:58.806Z</time>
</trkpt>
<trkpt lat="-27.9742407" lon="153.3461772">
<ele>26.056</ele>
<time>2015-12-02T03:30:00.788Z</time>
</trkpt>
<trkpt lat="-27.9735097" lon="153.3464646">
<ele>29.781</ele>
<time>2015-12-02T03:30:03.799Z</time>
</trkpt>
<trkpt lat="-27.9727911" lon="153.3466948">
<ele>32.493</ele>
<time>2015-12-02T03:30:06.733Z</time>
</trkpt>
<trkpt lat="-27.9719883" lon="153.3468341">
<ele>34.728</ele>
<time>2015-12-02T03:30:09.826Z</time>
</trkpt>
<trkpt lat="-27.9714427" lon="153.3469036">
<ele>37.073</ele>
<time>2015-12-02T03:30:11.840Z</time>
</trkpt>
<trkpt lat="-27.9709236" lon="153.3469087">
<ele>39.453</ele>
<time>2015-12-02T03:30:13.749Z</time>
</trkpt>
<trkpt lat="-27.9700923" lon="153.3469389">
<ele>41.070</ele>
<time>2015-12-02T03:30:16.800Z</time>
</trkpt>
<trkpt lat="-27.9695129" lon="153.3469254">
<ele>41.539</ele>
<time>2015-12-02T03:30:18.891Z</time>
</trkpt>
<trkpt lat="-27.9689466" lon="153.3468801">
<ele>41.275</ele>
<time>2015-12-02T03:30:20.907Z</time>
</trkpt>
<trkpt lat="-27.9683645" lon="153.3468080">
<ele>40.599</ele>
<time>2015-12-02T03:30:22.963Z</time>
</trkpt>
<trkpt lat="-27.9675224" lon="153.3466533">
<ele>39.690</ele>
<time>2015-12-02T03:30:25.968Z</time>
</trkpt>
<trkpt lat="-27.9666996" lon="153.3464463">
<ele>38.672</ele>
<time>2015-12-02T03:30:28.953Z</time>
</trkpt>
<trkpt lat="-27.9661431" lon="153.3462551">
<ele>36.485</ele>
<time>2015-12-02T03:30:31.009Z</time>
</trkpt>
<trkpt lat="-27.9653342" lon="153.3459936">
<ele>32.527</ele>
<time>2015-12-02T03:30:33.981Z</time>
</trkpt>
<trkpt lat="-27.9647655" lon="153.3458501">
<ele>28.413</ele>
<time>2015-12-02T03:30:36.030Z</time>
</trkpt>
<trkpt lat="-27.9639431" lon="153.3456219">
<ele>25.657</ele>
<time>2015-12-02T03:30:38.993Z</time>
</trkpt>
<trkpt lat="-27.9631323" lon="153.3454314">
<ele>23.893</ele>
<time>2015-12-02T03:30:41.934Z</time>
</trkpt>
<trkpt lat="-27.9625827" lon="153.3453313">
<ele>22.215</ele>
<time>2015-12-02T03:30:43.934Z</time>
</trkpt>
<trkpt lat="-27.9620347" lon="153.3452237">
<ele>20.421</ele>
<time>2015-12-02T03:30:45.929Z</time>
</trkpt>
<trkpt lat="-27.9611995" lon="153.3450969">
<ele>19.033</ele>
<time>2015-12-02T03:30:48.945Z</time>
</trkpt>
<trkpt lat="-27.9606388" lon="153.3450320">
<ele>18.006</ele>
<time>2015-12-02T03:30:50.960Z</time>
</trkpt>
<trkpt lat="-27.9600987" lon="153.3449565">
<ele>16.956</ele>
<time>2015-12-02T03:30:52.915Z</time>
</trkpt>
<trkpt lat="-27.9595590" lon="153.3449090">
<ele>16.015</ele>
<time>2015-12-02T03:30:54.861Z</time>
</trkpt>
<trkpt lat="-27.9587107" lon="153.3448062">
<ele>15.331</ele>
<time>2015-12-02T03:30:57.913Z</time>
</trkpt>
<trkpt lat="-27.9579024" lon="153.3446522">
<ele>14.655</ele>
<time>2015-12-02T03:31:00.856Z</time>
</trkpt>
<trkpt lat="-27.9571043" lon="153.3444774">
<ele>13.883</ele>
<time>2015-12-02T03:31:03.802Z</time>
</trkpt>
<trkpt lat="-27.9562862" lon="153.3443190">
<ele>13.041</ele>
<time>2015-12-02T03:31:06.800Z</time>
</trkpt>
<trkpt lat="-27.9554186" lon="153.3440935">
<ele>12.153</ele>
<time>2015-12-02T03:31:09.936Z</time>
</trkpt>
<trkpt lat="-27.9548572" lon="153.3439357">
<ele>11.496</ele>
<time>2015-12-02T03:31:11.930Z</time>
</trkpt>
<trkpt lat="-27.9540758" lon="153.3436850">
<ele>11.208</ele>
<time>2015-12-02T03:31:14.810Z</time>
</trkpt>
<trkpt lat="-27.9535566" lon="153.3434911">
<ele>10.758</ele>
<time>2015-12-02T03:31:16.819Z</time>
</trkpt>
<trkpt lat="-27.9527992" lon="153.3431846">
<ele>9.847</ele>
<time>2015-12-02T03:31:19.802Z</time>
</trkpt>
<trkpt lat="-27.9520285" lon="153.3428480">
<ele>8.984</ele>
<time>2015-12-02T03:31:22.841Z</time>
</trkpt>
<trkpt lat="-27.9512949" lon="153.3424811">
<ele>8.625</ele>
<time>2015-12-02T03:31:25.778Z</time>
</trkpt>
<trkpt lat="-27.9507984" lon="153.3422338">
<ele>8.623</ele>
<time>2015-12-02T03:31:27.778Z</time>
</trkpt>
<trkpt lat="-27.9500637" lon="153.3418158">
<ele>8.726</ele>
<time>2015-12-02T03:31:30.805Z</time>
</trkpt>
<trkpt lat="-27.9495779" lon="153.3415465">
<ele>9.105</ele>
<time>2015-12-02T03:31:32.774Z</time>
</trkpt>
<trkpt lat="-27.9490574" lon="153.3412936">
<ele>10.096</ele>
<time>2015-12-02T03:31:34.791Z</time>
</trkpt>
<trkpt lat="-27.9482936" lon="153.3408796">
<ele>11.235</ele>
<time>2015-12-02T03:31:37.782Z</time>
</trkpt>
<trkpt lat="-27.9475469" lon="153.3404778">
<ele>11.823</ele>
<time>2015-12-02T03:31:40.737Z</time>
</trkpt>
<trkpt lat="-27.9467977" lon="153.3400869">
<ele>11.868</ele>
<time>2015-12-02T03:31:43.729Z</time>
</trkpt>
<trkpt lat="-27.9462787" lon="153.3398416">
<ele>11.350</ele>
<time>2015-12-02T03:31:45.787Z</time>
</trkpt>
<trkpt lat="-27.9457960" lon="153.3396228">
<ele>10.159</ele>
<time>2015-12-02T03:31:47.716Z</time>
</trkpt>
<trkpt lat="-27.9453174" lon="153.3393940">
<ele>8.749</ele>
<time>2015-12-02T03:31:49.691Z</time>
</trkpt>
<trkpt lat="-27.9446156" lon="153.3390492">
<ele>7.466</ele>
<time>2015-12-02T03:31:52.674Z</time>
</trkpt>
<trkpt lat="-27.9441513" lon="153.3388280">
<ele>6.371</ele>
<time>2015-12-02T03:31:54.649Z</time>
</trkpt>
<trkpt lat="-27.9434277" lon="153.3385099">
<ele>5.894</ele>
<time>2015-12-02T03:31:57.674Z</time>
</trkpt>
<trkpt lat="-27.9427105" lon="153.3381998">
<ele>6.223</ele>
<time>2015-12-02T03:32:00.646Z</time>
</trkpt>
<trkpt lat="-27.9422361" lon="153.3379951">
<ele>6.809</ele>
<time>2015-12-02T03:32:02.615Z</time>
</trkpt>
<trkpt lat="-27.9417632" lon="153.3377736">
<ele>7.226</ele>
<time>2015-12-02T03:32:04.600Z</time>
</trkpt>
<trkpt lat="-27.9412755" lon="153.3375643">
<ele>7.505</ele>
<time>2015-12-02T03:32:06.607Z</time>
</trkpt>
<trkpt lat="-27.9405243" lon="153.3372709">
<ele>7.698</ele>
<time>2015-12-02T03:32:09.639Z</time>
</trkpt>
<trkpt lat="-27.9400078" lon="153.3370552">
<ele>7.960</ele>
<time>2015-12-02T03:32:11.730Z</time>
</trkpt>
<trkpt lat="-27.9392587" lon="153.3367715">
<ele>8.512</ele>
<time>2015-12-02T03:32:14.720Z</time>
</trkpt>
<trkpt lat="-27.9385029" lon="153.3364746">
<ele>9.418</ele>
<time>2015-12-02T03:32:17.726Z</time>
</trkpt>
<trkpt lat="-27.9379815" lon="153.3362736">
<ele>10.545</ele>
<time>2015-12-02T03:32:19.769Z</time>
</trkpt>
<trkpt lat="-27.9371798" lon="153.3359993">
<ele>11.976</ele>
<time>2015-12-02T03:32:22.836Z</time>
</trkpt>
<trkpt lat="-27.9363919" lon="153.3357161">
<ele>13.691</ele>
<time>2015-12-02T03:32:25.845Z</time>
</trkpt>
<trkpt lat="-27.9358614" lon="153.3355340">
<ele>15.121</ele>
<time>2015-12-02T03:32:27.841Z</time>
</trkpt>
<trkpt lat="-27.9350743" lon="153.3351985">
<ele>16.313</ele>
<time>2015-12-02T03:32:30.832Z</time>
</trkpt>
<trkpt lat="-27.9342875" lon="153.3348277">
<ele>17.747</ele>
<time>2015-12-02T03:32:33.849Z</time>
</trkpt>
<trkpt lat="-27.9337582" lon="153.3345965">
<ele>18.855</ele>
<time>2015-12-02T03:32:35.855Z</time>
</trkpt>
<trkpt lat="-27.9329759" lon="153.3342236">
<ele>19.070</ele>
<time>2015-12-02T03:32:38.846Z</time>
</trkpt>
<trkpt lat="-27.9322031" lon="153.3338148">
<ele>19.218</ele>
<time>2015-12-02T03:32:41.850Z</time>
</trkpt>
<trkpt lat="-27.9314599" lon="153.3334105">
<ele>20.040</ele>
<time>2015-12-02T03:32:44.785Z</time>
</trkpt>
<trkpt lat="-27.9309687" lon="153.3331284">
<ele>21.019</ele>
<time>2015-12-02T03:32:46.760Z</time>
</trkpt>
<trkpt lat="-27.9302062" lon="153.3327369">
<ele>21.498</ele>
<time>2015-12-02T03:32:49.739Z</time>
</trkpt>
<trkpt lat="-27.9294724" lon="153.3322323">
<ele>21.976</ele>
<time>2015-12-02T03:32:52.747Z</time>
</trkpt>
<trkpt lat="-27.9290487" lon="153.3318208">
<ele>22.954</ele>
<time>2015-12-02T03:32:54.696Z</time>
</trkpt>
<trkpt lat="-27.9283491" lon="153.3312940">
<ele>24.089</ele>
<time>2015-12-02T03:32:57.662Z</time>
</trkpt>
<trkpt lat="-27.9278927" lon="153.3309241">
<ele>24.986</ele>
<time>2015-12-02T03:32:59.655Z</time>
</trkpt>
<trkpt lat="-27.9274436" lon="153.3305480">
<ele>25.626</ele>
<time>2015-12-02T03:33:01.636Z</time>
</trkpt>
<trkpt lat="-27.9269897" lon="153.3301576">
<ele>25.402</ele>
<time>2015-12-02T03:33:03.651Z</time>
</trkpt>
<trkpt lat="-27.9263534" lon="153.3295725">
<ele>24.051</ele>
<time>2015-12-02T03:33:06.557Z</time>
</trkpt>
<trkpt lat="-27.9257108" lon="153.3289309">
<ele>22.893</ele>
<time>2015-12-02T03:33:09.597Z</time>
</trkpt>
<trkpt lat="-27.9253221" lon="153.3285240">
<ele>23.280</ele>
<time>2015-12-02T03:33:11.477Z</time>
</trkpt>
<trkpt lat="-27.9247368" lon="153.3278851">
<ele>24.719</ele>
<time>2015-12-02T03:33:14.388Z</time>
</trkpt>
<trkpt lat="-27.9243309" lon="153.3274282">
<ele>25.954</ele>
<time>2015-12-02T03:33:16.434Z</time>
</trkpt>
<trkpt lat="-27.9237233" lon="153.3267270">
<ele>26.474</ele>
<time>2015-12-02T03:33:19.497Z</time>
</trkpt>
<trkpt lat="-27.9231310" lon="153.3260596">
<ele>26.748</ele>
<time>2015-12-02T03:33:22.433Z</time>
</trkpt>
<trkpt lat="-27.9227322" lon="153.3256267">
<ele>27.236</ele>
<time>2015-12-02T03:33:24.383Z</time>
</trkpt>
<trkpt lat="-27.9221142" lon="153.3250038">
<ele>27.482</ele>
<time>2015-12-02T03:33:27.315Z</time>
</trkpt>
<trkpt lat="-27.9214615" lon="153.3243864">
<ele>27.010</ele>
<time>2015-12-02T03:33:30.311Z</time>
</trkpt>
<trkpt lat="-27.9207704" lon="153.3237601">
<ele>25.864</ele>
<time>2015-12-02T03:33:33.389Z</time>
</trkpt>
<trkpt lat="-27.9202693" lon="153.3234251">
<ele>24.276</ele>
<time>2015-12-02T03:33:35.400Z</time>
</trkpt>
<trkpt lat="-27.9195808" lon="153.3228686">
<ele>22.801</ele>
<time>2015-12-02T03:33:38.360Z</time>
</trkpt>
<trkpt lat="-27.9188400" lon="153.3223370">
<ele>21.396</ele>
<time>2015-12-02T03:33:41.463Z</time>
</trkpt>
<trkpt lat="-27.9183897" lon="153.3220009">
<ele>19.275</ele>
<time>2015-12-02T03:33:43.382Z</time>
</trkpt>
<trkpt lat="-27.9176525" lon="153.3215069">
<ele>16.819</ele>
<time>2015-12-02T03:33:46.425Z</time>
</trkpt>
<trkpt lat="-27.9168974" lon="153.3210212">
<ele>15.572</ele>
<time>2015-12-02T03:33:49.478Z</time>
</trkpt>
<trkpt lat="-27.9163813" lon="153.3207264">
<ele>16.018</ele>
<time>2015-12-02T03:33:51.503Z</time>
</trkpt>
<trkpt lat="-27.9156052" lon="153.3203170">
<ele>16.635</ele>
<time>2015-12-02T03:33:54.520Z</time>
</trkpt>
<trkpt lat="-27.9148508" lon="153.3199247">
<ele>15.947</ele>
<time>2015-12-02T03:33:57.483Z</time>
</trkpt>
<trkpt lat="-27.9143228" lon="153.3196692">
<ele>13.997</ele>
<time>2015-12-02T03:33:59.541Z</time>
</trkpt>
<trkpt lat="-27.9135097" lon="153.3193407">
<ele>12.154</ele>
<time>2015-12-02T03:34:02.593Z</time>
</trkpt>
<trkpt lat="-27.9129564" lon="153.3191305">
<ele>11.798</ele>
<time>2015-12-02T03:34:04.624Z</time>
</trkpt>
<trkpt lat="-27.9121401" lon="153.3188301">
<ele>12.686</ele>
<time>2015-12-02T03:34:07.601Z</time>
</trkpt>
<trkpt lat="-27.9115777" lon="153.3186426">
<ele>13.578</ele>
<time>2015-12-02T03:34:09.645Z</time>
</trkpt>
<trkpt lat="-27.9107578" lon="153.3183723">
<ele>13.945</ele>
<time>2015-12-02T03:34:12.645Z</time>
</trkpt>
<trkpt lat="-27.9099497" lon="153.3181118">
<ele>14.014</ele>
<time>2015-12-02T03:34:15.611Z</time>
</trkpt>
<trkpt lat="-27.9091426" lon="153.3178473">
<ele>14.121</ele>
<time>2015-12-02T03:34:18.578Z</time>
</trkpt>
<trkpt lat="-27.9085833" lon="153.3176693">
<ele>14.197</ele>
<time>2015-12-02T03:34:20.622Z</time>
</trkpt>
<trkpt lat="-27.9077360" lon="153.3173975">
<ele>13.936</ele>
<time>2015-12-02T03:34:23.690Z</time>
</trkpt>
<trkpt lat="-27.9068921" lon="153.3171289">
<ele>13.349</ele>
<time>2015-12-02T03:34:26.708Z</time>
</trkpt>
<trkpt lat="-27.9060616" lon="153.3168623">
<ele>13.060</ele>
<time>2015-12-02T03:34:29.665Z</time>
</trkpt>
<trkpt lat="-27.9054916" lon="153.3166763">
<ele>13.525</ele>
<time>2015-12-02T03:34:31.711Z</time>
</trkpt>
<trkpt lat="-27.9046959" lon="153.3164239">
<ele>13.562</ele>
<time>2015-12-02T03:34:34.616Z</time>
</trkpt>
<trkpt lat="-27.9038976" lon="153.3161702">
<ele>11.812</ele>
<time>2015-12-02T03:34:37.585Z</time>
</trkpt>
<trkpt lat="-27.9033626" lon="153.3159936">
<ele>8.819</ele>
<time>2015-12-02T03:34:39.589Z</time>
</trkpt>
<trkpt lat="-27.9025618" lon="153.3157350">
<ele>6.180</ele>
<time>2015-12-02T03:34:42.550Z</time>
</trkpt>
<trkpt lat="-27.9020035" lon="153.3155547">
<ele>4.761</ele>
<time>2015-12-02T03:34:44.586Z</time>
</trkpt>
<trkpt lat="-27.9014680" lon="153.3153936">
<ele>4.725</ele>
<time>2015-12-02T03:34:46.529Z</time>
</trkpt>
<trkpt lat="-27.9006324" lon="153.3151533">
<ele>5.831</ele>
<time>2015-12-02T03:34:49.558Z</time>
</trkpt>
<trkpt lat="-27.9000462" lon="153.3149834">
<ele>7.236</ele>
<time>2015-12-02T03:34:51.654Z</time>
</trkpt>
<trkpt lat="-27.8994768" lon="153.3148631">
<ele>8.040</ele>
<time>2015-12-02T03:34:53.626Z</time>
</trkpt>
<trkpt lat="-27.8989243" lon="153.3147648">
<ele>8.138</ele>
<time>2015-12-02T03:34:55.526Z</time>
</trkpt>
<trkpt lat="-27.8980658" lon="153.3146153">
<ele>7.846</ele>
<time>2015-12-02T03:34:58.497Z</time>
</trkpt>
<trkpt lat="-27.8974639" lon="153.3145351">
<ele>7.457</ele>
<time>2015-12-02T03:35:00.559Z</time>
</trkpt>
<trkpt lat="-27.8965475" lon="153.3144345">
<ele>7.195</ele>
<time>2015-12-02T03:35:03.638Z</time>
</trkpt>
<trkpt lat="-27.8956477" lon="153.3143690">
<ele>7.169</ele>
<time>2015-12-02T03:35:06.630Z</time>
</trkpt>
<trkpt lat="-27.8947061" lon="153.3143413">
<ele>7.333</ele>
<time>2015-12-02T03:35:09.759Z</time>
</trkpt>
<trkpt lat="-27.8937806" lon="153.3143274">
<ele>7.523</ele>
<time>2015-12-02T03:35:12.825Z</time>
</trkpt>
<trkpt lat="-27.8931802" lon="153.3143295">
<ele>7.417</ele>
<time>2015-12-02T03:35:14.816Z</time>
</trkpt>
<trkpt lat="-27.8923172" lon="153.3144012">
<ele>6.760</ele>
<time>2015-12-02T03:35:17.725Z</time>
</trkpt>
<trkpt lat="-27.8917730" lon="153.3144352">
<ele>5.263</ele>
<time>2015-12-02T03:35:19.631Z</time>
</trkpt>
<trkpt lat="-27.8910012" lon="153.3145406">
<ele>2.721</ele>
<time>2015-12-02T03:35:22.501Z</time>
</trkpt>
<trkpt lat="-27.8904922" lon="153.3146136">
<ele>0.000</ele>
<time>2015-12-02T03:35:24.441Z</time>
</trkpt>
<trkpt lat="-27.8896781" lon="153.3147602">
<ele>0.000</ele>
<time>2015-12-02T03:35:27.540Z</time>
</trkpt>
<trkpt lat="-27.8889158" lon="153.3148937">
<ele>0.000</ele>
<time>2015-12-02T03:35:30.433Z</time>
</trkpt>
<trkpt lat="-27.8883894" lon="153.3150081">
<ele>0.000</ele>
<time>2015-12-02T03:35:32.446Z</time>
</trkpt>
<trkpt lat="-27.8878666" lon="153.3151225">
<ele>0.000</ele>
<time>2015-12-02T03:35:34.411Z</time>
</trkpt>
<trkpt lat="-27.8872110" lon="153.3151898">
<ele>0.000</ele>
<time>2015-12-02T03:35:36.712Z</time>
</trkpt>
<trkpt lat="-27.8865933" lon="153.3152528">
<ele>0.000</ele>
<time>2015-12-02T03:35:38.758Z</time>
</trkpt>
<trkpt lat="-27.8856574" lon="153.3153245">
<ele>3.063</ele>
<time>2015-12-02T03:35:41.792Z</time>
</trkpt>
<trkpt lat="-27.8847502" lon="153.3153676">
<ele>5.583</ele>
<time>2015-12-02T03:35:44.723Z</time>
</trkpt>
<trkpt lat="-27.8842118" lon="153.3153410">
<ele>5.187</ele>
<time>2015-12-02T03:35:46.527Z</time>
</trkpt>
<trkpt lat="-27.8836365" lon="153.3153299">
<ele>2.390</ele>
<time>2015-12-02T03:35:48.515Z</time>
</trkpt>
<trkpt lat="-27.8827948" lon="153.3153100">
<ele>0.000</ele>
<time>2015-12-02T03:35:51.477Z</time>
</trkpt>
<trkpt lat="-27.8822558" lon="153.3152682">
<ele>0.000</ele>
<time>2015-12-02T03:35:53.408Z</time>
</trkpt>
<trkpt lat="-27.8817101" lon="153.3152351">
<ele>0.000</ele>
<time>2015-12-02T03:35:55.385Z</time>
</trkpt>
<trkpt lat="-27.8811541" lon="153.3151737">
<ele>0.000</ele>
<time>2015-12-02T03:35:57.402Z</time>
</trkpt>
<trkpt lat="-27.8802822" lon="153.3150383">
<ele>0.657</ele>
<time>2015-12-02T03:36:00.513Z</time>
</trkpt>
<trkpt lat="-27.8797261" lon="153.3149468">
<ele>2.484</ele>
<time>2015-12-02T03:36:02.482Z</time>
</trkpt>
<trkpt lat="-27.8791781" lon="153.3148181">
<ele>3.681</ele>
<time>2015-12-02T03:36:04.463Z</time>
</trkpt>
<trkpt lat="-27.8783603" lon="153.3146217">
<ele>3.752</ele>
<time>2015-12-02T03:36:07.468Z</time>
</trkpt>
<trkpt lat="-27.8777932" lon="153.3144544">
<ele>2.920</ele>
<time>2015-12-02T03:36:09.592Z</time>
</trkpt>
<trkpt lat="-27.8769924" lon="153.3142451">
<ele>1.485</ele>
<time>2015-12-02T03:36:12.608Z</time>
</trkpt>
<trkpt lat="-27.8762765" lon="153.3140717">
<ele>0.000</ele>
<time>2015-12-02T03:36:15.434Z</time>
</trkpt>
<trkpt lat="-27.8758326" lon="153.3139666">
<ele>0.000</ele>
<time>2015-12-02T03:36:17.276Z</time>
</trkpt>
<trkpt lat="-27.8751582" lon="153.3138215">
<ele>0.000</ele>
<time>2015-12-02T03:36:20.220Z</time>
</trkpt>
<trkpt lat="-27.8746028" lon="153.3137150">
<ele>0.000</ele>
<time>2015-12-02T03:36:22.824Z</time>
</trkpt>
<trkpt lat="-27.8742871" lon="153.3136625">
<ele>0.000</ele>
<time>2015-12-02T03:36:24.378Z</time>
</trkpt>
<trkpt lat="-27.8739184" lon="153.3136144">
<ele>0.000</ele>
<time>2015-12-02T03:36:26.338Z</time>
</trkpt>
<trkpt lat="-27.8733580" lon="153.3135362">
<ele>0.000</ele>
<time>2015-12-02T03:36:29.380Z</time>
</trkpt>
<trkpt lat="-27.8729594" lon="153.3134876">
<ele>0.000</ele>
<time>2015-12-02T03:36:31.513Z</time>
</trkpt>
<trkpt lat="-27.8725653" lon="153.3134441">
<ele>0.000</ele>
<time>2015-12-02T03:36:33.565Z</time>
</trkpt>
<trkpt lat="-27.8719691" lon="153.3133777">
<ele>0.000</ele>
<time>2015-12-02T03:36:36.591Z</time>
</trkpt>
<trkpt lat="-27.8715621" lon="153.3133260">
<ele>0.000</ele>
<time>2015-12-02T03:36:38.629Z</time>
</trkpt>
<trkpt lat="-27.8711625" lon="153.3132589">
<ele>0.000</ele>
<time>2015-12-02T03:36:40.624Z</time>
</trkpt>
<trkpt lat="-27.8707475" lon="153.3132116">
<ele>0.000</ele>
<time>2015-12-02T03:36:42.692Z</time>
</trkpt>
<trkpt lat="-27.8701122" lon="153.3131314">
<ele>0.000</ele>
<time>2015-12-02T03:36:45.809Z</time>
</trkpt>
<trkpt lat="-27.8696981" lon="153.3130702">
<ele>0.000</ele>
<time>2015-12-02T03:36:47.810Z</time>
</trkpt>
<trkpt lat="-27.8690440" lon="153.3129350">
<ele>0.000</ele>
<time>2015-12-02T03:36:50.944Z</time>
</trkpt>
<trkpt lat="-27.8684179" lon="153.3128161">
<ele>0.000</ele>
<time>2015-12-02T03:36:53.919Z</time>
</trkpt>
<trkpt lat="-27.8678338" lon="153.3126806">
<ele>0.000</ele>
<time>2015-12-02T03:36:56.766Z</time>
</trkpt>
<trkpt lat="-27.8674360" lon="153.3125823">
<ele>0.000</ele>
<time>2015-12-02T03:36:58.754Z</time>
</trkpt>
<trkpt lat="-27.8668756" lon="153.3124305">
<ele>0.000</ele>
<time>2015-12-02T03:37:01.652Z</time>
</trkpt>
<trkpt lat="-27.8665279" lon="153.3123228">
<ele>0.000</ele>
<time>2015-12-02T03:37:03.493Z</time>
</trkpt>
<trkpt lat="-27.8659998" lon="153.3121528">
<ele>0.000</ele>
<time>2015-12-02T03:37:06.377Z</time>
</trkpt>
<trkpt lat="-27.8656663" lon="153.3120369">
<ele>0.000</ele>
<time>2015-12-02T03:37:08.242Z</time>
</trkpt>
<trkpt lat="-27.8653372" lon="153.3119193">
<ele>0.000</ele>
<time>2015-12-02T03:37:10.155Z</time>
</trkpt>
<trkpt lat="-27.8648812" lon="153.3117722">
<ele>0.000</ele>
<time>2015-12-02T03:37:12.962Z</time>
</trkpt>
<trkpt lat="-27.8646355" lon="153.3115903">
<ele>0.000</ele>
<time>2015-12-02T03:37:14.782Z</time>
</trkpt>
<trkpt lat="-27.8642605" lon="153.3113998">
<ele>0.000</ele>
<time>2015-12-02T03:37:17.497Z</time>
</trkpt>
<trkpt lat="-27.8640383" lon="153.3112788">
<ele>0.000</ele>
<time>2015-12-02T03:37:19.216Z</time>
</trkpt>
<trkpt lat="-27.8637818" lon="153.3111493">
<ele>0.000</ele>
<time>2015-12-02T03:37:21.281Z</time>
</trkpt>
<trkpt lat="-27.8636508" lon="153.3110913">
<ele>0.000</ele>
<time>2015-12-02T03:37:22.421Z</time>
</trkpt>
<trkpt lat="-27.8634604" lon="153.3109915">
<ele>0.000</ele>
<time>2015-12-02T03:37:24.331Z</time>
</trkpt>
<trkpt lat="-27.8633181" lon="153.3109467">
<ele>0.000</ele>
<time>2015-12-02T03:37:25.863Z</time>
</trkpt>
<trkpt lat="-27.8629836" lon="153.3107782">
<ele>0.000</ele>
<time>2015-12-02T03:37:30.540Z</time>
</trkpt>
<trkpt lat="-27.8627665" lon="153.3106555">
<ele>0.000</ele>
<time>2015-12-02T03:37:33.268Z</time>
</trkpt>
<trkpt lat="-27.8624261" lon="153.3105014">
<ele>0.000</ele>
<time>2015-12-02T03:37:36.590Z</time>
</trkpt>
<trkpt lat="-27.8621158" lon="153.3103313">
<ele>0.000</ele>
<time>2015-12-02T03:37:39.375Z</time>
</trkpt>
<trkpt lat="-27.8619630" lon="153.3101956">
<ele>0.000</ele>
<time>2015-12-02T03:37:41.015Z</time>
</trkpt>
<trkpt lat="-27.8617866" lon="153.3100632">
<ele>0.000</ele>
<time>2015-12-02T03:37:42.859Z</time>
</trkpt>
<trkpt lat="-27.8615985" lon="153.3098305">
<ele>0.000</ele>
<time>2015-12-02T03:37:45.544Z</time>
</trkpt>
<trkpt lat="-27.8615034" lon="153.3096986">
<ele>0.000</ele>
<time>2015-12-02T03:37:47.044Z</time>
</trkpt>
<trkpt lat="-27.8614268" lon="153.3095189">
<ele>0.000</ele>
<time>2015-12-02T03:37:48.898Z</time>
</trkpt>
<trkpt lat="-27.8614145" lon="153.3093635">
<ele>0.000</ele>
<time>2015-12-02T03:37:50.389Z</time>
</trkpt>
<trkpt lat="-27.8614195" lon="153.3091060">
<ele>0.000</ele>
<time>2015-12-02T03:37:53.288Z</time>
</trkpt>
<trkpt lat="-27.8614244" lon="153.3089917">
<ele>0.000</ele>
<time>2015-12-02T03:37:54.719Z</time>
</trkpt>
<trkpt lat="-27.8614004" lon="153.3085424">
<ele>0.000</ele>
<time>2015-12-02T03:38:00.780Z</time>
</trkpt>
<trkpt lat="-27.8613229" lon="153.3084165">
<ele>0.000</ele>
<time>2015-12-02T03:38:03.032Z</time>
</trkpt>
<trkpt lat="-27.8612960" lon="153.3088150">
<ele>0.000</ele>
<time>2015-12-02T03:38:11.442Z</time>
</trkpt>
<trkpt lat="-27.8613085" lon="153.3089355">
<ele>0.000</ele>
<time>2015-12-02T03:38:16.244Z</time>
</trkpt>
<trkpt lat="-27.8612682" lon="153.3090306">
<ele>0.000</ele>
<time>2015-12-02T03:38:23.000Z</time>
</trkpt>
<trkpt lat="-27.8612682" lon="153.3090306">
<ele>0.000</ele>
<time>2015-12-02T03:38:23.001Z</time>
</trkpt>
<trkpt lat="-27.8612682" lon="153.3090306">
<ele>0.000</ele>
<time>2015-12-02T03:41:27.714Z</time>
</trkpt>
<trkpt lat="-27.8611245" lon="153.3089000">
<ele>0.000</ele>
<time>2015-12-02T03:41:45.485Z</time>
</trkpt>
<trkpt lat="-27.8610379" lon="153.3088727">
<ele>0.000</ele>
<time>2015-12-02T03:41:53.000Z</time>
</trkpt>
<trkpt lat="-27.8610379" lon="153.3088727">
<ele>1.331</ele>
<time>2015-12-02T03:41:56.000Z</time>
</trkpt>
<trkpt lat="-27.8610379" lon="153.3088727">
<ele>6.766</ele>
<time>2015-12-02T03:49:20.600Z</time>
</trkpt>
<trkpt lat="-27.8608389" lon="153.3087552">
<ele>6.317</ele>
<time>2015-12-02T03:49:34.101Z</time>
</trkpt>
<trkpt lat="-27.8609147" lon="153.3088195">
<ele>4.520</ele>
<time>2015-12-02T03:49:37.999Z</time>
</trkpt>
<trkpt lat="-27.8609147" lon="153.3088195">
<ele>5.127</ele>
<time>2015-12-02T03:49:38.999Z</time>
</trkpt>
<trkpt lat="-27.8609147" lon="153.3088195">
<ele>6.620</ele>
<time>2015-12-02T03:51:53.702Z</time>
</trkpt>
<trkpt lat="-27.8605182" lon="153.3091197">
<ele>6.095</ele>
<time>2015-12-02T03:52:13.461Z</time>
</trkpt>
<trkpt lat="-27.8603916" lon="153.3090814">
<ele>6.393</ele>
<time>2015-12-02T03:52:18.888Z</time>
</trkpt>
<trkpt lat="-27.8602016" lon="153.3090177">
<ele>7.870</ele>
<time>2015-12-02T03:52:27.092Z</time>
</trkpt>
<trkpt lat="-27.8600993" lon="153.3089833">
<ele>9.526</ele>
<time>2015-12-02T03:52:31.507Z</time>
</trkpt>
<trkpt lat="-27.8599064" lon="153.3089836">
<ele>10.507</ele>
<time>2015-12-02T03:52:39.491Z</time>
</trkpt>
<trkpt lat="-27.8596526" lon="153.3090361">
<ele>10.914</ele>
<time>2015-12-02T03:52:50.176Z</time>
</trkpt>
<trkpt lat="-27.8593596" lon="153.3090167">
<ele>11.232</ele>
<time>2015-12-02T03:53:02.326Z</time>
</trkpt>
<trkpt lat="-27.8591769" lon="153.3089417">
<ele>11.900</ele>
<time>2015-12-02T03:53:10.377Z</time>
</trkpt>
<trkpt lat="-27.8589867" lon="153.3087934">
<ele>12.984</ele>
<time>2015-12-02T03:53:19.945Z</time>
</trkpt>
<trkpt lat="-27.8587036" lon="153.3085800">
<ele>14.346</ele>
<time>2015-12-02T03:53:34.034Z</time>
</trkpt>
<trkpt lat="-27.8585162" lon="153.3085042">
<ele>15.954</ele>
<time>2015-12-02T03:53:42.274Z</time>
</trkpt>
<trkpt lat="-27.8583597" lon="153.3084040">
<ele>17.562</ele>
<time>2015-12-02T03:53:49.718Z</time>
</trkpt>
<trkpt lat="-27.8582847" lon="153.3083043">
<ele>18.738</ele>
<time>2015-12-02T03:53:54.510Z</time>
</trkpt>
<trkpt lat="-27.8582510" lon="153.3081526">
<ele>19.375</ele>
<time>2015-12-02T03:54:00.235Z</time>
</trkpt>
<trkpt lat="-27.8582499" lon="153.3080070">
<ele>19.412</ele>
<time>2015-12-02T03:54:05.566Z</time>
</trkpt>
<trkpt lat="-27.8582191" lon="153.3077892">
<ele>18.926</ele>
<time>2015-12-02T03:54:13.639Z</time>
</trkpt>
<trkpt lat="-27.8580697" lon="153.3076462">
<ele>18.440</ele>
<time>2015-12-02T03:54:21.742Z</time>
</trkpt>
<trkpt lat="-27.8578618" lon="153.3076829">
<ele>18.535</ele>
<time>2015-12-02T03:54:30.455Z</time>
</trkpt>
<trkpt lat="-27.8575940" lon="153.3079274">
<ele>19.306</ele>
<time>2015-12-02T03:54:44.707Z</time>
</trkpt>
<trkpt lat="-27.8572282" lon="153.3081129">
<ele>20.349</ele>
<time>2015-12-02T03:55:01.307Z</time>
</trkpt>
<trkpt lat="-27.8567933" lon="153.3081591">
<ele>21.325</ele>
<time>2015-12-02T03:55:19.391Z</time>
</trkpt>
<trkpt lat="-27.8564639" lon="153.3081285">
<ele>22.147</ele>
<time>2015-12-02T03:55:27.640Z</time>
</trkpt>
<trkpt lat="-27.8561438" lon="153.3080610">
<ele>22.544</ele>
<time>2015-12-02T03:55:32.897Z</time>
</trkpt>
<trkpt lat="-27.8558427" lon="153.3080447">
<ele>22.094</ele>
<time>2015-12-02T03:55:36.986Z</time>
</trkpt>
<trkpt lat="-27.8553843" lon="153.3080021">
<ele>20.721</ele>
<time>2015-12-02T03:55:42.023Z</time>
</trkpt>
<trkpt lat="-27.8550701" lon="153.3079721">
<ele>18.737</ele>
<time>2015-12-02T03:55:44.935Z</time>
</trkpt>
<trkpt lat="-27.8547390" lon="153.3079320">
<ele>16.799</ele>
<time>2015-12-02T03:55:47.997Z</time>
</trkpt>
<trkpt lat="-27.8542021" lon="153.3078472">
<ele>15.591</ele>
<time>2015-12-02T03:55:54.233Z</time>
</trkpt>
<trkpt lat="-27.8536242" lon="153.3077083">
<ele>15.523</ele>
<time>2015-12-02T03:56:05.284Z</time>
</trkpt>
<trkpt lat="-27.8529936" lon="153.3075510">
<ele>16.475</ele>
<time>2015-12-02T03:56:12.793Z</time>
</trkpt>
<trkpt lat="-27.8526152" lon="153.3074463">
<ele>17.850</ele>
<time>2015-12-02T03:56:15.601Z</time>
</trkpt>
<trkpt lat="-27.8521979" lon="153.3073253">
<ele>19.012</ele>
<time>2015-12-02T03:56:18.361Z</time>
</trkpt>
<trkpt lat="-27.8515573" lon="153.3071684">
<ele>19.994</ele>
<time>2015-12-02T03:56:22.368Z</time>
</trkpt>
<trkpt lat="-27.8509879" lon="153.3069968">
<ele>21.125</ele>
<time>2015-12-02T03:56:26.149Z</time>
</trkpt>
<trkpt lat="-27.8505861" lon="153.3068682">
<ele>22.391</ele>
<time>2015-12-02T03:56:28.804Z</time>
</trkpt>
<trkpt lat="-27.8501899" lon="153.3067181">
<ele>23.537</ele>
<time>2015-12-02T03:56:31.298Z</time>
</trkpt>
<trkpt lat="-27.8497924" lon="153.3065527">
<ele>24.469</ele>
<time>2015-12-02T03:56:33.664Z</time>
</trkpt>
<trkpt lat="-27.8493906" lon="153.3063887">
<ele>25.223</ele>
<time>2015-12-02T03:56:35.870Z</time>
</trkpt>
<trkpt lat="-27.8487989" lon="153.3062200">
<ele>25.818</ele>
<time>2015-12-02T03:56:38.758Z</time>
</trkpt>
<trkpt lat="-27.8481967" lon="153.3059622">
<ele>26.235</ele>
<time>2015-12-02T03:56:41.723Z</time>
</trkpt>
<trkpt lat="-27.8477882" lon="153.3058055">
<ele>26.445</ele>
<time>2015-12-02T03:56:43.708Z</time>
</trkpt>
<trkpt lat="-27.8471597" lon="153.3055636">
<ele>26.435</ele>
<time>2015-12-02T03:56:46.804Z</time>
</trkpt>
<trkpt lat="-27.8465731" lon="153.3053386">
<ele>26.079</ele>
<time>2015-12-02T03:56:49.801Z</time>
</trkpt>
<trkpt lat="-27.8458715" lon="153.3051149">
<ele>25.396</ele>
<time>2015-12-02T03:56:53.351Z</time>
</trkpt>
<trkpt lat="-27.8451206" lon="153.3048952">
<ele>24.934</ele>
<time>2015-12-02T03:56:56.994Z</time>
</trkpt>
<trkpt lat="-27.8443074" lon="153.3046538">
<ele>25.597</ele>
<time>2015-12-02T03:57:00.908Z</time>
</trkpt>
<trkpt lat="-27.8437529" lon="153.3044798">
<ele>28.790</ele>
<time>2015-12-02T03:57:03.561Z</time>
</trkpt>
<trkpt lat="-27.8429180" lon="153.3042431">
<ele>34.227</ele>
<time>2015-12-02T03:57:07.480Z</time>
</trkpt>
<trkpt lat="-27.8420780" lon="153.3040137">
<ele>39.216</ele>
<time>2015-12-02T03:57:11.451Z</time>
</trkpt>
<trkpt lat="-27.8415062" lon="153.3038703">
<ele>42.075</ele>
<time>2015-12-02T03:57:14.075Z</time>
</trkpt>
<trkpt lat="-27.8406707" lon="153.3036572">
<ele>43.370</ele>
<time>2015-12-02T03:57:17.494Z</time>
</trkpt>
<trkpt lat="-27.8398417" lon="153.3034613">
<ele>44.096</ele>
<time>2015-12-02T03:57:20.574Z</time>
</trkpt>
<trkpt lat="-27.8389683" lon="153.3032512">
<ele>44.917</ele>
<time>2015-12-02T03:57:23.667Z</time>
</trkpt>
<trkpt lat="-27.8381134" lon="153.3030402">
<ele>45.665</ele>
<time>2015-12-02T03:57:26.676Z</time>
</trkpt>
<trkpt lat="-27.8372704" lon="153.3028410">
<ele>46.090</ele>
<time>2015-12-02T03:57:29.637Z</time>
</trkpt>
<trkpt lat="-27.8367083" lon="153.3027099">
<ele>46.122</ele>
<time>2015-12-02T03:57:31.614Z</time>
</trkpt>
<trkpt lat="-27.8358460" lon="153.3025044">
<ele>45.374</ele>
<time>2015-12-02T03:57:34.653Z</time>
</trkpt>
<trkpt lat="-27.8352708" lon="153.3023781">
<ele>43.682</ele>
<time>2015-12-02T03:57:36.673Z</time>
</trkpt>
<trkpt lat="-27.8347270" lon="153.3022477">
<ele>41.836</ele>
<time>2015-12-02T03:57:38.582Z</time>
</trkpt>
<trkpt lat="-27.8341647" lon="153.3021043">
<ele>40.728</ele>
<time>2015-12-02T03:57:40.553Z</time>
</trkpt>
<trkpt lat="-27.8333162" lon="153.3018509">
<ele>40.408</ele>
<time>2015-12-02T03:57:43.549Z</time>
</trkpt>
<trkpt lat="-27.8327362" lon="153.3016982">
<ele>40.252</ele>
<time>2015-12-02T03:57:45.587Z</time>
</trkpt>
<trkpt lat="-27.8321872" lon="153.3015006">
<ele>39.602</ele>
<time>2015-12-02T03:57:47.564Z</time>
</trkpt>
<trkpt lat="-27.8313477" lon="153.3011747">
<ele>38.542</ele>
<time>2015-12-02T03:57:50.596Z</time>
</trkpt>
<trkpt lat="-27.8305570" lon="153.3007918">
<ele>37.737</ele>
<time>2015-12-02T03:57:53.512Z</time>
</trkpt>
<trkpt lat="-27.8300364" lon="153.3005216">
<ele>37.822</ele>
<time>2015-12-02T03:57:55.470Z</time>
</trkpt>
<trkpt lat="-27.8295050" lon="153.3002358">
<ele>38.796</ele>
<time>2015-12-02T03:57:57.473Z</time>
</trkpt>
<trkpt lat="-27.8287407" lon="153.2997755">
<ele>40.456</ele>
<time>2015-12-02T03:58:00.402Z</time>
</trkpt>
<trkpt lat="-27.8280109" lon="153.2992390">
<ele>42.540</ele>
<time>2015-12-02T03:58:03.352Z</time>
</trkpt>
<trkpt lat="-27.8272839" lon="153.2986678">
<ele>44.269</ele>
<time>2015-12-02T03:58:06.366Z</time>
</trkpt>
<trkpt lat="-27.8265827" lon="153.2980992">
<ele>45.006</ele>
<time>2015-12-02T03:58:09.300Z</time>
</trkpt>
<trkpt lat="-27.8261199" lon="153.2976864">
<ele>45.286</ele>
<time>2015-12-02T03:58:11.318Z</time>
</trkpt>
<trkpt lat="-27.8254783" lon="153.2969869">
<ele>45.688</ele>
<time>2015-12-02T03:58:14.358Z</time>
</trkpt>
<trkpt lat="-27.8248764" lon="153.2963038">
<ele>46.122</ele>
<time>2015-12-02T03:58:17.262Z</time>
</trkpt>
<trkpt lat="-27.8245092" lon="153.2958181">
<ele>46.315</ele>
<time>2015-12-02T03:58:19.193Z</time>
</trkpt>
<trkpt lat="-27.8241253" lon="153.2953220">
<ele>45.863</ele>
<time>2015-12-02T03:58:21.194Z</time>
</trkpt>
<trkpt lat="-27.8237200" lon="153.2948278">
<ele>44.454</ele>
<time>2015-12-02T03:58:23.234Z</time>
</trkpt>
<trkpt lat="-27.8232168" lon="153.2940425">
<ele>42.632</ele>
<time>2015-12-02T03:58:26.164Z</time>
</trkpt>
<trkpt lat="-27.8229194" lon="153.2934932">
<ele>41.041</ele>
<time>2015-12-02T03:58:28.099Z</time>
</trkpt>
<trkpt lat="-27.8226265" lon="153.2929105">
<ele>39.558</ele>
<time>2015-12-02T03:58:30.103Z</time>
</trkpt>
<trkpt lat="-27.8221934" lon="153.2920585">
<ele>38.325</ele>
<time>2015-12-02T03:58:33.036Z</time>
</trkpt>
<trkpt lat="-27.8218021" lon="153.2912255">
<ele>37.840</ele>
<time>2015-12-02T03:58:35.887Z</time>
</trkpt>
<trkpt lat="-27.8215392" lon="153.2906942">
<ele>38.250</ele>
<time>2015-12-02T03:58:37.730Z</time>
</trkpt>
<trkpt lat="-27.8211371" lon="153.2898689">
<ele>39.238</ele>
<time>2015-12-02T03:58:40.582Z</time>
</trkpt>
<trkpt lat="-27.8208588" lon="153.2892980">
<ele>40.573</ele>
<time>2015-12-02T03:58:42.551Z</time>
</trkpt>
<trkpt lat="-27.8205726" lon="153.2887271">
<ele>41.986</ele>
<time>2015-12-02T03:58:44.532Z</time>
</trkpt>
<trkpt lat="-27.8203063" lon="153.2881839">
<ele>43.182</ele>
<time>2015-12-02T03:58:46.413Z</time>
</trkpt>
<trkpt lat="-27.8198997" lon="153.2873645">
<ele>43.736</ele>
<time>2015-12-02T03:58:49.283Z</time>
</trkpt>
<trkpt lat="-27.8194956" lon="153.2865646">
<ele>43.121</ele>
<time>2015-12-02T03:58:52.146Z</time>
</trkpt>
<trkpt lat="-27.8190998" lon="153.2857551">
<ele>41.470</ele>
<time>2015-12-02T03:58:55.062Z</time>
</trkpt>
<trkpt lat="-27.8188380" lon="153.2852224">
<ele>39.537</ele>
<time>2015-12-02T03:58:56.978Z</time>
</trkpt>
<trkpt lat="-27.8185741" lon="153.2846823">
<ele>37.576</ele>
<time>2015-12-02T03:58:58.886Z</time>
</trkpt>
<trkpt lat="-27.8183023" lon="153.2841524">
<ele>35.675</ele>
<time>2015-12-02T03:59:00.768Z</time>
</trkpt>
<trkpt lat="-27.8179012" lon="153.2833618">
<ele>33.951</ele>
<time>2015-12-02T03:59:03.599Z</time>
</trkpt>
<trkpt lat="-27.8176500" lon="153.2828457">
<ele>32.237</ele>
<time>2015-12-02T03:59:05.453Z</time>
</trkpt>
<trkpt lat="-27.8173963" lon="153.2823357">
<ele>30.561</ele>
<time>2015-12-02T03:59:07.308Z</time>
</trkpt>
<trkpt lat="-27.8171525" lon="153.2818280">
<ele>28.973</ele>
<time>2015-12-02T03:59:09.145Z</time>
</trkpt>
<trkpt lat="-27.8169092" lon="153.2813163">
<ele>27.500</ele>
<time>2015-12-02T03:59:11.006Z</time>
</trkpt>
<trkpt lat="-27.8165490" lon="153.2805696">
<ele>26.418</ele>
<time>2015-12-02T03:59:13.735Z</time>
</trkpt>
<trkpt lat="-27.8163067" lon="153.2800614">
<ele>25.855</ele>
<time>2015-12-02T03:59:15.586Z</time>
</trkpt>
<trkpt lat="-27.8159119" lon="153.2792611">
<ele>25.640</ele>
<time>2015-12-02T03:59:18.535Z</time>
</trkpt>
<trkpt lat="-27.8156772" lon="153.2787219">
<ele>25.765</ele>
<time>2015-12-02T03:59:20.486Z</time>
</trkpt>
<trkpt lat="-27.8154466" lon="153.2782225">
<ele>26.178</ele>
<time>2015-12-02T03:59:22.339Z</time>
</trkpt>
<trkpt lat="-27.8151974" lon="153.2777333">
<ele>26.460</ele>
<time>2015-12-02T03:59:24.223Z</time>
</trkpt>
<trkpt lat="-27.8149648" lon="153.2772543">
<ele>26.297</ele>
<time>2015-12-02T03:59:26.071Z</time>
</trkpt>
<trkpt lat="-27.8147221" lon="153.2767554">
<ele>25.949</ele>
<time>2015-12-02T03:59:28.015Z</time>
</trkpt>
<trkpt lat="-27.8143536" lon="153.2760096">
<ele>25.887</ele>
<time>2015-12-02T03:59:30.939Z</time>
</trkpt>
<trkpt lat="-27.8140996" lon="153.2755132">
<ele>26.569</ele>
<time>2015-12-02T03:59:32.897Z</time>
</trkpt>
<trkpt lat="-27.8138451" lon="153.2750129">
<ele>28.180</ele>
<time>2015-12-02T03:59:34.844Z</time>
</trkpt>
<trkpt lat="-27.8134520" lon="153.2742372">
<ele>30.262</ele>
<time>2015-12-02T03:59:37.811Z</time>
</trkpt>
<trkpt lat="-27.8129871" lon="153.2735175">
<ele>32.517</ele>
<time>2015-12-02T03:59:40.770Z</time>
</trkpt>
<trkpt lat="-27.8126821" lon="153.2730316">
<ele>34.770</ele>
<time>2015-12-02T03:59:42.816Z</time>
</trkpt>
<trkpt lat="-27.8122105" lon="153.2722695">
<ele>36.342</ele>
<time>2015-12-02T03:59:46.041Z</time>
</trkpt>
<trkpt lat="-27.8116783" lon="153.2714847">
<ele>37.281</ele>
<time>2015-12-02T03:59:49.456Z</time>
</trkpt>
<trkpt lat="-27.8112900" lon="153.2709838">
<ele>38.848</ele>
<time>2015-12-02T03:59:51.750Z</time>
</trkpt>
<trkpt lat="-27.8107260" lon="153.2702647">
<ele>41.717</ele>
<time>2015-12-02T03:59:55.020Z</time>
</trkpt>
<trkpt lat="-27.8101543" lon="153.2695260">
<ele>45.175</ele>
<time>2015-12-02T03:59:58.287Z</time>
</trkpt>
<trkpt lat="-27.8097561" lon="153.2690428">
<ele>48.163</ele>
<time>2015-12-02T04:00:00.454Z</time>
</trkpt>
<trkpt lat="-27.8091369" lon="153.2684007">
<ele>50.252</ele>
<time>2015-12-02T04:00:03.539Z</time>
</trkpt>
<trkpt lat="-27.8085298" lon="153.2677283">
<ele>51.593</ele>
<time>2015-12-02T04:00:06.566Z</time>
</trkpt>
<trkpt lat="-27.8080939" lon="153.2673202">
<ele>52.676</ele>
<time>2015-12-02T04:00:08.526Z</time>
</trkpt>
<trkpt lat="-27.8076728" lon="153.2669587">
<ele>53.764</ele>
<time>2015-12-02T04:00:10.317Z</time>
</trkpt>
<trkpt lat="-27.8070481" lon="153.2663544">
<ele>54.519</ele>
<time>2015-12-02T04:00:13.112Z</time>
</trkpt>
<trkpt lat="-27.8066305" lon="153.2659284">
<ele>54.395</ele>
<time>2015-12-02T04:00:15.044Z</time>
</trkpt>
<trkpt lat="-27.8059793" lon="153.2654181">
<ele>53.439</ele>
<time>2015-12-02T04:00:17.758Z</time>
</trkpt>
<trkpt lat="-27.8055161" lon="153.2650988">
<ele>52.581</ele>
<time>2015-12-02T04:00:19.615Z</time>
</trkpt>
<trkpt lat="-27.8047958" lon="153.2645698">
<ele>52.509</ele>
<time>2015-12-02T04:00:22.579Z</time>
</trkpt>
<trkpt lat="-27.8040556" lon="153.2640860">
<ele>52.597</ele>
<time>2015-12-02T04:00:25.566Z</time>
</trkpt>
<trkpt lat="-27.8032728" lon="153.2635960">
<ele>52.191</ele>
<time>2015-12-02T04:00:28.773Z</time>
</trkpt>
<trkpt lat="-27.8027336" lon="153.2632601">
<ele>51.180</ele>
<time>2015-12-02T04:00:31.014Z</time>
</trkpt>
<trkpt lat="-27.8021985" lon="153.2629411">
<ele>49.687</ele>
<time>2015-12-02T04:00:33.212Z</time>
</trkpt>
<trkpt lat="-27.8014038" lon="153.2625246">
<ele>47.446</ele>
<time>2015-12-02T04:00:36.392Z</time>
</trkpt>
<trkpt lat="-27.8008642" lon="153.2622668">
<ele>44.532</ele>
<time>2015-12-02T04:00:38.529Z</time>
</trkpt>
<trkpt lat="-27.8000715" lon="153.2619118">
<ele>41.318</ele>
<time>2015-12-02T04:00:41.556Z</time>
</trkpt>
<trkpt lat="-27.7992770" lon="153.2615850">
<ele>38.041</ele>
<time>2015-12-02T04:00:44.459Z</time>
</trkpt>
<trkpt lat="-27.7984942" lon="153.2613032">
<ele>35.041</ele>
<time>2015-12-02T04:00:47.205Z</time>
</trkpt>
<trkpt lat="-27.7976862" lon="153.2610279">
<ele>32.996</ele>
<time>2015-12-02T04:00:49.978Z</time>
</trkpt>
<trkpt lat="-27.7971292" lon="153.2608588">
<ele>32.111</ele>
<time>2015-12-02T04:00:51.893Z</time>
</trkpt>
<trkpt lat="-27.7965662" lon="153.2607029">
<ele>32.180</ele>
<time>2015-12-02T04:00:53.832Z</time>
</trkpt>
<trkpt lat="-27.7957058" lon="153.2604853">
<ele>32.566</ele>
<time>2015-12-02T04:00:56.816Z</time>
</trkpt>
<trkpt lat="-27.7951201" lon="153.2603421">
<ele>32.787</ele>
<time>2015-12-02T04:00:58.861Z</time>
</trkpt>
<trkpt lat="-27.7945335" lon="153.2602004">
<ele>32.925</ele>
<time>2015-12-02T04:01:00.938Z</time>
</trkpt>
<trkpt lat="-27.7937070" lon="153.2599751">
<ele>33.234</ele>
<time>2015-12-02T04:01:03.914Z</time>
</trkpt>
<trkpt lat="-27.7928992" lon="153.2597161">
<ele>33.638</ele>
<time>2015-12-02T04:01:06.866Z</time>
</trkpt>
<trkpt lat="-27.7920930" lon="153.2594613">
<ele>34.100</ele>
<time>2015-12-02T04:01:09.783Z</time>
</trkpt>
<trkpt lat="-27.7915376" lon="153.2592499">
<ele>34.691</ele>
<time>2015-12-02T04:01:11.799Z</time>
</trkpt>
<trkpt lat="-27.7907262" lon="153.2588999">
<ele>35.236</ele>
<time>2015-12-02T04:01:14.758Z</time>
</trkpt>
<trkpt lat="-27.7902039" lon="153.2586627">
<ele>35.716</ele>
<time>2015-12-02T04:01:16.656Z</time>
</trkpt>
<trkpt lat="-27.7894245" lon="153.2582506">
<ele>36.219</ele>
<time>2015-12-02T04:01:19.533Z</time>
</trkpt>
<trkpt lat="-27.7886763" lon="153.2578269">
<ele>36.590</ele>
<time>2015-12-02T04:01:22.351Z</time>
</trkpt>
<trkpt lat="-27.7881862" lon="153.2575109">
<ele>36.707</ele>
<time>2015-12-02T04:01:24.294Z</time>
</trkpt>
<trkpt lat="-27.7874698" lon="153.2570097">
<ele>36.656</ele>
<time>2015-12-02T04:01:27.228Z</time>
</trkpt>
<trkpt lat="-27.7869776" lon="153.2566105">
<ele>36.509</ele>
<time>2015-12-02T04:01:29.336Z</time>
</trkpt>
<trkpt lat="-27.7865507" lon="153.2563813">
<ele>36.144</ele>
<time>2015-12-02T04:01:30.969Z</time>
</trkpt>
<trkpt lat="-27.7860773" lon="153.2560415">
<ele>35.516</ele>
<time>2015-12-02T04:01:32.901Z</time>
</trkpt>
<trkpt lat="-27.7856371" lon="153.2558070">
<ele>34.818</ele>
<time>2015-12-02T04:01:34.591Z</time>
</trkpt>
<trkpt lat="-27.7849360" lon="153.2552964">
<ele>34.247</ele>
<time>2015-12-02T04:01:37.496Z</time>
</trkpt>
<trkpt lat="-27.7842370" lon="153.2547894">
<ele>33.970</ele>
<time>2015-12-02T04:01:40.408Z</time>
</trkpt>
<trkpt lat="-27.7834771" lon="153.2543163">
<ele>34.051</ele>
<time>2015-12-02T04:01:43.470Z</time>
</trkpt>
<trkpt lat="-27.7827029" lon="153.2538771">
<ele>34.562</ele>
<time>2015-12-02T04:01:46.531Z</time>
</trkpt>
<trkpt lat="-27.7821769" lon="153.2536207">
<ele>35.453</ele>
<time>2015-12-02T04:01:48.555Z</time>
</trkpt>
<trkpt lat="-27.7816536" lon="153.2533699">
<ele>36.212</ele>
<time>2015-12-02T04:01:50.623Z</time>
</trkpt>
<trkpt lat="-27.7811263" lon="153.2531377">
<ele>36.317</ele>
<time>2015-12-02T04:01:52.733Z</time>
</trkpt>
<trkpt lat="-27.7803225" lon="153.2528389">
<ele>35.882</ele>
<time>2015-12-02T04:01:55.866Z</time>
</trkpt>
<trkpt lat="-27.7797761" lon="153.2526509">
<ele>35.386</ele>
<time>2015-12-02T04:01:57.944Z</time>
</trkpt>
<trkpt lat="-27.7792363" lon="153.2525012">
<ele>35.134</ele>
<time>2015-12-02T04:01:59.938Z</time>
</trkpt>
<trkpt lat="-27.7784060" lon="153.2522935">
<ele>35.071</ele>
<time>2015-12-02T04:02:02.934Z</time>
</trkpt>
<trkpt lat="-27.7778494" lon="153.2521694">
<ele>35.080</ele>
<time>2015-12-02T04:02:04.905Z</time>
</trkpt>
<trkpt lat="-27.7769828" lon="153.2520119">
<ele>35.232</ele>
<time>2015-12-02T04:02:07.934Z</time>
</trkpt>
<trkpt lat="-27.7764108" lon="153.2519352">
<ele>35.595</ele>
<time>2015-12-02T04:02:09.918Z</time>
</trkpt>
<trkpt lat="-27.7758422" lon="153.2518750">
<ele>35.773</ele>
<time>2015-12-02T04:02:11.933Z</time>
</trkpt>
<trkpt lat="-27.7749988" lon="153.2518237">
<ele>35.460</ele>
<time>2015-12-02T04:02:14.917Z</time>
</trkpt>
<trkpt lat="-27.7741381" lon="153.2517641">
<ele>34.987</ele>
<time>2015-12-02T04:02:17.906Z</time>
</trkpt>
<trkpt lat="-27.7732883" lon="153.2516971">
<ele>34.092</ele>
<time>2015-12-02T04:02:20.867Z</time>
</trkpt>
<trkpt lat="-27.7724216" lon="153.2515956">
<ele>32.325</ele>
<time>2015-12-02T04:02:23.903Z</time>
</trkpt>
<trkpt lat="-27.7718491" lon="153.2514879">
<ele>30.417</ele>
<time>2015-12-02T04:02:25.911Z</time>
</trkpt>
<trkpt lat="-27.7709998" lon="153.2513112">
<ele>29.205</ele>
<time>2015-12-02T04:02:28.884Z</time>
</trkpt>
<trkpt lat="-27.7701636" lon="153.2510313">
<ele>28.647</ele>
<time>2015-12-02T04:02:31.901Z</time>
</trkpt>
<trkpt lat="-27.7693475" lon="153.2507526">
<ele>28.528</ele>
<time>2015-12-02T04:02:34.848Z</time>
</trkpt>
<trkpt lat="-27.7685322" lon="153.2504698">
<ele>28.615</ele>
<time>2015-12-02T04:02:37.796Z</time>
</trkpt>
<trkpt lat="-27.7679797" lon="153.2502334">
<ele>28.725</ele>
<time>2015-12-02T04:02:39.842Z</time>
</trkpt>
<trkpt lat="-27.7671462" lon="153.2498521">
<ele>29.201</ele>
<time>2015-12-02T04:02:42.921Z</time>
</trkpt>
<trkpt lat="-27.7666221" lon="153.2495739">
<ele>30.484</ele>
<time>2015-12-02T04:02:44.885Z</time>
</trkpt>
<trkpt lat="-27.7660799" lon="153.2492808">
<ele>32.066</ele>
<time>2015-12-02T04:02:46.934Z</time>
</trkpt>
<trkpt lat="-27.7655488" lon="153.2489709">
<ele>33.072</ele>
<time>2015-12-02T04:02:48.971Z</time>
</trkpt>
<trkpt lat="-27.7647383" lon="153.2484691">
<ele>33.660</ele>
<time>2015-12-02T04:02:52.125Z</time>
</trkpt>
<trkpt lat="-27.7641607" lon="153.2481125">
<ele>34.544</ele>
<time>2015-12-02T04:02:54.380Z</time>
</trkpt>
<trkpt lat="-27.7633504" lon="153.2475162">
<ele>35.496</ele>
<time>2015-12-02T04:02:57.711Z</time>
</trkpt>
<trkpt lat="-27.7628467" lon="153.2471197">
<ele>35.677</ele>
<time>2015-12-02T04:02:59.807Z</time>
</trkpt>
<trkpt lat="-27.7621336" lon="153.2464856">
<ele>35.133</ele>
<time>2015-12-02T04:03:02.834Z</time>
</trkpt>
<trkpt lat="-27.7614651" lon="153.2458515">
<ele>34.312</ele>
<time>2015-12-02T04:03:05.721Z</time>
</trkpt>
<trkpt lat="-27.7610360" lon="153.2454088">
<ele>33.231</ele>
<time>2015-12-02T04:03:07.635Z</time>
</trkpt>
<trkpt lat="-27.7606104" lon="153.2449514">
<ele>32.198</ele>
<time>2015-12-02T04:03:09.540Z</time>
</trkpt>
<trkpt lat="-27.7599904" lon="153.2442477">
<ele>31.543</ele>
<time>2015-12-02T04:03:12.348Z</time>
</trkpt>
<trkpt lat="-27.7595826" lon="153.2437324">
<ele>31.272</ele>
<time>2015-12-02T04:03:14.274Z</time>
</trkpt>
<trkpt lat="-27.7591905" lon="153.2431921">
<ele>31.322</ele>
<time>2015-12-02T04:03:16.202Z</time>
</trkpt>
<trkpt lat="-27.7586199" lon="153.2424353">
<ele>31.722</ele>
<time>2015-12-02T04:03:19.003Z</time>
</trkpt>
<trkpt lat="-27.7582514" lon="153.2419604">
<ele>32.308</ele>
<time>2015-12-02T04:03:20.818Z</time>
</trkpt>
<trkpt lat="-27.7578766" lon="153.2414557">
<ele>32.948</ele>
<time>2015-12-02T04:03:22.764Z</time>
</trkpt>
<trkpt lat="-27.7572547" lon="153.2407644">
<ele>33.590</ele>
<time>2015-12-02T04:03:25.708Z</time>
</trkpt>
<trkpt lat="-27.7566322" lon="153.2400719">
<ele>34.220</ele>
<time>2015-12-02T04:03:28.645Z</time>
</trkpt>
<trkpt lat="-27.7561735" lon="153.2396337">
<ele>34.800</ele>
<time>2015-12-02T04:03:30.641Z</time>
</trkpt>
<trkpt lat="-27.7557389" lon="153.2391721">
<ele>35.360</ele>
<time>2015-12-02T04:03:32.607Z</time>
</trkpt>
<trkpt lat="-27.7552783" lon="153.2387906">
<ele>35.865</ele>
<time>2015-12-02T04:03:34.490Z</time>
</trkpt>
<trkpt lat="-27.7545646" lon="153.2381996">
<ele>36.444</ele>
<time>2015-12-02T04:03:37.441Z</time>
</trkpt>
<trkpt lat="-27.7540890" lon="153.2378317">
<ele>37.071</ele>
<time>2015-12-02T04:03:39.400Z</time>
</trkpt>
<trkpt lat="-27.7533786" lon="153.2373033">
<ele>37.360</ele>
<time>2015-12-02T04:03:42.323Z</time>
</trkpt>
<trkpt lat="-27.7528680" lon="153.2369302">
<ele>36.753</ele>
<time>2015-12-02T04:03:44.409Z</time>
</trkpt>
<trkpt lat="-27.7523735" lon="153.2366242">
<ele>35.329</ele>
<time>2015-12-02T04:03:46.334Z</time>
</trkpt>
<trkpt lat="-27.7518799" lon="153.2363422">
<ele>34.284</ele>
<time>2015-12-02T04:03:48.216Z</time>
</trkpt>
<trkpt lat="-27.7511146" lon="153.2359037">
<ele>34.402</ele>
<time>2015-12-02T04:03:51.109Z</time>
</trkpt>
<trkpt lat="-27.7505943" lon="153.2356322">
<ele>35.204</ele>
<time>2015-12-02T04:03:53.036Z</time>
</trkpt>
<trkpt lat="-27.7498135" lon="153.2352344">
<ele>35.899</ele>
<time>2015-12-02T04:03:55.917Z</time>
</trkpt>
<trkpt lat="-27.7490523" lon="153.2349274">
<ele>36.014</ele>
<time>2015-12-02T04:03:58.635Z</time>
</trkpt>
<trkpt lat="-27.7485306" lon="153.2347102">
<ele>35.649</ele>
<time>2015-12-02T04:04:00.527Z</time>
</trkpt>
<trkpt lat="-27.7479914" lon="153.2344755">
<ele>35.431</ele>
<time>2015-12-02T04:04:02.505Z</time>
</trkpt>
<trkpt lat="-27.7472008" lon="153.2341645">
<ele>36.382</ele>
<time>2015-12-02T04:04:05.399Z</time>
</trkpt>
<trkpt lat="-27.7463952" lon="153.2338285">
<ele>38.663</ele>
<time>2015-12-02T04:04:08.385Z</time>
</trkpt>
<trkpt lat="-27.7455996" lon="153.2334757">
<ele>40.489</ele>
<time>2015-12-02T04:04:11.363Z</time>
</trkpt>
<trkpt lat="-27.7450562" lon="153.2332594">
<ele>40.530</ele>
<time>2015-12-02T04:04:13.377Z</time>
</trkpt>
<trkpt lat="-27.7442466" lon="153.2329187">
<ele>39.619</ele>
<time>2015-12-02T04:04:16.406Z</time>
</trkpt>
<trkpt lat="-27.7437175" lon="153.2327060">
<ele>38.633</ele>
<time>2015-12-02T04:04:18.390Z</time>
</trkpt>
<trkpt lat="-27.7429282" lon="153.2323815">
<ele>37.689</ele>
<time>2015-12-02T04:04:21.368Z</time>
</trkpt>
<trkpt lat="-27.7423768" lon="153.2321576">
<ele>37.011</ele>
<time>2015-12-02T04:04:23.420Z</time>
</trkpt>
<trkpt lat="-27.7415841" lon="153.2317963">
<ele>37.050</ele>
<time>2015-12-02T04:04:26.385Z</time>
</trkpt>
<trkpt lat="-27.7410468" lon="153.2315538">
<ele>37.866</ele>
<time>2015-12-02T04:04:28.392Z</time>
</trkpt>
<trkpt lat="-27.7405161" lon="153.2312938">
<ele>38.885</ele>
<time>2015-12-02T04:04:30.402Z</time>
</trkpt>
<trkpt lat="-27.7397139" lon="153.2308650">
<ele>39.875</ele>
<time>2015-12-02T04:04:33.480Z</time>
</trkpt>
<trkpt lat="-27.7391833" lon="153.2305697">
<ele>41.038</ele>
<time>2015-12-02T04:04:35.515Z</time>
</trkpt>
<trkpt lat="-27.7386663" lon="153.2302591">
<ele>42.013</ele>
<time>2015-12-02T04:04:37.532Z</time>
</trkpt>
<trkpt lat="-27.7381641" lon="153.2299510">
<ele>42.535</ele>
<time>2015-12-02T04:04:39.519Z</time>
</trkpt>
<trkpt lat="-27.7373907" lon="153.2294581">
<ele>42.566</ele>
<time>2015-12-02T04:04:42.612Z</time>
</trkpt>
<trkpt lat="-27.7368721" lon="153.2290998">
<ele>41.950</ele>
<time>2015-12-02T04:04:44.692Z</time>
</trkpt>
<trkpt lat="-27.7361135" lon="153.2285417">
<ele>41.063</ele>
<time>2015-12-02T04:04:47.773Z</time>
</trkpt>
<trkpt lat="-27.7354006" lon="153.2279771">
<ele>40.311</ele>
<time>2015-12-02T04:04:50.738Z</time>
</trkpt>
<trkpt lat="-27.7349121" lon="153.2276062">
<ele>39.539</ele>
<time>2015-12-02T04:04:52.750Z</time>
</trkpt>
<trkpt lat="-27.7341693" lon="153.2270403">
<ele>38.538</ele>
<time>2015-12-02T04:04:55.825Z</time>
</trkpt>
<trkpt lat="-27.7334356" lon="153.2265297">
<ele>37.286</ele>
<time>2015-12-02T04:04:58.785Z</time>
</trkpt>
<trkpt lat="-27.7329434" lon="153.2261633">
<ele>36.102</ele>
<time>2015-12-02T04:05:00.795Z</time>
</trkpt>
<trkpt lat="-27.7324551" lon="153.2258113">
<ele>35.409</ele>
<time>2015-12-02T04:05:02.755Z</time>
</trkpt>
<trkpt lat="-27.7317149" lon="153.2252731">
<ele>35.234</ele>
<time>2015-12-02T04:05:05.700Z</time>
</trkpt>
<trkpt lat="-27.7309528" lon="153.2247010">
<ele>35.317</ele>
<time>2015-12-02T04:05:08.754Z</time>
</trkpt>
<trkpt lat="-27.7304696" lon="153.2243712">
<ele>35.437</ele>
<time>2015-12-02T04:05:10.645Z</time>
</trkpt>
<trkpt lat="-27.7297312" lon="153.2238184">
<ele>35.545</ele>
<time>2015-12-02T04:05:13.609Z</time>
</trkpt>
<trkpt lat="-27.7292562" lon="153.2234714">
<ele>35.699</ele>
<time>2015-12-02T04:05:15.482Z</time>
</trkpt>
<trkpt lat="-27.7285253" lon="153.2228982">
<ele>35.885</ele>
<time>2015-12-02T04:05:18.416Z</time>
</trkpt>
<trkpt lat="-27.7280449" lon="153.2225080">
<ele>35.889</ele>
<time>2015-12-02T04:05:20.372Z</time>
</trkpt>
<trkpt lat="-27.7273311" lon="153.2219104">
<ele>35.609</ele>
<time>2015-12-02T04:05:23.331Z</time>
</trkpt>
<trkpt lat="-27.7268562" lon="153.2214974">
<ele>35.466</ele>
<time>2015-12-02T04:05:25.328Z</time>
</trkpt>
<trkpt lat="-27.7261671" lon="153.2208695">
<ele>35.844</ele>
<time>2015-12-02T04:05:28.259Z</time>
</trkpt>
<trkpt lat="-27.7257077" lon="153.2204405">
<ele>36.537</ele>
<time>2015-12-02T04:05:30.238Z</time>
</trkpt>
<trkpt lat="-27.7250387" lon="153.2197739">
<ele>37.520</ele>
<time>2015-12-02T04:05:33.232Z</time>
</trkpt>
<trkpt lat="-27.7246182" lon="153.2193393">
<ele>38.824</ele>
<time>2015-12-02T04:05:35.158Z</time>
</trkpt>
<trkpt lat="-27.7240032" lon="153.2186698">
<ele>39.015</ele>
<time>2015-12-02T04:05:38.065Z</time>
</trkpt>
<trkpt lat="-27.7236107" lon="153.2182063">
<ele>36.741</ele>
<time>2015-12-02T04:05:39.994Z</time>
</trkpt>
<trkpt lat="-27.7230713" lon="153.2175071">
<ele>33.201</ele>
<time>2015-12-02T04:05:42.753Z</time>
</trkpt>
<trkpt lat="-27.7227269" lon="153.2169796">
<ele>30.547</ele>
<time>2015-12-02T04:05:44.682Z</time>
</trkpt>
<trkpt lat="-27.7221983" lon="153.2162653">
<ele>29.443</ele>
<time>2015-12-02T04:05:47.386Z</time>
</trkpt>
<trkpt lat="-27.7216901" lon="153.2155941">
<ele>29.273</ele>
<time>2015-12-02T04:05:49.955Z</time>
</trkpt>
<trkpt lat="-27.7212067" lon="153.2148738">
<ele>29.001</ele>
<time>2015-12-02T04:05:52.606Z</time>
</trkpt>
<trkpt lat="-27.7208831" lon="153.2144361">
<ele>28.154</ele>
<time>2015-12-02T04:05:54.291Z</time>
</trkpt>
<trkpt lat="-27.7203696" lon="153.2137336">
<ele>26.919</ele>
<time>2015-12-02T04:05:57.061Z</time>
</trkpt>
<trkpt lat="-27.7198222" lon="153.2130549">
<ele>25.614</ele>
<time>2015-12-02T04:05:59.906Z</time>
</trkpt>
<trkpt lat="-27.7192886" lon="153.2124233">
<ele>24.591</ele>
<time>2015-12-02T04:06:02.643Z</time>
</trkpt>
<trkpt lat="-27.7186970" lon="153.2118130">
<ele>24.173</ele>
<time>2015-12-02T04:06:05.495Z</time>
</trkpt>
<trkpt lat="-27.7180937" lon="153.2112475">
<ele>24.252</ele>
<time>2015-12-02T04:06:08.294Z</time>
</trkpt>
<trkpt lat="-27.7176742" lon="153.2108743">
<ele>24.458</ele>
<time>2015-12-02T04:06:10.217Z</time>
</trkpt>
<trkpt lat="-27.7169876" lon="153.2103077">
<ele>24.525</ele>
<time>2015-12-02T04:06:13.311Z</time>
</trkpt>
<trkpt lat="-27.7165517" lon="153.2099369">
<ele>24.467</ele>
<time>2015-12-02T04:06:15.312Z</time>
</trkpt>
<trkpt lat="-27.7160869" lon="153.2096181">
<ele>24.663</ele>
<time>2015-12-02T04:06:17.314Z</time>
</trkpt>
<trkpt lat="-27.7153746" lon="153.2091246">
<ele>25.660</ele>
<time>2015-12-02T04:06:20.396Z</time>
</trkpt>
<trkpt lat="-27.7146232" lon="153.2086608">
<ele>27.236</ele>
<time>2015-12-02T04:06:23.570Z</time>
</trkpt>
<trkpt lat="-27.7138973" lon="153.2082601">
<ele>28.165</ele>
<time>2015-12-02T04:06:26.592Z</time>
</trkpt>
<trkpt lat="-27.7134134" lon="153.2079903">
<ele>27.839</ele>
<time>2015-12-02T04:06:28.618Z</time>
</trkpt>
<trkpt lat="-27.7127209" lon="153.2076331">
<ele>26.995</ele>
<time>2015-12-02T04:06:31.463Z</time>
</trkpt>
<trkpt lat="-27.7122404" lon="153.2073650">
<ele>26.556</ele>
<time>2015-12-02T04:06:33.453Z</time>
</trkpt>
<trkpt lat="-27.7117751" lon="153.2070926">
<ele>26.840</ele>
<time>2015-12-02T04:06:35.365Z</time>
</trkpt>
<trkpt lat="-27.7110785" lon="153.2067205">
<ele>27.899</ele>
<time>2015-12-02T04:06:38.145Z</time>
</trkpt>
<trkpt lat="-27.7105733" lon="153.2064315">
<ele>29.860</ele>
<time>2015-12-02T04:06:40.190Z</time>
</trkpt>
<trkpt lat="-27.7100618" lon="153.2061110">
<ele>32.448</ele>
<time>2015-12-02T04:06:42.311Z</time>
</trkpt>
<trkpt lat="-27.7093779" lon="153.2057431">
<ele>34.868</ele>
<time>2015-12-02T04:06:45.024Z</time>
</trkpt>
<trkpt lat="-27.7089484" lon="153.2054882">
<ele>36.557</ele>
<time>2015-12-02T04:06:46.738Z</time>
</trkpt>
<trkpt lat="-27.7082595" lon="153.2050429">
<ele>37.650</ele>
<time>2015-12-02T04:06:49.583Z</time>
</trkpt>
<trkpt lat="-27.7075902" lon="153.2045989">
<ele>39.290</ele>
<time>2015-12-02T04:06:52.436Z</time>
</trkpt>
<trkpt lat="-27.7071534" lon="153.2042866">
<ele>41.985</ele>
<time>2015-12-02T04:06:54.368Z</time>
</trkpt>
<trkpt lat="-27.7066810" lon="153.2039518">
<ele>44.471</ele>
<time>2015-12-02T04:06:56.460Z</time>
</trkpt>
<trkpt lat="-27.7062522" lon="153.2035999">
<ele>45.812</ele>
<time>2015-12-02T04:06:58.453Z</time>
</trkpt>
<trkpt lat="-27.7056457" lon="153.2030666">
<ele>46.321</ele>
<time>2015-12-02T04:07:01.357Z</time>
</trkpt>
<trkpt lat="-27.7050761" lon="153.2024579">
<ele>46.092</ele>
<time>2015-12-02T04:07:04.288Z</time>
</trkpt>
<trkpt lat="-27.7045372" lon="153.2018248">
<ele>45.098</ele>
<time>2015-12-02T04:07:07.150Z</time>
</trkpt>
<trkpt lat="-27.7040061" lon="153.2011910">
<ele>44.004</ele>
<time>2015-12-02T04:07:10.051Z</time>
</trkpt>
<trkpt lat="-27.7036484" lon="153.2007526">
<ele>43.437</ele>
<time>2015-12-02T04:07:12.077Z</time>
</trkpt>
<trkpt lat="-27.7032686" lon="153.2003467">
<ele>42.877</ele>
<time>2015-12-02T04:07:14.083Z</time>
</trkpt>
<trkpt lat="-27.7028908" lon="153.1999200">
<ele>41.685</ele>
<time>2015-12-02T04:07:16.117Z</time>
</trkpt>
<trkpt lat="-27.7023520" lon="153.1993143">
<ele>40.021</ele>
<time>2015-12-02T04:07:19.013Z</time>
</trkpt>
<trkpt lat="-27.7019578" lon="153.1988778">
<ele>38.421</ele>
<time>2015-12-02T04:07:21.114Z</time>
</trkpt>
<trkpt lat="-27.7015959" lon="153.1984508">
<ele>37.174</ele>
<time>2015-12-02T04:07:23.088Z</time>
</trkpt>
<trkpt lat="-27.7010665" lon="153.1978032">
<ele>35.694</ele>
<time>2015-12-02T04:07:26.014Z</time>
</trkpt>
<trkpt lat="-27.7006920" lon="153.1974443">
<ele>33.638</ele>
<time>2015-12-02T04:07:27.877Z</time>
</trkpt>
<trkpt lat="-27.7000368" lon="153.1969179">
<ele>31.724</ele>
<time>2015-12-02T04:07:30.945Z</time>
</trkpt>
<trkpt lat="-27.6995892" lon="153.1965877">
<ele>30.454</ele>
<time>2015-12-02T04:07:32.990Z</time>
</trkpt>
<trkpt lat="-27.6991265" lon="153.1963054">
<ele>29.170</ele>
<time>2015-12-02T04:07:35.001Z</time>
</trkpt>
<trkpt lat="-27.6984446" lon="153.1959744">
<ele>27.281</ele>
<time>2015-12-02T04:07:37.807Z</time>
</trkpt>
<trkpt lat="-27.6979926" lon="153.1957940">
<ele>25.512</ele>
<time>2015-12-02T04:07:39.603Z</time>
</trkpt>
<trkpt lat="-27.6975263" lon="153.1956029">
<ele>25.110</ele>
<time>2015-12-02T04:07:41.458Z</time>
</trkpt>
<trkpt lat="-27.6968233" lon="153.1952682">
<ele>25.982</ele>
<time>2015-12-02T04:07:44.289Z</time>
</trkpt>
<trkpt lat="-27.6960994" lon="153.1949628">
<ele>27.039</ele>
<time>2015-12-02T04:07:47.128Z</time>
</trkpt>
<trkpt lat="-27.6954026" lon="153.1946444">
<ele>27.364</ele>
<time>2015-12-02T04:07:49.954Z</time>
</trkpt>
<trkpt lat="-27.6949312" lon="153.1944324">
<ele>26.875</ele>
<time>2015-12-02T04:07:51.892Z</time>
</trkpt>
<trkpt lat="-27.6944694" lon="153.1942196">
<ele>26.054</ele>
<time>2015-12-02T04:07:53.800Z</time>
</trkpt>
<trkpt lat="-27.6939938" lon="153.1940012">
<ele>25.367</ele>
<time>2015-12-02T04:07:55.748Z</time>
</trkpt>
<trkpt lat="-27.6933376" lon="153.1936401">
<ele>24.992</ele>
<time>2015-12-02T04:07:58.459Z</time>
</trkpt>
<trkpt lat="-27.6929115" lon="153.1934081">
<ele>24.887</ele>
<time>2015-12-02T04:08:00.226Z</time>
</trkpt>
<trkpt lat="-27.6922626" lon="153.1930302">
<ele>24.548</ele>
<time>2015-12-02T04:08:03.040Z</time>
</trkpt>
<trkpt lat="-27.6918047" lon="153.1927561">
<ele>23.629</ele>
<time>2015-12-02T04:08:05.118Z</time>
</trkpt>
<trkpt lat="-27.6913747" lon="153.1924898">
<ele>22.602</ele>
<time>2015-12-02T04:08:07.090Z</time>
</trkpt>
<trkpt lat="-27.6906929" lon="153.1920835">
<ele>22.048</ele>
<time>2015-12-02T04:08:10.124Z</time>
</trkpt>
<trkpt lat="-27.6902042" lon="153.1917757">
<ele>22.128</ele>
<time>2015-12-02T04:08:12.303Z</time>
</trkpt>
<trkpt lat="-27.6897613" lon="153.1915522">
<ele>23.073</ele>
<time>2015-12-02T04:08:14.200Z</time>
</trkpt>
<trkpt lat="-27.6891060" lon="153.1912088">
<ele>24.640</ele>
<time>2015-12-02T04:08:17.036Z</time>
</trkpt>
<trkpt lat="-27.6883894" lon="153.1908262">
<ele>25.922</ele>
<time>2015-12-02T04:08:20.156Z</time>
</trkpt>
<trkpt lat="-27.6879284" lon="153.1905785">
<ele>26.203</ele>
<time>2015-12-02T04:08:22.174Z</time>
</trkpt>
<trkpt lat="-27.6872062" lon="153.1901599">
<ele>25.627</ele>
<time>2015-12-02T04:08:25.426Z</time>
</trkpt>
<trkpt lat="-27.6867434" lon="153.1899201">
<ele>25.019</ele>
<time>2015-12-02T04:08:27.491Z</time>
</trkpt>
<trkpt lat="-27.6860288" lon="153.1895301">
<ele>25.162</ele>
<time>2015-12-02T04:08:30.697Z</time>
</trkpt>
<trkpt lat="-27.6855524" lon="153.1892700">
<ele>25.795</ele>
<time>2015-12-02T04:08:32.786Z</time>
</trkpt>
<trkpt lat="-27.6850755" lon="153.1890462">
<ele>26.302</ele>
<time>2015-12-02T04:08:34.808Z</time>
</trkpt>
<trkpt lat="-27.6843109" lon="153.1886464">
<ele>26.854</ele>
<time>2015-12-02T04:08:38.104Z</time>
</trkpt>
<trkpt lat="-27.6834940" lon="153.1882199">
<ele>28.026</ele>
<time>2015-12-02T04:08:41.585Z</time>
</trkpt>
<trkpt lat="-27.6826032" lon="153.1878255">
<ele>29.799</ele>
<time>2015-12-02T04:08:45.300Z</time>
</trkpt>
<trkpt lat="-27.6818486" lon="153.1874209">
<ele>31.506</ele>
<time>2015-12-02T04:08:48.529Z</time>
</trkpt>
<trkpt lat="-27.6813637" lon="153.1871793">
<ele>32.182</ele>
<time>2015-12-02T04:08:50.548Z</time>
</trkpt>
<trkpt lat="-27.6809002" lon="153.1869358">
<ele>31.655</ele>
<time>2015-12-02T04:08:52.486Z</time>
</trkpt>
<trkpt lat="-27.6804392" lon="153.1867130">
<ele>30.582</ele>
<time>2015-12-02T04:08:54.381Z</time>
</trkpt>
<trkpt lat="-27.6799366" lon="153.1864558">
<ele>29.588</ele>
<time>2015-12-02T04:08:56.465Z</time>
</trkpt>
<trkpt lat="-27.6791892" lon="153.1860729">
<ele>29.206</ele>
<time>2015-12-02T04:08:59.529Z</time>
</trkpt>
<trkpt lat="-27.6787031" lon="153.1858320">
<ele>29.641</ele>
<time>2015-12-02T04:09:01.500Z</time>
</trkpt>
<trkpt lat="-27.6782371" lon="153.1855860">
<ele>30.417</ele>
<time>2015-12-02T04:09:03.363Z</time>
</trkpt>
<trkpt lat="-27.6777611" lon="153.1853045">
<ele>31.067</ele>
<time>2015-12-02T04:09:05.218Z</time>
</trkpt>
<trkpt lat="-27.6770514" lon="153.1849254">
<ele>31.718</ele>
<time>2015-12-02T04:09:07.824Z</time>
</trkpt>
<trkpt lat="-27.6765831" lon="153.1846459">
<ele>32.674</ele>
<time>2015-12-02T04:09:09.521Z</time>
</trkpt>
<trkpt lat="-27.6761289" lon="153.1843296">
<ele>33.833</ele>
<time>2015-12-02T04:09:11.272Z</time>
</trkpt>
<trkpt lat="-27.6754795" lon="153.1838384">
<ele>34.753</ele>
<time>2015-12-02T04:09:13.926Z</time>
</trkpt>
<trkpt lat="-27.6750641" lon="153.1834774">
<ele>35.117</ele>
<time>2015-12-02T04:09:15.826Z</time>
</trkpt>
<trkpt lat="-27.6746511" lon="153.1831199">
<ele>34.820</ele>
<time>2015-12-02T04:09:17.774Z</time>
</trkpt>
<trkpt lat="-27.6742474" lon="153.1827375">
<ele>33.865</ele>
<time>2015-12-02T04:09:19.767Z</time>
</trkpt>
<trkpt lat="-27.6736894" lon="153.1821620">
<ele>32.013</ele>
<time>2015-12-02T04:09:22.577Z</time>
</trkpt>
<trkpt lat="-27.6733167" lon="153.1817745">
<ele>29.601</ele>
<time>2015-12-02T04:09:24.443Z</time>
</trkpt>
<trkpt lat="-27.6729361" lon="153.1814278">
<ele>27.712</ele>
<time>2015-12-02T04:09:26.254Z</time>
</trkpt>
<trkpt lat="-27.6723331" lon="153.1808043">
<ele>26.969</ele>
<time>2015-12-02T04:09:29.354Z</time>
</trkpt>
<trkpt lat="-27.6719848" lon="153.1804218">
<ele>27.254</ele>
<time>2015-12-02T04:09:31.200Z</time>
</trkpt>
<trkpt lat="-27.6714129" lon="153.1798330">
<ele>28.150</ele>
<time>2015-12-02T04:09:34.131Z</time>
</trkpt>
<trkpt lat="-27.6708555" lon="153.1792654">
<ele>29.020</ele>
<time>2015-12-02T04:09:36.963Z</time>
</trkpt>
<trkpt lat="-27.6702627" lon="153.1786762">
<ele>29.486</ele>
<time>2015-12-02T04:09:39.942Z</time>
</trkpt>
<trkpt lat="-27.6698742" lon="153.1782831">
<ele>29.683</ele>
<time>2015-12-02T04:09:41.910Z</time>
</trkpt>
<trkpt lat="-27.6692880" lon="153.1777123">
<ele>30.043</ele>
<time>2015-12-02T04:09:44.822Z</time>
</trkpt>
<trkpt lat="-27.6687052" lon="153.1771309">
<ele>30.663</ele>
<time>2015-12-02T04:09:47.775Z</time>
</trkpt>
<trkpt lat="-27.6683142" lon="153.1767126">
<ele>31.245</ele>
<time>2015-12-02T04:09:49.848Z</time>
</trkpt>
<trkpt lat="-27.6679057" lon="153.1763237">
<ele>31.633</ele>
<time>2015-12-02T04:09:51.935Z</time>
</trkpt>
<trkpt lat="-27.6675258" lon="153.1759171">
<ele>31.868</ele>
<time>2015-12-02T04:09:53.973Z</time>
</trkpt>
<trkpt lat="-27.6669439" lon="153.1753422">
<ele>31.913</ele>
<time>2015-12-02T04:09:56.949Z</time>
</trkpt>
<trkpt lat="-27.6665560" lon="153.1749313">
<ele>31.617</ele>
<time>2015-12-02T04:09:58.988Z</time>
</trkpt>
<trkpt lat="-27.6660053" lon="153.1743677">
<ele>30.904</ele>
<time>2015-12-02T04:10:01.847Z</time>
</trkpt>
<trkpt lat="-27.6656253" lon="153.1739879">
<ele>30.061</ele>
<time>2015-12-02T04:10:03.800Z</time>
</trkpt>
<trkpt lat="-27.6650762" lon="153.1734178">
<ele>29.635</ele>
<time>2015-12-02T04:10:06.657Z</time>
</trkpt>
<trkpt lat="-27.6647121" lon="153.1730441">
<ele>30.215</ele>
<time>2015-12-02T04:10:08.538Z</time>
</trkpt>
<trkpt lat="-27.6643341" lon="153.1726670">
<ele>31.803</ele>
<time>2015-12-02T04:10:10.462Z</time>
</trkpt>
<trkpt lat="-27.6637677" lon="153.1720667">
<ele>34.056</ele>
<time>2015-12-02T04:10:13.410Z</time>
</trkpt>
<trkpt lat="-27.6633889" lon="153.1716752">
<ele>36.573</ele>
<time>2015-12-02T04:10:15.345Z</time>
</trkpt>
<trkpt lat="-27.6628305" lon="153.1711053">
<ele>38.550</ele>
<time>2015-12-02T04:10:18.151Z</time>
</trkpt>
<trkpt lat="-27.6622788" lon="153.1705122">
<ele>39.360</ele>
<time>2015-12-02T04:10:21.008Z</time>
</trkpt>
<trkpt lat="-27.6616800" lon="153.1699226">
<ele>39.214</ele>
<time>2015-12-02T04:10:24.038Z</time>
</trkpt>
<trkpt lat="-27.6610857" lon="153.1693899">
<ele>38.606</ele>
<time>2015-12-02T04:10:26.936Z</time>
</trkpt>
<trkpt lat="-27.6604545" lon="153.1688764">
<ele>38.021</ele>
<time>2015-12-02T04:10:29.942Z</time>
</trkpt>
<trkpt lat="-27.6600275" lon="153.1685319">
<ele>37.601</ele>
<time>2015-12-02T04:10:32.000Z</time>
</trkpt>
<trkpt lat="-27.6593918" lon="153.1679934">
<ele>36.380</ele>
<time>2015-12-02T04:10:35.139Z</time>
</trkpt>
<trkpt lat="-27.6589590" lon="153.1676351">
<ele>33.742</ele>
<time>2015-12-02T04:10:37.262Z</time>
</trkpt>
<trkpt lat="-27.6583454" lon="153.1670949">
<ele>31.114</ele>
<time>2015-12-02T04:10:40.309Z</time>
</trkpt>
<trkpt lat="-27.6577297" lon="153.1665528">
<ele>29.827</ele>
<time>2015-12-02T04:10:43.355Z</time>
</trkpt>
<trkpt lat="-27.6573247" lon="153.1661801">
<ele>29.425</ele>
<time>2015-12-02T04:10:45.391Z</time>
</trkpt>
<trkpt lat="-27.6567158" lon="153.1656165">
<ele>28.856</ele>
<time>2015-12-02T04:10:48.467Z</time>
</trkpt>
<trkpt lat="-27.6561179" lon="153.1650146">
<ele>27.640</ele>
<time>2015-12-02T04:10:51.576Z</time>
</trkpt>
<trkpt lat="-27.6557372" lon="153.1646533">
<ele>26.363</ele>
<time>2015-12-02T04:10:53.482Z</time>
</trkpt>
<trkpt lat="-27.6553673" lon="153.1642515">
<ele>25.743</ele>
<time>2015-12-02T04:10:55.445Z</time>
</trkpt>
<trkpt lat="-27.6548148" lon="153.1636259">
<ele>25.751</ele>
<time>2015-12-02T04:10:58.439Z</time>
</trkpt>
<trkpt lat="-27.6544533" lon="153.1632249">
<ele>26.316</ele>
<time>2015-12-02T04:11:00.370Z</time>
</trkpt>
<trkpt lat="-27.6539005" lon="153.1625834">
<ele>27.471</ele>
<time>2015-12-02T04:11:03.375Z</time>
</trkpt>
<trkpt lat="-27.6533730" lon="153.1619461">
<ele>29.053</ele>
<time>2015-12-02T04:11:06.321Z</time>
</trkpt>
<trkpt lat="-27.6530114" lon="153.1615131">
<ele>30.613</ele>
<time>2015-12-02T04:11:08.330Z</time>
</trkpt>
<trkpt lat="-27.6526478" lon="153.1610915">
<ele>31.703</ele>
<time>2015-12-02T04:11:10.302Z</time>
</trkpt>
<trkpt lat="-27.6520817" lon="153.1604818">
<ele>32.165</ele>
<time>2015-12-02T04:11:13.259Z</time>
</trkpt>
<trkpt lat="-27.6515431" lon="153.1598297">
<ele>32.136</ele>
<time>2015-12-02T04:11:16.219Z</time>
</trkpt>
<trkpt lat="-27.6511998" lon="153.1594081">
<ele>31.739</ele>
<time>2015-12-02T04:11:18.117Z</time>
</trkpt>
<trkpt lat="-27.6508374" lon="153.1589978">
<ele>31.288</ele>
<time>2015-12-02T04:11:20.060Z</time>
</trkpt>
<trkpt lat="-27.6504811" lon="153.1585441">
<ele>31.300</ele>
<time>2015-12-02T04:11:22.130Z</time>
</trkpt>
<trkpt lat="-27.6498951" lon="153.1578950">
<ele>31.800</ele>
<time>2015-12-02T04:11:25.303Z</time>
</trkpt>
<trkpt lat="-27.6493797" lon="153.1572368">
<ele>31.944</ele>
<time>2015-12-02T04:11:28.284Z</time>
</trkpt>
<trkpt lat="-27.6488883" lon="153.1565277">
<ele>30.940</ele>
<time>2015-12-02T04:11:31.313Z</time>
</trkpt>
<trkpt lat="-27.6484572" lon="153.1557753">
<ele>29.202</ele>
<time>2015-12-02T04:11:34.311Z</time>
</trkpt>
<trkpt lat="-27.6480875" lon="153.1549288">
<ele>27.893</ele>
<time>2015-12-02T04:11:37.454Z</time>
</trkpt>
<trkpt lat="-27.6478160" lon="153.1541021">
<ele>27.473</ele>
<time>2015-12-02T04:11:40.412Z</time>
</trkpt>
<trkpt lat="-27.6476690" lon="153.1535685">
<ele>27.634</ele>
<time>2015-12-02T04:11:42.296Z</time>
</trkpt>
<trkpt lat="-27.6474255" lon="153.1527439">
<ele>28.121</ele>
<time>2015-12-02T04:11:45.222Z</time>
</trkpt>
<trkpt lat="-27.6472616" lon="153.1521841">
<ele>29.314</ele>
<time>2015-12-02T04:11:47.191Z</time>
</trkpt>
<trkpt lat="-27.6470117" lon="153.1513601">
<ele>31.247</ele>
<time>2015-12-02T04:11:50.076Z</time>
</trkpt>
<trkpt lat="-27.6468391" lon="153.1507762">
<ele>32.557</ele>
<time>2015-12-02T04:11:52.080Z</time>
</trkpt>
<trkpt lat="-27.6465582" lon="153.1499109">
<ele>32.325</ele>
<time>2015-12-02T04:11:55.103Z</time>
</trkpt>
<trkpt lat="-27.6462503" lon="153.1491471">
<ele>31.416</ele>
<time>2015-12-02T04:11:57.889Z</time>
</trkpt>
<trkpt lat="-27.6458334" lon="153.1483810">
<ele>30.952</ele>
<time>2015-12-02T04:12:00.870Z</time>
</trkpt>
<trkpt lat="-27.6453672" lon="153.1476732">
<ele>31.345</ele>
<time>2015-12-02T04:12:03.758Z</time>
</trkpt>
<trkpt lat="-27.6450476" lon="153.1471969">
<ele>32.528</ele>
<time>2015-12-02T04:12:05.704Z</time>
</trkpt>
<trkpt lat="-27.6445660" lon="153.1464943">
<ele>34.142</ele>
<time>2015-12-02T04:12:08.616Z</time>
</trkpt>
<trkpt lat="-27.6442335" lon="153.1460418">
<ele>35.648</ele>
<time>2015-12-02T04:12:10.592Z</time>
</trkpt>
<trkpt lat="-27.6437254" lon="153.1453251">
<ele>36.585</ele>
<time>2015-12-02T04:12:13.706Z</time>
</trkpt>
<trkpt lat="-27.6433769" lon="153.1448517">
<ele>37.222</ele>
<time>2015-12-02T04:12:15.781Z</time>
</trkpt>
<trkpt lat="-27.6428844" lon="153.1441614">
<ele>37.996</ele>
<time>2015-12-02T04:12:18.748Z</time>
</trkpt>
<trkpt lat="-27.6424053" lon="153.1434718">
<ele>38.672</ele>
<time>2015-12-02T04:12:21.650Z</time>
</trkpt>
<trkpt lat="-27.6419368" lon="153.1427659">
<ele>38.668</ele>
<time>2015-12-02T04:12:24.589Z</time>
</trkpt>
<trkpt lat="-27.6414525" lon="153.1420474">
<ele>37.623</ele>
<time>2015-12-02T04:12:27.628Z</time>
</trkpt>
<trkpt lat="-27.6411276" lon="153.1415839">
<ele>35.850</ele>
<time>2015-12-02T04:12:29.611Z</time>
</trkpt>
<trkpt lat="-27.6407717" lon="153.1411453">
<ele>33.789</ele>
<time>2015-12-02T04:12:31.585Z</time>
</trkpt>
<trkpt lat="-27.6404207" lon="153.1406763">
<ele>31.662</ele>
<time>2015-12-02T04:12:33.615Z</time>
</trkpt>
<trkpt lat="-27.6398651" lon="153.1399998">
<ele>29.861</ele>
<time>2015-12-02T04:12:36.667Z</time>
</trkpt>
<trkpt lat="-27.6392586" lon="153.1394006">
<ele>28.677</ele>
<time>2015-12-02T04:12:39.678Z</time>
</trkpt>
<trkpt lat="-27.6386589" lon="153.1388144">
<ele>27.898</ele>
<time>2015-12-02T04:12:42.625Z</time>
</trkpt>
<trkpt lat="-27.6383036" lon="153.1383661">
<ele>27.323</ele>
<time>2015-12-02T04:12:44.591Z</time>
</trkpt>
<trkpt lat="-27.6379475" lon="153.1379675">
<ele>27.132</ele>
<time>2015-12-02T04:12:46.444Z</time>
</trkpt>
<trkpt lat="-27.6375561" lon="153.1375619">
<ele>27.733</ele>
<time>2015-12-02T04:12:48.427Z</time>
</trkpt>
<trkpt lat="-27.6369860" lon="153.1369275">
<ele>28.941</ele>
<time>2015-12-02T04:12:51.434Z</time>
</trkpt>
<trkpt lat="-27.6364107" lon="153.1362949">
<ele>30.130</ele>
<time>2015-12-02T04:12:54.448Z</time>
</trkpt>
<trkpt lat="-27.6360302" lon="153.1358357">
<ele>31.100</ele>
<time>2015-12-02T04:12:56.531Z</time>
</trkpt>
<trkpt lat="-27.6356501" lon="153.1354191">
<ele>31.964</ele>
<time>2015-12-02T04:12:58.506Z</time>
</trkpt>
<trkpt lat="-27.6352610" lon="153.1350026">
<ele>32.475</ele>
<time>2015-12-02T04:13:00.490Z</time>
</trkpt>
<trkpt lat="-27.6346518" lon="153.1344045">
<ele>32.454</ele>
<time>2015-12-02T04:13:03.451Z</time>
</trkpt>
<trkpt lat="-27.6340580" lon="153.1338133">
<ele>32.339</ele>
<time>2015-12-02T04:13:06.349Z</time>
</trkpt>
<trkpt lat="-27.6336730" lon="153.1334321">
<ele>32.956</ele>
<time>2015-12-02T04:13:08.228Z</time>
</trkpt>
<trkpt lat="-27.6331037" lon="153.1328272">
<ele>34.488</ele>
<time>2015-12-02T04:13:11.129Z</time>
</trkpt>
<trkpt lat="-27.6327280" lon="153.1324320">
<ele>36.498</ele>
<time>2015-12-02T04:13:13.054Z</time>
</trkpt>
<trkpt lat="-27.6323212" lon="153.1320405">
<ele>38.770</ele>
<time>2015-12-02T04:13:15.067Z</time>
</trkpt>
<trkpt lat="-27.6316866" lon="153.1315801">
<ele>41.107</ele>
<time>2015-12-02T04:13:17.890Z</time>
</trkpt>
<trkpt lat="-27.6310222" lon="153.1311538">
<ele>43.107</ele>
<time>2015-12-02T04:13:20.718Z</time>
</trkpt>
<trkpt lat="-27.6303417" lon="153.1308120">
<ele>44.535</ele>
<time>2015-12-02T04:13:23.452Z</time>
</trkpt>
<trkpt lat="-27.6298699" lon="153.1306110">
<ele>45.130</ele>
<time>2015-12-02T04:13:25.301Z</time>
</trkpt>
<trkpt lat="-27.6291626" lon="153.1303323">
<ele>44.811</ele>
<time>2015-12-02T04:13:28.058Z</time>
</trkpt>
<trkpt lat="-27.6284691" lon="153.1300869">
<ele>43.323</ele>
<time>2015-12-02T04:13:30.752Z</time>
</trkpt>
<trkpt lat="-27.6277552" lon="153.1298094">
<ele>40.500</ele>
<time>2015-12-02T04:13:33.572Z</time>
</trkpt>
<trkpt lat="-27.6273109" lon="153.1296467">
<ele>37.166</ele>
<time>2015-12-02T04:13:35.328Z</time>
</trkpt>
<trkpt lat="-27.6268718" lon="153.1294647">
<ele>34.483</ele>
<time>2015-12-02T04:13:37.107Z</time>
</trkpt>
<trkpt lat="-27.6261867" lon="153.1291769">
<ele>32.726</ele>
<time>2015-12-02T04:13:39.890Z</time>
</trkpt>
<trkpt lat="-27.6255447" lon="153.1289274">
<ele>31.678</ele>
<time>2015-12-02T04:13:42.449Z</time>
</trkpt>
<trkpt lat="-27.6251188" lon="153.1287249">
<ele>31.516</ele>
<time>2015-12-02T04:13:44.186Z</time>
</trkpt>
<trkpt lat="-27.6246785" lon="153.1285260">
<ele>32.283</ele>
<time>2015-12-02T04:13:45.990Z</time>
</trkpt>
<trkpt lat="-27.6240339" lon="153.1282250">
<ele>33.076</ele>
<time>2015-12-02T04:13:48.682Z</time>
</trkpt>
<trkpt lat="-27.6233507" lon="153.1279258">
<ele>32.980</ele>
<time>2015-12-02T04:13:51.565Z</time>
</trkpt>
<trkpt lat="-27.6228880" lon="153.1277038">
<ele>32.179</ele>
<time>2015-12-02T04:13:53.564Z</time>
</trkpt>
<trkpt lat="-27.6224186" lon="153.1274859">
<ele>31.418</ele>
<time>2015-12-02T04:13:55.596Z</time>
</trkpt>
<trkpt lat="-27.6217466" lon="153.1271831">
<ele>30.969</ele>
<time>2015-12-02T04:13:58.499Z</time>
</trkpt>
<trkpt lat="-27.6212906" lon="153.1269697">
<ele>30.398</ele>
<time>2015-12-02T04:14:00.481Z</time>
</trkpt>
<trkpt lat="-27.6206061" lon="153.1266710">
<ele>29.512</ele>
<time>2015-12-02T04:14:03.436Z</time>
</trkpt>
<trkpt lat="-27.6199329" lon="153.1263870">
<ele>28.754</ele>
<time>2015-12-02T04:14:06.376Z</time>
</trkpt>
<trkpt lat="-27.6194845" lon="153.1261774">
<ele>28.555</ele>
<time>2015-12-02T04:14:08.384Z</time>
</trkpt>
<trkpt lat="-27.6189964" lon="153.1259446">
<ele>28.817</ele>
<time>2015-12-02T04:14:10.558Z</time>
</trkpt>
<trkpt lat="-27.6182992" lon="153.1256252">
<ele>29.444</ele>
<time>2015-12-02T04:14:13.667Z</time>
</trkpt>
<trkpt lat="-27.6176384" lon="153.1252655">
<ele>30.658</ele>
<time>2015-12-02T04:14:16.744Z</time>
</trkpt>
<trkpt lat="-27.6170066" lon="153.1248773">
<ele>32.044</ele>
<time>2015-12-02T04:14:19.759Z</time>
</trkpt>
<trkpt lat="-27.6166063" lon="153.1246146">
<ele>32.807</ele>
<time>2015-12-02T04:14:21.687Z</time>
</trkpt>
<trkpt lat="-27.6160185" lon="153.1242634">
<ele>33.014</ele>
<time>2015-12-02T04:14:24.406Z</time>
</trkpt>
<trkpt lat="-27.6153934" lon="153.1239281">
<ele>33.258</ele>
<time>2015-12-02T04:14:27.159Z</time>
</trkpt>
<trkpt lat="-27.6149591" lon="153.1237694">
<ele>33.774</ele>
<time>2015-12-02T04:14:28.984Z</time>
</trkpt>
<trkpt lat="-27.6145271" lon="153.1236623">
<ele>34.373</ele>
<time>2015-12-02T04:14:30.763Z</time>
</trkpt>
<trkpt lat="-27.6138490" lon="153.1234670">
<ele>34.821</ele>
<time>2015-12-02T04:14:33.613Z</time>
</trkpt>
<trkpt lat="-27.6133828" lon="153.1233511">
<ele>35.257</ele>
<time>2015-12-02T04:14:35.570Z</time>
</trkpt>
<trkpt lat="-27.6129257" lon="153.1231858">
<ele>35.741</ele>
<time>2015-12-02T04:14:37.542Z</time>
</trkpt>
<trkpt lat="-27.6123171" lon="153.1229218">
<ele>36.025</ele>
<time>2015-12-02T04:14:40.218Z</time>
</trkpt>
<trkpt lat="-27.6116753" lon="153.1226242">
<ele>35.988</ele>
<time>2015-12-02T04:14:43.019Z</time>
</trkpt>
<trkpt lat="-27.6110599" lon="153.1222755">
<ele>36.038</ele>
<time>2015-12-02T04:14:45.737Z</time>
</trkpt>
<trkpt lat="-27.6104608" lon="153.1218947">
<ele>36.705</ele>
<time>2015-12-02T04:14:48.488Z</time>
</trkpt>
<trkpt lat="-27.6100314" lon="153.1216138">
<ele>38.117</ele>
<time>2015-12-02T04:14:50.523Z</time>
</trkpt>
<trkpt lat="-27.6094336" lon="153.1212472">
<ele>39.836</ele>
<time>2015-12-02T04:14:53.367Z</time>
</trkpt>
<trkpt lat="-27.6090215" lon="153.1209697">
<ele>41.681</ele>
<time>2015-12-02T04:14:55.421Z</time>
</trkpt>
<trkpt lat="-27.6086094" lon="153.1207072">
<ele>44.030</ele>
<time>2015-12-02T04:14:57.464Z</time>
</trkpt>
<trkpt lat="-27.6081792" lon="153.1204165">
<ele>46.772</ele>
<time>2015-12-02T04:14:59.650Z</time>
</trkpt>
<trkpt lat="-27.6075755" lon="153.1200510">
<ele>49.079</ele>
<time>2015-12-02T04:15:02.652Z</time>
</trkpt>
<trkpt lat="-27.6071488" lon="153.1197804">
<ele>50.446</ele>
<time>2015-12-02T04:15:04.798Z</time>
</trkpt>
<trkpt lat="-27.6065486" lon="153.1193768">
<ele>51.199</ele>
<time>2015-12-02T04:15:07.791Z</time>
</trkpt>
<trkpt lat="-27.6061381" lon="153.1190911">
<ele>51.976</ele>
<time>2015-12-02T04:15:09.811Z</time>
</trkpt>
<trkpt lat="-27.6057502" lon="153.1188186">
<ele>52.785</ele>
<time>2015-12-02T04:15:11.727Z</time>
</trkpt>
<trkpt lat="-27.6053135" lon="153.1185342">
<ele>53.173</ele>
<time>2015-12-02T04:15:13.865Z</time>
</trkpt>
<trkpt lat="-27.6047040" lon="153.1181297">
<ele>53.067</ele>
<time>2015-12-02T04:15:16.906Z</time>
</trkpt>
<trkpt lat="-27.6042753" lon="153.1178219">
<ele>52.691</ele>
<time>2015-12-02T04:15:19.109Z</time>
</trkpt>
<trkpt lat="-27.6038839" lon="153.1175641">
<ele>52.260</ele>
<time>2015-12-02T04:15:21.082Z</time>
</trkpt>
<trkpt lat="-27.6032704" lon="153.1171927">
<ele>51.734</ele>
<time>2015-12-02T04:15:24.123Z</time>
</trkpt>
<trkpt lat="-27.6026395" lon="153.1167770">
<ele>50.850</ele>
<time>2015-12-02T04:15:27.303Z</time>
</trkpt>
<trkpt lat="-27.6020766" lon="153.1164384">
<ele>49.492</ele>
<time>2015-12-02T04:15:30.022Z</time>
</trkpt>
<trkpt lat="-27.6014445" lon="153.1160780">
<ele>48.081</ele>
<time>2015-12-02T04:15:32.973Z</time>
</trkpt>
<trkpt lat="-27.6009902" lon="153.1158034">
<ele>47.530</ele>
<time>2015-12-02T04:15:35.104Z</time>
</trkpt>
<trkpt lat="-27.6003636" lon="153.1153870">
<ele>48.252</ele>
<time>2015-12-02T04:15:38.106Z</time>
</trkpt>
<trkpt lat="-27.5999394" lon="153.1151043">
<ele>49.582</ele>
<time>2015-12-02T04:15:40.155Z</time>
</trkpt>
<trkpt lat="-27.5993021" lon="153.1146974">
<ele>50.928</ele>
<time>2015-12-02T04:15:43.232Z</time>
</trkpt>
<trkpt lat="-27.5986638" lon="153.1142821">
<ele>52.653</ele>
<time>2015-12-02T04:15:46.365Z</time>
</trkpt>
<trkpt lat="-27.5982327" lon="153.1140163">
<ele>55.175</ele>
<time>2015-12-02T04:15:48.421Z</time>
</trkpt>
<trkpt lat="-27.5975717" lon="153.1136120">
<ele>57.906</ele>
<time>2015-12-02T04:15:51.507Z</time>
</trkpt>
<trkpt lat="-27.5969021" lon="153.1131762">
<ele>60.033</ele>
<time>2015-12-02T04:15:54.732Z</time>
</trkpt>
<trkpt lat="-27.5964878" lon="153.1128964">
<ele>61.502</ele>
<time>2015-12-02T04:15:56.800Z</time>
</trkpt>
<trkpt lat="-27.5958275" lon="153.1124643">
<ele>62.413</ele>
<time>2015-12-02T04:16:00.047Z</time>
</trkpt>
<trkpt lat="-27.5951997" lon="153.1120338">
<ele>62.587</ele>
<time>2015-12-02T04:16:03.143Z</time>
</trkpt>
<trkpt lat="-27.5945643" lon="153.1115885">
<ele>62.114</ele>
<time>2015-12-02T04:16:06.308Z</time>
</trkpt>
<trkpt lat="-27.5941524" lon="153.1113245">
<ele>61.416</ele>
<time>2015-12-02T04:16:08.311Z</time>
</trkpt>
<trkpt lat="-27.5934957" lon="153.1109215">
<ele>60.732</ele>
<time>2015-12-02T04:16:11.405Z</time>
</trkpt>
<trkpt lat="-27.5930830" lon="153.1106354">
<ele>60.091</ele>
<time>2015-12-02T04:16:13.368Z</time>
</trkpt>
<trkpt lat="-27.5926554" lon="153.1103608">
<ele>59.664</ele>
<time>2015-12-02T04:16:15.347Z</time>
</trkpt>
<trkpt lat="-27.5920387" lon="153.1099721">
<ele>59.076</ele>
<time>2015-12-02T04:16:18.187Z</time>
</trkpt>
<trkpt lat="-27.5914083" lon="153.1095724">
<ele>57.907</ele>
<time>2015-12-02T04:16:21.096Z</time>
</trkpt>
<trkpt lat="-27.5907587" lon="153.1091488">
<ele>56.541</ele>
<time>2015-12-02T04:16:24.088Z</time>
</trkpt>
<trkpt lat="-27.5901271" lon="153.1087348">
<ele>55.359</ele>
<time>2015-12-02T04:16:26.964Z</time>
</trkpt>
<trkpt lat="-27.5897159" lon="153.1084574">
<ele>54.278</ele>
<time>2015-12-02T04:16:28.870Z</time>
</trkpt>
<trkpt lat="-27.5890488" lon="153.1080215">
<ele>53.206</ele>
<time>2015-12-02T04:16:32.020Z</time>
</trkpt>
<trkpt lat="-27.5884915" lon="153.1076473">
<ele>51.986</ele>
<time>2015-12-02T04:16:34.676Z</time>
</trkpt>
<trkpt lat="-27.5878904" lon="153.1072427">
<ele>50.638</ele>
<time>2015-12-02T04:16:37.531Z</time>
</trkpt>
<trkpt lat="-27.5872702" lon="153.1068295">
<ele>49.366</ele>
<time>2015-12-02T04:16:40.468Z</time>
</trkpt>
<trkpt lat="-27.5868536" lon="153.1065821">
<ele>47.939</ele>
<time>2015-12-02T04:16:42.370Z</time>
</trkpt>
<trkpt lat="-27.5864718" lon="153.1063261">
<ele>46.133</ele>
<time>2015-12-02T04:16:44.157Z</time>
</trkpt>
<trkpt lat="-27.5858936" lon="153.1059602">
<ele>44.532</ele>
<time>2015-12-02T04:16:46.796Z</time>
</trkpt>
<trkpt lat="-27.5852137" lon="153.1055503">
<ele>43.776</ele>
<time>2015-12-02T04:16:49.904Z</time>
</trkpt>
<trkpt lat="-27.5845913" lon="153.1051509">
<ele>43.959</ele>
<time>2015-12-02T04:16:52.827Z</time>
</trkpt>
<trkpt lat="-27.5841665" lon="153.1048810">
<ele>44.769</ele>
<time>2015-12-02T04:16:54.821Z</time>
</trkpt>
<trkpt lat="-27.5835771" lon="153.1044845">
<ele>45.517</ele>
<time>2015-12-02T04:16:57.611Z</time>
</trkpt>
<trkpt lat="-27.5831726" lon="153.1042453">
<ele>45.703</ele>
<time>2015-12-02T04:16:59.456Z</time>
</trkpt>
<trkpt lat="-27.5825161" lon="153.1037711">
<ele>45.443</ele>
<time>2015-12-02T04:17:02.611Z</time>
</trkpt>
<trkpt lat="-27.5820637" lon="153.1034558">
<ele>45.313</ele>
<time>2015-12-02T04:17:04.770Z</time>
</trkpt>
<trkpt lat="-27.5813894" lon="153.1030314">
<ele>45.923</ele>
<time>2015-12-02T04:17:07.955Z</time>
</trkpt>
<trkpt lat="-27.5809158" lon="153.1027664">
<ele>47.106</ele>
<time>2015-12-02T04:17:10.188Z</time>
</trkpt>
<trkpt lat="-27.5804836" lon="153.1024959">
<ele>48.085</ele>
<time>2015-12-02T04:17:12.282Z</time>
</trkpt>
<trkpt lat="-27.5798052" lon="153.1020340">
<ele>48.488</ele>
<time>2015-12-02T04:17:15.643Z</time>
</trkpt>
<trkpt lat="-27.5793583" lon="153.1017578">
<ele>48.555</ele>
<time>2015-12-02T04:17:17.818Z</time>
</trkpt>
<trkpt lat="-27.5786293" lon="153.1013199">
<ele>48.557</ele>
<time>2015-12-02T04:17:21.387Z</time>
</trkpt>
<trkpt lat="-27.5781553" lon="153.1010162">
<ele>49.069</ele>
<time>2015-12-02T04:17:23.710Z</time>
</trkpt>
<trkpt lat="-27.5776905" lon="153.1007272">
<ele>50.482</ele>
<time>2015-12-02T04:17:25.894Z</time>
</trkpt>
<trkpt lat="-27.5772521" lon="153.1004493">
<ele>52.447</ele>
<time>2015-12-02T04:17:27.933Z</time>
</trkpt>
<trkpt lat="-27.5765893" lon="153.0999761">
<ele>54.336</ele>
<time>2015-12-02T04:17:31.086Z</time>
</trkpt>
<trkpt lat="-27.5761670" lon="153.0996122">
<ele>55.840</ele>
<time>2015-12-02T04:17:33.262Z</time>
</trkpt>
<trkpt lat="-27.5757601" lon="153.0992548">
<ele>57.156</ele>
<time>2015-12-02T04:17:35.384Z</time>
</trkpt>
<trkpt lat="-27.5753618" lon="153.0988712">
<ele>58.733</ele>
<time>2015-12-02T04:17:37.507Z</time>
</trkpt>
<trkpt lat="-27.5747888" lon="153.0982385">
<ele>60.558</ele>
<time>2015-12-02T04:17:40.598Z</time>
</trkpt>
<trkpt lat="-27.5744319" lon="153.0978128">
<ele>62.313</ele>
<time>2015-12-02T04:17:42.567Z</time>
</trkpt>
<trkpt lat="-27.5738964" lon="153.0970960">
<ele>63.604</ele>
<time>2015-12-02T04:17:45.710Z</time>
</trkpt>
<trkpt lat="-27.5735801" lon="153.0966180">
<ele>63.977</ele>
<time>2015-12-02T04:17:47.722Z</time>
</trkpt>
<trkpt lat="-27.5732758" lon="153.0961473">
<ele>63.316</ele>
<time>2015-12-02T04:17:49.668Z</time>
</trkpt>
<trkpt lat="-27.5729853" lon="153.0956439">
<ele>62.202</ele>
<time>2015-12-02T04:17:51.632Z</time>
</trkpt>
<trkpt lat="-27.5725666" lon="153.0948888">
<ele>61.385</ele>
<time>2015-12-02T04:17:54.521Z</time>
</trkpt>
<trkpt lat="-27.5722946" lon="153.0943928">
<ele>60.925</ele>
<time>2015-12-02T04:17:56.416Z</time>
</trkpt>
<trkpt lat="-27.5720237" lon="153.0938960">
<ele>60.546</ele>
<time>2015-12-02T04:17:58.333Z</time>
</trkpt>
<trkpt lat="-27.5716126" lon="153.0931375">
<ele>60.490</ele>
<time>2015-12-02T04:18:01.314Z</time>
</trkpt>
<trkpt lat="-27.5713271" lon="153.0926146">
<ele>61.101</ele>
<time>2015-12-02T04:18:03.391Z</time>
</trkpt>
<trkpt lat="-27.5710541" lon="153.0921328">
<ele>62.021</ele>
<time>2015-12-02T04:18:05.323Z</time>
</trkpt>
<trkpt lat="-27.5707700" lon="153.0916116">
<ele>62.778</ele>
<time>2015-12-02T04:18:07.383Z</time>
</trkpt>
<trkpt lat="-27.5703774" lon="153.0908487">
<ele>63.052</ele>
<time>2015-12-02T04:18:10.337Z</time>
</trkpt>
<trkpt lat="-27.5701165" lon="153.0903395">
<ele>62.669</ele>
<time>2015-12-02T04:18:12.286Z</time>
</trkpt>
<trkpt lat="-27.5698334" lon="153.0898414">
<ele>61.951</ele>
<time>2015-12-02T04:18:14.215Z</time>
</trkpt>
<trkpt lat="-27.5695539" lon="153.0893292">
<ele>61.244</ele>
<time>2015-12-02T04:18:16.164Z</time>
</trkpt>
<trkpt lat="-27.5691408" lon="153.0885835">
<ele>60.451</ele>
<time>2015-12-02T04:18:19.018Z</time>
</trkpt>
<trkpt lat="-27.5688564" lon="153.0880415">
<ele>59.584</ele>
<time>2015-12-02T04:18:21.085Z</time>
</trkpt>
<trkpt lat="-27.5684289" lon="153.0872871">
<ele>58.450</ele>
<time>2015-12-02T04:18:24.037Z</time>
</trkpt>
<trkpt lat="-27.5681381" lon="153.0868099">
<ele>56.928</ele>
<time>2015-12-02T04:18:25.952Z</time>
</trkpt>
<trkpt lat="-27.5676873" lon="153.0860698">
<ele>55.602</ele>
<time>2015-12-02T04:18:28.963Z</time>
</trkpt>
<trkpt lat="-27.5674223" lon="153.0855664">
<ele>54.995</ele>
<time>2015-12-02T04:18:30.928Z</time>
</trkpt>
<trkpt lat="-27.5669453" lon="153.0848565">
<ele>54.955</ele>
<time>2015-12-02T04:18:33.901Z</time>
</trkpt>
<trkpt lat="-27.5664640" lon="153.0841213">
<ele>55.903</ele>
<time>2015-12-02T04:18:36.934Z</time>
</trkpt>
<trkpt lat="-27.5661240" lon="153.0836126">
<ele>58.777</ele>
<time>2015-12-02T04:18:39.054Z</time>
</trkpt>
<trkpt lat="-27.5656468" lon="153.0828689">
<ele>62.973</ele>
<time>2015-12-02T04:18:42.104Z</time>
</trkpt>
<trkpt lat="-27.5653578" lon="153.0823872">
<ele>66.371</ele>
<time>2015-12-02T04:18:44.041Z</time>
</trkpt>
<trkpt lat="-27.5650836" lon="153.0819005">
<ele>68.172</ele>
<time>2015-12-02T04:18:45.965Z</time>
</trkpt>
<trkpt lat="-27.5648011" lon="153.0814022">
<ele>69.498</ele>
<time>2015-12-02T04:18:47.943Z</time>
</trkpt>
<trkpt lat="-27.5645059" lon="153.0809264">
<ele>71.348</ele>
<time>2015-12-02T04:18:49.881Z</time>
</trkpt>
<trkpt lat="-27.5640055" lon="153.0801532">
<ele>73.801</ele>
<time>2015-12-02T04:18:53.045Z</time>
</trkpt>
<trkpt lat="-27.5637729" lon="153.0797259">
<ele>76.246</ele>
<time>2015-12-02T04:18:54.693Z</time>
</trkpt>
<trkpt lat="-27.5633531" lon="153.0790884">
<ele>77.818</ele>
<time>2015-12-02T04:18:57.314Z</time>
</trkpt>
<trkpt lat="-27.5628723" lon="153.0784707">
<ele>78.258</ele>
<time>2015-12-02T04:19:00.027Z</time>
</trkpt>
<trkpt lat="-27.5623961" lon="153.0778417">
<ele>77.450</ele>
<time>2015-12-02T04:19:02.754Z</time>
</trkpt>
<trkpt lat="-27.5620413" lon="153.0774357">
<ele>75.200</ele>
<time>2015-12-02T04:19:04.636Z</time>
</trkpt>
<trkpt lat="-27.5616841" lon="153.0770405">
<ele>72.222</ele>
<time>2015-12-02T04:19:06.494Z</time>
</trkpt>
<trkpt lat="-27.5613018" lon="153.0765794">
<ele>69.381</ele>
<time>2015-12-02T04:19:08.552Z</time>
</trkpt>
<trkpt lat="-27.5608981" lon="153.0761692">
<ele>67.000</ele>
<time>2015-12-02T04:19:10.531Z</time>
</trkpt>
<trkpt lat="-27.5603220" lon="153.0755855">
<ele>65.430</ele>
<time>2015-12-02T04:19:13.333Z</time>
</trkpt>
<trkpt lat="-27.5599469" lon="153.0751887">
<ele>64.787</ele>
<time>2015-12-02T04:19:15.200Z</time>
</trkpt>
<trkpt lat="-27.5593642" lon="153.0745932">
<ele>64.723</ele>
<time>2015-12-02T04:19:18.088Z</time>
</trkpt>
<trkpt lat="-27.5587398" lon="153.0740114">
<ele>64.856</ele>
<time>2015-12-02T04:19:21.123Z</time>
</trkpt>
<trkpt lat="-27.5581229" lon="153.0734819">
<ele>65.036</ele>
<time>2015-12-02T04:19:23.961Z</time>
</trkpt>
<trkpt lat="-27.5576994" lon="153.0731189">
<ele>65.402</ele>
<time>2015-12-02T04:19:25.883Z</time>
</trkpt>
<trkpt lat="-27.5572900" lon="153.0727681">
<ele>66.468</ele>
<time>2015-12-02T04:19:27.796Z</time>
</trkpt>
<trkpt lat="-27.5568692" lon="153.0724471">
<ele>68.313</ele>
<time>2015-12-02T04:19:29.768Z</time>
</trkpt>
<trkpt lat="-27.5562558" lon="153.0719325">
<ele>70.073</ele>
<time>2015-12-02T04:19:32.802Z</time>
</trkpt>
<trkpt lat="-27.5556495" lon="153.0713804">
<ele>71.365</ele>
<time>2015-12-02T04:19:35.873Z</time>
</trkpt>
<trkpt lat="-27.5552319" lon="153.0709990">
<ele>72.728</ele>
<time>2015-12-02T04:19:37.969Z</time>
</trkpt>
<trkpt lat="-27.5545925" lon="153.0704662">
<ele>74.551</ele>
<time>2015-12-02T04:19:41.022Z</time>
</trkpt>
<trkpt lat="-27.5539591" lon="153.0699393">
<ele>76.987</ele>
<time>2015-12-02T04:19:43.962Z</time>
</trkpt>
<trkpt lat="-27.5535169" lon="153.0695780">
<ele>79.636</ele>
<time>2015-12-02T04:19:46.010Z</time>
</trkpt>
<trkpt lat="-27.5529002" lon="153.0690932">
<ele>81.537</ele>
<time>2015-12-02T04:19:48.842Z</time>
</trkpt>
<trkpt lat="-27.5522906" lon="153.0685726">
<ele>82.356</ele>
<time>2015-12-02T04:19:51.725Z</time>
</trkpt>
<trkpt lat="-27.5518308" lon="153.0681954">
<ele>82.422</ele>
<time>2015-12-02T04:19:53.870Z</time>
</trkpt>
<trkpt lat="-27.5514238" lon="153.0678594">
<ele>81.994</ele>
<time>2015-12-02T04:19:55.771Z</time>
</trkpt>
<trkpt lat="-27.5508003" lon="153.0672561">
<ele>81.363</ele>
<time>2015-12-02T04:19:58.866Z</time>
</trkpt>
<trkpt lat="-27.5503422" lon="153.0668967">
<ele>81.109</ele>
<time>2015-12-02T04:20:00.977Z</time>
</trkpt>
<trkpt lat="-27.5497228" lon="153.0663624">
<ele>81.739</ele>
<time>2015-12-02T04:20:03.958Z</time>
</trkpt>
<trkpt lat="-27.5492971" lon="153.0660134">
<ele>83.626</ele>
<time>2015-12-02T04:20:05.989Z</time>
</trkpt>
<trkpt lat="-27.5488711" lon="153.0656467">
<ele>86.320</ele>
<time>2015-12-02T04:20:08.056Z</time>
</trkpt>
<trkpt lat="-27.5482277" lon="153.0650869">
<ele>88.452</ele>
<time>2015-12-02T04:20:11.175Z</time>
</trkpt>
<trkpt lat="-27.5477865" lon="153.0647206">
<ele>89.719</ele>
<time>2015-12-02T04:20:13.252Z</time>
</trkpt>
<trkpt lat="-27.5471349" lon="153.0641751">
<ele>91.094</ele>
<time>2015-12-02T04:20:16.311Z</time>
</trkpt>
<trkpt lat="-27.5465104" lon="153.0636492">
<ele>92.825</ele>
<time>2015-12-02T04:20:19.237Z</time>
</trkpt>
<trkpt lat="-27.5458671" lon="153.0630932">
<ele>94.587</ele>
<time>2015-12-02T04:20:22.277Z</time>
</trkpt>
<trkpt lat="-27.5454247" lon="153.0627397">
<ele>96.569</ele>
<time>2015-12-02T04:20:24.318Z</time>
</trkpt>
<trkpt lat="-27.5448012" lon="153.0621889">
<ele>98.703</ele>
<time>2015-12-02T04:20:27.292Z</time>
</trkpt>
<trkpt lat="-27.5443673" lon="153.0618411">
<ele>100.382</ele>
<time>2015-12-02T04:20:29.272Z</time>
</trkpt>
<trkpt lat="-27.5437013" lon="153.0613075">
<ele>100.931</ele>
<time>2015-12-02T04:20:32.309Z</time>
</trkpt>
<trkpt lat="-27.5432468" lon="153.0610096">
<ele>100.179</ele>
<time>2015-12-02T04:20:34.249Z</time>
</trkpt>
<trkpt lat="-27.5425649" lon="153.0605531">
<ele>98.819</ele>
<time>2015-12-02T04:20:37.161Z</time>
</trkpt>
<trkpt lat="-27.5417360" lon="153.0601060">
<ele>97.301</ele>
<time>2015-12-02T04:20:40.549Z</time>
</trkpt>
<trkpt lat="-27.5410971" lon="153.0597643">
<ele>95.125</ele>
<time>2015-12-02T04:20:43.162Z</time>
</trkpt>
<trkpt lat="-27.5406209" lon="153.0595918">
<ele>91.903</ele>
<time>2015-12-02T04:20:45.008Z</time>
</trkpt>
<trkpt lat="-27.5401820" lon="153.0594039">
<ele>88.239</ele>
<time>2015-12-02T04:20:46.730Z</time>
</trkpt>
<trkpt lat="-27.5394067" lon="153.0591967">
<ele>84.927</ele>
<time>2015-12-02T04:20:49.663Z</time>
</trkpt>
<trkpt lat="-27.5389060" lon="153.0590555">
<ele>82.165</ele>
<time>2015-12-02T04:20:51.583Z</time>
</trkpt>
<trkpt lat="-27.5381408" lon="153.0588539">
<ele>79.746</ele>
<time>2015-12-02T04:20:54.513Z</time>
</trkpt>
<trkpt lat="-27.5373790" lon="153.0586981">
<ele>77.224</ele>
<time>2015-12-02T04:20:57.389Z</time>
</trkpt>
<trkpt lat="-27.5366442" lon="153.0585457">
<ele>73.708</ele>
<time>2015-12-02T04:21:00.163Z</time>
</trkpt>
<trkpt lat="-27.5359220" lon="153.0583854">
<ele>68.742</ele>
<time>2015-12-02T04:21:02.905Z</time>
</trkpt>
<trkpt lat="-27.5354293" lon="153.0582979">
<ele>63.256</ele>
<time>2015-12-02T04:21:04.767Z</time>
</trkpt>
<trkpt lat="-27.5346968" lon="153.0581428">
<ele>59.048</ele>
<time>2015-12-02T04:21:07.543Z</time>
</trkpt>
<trkpt lat="-27.5339882" lon="153.0580077">
<ele>56.509</ele>
<time>2015-12-02T04:21:10.208Z</time>
</trkpt>
<trkpt lat="-27.5332593" lon="153.0578645">
<ele>54.666</ele>
<time>2015-12-02T04:21:12.922Z</time>
</trkpt>
<trkpt lat="-27.5325348" lon="153.0577251">
<ele>52.668</ele>
<time>2015-12-02T04:21:15.613Z</time>
</trkpt>
<trkpt lat="-27.5320562" lon="153.0576182">
<ele>50.370</ele>
<time>2015-12-02T04:21:17.414Z</time>
</trkpt>
<trkpt lat="-27.5315998" lon="153.0575174">
<ele>48.338</ele>
<time>2015-12-02T04:21:19.175Z</time>
</trkpt>
<trkpt lat="-27.5308773" lon="153.0573543">
<ele>47.013</ele>
<time>2015-12-02T04:21:22.013Z</time>
</trkpt>
<trkpt lat="-27.5304015" lon="153.0572499">
<ele>46.203</ele>
<time>2015-12-02T04:21:23.877Z</time>
</trkpt>
<trkpt lat="-27.5299336" lon="153.0571452">
<ele>45.752</ele>
<time>2015-12-02T04:21:25.683Z</time>
</trkpt>
<trkpt lat="-27.5291887" lon="153.0569817">
<ele>45.531</ele>
<time>2015-12-02T04:21:28.538Z</time>
</trkpt>
<trkpt lat="-27.5284909" lon="153.0568178">
<ele>45.349</ele>
<time>2015-12-02T04:21:31.245Z</time>
</trkpt>
<trkpt lat="-27.5277821" lon="153.0566264">
<ele>45.192</ele>
<time>2015-12-02T04:21:34.076Z</time>
</trkpt>
<trkpt lat="-27.5273102" lon="153.0564771">
<ele>45.236</ele>
<time>2015-12-02T04:21:36.013Z</time>
</trkpt>
<trkpt lat="-27.5268407" lon="153.0563142">
<ele>45.528</ele>
<time>2015-12-02T04:21:37.973Z</time>
</trkpt>
<trkpt lat="-27.5261638" lon="153.0560335">
<ele>45.859</ele>
<time>2015-12-02T04:21:40.842Z</time>
</trkpt>
<trkpt lat="-27.5254567" lon="153.0557104">
<ele>46.015</ele>
<time>2015-12-02T04:21:43.889Z</time>
</trkpt>
<trkpt lat="-27.5250154" lon="153.0554915">
<ele>45.499</ele>
<time>2015-12-02T04:21:45.833Z</time>
</trkpt>
<trkpt lat="-27.5243487" lon="153.0551196">
<ele>44.103</ele>
<time>2015-12-02T04:21:48.830Z</time>
</trkpt>
<trkpt lat="-27.5237017" lon="153.0546787">
<ele>42.743</ele>
<time>2015-12-02T04:21:51.879Z</time>
</trkpt>
<trkpt lat="-27.5232998" lon="153.0543518">
<ele>42.412</ele>
<time>2015-12-02T04:21:53.904Z</time>
</trkpt>
<trkpt lat="-27.5228899" lon="153.0540376">
<ele>42.928</ele>
<time>2015-12-02T04:21:55.949Z</time>
</trkpt>
<trkpt lat="-27.5222748" lon="153.0535079">
<ele>43.528</ele>
<time>2015-12-02T04:21:59.130Z</time>
</trkpt>
<trkpt lat="-27.5218776" lon="153.0531646">
<ele>43.752</ele>
<time>2015-12-02T04:22:01.167Z</time>
</trkpt>
<trkpt lat="-27.5214690" lon="153.0528348">
<ele>43.660</ele>
<time>2015-12-02T04:22:03.212Z</time>
</trkpt>
<trkpt lat="-27.5208620" lon="153.0523787">
<ele>43.064</ele>
<time>2015-12-02T04:22:06.158Z</time>
</trkpt>
<trkpt lat="-27.5202527" lon="153.0519203">
<ele>41.905</ele>
<time>2015-12-02T04:22:09.119Z</time>
</trkpt>
<trkpt lat="-27.5197888" lon="153.0515286">
<ele>41.187</ele>
<time>2015-12-02T04:22:11.471Z</time>
</trkpt>
<trkpt lat="-27.5193480" lon="153.0511297">
<ele>41.659</ele>
<time>2015-12-02T04:22:13.747Z</time>
</trkpt>
<trkpt lat="-27.5189371" lon="153.0507804">
<ele>42.217</ele>
<time>2015-12-02T04:22:15.807Z</time>
</trkpt>
<trkpt lat="-27.5183440" lon="153.0501874">
<ele>41.674</ele>
<time>2015-12-02T04:22:18.995Z</time>
</trkpt>
<trkpt lat="-27.5180021" lon="153.0497656">
<ele>40.360</ele>
<time>2015-12-02T04:22:21.022Z</time>
</trkpt>
<trkpt lat="-27.5176720" lon="153.0493092">
<ele>39.177</ele>
<time>2015-12-02T04:22:23.104Z</time>
</trkpt>
<trkpt lat="-27.5172349" lon="153.0486640">
<ele>38.548</ele>
<time>2015-12-02T04:22:25.968Z</time>
</trkpt>
<trkpt lat="-27.5168966" lon="153.0478556">
<ele>38.287</ele>
<time>2015-12-02T04:22:29.126Z</time>
</trkpt>
<trkpt lat="-27.5166460" lon="153.0474329">
<ele>37.783</ele>
<time>2015-12-02T04:22:30.918Z</time>
</trkpt>
<trkpt lat="-27.5162368" lon="153.0467243">
<ele>36.810</ele>
<time>2015-12-02T04:22:33.879Z</time>
</trkpt>
<trkpt lat="-27.5159767" lon="153.0462489">
<ele>35.572</ele>
<time>2015-12-02T04:22:35.818Z</time>
</trkpt>
<trkpt lat="-27.5156279" lon="153.0454051">
<ele>34.349</ele>
<time>2015-12-02T04:22:39.044Z</time>
</trkpt>
<trkpt lat="-27.5154027" lon="153.0448794">
<ele>33.498</ele>
<time>2015-12-02T04:22:41.091Z</time>
</trkpt>
<trkpt lat="-27.5150419" lon="153.0440911">
<ele>33.195</ele>
<time>2015-12-02T04:22:44.236Z</time>
</trkpt>
<trkpt lat="-27.5147862" lon="153.0435719">
<ele>33.239</ele>
<time>2015-12-02T04:22:46.334Z</time>
</trkpt>
<trkpt lat="-27.5145392" lon="153.0430500">
<ele>33.428</ele>
<time>2015-12-02T04:22:48.369Z</time>
</trkpt>
<trkpt lat="-27.5142788" lon="153.0425526">
<ele>33.612</ele>
<time>2015-12-02T04:22:50.285Z</time>
</trkpt>
<trkpt lat="-27.5140133" lon="153.0420664">
<ele>33.709</ele>
<time>2015-12-02T04:22:52.170Z</time>
</trkpt>
<trkpt lat="-27.5135073" lon="153.0414096">
<ele>33.853</ele>
<time>2015-12-02T04:22:55.079Z</time>
</trkpt>
<trkpt lat="-27.5131408" lon="153.0410256">
<ele>34.145</ele>
<time>2015-12-02T04:22:56.971Z</time>
</trkpt>
<trkpt lat="-27.5125053" lon="153.0404990">
<ele>34.431</ele>
<time>2015-12-02T04:22:59.943Z</time>
</trkpt>
<trkpt lat="-27.5118420" lon="153.0400959">
<ele>34.601</ele>
<time>2015-12-02T04:23:02.827Z</time>
</trkpt>
<trkpt lat="-27.5113790" lon="153.0398270">
<ele>34.885</ele>
<time>2015-12-02T04:23:04.868Z</time>
</trkpt>
<trkpt lat="-27.5106633" lon="153.0394677">
<ele>35.406</ele>
<time>2015-12-02T04:23:07.967Z</time>
</trkpt>
<trkpt lat="-27.5099119" lon="153.0390948">
<ele>35.896</ele>
<time>2015-12-02T04:23:11.263Z</time>
</trkpt>
<trkpt lat="-27.5092226" lon="153.0387782">
<ele>36.097</ele>
<time>2015-12-02T04:23:14.215Z</time>
</trkpt>
<trkpt lat="-27.5084034" lon="153.0385324">
<ele>36.205</ele>
<time>2015-12-02T04:23:17.506Z</time>
</trkpt>
<trkpt lat="-27.5076074" lon="153.0385356">
<ele>36.880</ele>
<time>2015-12-02T04:23:20.560Z</time>
</trkpt>
<trkpt lat="-27.5070703" lon="153.0385643">
<ele>38.295</ele>
<time>2015-12-02T04:23:22.592Z</time>
</trkpt>
<trkpt lat="-27.5065277" lon="153.0385981">
<ele>39.633</ele>
<time>2015-12-02T04:23:24.637Z</time>
</trkpt>
<trkpt lat="-27.5057714" lon="153.0387980">
<ele>40.282</ele>
<time>2015-12-02T04:23:27.589Z</time>
</trkpt>
<trkpt lat="-27.5052392" lon="153.0388912">
<ele>40.475</ele>
<time>2015-12-02T04:23:29.655Z</time>
</trkpt>
<trkpt lat="-27.5047300" lon="153.0389924">
<ele>40.495</ele>
<time>2015-12-02T04:23:31.644Z</time>
</trkpt>
<trkpt lat="-27.5039727" lon="153.0391272">
<ele>40.416</ele>
<time>2015-12-02T04:23:34.598Z</time>
</trkpt>
<trkpt lat="-27.5034579" lon="153.0392189">
<ele>40.188</ele>
<time>2015-12-02T04:23:36.591Z</time>
</trkpt>
<trkpt lat="-27.5029491" lon="153.0393230">
<ele>39.592</ele>
<time>2015-12-02T04:23:38.575Z</time>
</trkpt>
<trkpt lat="-27.5021875" lon="153.0394685">
<ele>38.667</ele>
<time>2015-12-02T04:23:41.572Z</time>
</trkpt>
<trkpt lat="-27.5016714" lon="153.0395617">
<ele>37.958</ele>
<time>2015-12-02T04:23:43.610Z</time>
</trkpt>
<trkpt lat="-27.5009058" lon="153.0397001">
<ele>37.772</ele>
<time>2015-12-02T04:23:46.598Z</time>
</trkpt>
<trkpt lat="-27.5001643" lon="153.0397442">
<ele>37.606</ele>
<time>2015-12-02T04:23:49.429Z</time>
</trkpt>
<trkpt lat="-27.4994338" lon="153.0396922">
<ele>36.945</ele>
<time>2015-12-02T04:23:52.212Z</time>
</trkpt>
<trkpt lat="-27.4989767" lon="153.0396166">
<ele>35.902</ele>
<time>2015-12-02T04:23:53.965Z</time>
</trkpt>
<trkpt lat="-27.4983184" lon="153.0393979">
<ele>34.907</ele>
<time>2015-12-02T04:23:56.526Z</time>
</trkpt>
<trkpt lat="-27.4977181" lon="153.0390921">
<ele>34.528</ele>
<time>2015-12-02T04:23:58.977Z</time>
</trkpt>
<trkpt lat="-27.4973295" lon="153.0388620">
<ele>35.139</ele>
<time>2015-12-02T04:24:00.585Z</time>
</trkpt>
<trkpt lat="-27.4967798" lon="153.0384681">
<ele>36.510</ele>
<time>2015-12-02T04:24:02.983Z</time>
</trkpt>
<trkpt lat="-27.4962081" lon="153.0380639">
<ele>38.083</ele>
<time>2015-12-02T04:24:05.489Z</time>
</trkpt>
<trkpt lat="-27.4956861" lon="153.0376544">
<ele>39.268</ele>
<time>2015-12-02T04:24:07.858Z</time>
</trkpt>
<trkpt lat="-27.4953173" lon="153.0373764">
<ele>39.416</ele>
<time>2015-12-02T04:24:09.525Z</time>
</trkpt>
<trkpt lat="-27.4947867" lon="153.0369643">
<ele>38.414</ele>
<time>2015-12-02T04:24:11.966Z</time>
</trkpt>
<trkpt lat="-27.4944293" lon="153.0367004">
<ele>36.855</ele>
<time>2015-12-02T04:24:13.610Z</time>
</trkpt>
<trkpt lat="-27.4939768" lon="153.0362275">
<ele>35.202</ele>
<time>2015-12-02T04:24:16.005Z</time>
</trkpt>
<trkpt lat="-27.4935625" lon="153.0357058">
<ele>33.194</ele>
<time>2015-12-02T04:24:18.417Z</time>
</trkpt>
<trkpt lat="-27.4933384" lon="153.0353947">
<ele>30.589</ele>
<time>2015-12-02T04:24:19.790Z</time>
</trkpt>
<trkpt lat="-27.4931100" lon="153.0350476">
<ele>27.965</ele>
<time>2015-12-02T04:24:21.273Z</time>
</trkpt>
<trkpt lat="-27.4928990" lon="153.0347240">
<ele>26.260</ele>
<time>2015-12-02T04:24:22.652Z</time>
</trkpt>
<trkpt lat="-27.4925887" lon="153.0343076">
<ele>25.562</ele>
<time>2015-12-02T04:24:24.529Z</time>
</trkpt>
<trkpt lat="-27.4923727" lon="153.0340168">
<ele>25.183</ele>
<time>2015-12-02T04:24:25.840Z</time>
</trkpt>
<trkpt lat="-27.4920138" lon="153.0336301">
<ele>24.660</ele>
<time>2015-12-02T04:24:27.826Z</time>
</trkpt>
<trkpt lat="-27.4917259" lon="153.0334908">
<ele>23.968</ele>
<time>2015-12-02T04:24:29.084Z</time>
</trkpt>
<trkpt lat="-27.4913261" lon="153.0332913">
<ele>23.114</ele>
<time>2015-12-02T04:24:30.897Z</time>
</trkpt>
<trkpt lat="-27.4910536" lon="153.0332165">
<ele>21.791</ele>
<time>2015-12-02T04:24:32.087Z</time>
</trkpt>
<trkpt lat="-27.4906479" lon="153.0331570">
<ele>19.928</ele>
<time>2015-12-02T04:24:33.826Z</time>
</trkpt>
<trkpt lat="-27.4903917" lon="153.0331482">
<ele>17.775</ele>
<time>2015-12-02T04:24:34.941Z</time>
</trkpt>
<trkpt lat="-27.4901482" lon="153.0331344">
<ele>15.608</ele>
<time>2015-12-02T04:24:36.006Z</time>
</trkpt>
<trkpt lat="-27.4901482" lon="153.0331344">
<ele>15.608</ele>
<time>2015-12-02T04:24:36.006Z</time>
</trkpt>
<trkpt lat="-27.4454461" lon="153.0323982">
<ele>20.539</ele>
<time>2015-12-02T04:29:09.441Z</time>
</trkpt>
<trkpt lat="-27.4450560" lon="153.0322235">
<ele>20.530</ele>
<time>2015-12-02T04:29:12.106Z</time>
</trkpt>
<trkpt lat="-27.4445308" lon="153.0320489">
<ele>20.381</ele>
<time>2015-12-02T04:29:15.480Z</time>
</trkpt>
<trkpt lat="-27.4441660" lon="153.0319103">
<ele>19.942</ele>
<time>2015-12-02T04:29:17.492Z</time>
</trkpt>
<trkpt lat="-27.4435982" lon="153.0317119">
<ele>19.451</ele>
<time>2015-12-02T04:29:20.569Z</time>
</trkpt>
<trkpt lat="-27.4432184" lon="153.0316437">
<ele>19.248</ele>
<time>2015-12-02T04:29:22.543Z</time>
</trkpt>
<trkpt lat="-27.4428538" lon="153.0316170">
<ele>19.357</ele>
<time>2015-12-02T04:29:24.404Z</time>
</trkpt>
<trkpt lat="-27.4422681" lon="153.0316114">
<ele>19.622</ele>
<time>2015-12-02T04:29:27.401Z</time>
</trkpt>
<trkpt lat="-27.4416859" lon="153.0316273">
<ele>19.781</ele>
<time>2015-12-02T04:29:30.404Z</time>
</trkpt>
<trkpt lat="-27.4413272" lon="153.0316041">
<ele>19.069</ele>
<time>2015-12-02T04:29:32.248Z</time>
</trkpt>
<trkpt lat="-27.4413272" lon="153.0316041">
<ele>19.069</ele>
<time>2015-12-02T04:29:32.248Z</time>
</trkpt>
<trkpt lat="-27.4147588" lon="153.0357252">
<ele>23.626</ele>
<time>2015-12-02T04:32:02.759Z</time>
</trkpt>
<trkpt lat="-27.4143704" lon="153.0354258">
<ele>23.615</ele>
<time>2015-12-02T04:32:05.762Z</time>
</trkpt>
<trkpt lat="-27.4140241" lon="153.0350852">
<ele>23.611</ele>
<time>2015-12-02T04:32:08.691Z</time>
</trkpt>
<trkpt lat="-27.4137866" lon="153.0348351">
<ele>23.939</ele>
<time>2015-12-02T04:32:10.743Z</time>
</trkpt>
<trkpt lat="-27.4135787" lon="153.0345945">
<ele>25.170</ele>
<time>2015-12-02T04:32:12.630Z</time>
</trkpt>
<trkpt lat="-27.4132446" lon="153.0342116">
<ele>27.162</ele>
<time>2015-12-02T04:32:15.676Z</time>
</trkpt>
<trkpt lat="-27.4129189" lon="153.0338411">
<ele>29.251</ele>
<time>2015-12-02T04:32:18.643Z</time>
</trkpt>
<trkpt lat="-27.4126517" lon="153.0334122">
<ele>31.319</ele>
<time>2015-12-02T04:32:21.638Z</time>
</trkpt>
<trkpt lat="-27.4124975" lon="153.0329254">
<ele>33.242</ele>
<time>2015-12-02T04:32:24.679Z</time>
</trkpt>
<trkpt lat="-27.4124307" lon="153.0324551">
<ele>34.427</ele>
<time>2015-12-02T04:32:27.513Z</time>
</trkpt>
<trkpt lat="-27.4123459" lon="153.0319319">
<ele>34.338</ele>
<time>2015-12-02T04:32:30.610Z</time>
</trkpt>
<trkpt lat="-27.4123120" lon="153.0313989">
<ele>32.620</ele>
<time>2015-12-02T04:32:33.684Z</time>
</trkpt>
<trkpt lat="-27.4123023" lon="153.0308912">
<ele>29.649</ele>
<time>2015-12-02T04:32:36.611Z</time>
</trkpt>
<trkpt lat="-27.4123031" lon="153.0305268">
<ele>26.861</ele>
<time>2015-12-02T04:32:38.655Z</time>
</trkpt>
<trkpt lat="-27.4122683" lon="153.0301676">
<ele>25.456</ele>
<time>2015-12-02T04:32:40.638Z</time>
</trkpt>
<trkpt lat="-27.4122006" lon="153.0296062">
<ele>25.568</ele>
<time>2015-12-02T04:32:43.720Z</time>
</trkpt>
<trkpt lat="-27.4120973" lon="153.0290722">
<ele>27.162</ele>
<time>2015-12-02T04:32:46.718Z</time>
</trkpt>
<trkpt lat="-27.4120743" lon="153.0287325">
<ele>30.158</ele>
<time>2015-12-02T04:32:48.600Z</time>
</trkpt>
<trkpt lat="-27.4120645" lon="153.0284113">
<ele>33.832</ele>
<time>2015-12-02T04:32:50.365Z</time>
</trkpt>
<trkpt lat="-27.4120233" lon="153.0278512">
<ele>37.025</ele>
<time>2015-12-02T04:32:53.464Z</time>
</trkpt>
<trkpt lat="-27.4119666" lon="153.0275629">
<ele>38.918</ele>
<time>2015-12-02T04:32:55.087Z</time>
</trkpt>
<trkpt lat="-27.4119015" lon="153.0270168">
<ele>39.748</ele>
<time>2015-12-02T04:32:58.047Z</time>
</trkpt>
<trkpt lat="-27.4118657" lon="153.0266284">
<ele>40.510</ele>
<time>2015-12-02T04:33:00.163Z</time>
</trkpt>
<trkpt lat="-27.4118026" lon="153.0263570">
<ele>41.601</ele>
<time>2015-12-02T04:33:01.761Z</time>
</trkpt>
<trkpt lat="-27.4117174" lon="153.0258546">
<ele>42.711</ele>
<time>2015-12-02T04:33:04.734Z</time>
</trkpt>
<trkpt lat="-27.4116635" lon="153.0253677">
<ele>43.492</ele>
<time>2015-12-02T04:33:07.674Z</time>
</trkpt>
<trkpt lat="-27.4116134" lon="153.0250541">
<ele>43.734</ele>
<time>2015-12-02T04:33:09.613Z</time>
</trkpt>
<trkpt lat="-27.4115719" lon="153.0247297">
<ele>43.291</ele>
<time>2015-12-02T04:33:11.568Z</time>
</trkpt>
<trkpt lat="-27.4115187" lon="153.0243756">
<ele>42.213</ele>
<time>2015-12-02T04:33:13.654Z</time>
</trkpt>
<trkpt lat="-27.4114367" lon="153.0238480">
<ele>40.963</ele>
<time>2015-12-02T04:33:16.700Z</time>
</trkpt>
<trkpt lat="-27.4113959" lon="153.0234848">
<ele>39.609</ele>
<time>2015-12-02T04:33:18.747Z</time>
</trkpt>
<trkpt lat="-27.4113326" lon="153.0231593">
<ele>37.967</ele>
<time>2015-12-02T04:33:20.651Z</time>
</trkpt>
<trkpt lat="-27.4112697" lon="153.0226736">
<ele>36.458</ele>
<time>2015-12-02T04:33:23.506Z</time>
</trkpt>
<trkpt lat="-27.4112207" lon="153.0223586">
<ele>35.534</ele>
<time>2015-12-02T04:33:25.387Z</time>
</trkpt>
<trkpt lat="-27.4111378" lon="153.0218459">
<ele>35.047</ele>
<time>2015-12-02T04:33:28.445Z</time>
</trkpt>
<trkpt lat="-27.4110650" lon="153.0213847">
<ele>34.689</ele>
<time>2015-12-02T04:33:31.189Z</time>
</trkpt>
<trkpt lat="-27.4110239" lon="153.0210680">
<ele>33.905</ele>
<time>2015-12-02T04:33:33.030Z</time>
</trkpt>
<trkpt lat="-27.4109550" lon="153.0204955">
<ele>32.514</ele>
<time>2015-12-02T04:33:36.250Z</time>
</trkpt>
<trkpt lat="-27.4109089" lon="153.0201252">
<ele>31.220</ele>
<time>2015-12-02T04:33:38.262Z</time>
</trkpt>
<trkpt lat="-27.4108558" lon="153.0195438">
<ele>30.663</ele>
<time>2015-12-02T04:33:41.404Z</time>
</trkpt>
<trkpt lat="-27.4108198" lon="153.0191840">
<ele>30.982</ele>
<time>2015-12-02T04:33:43.363Z</time>
</trkpt>
<trkpt lat="-27.4107821" lon="153.0188295">
<ele>32.095</ele>
<time>2015-12-02T04:33:45.367Z</time>
</trkpt>
<trkpt lat="-27.4107256" lon="153.0183365">
<ele>33.391</ele>
<time>2015-12-02T04:33:48.268Z</time>
</trkpt>
<trkpt lat="-27.4107038" lon="153.0180010">
<ele>33.899</ele>
<time>2015-12-02T04:33:50.453Z</time>
</trkpt>
<trkpt lat="-27.4106373" lon="153.0176508">
<ele>33.058</ele>
<time>2015-12-02T04:33:53.099Z</time>
</trkpt>
<trkpt lat="-27.4106134" lon="153.0174569">
<ele>30.947</ele>
<time>2015-12-02T04:33:54.959Z</time>
</trkpt>
<trkpt lat="-27.4105847" lon="153.0173008">
<ele>28.378</ele>
<time>2015-12-02T04:33:57.023Z</time>
</trkpt>
<trkpt lat="-27.4105607" lon="153.0171831">
<ele>26.317</ele>
<time>2015-12-02T04:33:58.999Z</time>
</trkpt>
<trkpt lat="-27.4105607" lon="153.0171831">
<ele>25.159</ele>
<time>2015-12-02T04:34:02.999Z</time>
</trkpt>
<trkpt lat="-27.4105607" lon="153.0171831">
<ele>24.763</ele>
<time>2015-12-02T04:35:16.819Z</time>
</trkpt>
<trkpt lat="-27.4105598" lon="153.0169528">
<ele>24.988</ele>
<time>2015-12-02T04:35:22.177Z</time>
</trkpt>
<trkpt lat="-27.4105036" lon="153.0166024">
<ele>25.786</ele>
<time>2015-12-02T04:35:25.404Z</time>
</trkpt>
<trkpt lat="-27.4104428" lon="153.0161667">
<ele>27.290</ele>
<time>2015-12-02T04:35:28.416Z</time>
</trkpt>
<trkpt lat="-27.4103761" lon="153.0157029">
<ele>29.255</ele>
<time>2015-12-02T04:35:31.298Z</time>
</trkpt>
<trkpt lat="-27.4103098" lon="153.0152171">
<ele>30.840</ele>
<time>2015-12-02T04:35:34.237Z</time>
</trkpt>
<trkpt lat="-27.4102466" lon="153.0148060">
<ele>31.437</ele>
<time>2015-12-02T04:35:36.902Z</time>
</trkpt>
<trkpt lat="-27.4102110" lon="153.0146112">
<ele>31.097</ele>
<time>2015-12-02T04:35:38.349Z</time>
</trkpt>
<trkpt lat="-27.4101782" lon="153.0143510">
<ele>30.212</ele>
<time>2015-12-02T04:35:40.755Z</time>
</trkpt>
<trkpt lat="-27.4101622" lon="153.0141682">
<ele>29.216</ele>
<time>2015-12-02T04:35:43.000Z</time>
</trkpt>
<trkpt lat="-27.4101622" lon="153.0141682">
<ele>28.387</ele>
<time>2015-12-02T04:35:51.000Z</time>
</trkpt>
<trkpt lat="-27.4101622" lon="153.0141682">
<ele>27.960</ele>
<time>2015-12-02T04:35:51.241Z</time>
</trkpt>
<trkpt lat="-27.4101368" lon="153.0139161">
<ele>27.988</ele>
<time>2015-12-02T04:35:56.504Z</time>
</trkpt>
<trkpt lat="-27.4101190" lon="153.0138016">
<ele>28.191</ele>
<time>2015-12-02T04:35:57.727Z</time>
</trkpt>
<trkpt lat="-27.4100719" lon="153.0135023">
<ele>28.347</ele>
<time>2015-12-02T04:36:00.461Z</time>
</trkpt>
<trkpt lat="-27.4099925" lon="153.0131369">
<ele>28.570</ele>
<time>2015-12-02T04:36:03.497Z</time>
</trkpt>
<trkpt lat="-27.4099369" lon="153.0128948">
<ele>28.973</ele>
<time>2015-12-02T04:36:05.369Z</time>
</trkpt>
<trkpt lat="-27.4098661" lon="153.0124649">
<ele>29.358</ele>
<time>2015-12-02T04:36:08.626Z</time>
</trkpt>
<trkpt lat="-27.4098300" lon="153.0122363">
<ele>29.448</ele>
<time>2015-12-02T04:36:10.339Z</time>
</trkpt>
<trkpt lat="-27.4097758" lon="153.0117695">
<ele>29.190</ele>
<time>2015-12-02T04:36:13.694Z</time>
</trkpt>
<trkpt lat="-27.4097578" lon="153.0114610">
<ele>28.739</ele>
<time>2015-12-02T04:36:15.788Z</time>
</trkpt>
<trkpt lat="-27.4097059" lon="153.0110354">
<ele>28.315</ele>
<time>2015-12-02T04:36:18.707Z</time>
</trkpt>
<trkpt lat="-27.4096598" lon="153.0107562">
<ele>28.022</ele>
<time>2015-12-02T04:36:20.689Z</time>
</trkpt>
<trkpt lat="-27.4096116" lon="153.0103423">
<ele>27.841</ele>
<time>2015-12-02T04:36:23.648Z</time>
</trkpt>
<trkpt lat="-27.4095704" lon="153.0100691">
<ele>27.715</ele>
<time>2015-12-02T04:36:25.666Z</time>
</trkpt>
<trkpt lat="-27.4095359" lon="153.0098726">
<ele>27.617</ele>
<time>2015-12-02T04:36:27.079Z</time>
</trkpt>
<trkpt lat="-27.4094669" lon="153.0093856">
<ele>27.544</ele>
<time>2015-12-02T04:36:30.380Z</time>
</trkpt>
<trkpt lat="-27.4094347" lon="153.0090666">
<ele>27.717</ele>
<time>2015-12-02T04:36:32.384Z</time>
</trkpt>
<trkpt lat="-27.4093701" lon="153.0086341">
<ele>28.271</ele>
<time>2015-12-02T04:36:35.178Z</time>
</trkpt>
<trkpt lat="-27.4093406" lon="153.0083718">
<ele>28.719</ele>
<time>2015-12-02T04:36:37.261Z</time>
</trkpt>
<trkpt lat="-27.4093147" lon="153.0081805">
<ele>28.543</ele>
<time>2015-12-02T04:36:39.000Z</time>
</trkpt>
<trkpt lat="-27.4093147" lon="153.0081805">
<ele>27.958</ele>
<time>2015-12-02T04:36:45.000Z</time>
</trkpt>
<trkpt lat="-27.4093147" lon="153.0081805">
<ele>27.547</ele>
<time>2015-12-02T04:37:28.290Z</time>
</trkpt>
<trkpt lat="-27.4092998" lon="153.0078972">
<ele>27.633</ele>
<time>2015-12-02T04:38:10.784Z</time>
</trkpt>
<trkpt lat="-27.4092735" lon="153.0077254">
<ele>28.203</ele>
<time>2015-12-02T04:38:12.635Z</time>
</trkpt>
<trkpt lat="-27.4092423" lon="153.0074877">
<ele>29.115</ele>
<time>2015-12-02T04:38:14.673Z</time>
</trkpt>
<trkpt lat="-27.4092150" lon="153.0072558">
<ele>30.274</ele>
<time>2015-12-02T04:38:16.449Z</time>
</trkpt>
<trkpt lat="-27.4091673" lon="153.0070207">
<ele>31.477</ele>
<time>2015-12-02T04:38:18.139Z</time>
</trkpt>
<trkpt lat="-27.4090953" lon="153.0065878">
<ele>32.379</ele>
<time>2015-12-02T04:38:20.996Z</time>
</trkpt>
<trkpt lat="-27.4090221" lon="153.0061178">
<ele>32.979</ele>
<time>2015-12-02T04:38:23.896Z</time>
</trkpt>
<trkpt lat="-27.4089751" lon="153.0057914">
<ele>33.821</ele>
<time>2015-12-02T04:38:25.885Z</time>
</trkpt>
<trkpt lat="-27.4089100" lon="153.0054783">
<ele>35.100</ele>
<time>2015-12-02T04:38:27.796Z</time>
</trkpt>
<trkpt lat="-27.4088313" lon="153.0049740">
<ele>36.790</ele>
<time>2015-12-02T04:38:30.754Z</time>
</trkpt>
<trkpt lat="-27.4087808" lon="153.0046331">
<ele>39.006</ele>
<time>2015-12-02T04:38:32.687Z</time>
</trkpt>
<trkpt lat="-27.4087301" lon="153.0042954">
<ele>41.266</ele>
<time>2015-12-02T04:38:34.599Z</time>
</trkpt>
<trkpt lat="-27.4086373" lon="153.0037943">
<ele>42.795</ele>
<time>2015-12-02T04:38:37.468Z</time>
</trkpt>
<trkpt lat="-27.4085920" lon="153.0035140">
<ele>43.588</ele>
<time>2015-12-02T04:38:39.078Z</time>
</trkpt>
<trkpt lat="-27.4085606" lon="153.0029074">
<ele>44.194</ele>
<time>2015-12-02T04:38:42.478Z</time>
</trkpt>
<trkpt lat="-27.4084993" lon="153.0025070">
<ele>45.100</ele>
<time>2015-12-02T04:38:44.638Z</time>
</trkpt>
<trkpt lat="-27.4084066" lon="153.0019715">
<ele>46.394</ele>
<time>2015-12-02T04:38:47.482Z</time>
</trkpt>
<trkpt lat="-27.4083622" lon="153.0016089">
<ele>47.986</ele>
<time>2015-12-02T04:38:49.412Z</time>
</trkpt>
<trkpt lat="-27.4082801" lon="153.0011354">
<ele>49.898</ele>
<time>2015-12-02T04:38:52.015Z</time>
</trkpt>
<trkpt lat="-27.4082115" lon="153.0007869">
<ele>52.023</ele>
<time>2015-12-02T04:38:54.058Z</time>
</trkpt>
<trkpt lat="-27.4081200" lon="153.0003151">
<ele>54.129</ele>
<time>2015-12-02T04:38:57.016Z</time>
</trkpt>
<trkpt lat="-27.4080072" lon="153.0000434">
<ele>56.028</ele>
<time>2015-12-02T04:38:59.030Z</time>
</trkpt>
<trkpt lat="-27.4078095" lon="152.9996819">
<ele>57.459</ele>
<time>2015-12-02T04:39:01.985Z</time>
</trkpt>
<trkpt lat="-27.4077043" lon="152.9994505">
<ele>58.156</ele>
<time>2015-12-02T04:39:03.892Z</time>
</trkpt>
<trkpt lat="-27.4075508" lon="152.9991129">
<ele>58.118</ele>
<time>2015-12-02T04:39:06.884Z</time>
</trkpt>
<trkpt lat="-27.4074123" lon="152.9988078">
<ele>57.303</ele>
<time>2015-12-02T04:39:10.169Z</time>
</trkpt>
<trkpt lat="-27.4073247" lon="152.9986175">
<ele>55.637</ele>
<time>2015-12-02T04:39:13.393Z</time>
</trkpt>
<trkpt lat="-27.4072808" lon="152.9985180">
<ele>53.365</ele>
<time>2015-12-02T04:39:16.000Z</time>
</trkpt>
<trkpt lat="-27.4072808" lon="152.9985180">
<ele>51.174</ele>
<time>2015-12-02T04:39:18.000Z</time>
</trkpt>
<trkpt lat="-27.4072808" lon="152.9985180">
<ele>49.992</ele>
<time>2015-12-02T04:39:27.679Z</time>
</trkpt>
<trkpt lat="-27.4072345" lon="152.9983018">
<ele>50.070</ele>
<time>2015-12-02T04:39:32.053Z</time>
</trkpt>
<trkpt lat="-27.4072678" lon="152.9979393">
<ele>50.528</ele>
<time>2015-12-02T04:39:35.187Z</time>
</trkpt>
<trkpt lat="-27.4073123" lon="152.9976682">
<ele>50.610</ele>
<time>2015-12-02T04:39:37.041Z</time>
</trkpt>
<trkpt lat="-27.4073738" lon="152.9973043">
<ele>50.315</ele>
<time>2015-12-02T04:39:39.342Z</time>
</trkpt>
<trkpt lat="-27.4074620" lon="152.9967963">
<ele>49.665</ele>
<time>2015-12-02T04:39:42.377Z</time>
</trkpt>
<trkpt lat="-27.4075068" lon="152.9963094">
<ele>48.347</ele>
<time>2015-12-02T04:39:45.155Z</time>
</trkpt>
<trkpt lat="-27.4074912" lon="152.9959688">
<ele>46.127</ele>
<time>2015-12-02T04:39:47.132Z</time>
</trkpt>
<trkpt lat="-27.4074298" lon="152.9955104">
<ele>43.504</ele>
<time>2015-12-02T04:39:49.872Z</time>
</trkpt>
<trkpt lat="-27.4073946" lon="152.9951767">
<ele>41.202</ele>
<time>2015-12-02T04:39:51.888Z</time>
</trkpt>
<trkpt lat="-27.4073275" lon="152.9947693">
<ele>39.507</ele>
<time>2015-12-02T04:39:54.449Z</time>
</trkpt>
<trkpt lat="-27.4072832" lon="152.9944277">
<ele>38.379</ele>
<time>2015-12-02T04:39:56.864Z</time>
</trkpt>
<trkpt lat="-27.4072476" lon="152.9940857">
<ele>37.554</ele>
<time>2015-12-02T04:39:59.935Z</time>
</trkpt>
<trkpt lat="-27.4072313" lon="152.9939266">
<ele>36.573</ele>
<time>2015-12-02T04:40:02.000Z</time>
</trkpt>
<trkpt lat="-27.4072313" lon="152.9939266">
<ele>35.471</ele>
<time>2015-12-02T04:40:06.000Z</time>
</trkpt>
<trkpt lat="-27.4072313" lon="152.9939266">
<ele>34.800</ele>
<time>2015-12-02T04:40:16.113Z</time>
</trkpt>
<trkpt lat="-27.4072074" lon="152.9936956">
<ele>34.827</ele>
<time>2015-12-02T04:40:21.537Z</time>
</trkpt>
<trkpt lat="-27.4071878" lon="152.9935458">
<ele>34.887</ele>
<time>2015-12-02T04:40:23.458Z</time>
</trkpt>
<trkpt lat="-27.4071546" lon="152.9933256">
<ele>34.350</ele>
<time>2015-12-02T04:40:26.148Z</time>
</trkpt>
<trkpt lat="-27.4071245" lon="152.9931494">
<ele>33.504</ele>
<time>2015-12-02T04:40:28.282Z</time>
</trkpt>
<trkpt lat="-27.4070981" lon="152.9930024">
<ele>32.892</ele>
<time>2015-12-02T04:40:30.254Z</time>
</trkpt>
<trkpt lat="-27.4070706" lon="152.9928254">
<ele>32.613</ele>
<time>2015-12-02T04:40:32.884Z</time>
</trkpt>
<trkpt lat="-27.4070481" lon="152.9927233">
<ele>32.559</ele>
<time>2015-12-02T04:40:34.736Z</time>
</trkpt>
<trkpt lat="-27.4070154" lon="152.9925630">
<ele>32.606</ele>
<time>2015-12-02T04:40:38.000Z</time>
</trkpt>
<trkpt lat="-27.4070154" lon="152.9925630">
<ele>32.662</ele>
<time>2015-12-02T04:40:43.000Z</time>
</trkpt>
<trkpt lat="-27.4070154" lon="152.9925630">
<ele>32.684</ele>
<time>2015-12-02T04:41:00.244Z</time>
</trkpt>
<trkpt lat="-27.4070019" lon="152.9922854">
<ele>32.668</ele>
<time>2015-12-02T04:41:06.509Z</time>
</trkpt>
<trkpt lat="-27.4070238" lon="152.9920655">
<ele>32.750</ele>
<time>2015-12-02T04:41:09.324Z</time>
</trkpt>
<trkpt lat="-27.4070634" lon="152.9919365">
<ele>33.102</ele>
<time>2015-12-02T04:41:11.059Z</time>
</trkpt>
<trkpt lat="-27.4071059" lon="152.9917729">
<ele>33.604</ele>
<time>2015-12-02T04:41:13.590Z</time>
</trkpt>
<trkpt lat="-27.4071499" lon="152.9916542">
<ele>33.928</ele>
<time>2015-12-02T04:41:16.000Z</time>
</trkpt>
<trkpt lat="-27.4071499" lon="152.9916542">
<ele>33.964</ele>
<time>2015-12-02T04:41:22.000Z</time>
</trkpt>
<trkpt lat="-27.4071499" lon="152.9916542">
<ele>33.882</ele>
<time>2015-12-02T04:43:04.748Z</time>
</trkpt>
<trkpt lat="-27.4071959" lon="152.9914397">
<ele>33.849</ele>
<time>2015-12-02T04:43:11.977Z</time>
</trkpt>
<trkpt lat="-27.4072113" lon="152.9913049">
<ele>33.932</ele>
<time>2015-12-02T04:43:14.150Z</time>
</trkpt>
<trkpt lat="-27.4072347" lon="152.9911289">
<ele>34.177</ele>
<time>2015-12-02T04:43:16.912Z</time>
</trkpt>
<trkpt lat="-27.4072771" lon="152.9909584">
<ele>34.551</ele>
<time>2015-12-02T04:43:19.611Z</time>
</trkpt>
<trkpt lat="-27.4071392" lon="152.9908480">
<ele>35.110</ele>
<time>2015-12-02T04:43:21.928Z</time>
</trkpt>
<trkpt lat="-27.4069303" lon="152.9907932">
<ele>35.948</ele>
<time>2015-12-02T04:43:23.816Z</time>
</trkpt>
<trkpt lat="-27.4065719" lon="152.9907846">
<ele>37.046</ele>
<time>2015-12-02T04:43:26.524Z</time>
</trkpt>
<trkpt lat="-27.4062060" lon="152.9907043">
<ele>38.444</ele>
<time>2015-12-02T04:43:28.977Z</time>
</trkpt>
<trkpt lat="-27.4059478" lon="152.9905796">
<ele>39.926</ele>
<time>2015-12-02T04:43:30.802Z</time>
</trkpt>
<trkpt lat="-27.4057464" lon="152.9903302">
<ele>40.916</ele>
<time>2015-12-02T04:43:32.670Z</time>
</trkpt>
<trkpt lat="-27.4055307" lon="152.9900326">
<ele>41.503</ele>
<time>2015-12-02T04:43:34.700Z</time>
</trkpt>
<trkpt lat="-27.4052318" lon="152.9896157">
<ele>42.266</ele>
<time>2015-12-02T04:43:37.451Z</time>
</trkpt>
<trkpt lat="-27.4049764" lon="152.9893404">
<ele>43.147</ele>
<time>2015-12-02T04:43:39.494Z</time>
</trkpt>
<trkpt lat="-27.4048262" lon="152.9888603">
<ele>43.618</ele>
<time>2015-12-02T04:43:42.216Z</time>
</trkpt>
<trkpt lat="-27.4046355" lon="152.9886434">
<ele>43.548</ele>
<time>2015-12-02T04:43:43.958Z</time>
</trkpt>
<trkpt lat="-27.4042729" lon="152.9883544">
<ele>43.265</ele>
<time>2015-12-02T04:43:46.895Z</time>
</trkpt>
<trkpt lat="-27.4039265" lon="152.9880628">
<ele>42.902</ele>
<time>2015-12-02T04:43:49.901Z</time>
</trkpt>
<trkpt lat="-27.4037298" lon="152.9878972">
<ele>42.392</ele>
<time>2015-12-02T04:43:51.779Z</time>
</trkpt>
<trkpt lat="-27.4035592" lon="152.9877442">
<ele>41.934</ele>
<time>2015-12-02T04:43:53.688Z</time>
</trkpt>
<trkpt lat="-27.4033617" lon="152.9875747">
<ele>41.685</ele>
<time>2015-12-02T04:43:56.337Z</time>
</trkpt>
<trkpt lat="-27.4032778" lon="152.9874954">
<ele>41.321</ele>
<time>2015-12-02T04:43:57.999Z</time>
</trkpt>
<trkpt lat="-27.4032778" lon="152.9874954">
<ele>40.671</ele>
<time>2015-12-02T04:44:02.999Z</time>
</trkpt>
<trkpt lat="-27.4032778" lon="152.9874954">
<ele>40.174</ele>
<time>2015-12-02T04:44:15.247Z</time>
</trkpt>
<trkpt lat="-27.4031242" lon="152.9873591">
<ele>40.171</ele>
<time>2015-12-02T04:44:20.305Z</time>
</trkpt>
<trkpt lat="-27.4029211" lon="152.9871506">
<ele>40.412</ele>
<time>2015-12-02T04:44:23.415Z</time>
</trkpt>
<trkpt lat="-27.4027950" lon="152.9870435">
<ele>40.849</ele>
<time>2015-12-02T04:44:24.820Z</time>
</trkpt>
<trkpt lat="-27.4025225" lon="152.9869336">
<ele>41.602</ele>
<time>2015-12-02T04:44:27.232Z</time>
</trkpt>
<trkpt lat="-27.4021175" lon="152.9868733">
<ele>42.462</ele>
<time>2015-12-02T04:44:30.298Z</time>
</trkpt>
<trkpt lat="-27.4017175" lon="152.9868446">
<ele>43.375</ele>
<time>2015-12-02T04:44:33.152Z</time>
</trkpt>
<trkpt lat="-27.4014444" lon="152.9867621">
<ele>44.558</ele>
<time>2015-12-02T04:44:35.177Z</time>
</trkpt>
<trkpt lat="-27.4010832" lon="152.9865647">
<ele>46.018</ele>
<time>2015-12-02T04:44:38.186Z</time>
</trkpt>
<trkpt lat="-27.4008706" lon="152.9864563">
<ele>47.442</ele>
<time>2015-12-02T04:44:40.193Z</time>
</trkpt>
<trkpt lat="-27.4006144" lon="152.9863802">
<ele>48.526</ele>
<time>2015-12-02T04:44:42.598Z</time>
</trkpt>
<trkpt lat="-27.4002116" lon="152.9863254">
<ele>49.332</ele>
<time>2015-12-02T04:44:45.978Z</time>
</trkpt>
<trkpt lat="-27.3997740" lon="152.9862343">
<ele>50.382</ele>
<time>2015-12-02T04:44:49.074Z</time>
</trkpt>
<trkpt lat="-27.3994689" lon="152.9861748">
<ele>52.312</ele>
<time>2015-12-02T04:44:51.143Z</time>
</trkpt>
<trkpt lat="-27.3990439" lon="152.9861255">
<ele>55.233</ele>
<time>2015-12-02T04:44:54.132Z</time>
</trkpt>
<trkpt lat="-27.3986608" lon="152.9862611">
<ele>58.444</ele>
<time>2015-12-02T04:44:57.025Z</time>
</trkpt>
<trkpt lat="-27.3982767" lon="152.9865446">
<ele>61.777</ele>
<time>2015-12-02T04:45:00.213Z</time>
</trkpt>
<trkpt lat="-27.3980264" lon="152.9867188">
<ele>66.171</ele>
<time>2015-12-02T04:45:02.331Z</time>
</trkpt>
<trkpt lat="-27.3976893" lon="152.9869135">
<ele>71.381</ele>
<time>2015-12-02T04:45:05.342Z</time>
</trkpt>
<trkpt lat="-27.3973589" lon="152.9869104">
<ele>75.349</ele>
<time>2015-12-02T04:45:08.255Z</time>
</trkpt>
<trkpt lat="-27.3970380" lon="152.9867797">
<ele>76.883</ele>
<time>2015-12-02T04:45:11.254Z</time>
</trkpt>
<trkpt lat="-27.3968042" lon="152.9866637">
<ele>76.435</ele>
<time>2015-12-02T04:45:13.282Z</time>
</trkpt>
<trkpt lat="-27.3964357" lon="152.9864965">
<ele>74.606</ele>
<time>2015-12-02T04:45:16.170Z</time>
</trkpt>
<trkpt lat="-27.3961422" lon="152.9863564">
<ele>71.810</ele>
<time>2015-12-02T04:45:18.245Z</time>
</trkpt>
<trkpt lat="-27.3958494" lon="152.9862228">
<ele>68.740</ele>
<time>2015-12-02T04:45:20.250Z</time>
</trkpt>
<trkpt lat="-27.3954213" lon="152.9860407">
<ele>66.377</ele>
<time>2015-12-02T04:45:23.202Z</time>
</trkpt>
<trkpt lat="-27.3950128" lon="152.9858640">
<ele>65.455</ele>
<time>2015-12-02T04:45:26.101Z</time>
</trkpt>
<trkpt lat="-27.3945801" lon="152.9856806">
<ele>66.470</ele>
<time>2015-12-02T04:45:29.110Z</time>
</trkpt>
<trkpt lat="-27.3943107" lon="152.9855614">
<ele>69.633</ele>
<time>2015-12-02T04:45:30.871Z</time>
</trkpt>
<trkpt lat="-27.3937897" lon="152.9853264">
<ele>73.924</ele>
<time>2015-12-02T04:45:34.071Z</time>
</trkpt>
<trkpt lat="-27.3934458" lon="152.9851739">
<ele>77.352</ele>
<time>2015-12-02T04:45:36.047Z</time>
</trkpt>
<trkpt lat="-27.3931580" lon="152.9850525">
<ele>78.583</ele>
<time>2015-12-02T04:45:37.720Z</time>
</trkpt>
<trkpt lat="-27.3926795" lon="152.9848644">
<ele>77.562</ele>
<time>2015-12-02T04:45:40.624Z</time>
</trkpt>
<trkpt lat="-27.3921955" lon="152.9848352">
<ele>75.427</ele>
<time>2015-12-02T04:45:43.570Z</time>
</trkpt>
<trkpt lat="-27.3918813" lon="152.9848837">
<ele>74.160</ele>
<time>2015-12-02T04:45:45.515Z</time>
</trkpt>
<trkpt lat="-27.3914221" lon="152.9849619">
<ele>75.201</ele>
<time>2015-12-02T04:45:48.332Z</time>
</trkpt>
<trkpt lat="-27.3908473" lon="152.9850483">
<ele>78.476</ele>
<time>2015-12-02T04:45:51.824Z</time>
</trkpt>
<trkpt lat="-27.3903252" lon="152.9850417">
<ele>82.469</ele>
<time>2015-12-02T04:45:54.952Z</time>
</trkpt>
<trkpt lat="-27.3898219" lon="152.9850073">
<ele>85.375</ele>
<time>2015-12-02T04:45:57.953Z</time>
</trkpt>
<trkpt lat="-27.3895001" lon="152.9849790">
<ele>86.404</ele>
<time>2015-12-02T04:45:59.883Z</time>
</trkpt>
<trkpt lat="-27.3890197" lon="152.9849194">
<ele>85.913</ele>
<time>2015-12-02T04:46:02.767Z</time>
</trkpt>
<trkpt lat="-27.3886633" lon="152.9848543">
<ele>84.613</ele>
<time>2015-12-02T04:46:04.854Z</time>
</trkpt>
<trkpt lat="-27.3883076" lon="152.9848097">
<ele>82.876</ele>
<time>2015-12-02T04:46:06.861Z</time>
</trkpt>
<trkpt lat="-27.3877674" lon="152.9847573">
<ele>80.805</ele>
<time>2015-12-02T04:46:09.850Z</time>
</trkpt>
<trkpt lat="-27.3872241" lon="152.9847093">
<ele>78.439</ele>
<time>2015-12-02T04:46:12.820Z</time>
</trkpt>
<trkpt lat="-27.3868624" lon="152.9846903">
<ele>75.839</ele>
<time>2015-12-02T04:46:14.766Z</time>
</trkpt>
<trkpt lat="-27.3863038" lon="152.9846639">
<ele>73.559</ele>
<time>2015-12-02T04:46:17.724Z</time>
</trkpt>
<trkpt lat="-27.3857675" lon="152.9844819">
<ele>72.691</ele>
<time>2015-12-02T04:46:20.671Z</time>
</trkpt>
<trkpt lat="-27.3854583" lon="152.9842466">
<ele>73.850</ele>
<time>2015-12-02T04:46:22.706Z</time>
</trkpt>
<trkpt lat="-27.3850299" lon="152.9839269">
<ele>76.226</ele>
<time>2015-12-02T04:46:25.758Z</time>
</trkpt>
<trkpt lat="-27.3846843" lon="152.9837193">
<ele>78.168</ele>
<time>2015-12-02T04:46:28.697Z</time>
</trkpt>
<trkpt lat="-27.3845427" lon="152.9836513">
<ele>78.026</ele>
<time>2015-12-02T04:46:30.362Z</time>
</trkpt>
<trkpt lat="-27.3844377" lon="152.9836059">
<ele>75.266</ele>
<time>2015-12-02T04:46:31.999Z</time>
</trkpt>
<trkpt lat="-27.3844377" lon="152.9836059">
<ele>71.576</ele>
<time>2015-12-02T04:46:36.999Z</time>
</trkpt>
<trkpt lat="-27.3844377" lon="152.9836059">
<ele>69.510</ele>
<time>2015-12-02T04:46:37.006Z</time>
</trkpt>
<trkpt lat="-27.3842249" lon="152.9835115">
<ele>69.639</ele>
<time>2015-12-02T04:46:42.437Z</time>
</trkpt>
<trkpt lat="-27.3839511" lon="152.9834217">
<ele>69.941</ele>
<time>2015-12-02T04:46:45.584Z</time>
</trkpt>
<trkpt lat="-27.3837452" lon="152.9833564">
<ele>68.771</ele>
<time>2015-12-02T04:46:47.442Z</time>
</trkpt>
<trkpt lat="-27.3834955" lon="152.9832814">
<ele>66.859</ele>
<time>2015-12-02T04:46:49.480Z</time>
</trkpt>
<trkpt lat="-27.3832477" lon="152.9832070">
<ele>65.220</ele>
<time>2015-12-02T04:46:51.380Z</time>
</trkpt>
<trkpt lat="-27.3829823" lon="152.9831277">
<ele>63.726</ele>
<time>2015-12-02T04:46:53.322Z</time>
</trkpt>
<trkpt lat="-27.3825784" lon="152.9830086">
<ele>61.970</ele>
<time>2015-12-02T04:46:56.203Z</time>
</trkpt>
<trkpt lat="-27.3823213" lon="152.9828942">
<ele>59.592</ele>
<time>2015-12-02T04:46:58.110Z</time>
</trkpt>
<trkpt lat="-27.3819660" lon="152.9826602">
<ele>56.811</ele>
<time>2015-12-02T04:47:00.986Z</time>
</trkpt>
<trkpt lat="-27.3817525" lon="152.9824634">
<ele>54.503</ele>
<time>2015-12-02T04:47:02.900Z</time>
</trkpt>
<trkpt lat="-27.3815430" lon="152.9822492">
<ele>53.272</ele>
<time>2015-12-02T04:47:04.838Z</time>
</trkpt>
<trkpt lat="-27.3813395" lon="152.9820324">
<ele>52.769</ele>
<time>2015-12-02T04:47:06.802Z</time>
</trkpt>
<trkpt lat="-27.3810378" lon="152.9817309">
<ele>52.384</ele>
<time>2015-12-02T04:47:09.818Z</time>
</trkpt>
<trkpt lat="-27.3808757" lon="152.9815703">
<ele>51.928</ele>
<time>2015-12-02T04:47:11.749Z</time>
</trkpt>
<trkpt lat="-27.3807750" lon="152.9814277">
<ele>51.285</ele>
<time>2015-12-02T04:47:13.645Z</time>
</trkpt>
<trkpt lat="-27.3806582" lon="152.9813235">
<ele>50.277</ele>
<time>2015-12-02T04:47:15.999Z</time>
</trkpt>
<trkpt lat="-27.3806582" lon="152.9813235">
<ele>49.193</ele>
<time>2015-12-02T04:47:19.999Z</time>
</trkpt>
<trkpt lat="-27.3806582" lon="152.9813235">
<ele>48.613</ele>
<time>2015-12-02T04:48:02.232Z</time>
</trkpt>
<trkpt lat="-27.3803986" lon="152.9811990">
<ele>48.792</ele>
<time>2015-12-02T04:48:08.476Z</time>
</trkpt>
<trkpt lat="-27.3801108" lon="152.9810352">
<ele>49.763</ele>
<time>2015-12-02T04:48:11.038Z</time>
</trkpt>
<trkpt lat="-27.3797601" lon="152.9808657">
<ele>51.966</ele>
<time>2015-12-02T04:48:13.619Z</time>
</trkpt>
<trkpt lat="-27.3793553" lon="152.9807268">
<ele>55.887</ele>
<time>2015-12-02T04:48:16.204Z</time>
</trkpt>
<trkpt lat="-27.3786934" lon="152.9805881">
<ele>61.081</ele>
<time>2015-12-02T04:48:19.659Z</time>
</trkpt>
<trkpt lat="-27.3782703" lon="152.9805397">
<ele>66.862</ele>
<time>2015-12-02T04:48:21.702Z</time>
</trkpt>
<trkpt lat="-27.3776500" lon="152.9804784">
<ele>72.491</ele>
<time>2015-12-02T04:48:24.637Z</time>
</trkpt>
<trkpt lat="-27.3770368" lon="152.9803870">
<ele>76.692</ele>
<time>2015-12-02T04:48:27.554Z</time>
</trkpt>
<trkpt lat="-27.3766221" lon="152.9803248">
<ele>78.952</ele>
<time>2015-12-02T04:48:29.529Z</time>
</trkpt>
<trkpt lat="-27.3762128" lon="152.9802799">
<ele>79.964</ele>
<time>2015-12-02T04:48:31.483Z</time>
</trkpt>
<trkpt lat="-27.3756938" lon="152.9802403">
<ele>80.294</ele>
<time>2015-12-02T04:48:34.071Z</time>
</trkpt>
<trkpt lat="-27.3752341" lon="152.9802250">
<ele>79.588</ele>
<time>2015-12-02T04:48:36.532Z</time>
</trkpt>
<trkpt lat="-27.3748968" lon="152.9802186">
<ele>77.465</ele>
<time>2015-12-02T04:48:38.486Z</time>
</trkpt>
<trkpt lat="-27.3743845" lon="152.9802347">
<ele>74.464</ele>
<time>2015-12-02T04:48:41.637Z</time>
</trkpt>
<trkpt lat="-27.3739197" lon="152.9802478">
<ele>71.260</ele>
<time>2015-12-02T04:48:44.656Z</time>
</trkpt>
<trkpt lat="-27.3734663" lon="152.9802736">
<ele>68.436</ele>
<time>2015-12-02T04:48:47.721Z</time>
</trkpt>
<trkpt lat="-27.3731728" lon="152.9802920">
<ele>66.840</ele>
<time>2015-12-02T04:48:49.724Z</time>
</trkpt>
<trkpt lat="-27.3728734" lon="152.9803144">
<ele>66.594</ele>
<time>2015-12-02T04:48:51.781Z</time>
</trkpt>
<trkpt lat="-27.3725725" lon="152.9803420">
<ele>67.020</ele>
<time>2015-12-02T04:48:53.934Z</time>
</trkpt>
<trkpt lat="-27.3722810" lon="152.9803425">
<ele>67.499</ele>
<time>2015-12-02T04:48:56.048Z</time>
</trkpt>
<trkpt lat="-27.3718783" lon="152.9803206">
<ele>67.740</ele>
<time>2015-12-02T04:48:58.947Z</time>
</trkpt>
<trkpt lat="-27.3715570" lon="152.9802842">
<ele>67.537</ele>
<time>2015-12-02T04:49:01.202Z</time>
</trkpt>
<trkpt lat="-27.3711023" lon="152.9801773">
<ele>66.722</ele>
<time>2015-12-02T04:49:04.308Z</time>
</trkpt>
<trkpt lat="-27.3708127" lon="152.9800602">
<ele>65.151</ele>
<time>2015-12-02T04:49:06.314Z</time>
</trkpt>
<trkpt lat="-27.3703575" lon="152.9798087">
<ele>63.167</ele>
<time>2015-12-02T04:49:09.583Z</time>
</trkpt>
<trkpt lat="-27.3699337" lon="152.9795864">
<ele>61.101</ele>
<time>2015-12-02T04:49:12.571Z</time>
</trkpt>
<trkpt lat="-27.3695105" lon="152.9793652">
<ele>58.476</ele>
<time>2015-12-02T04:49:15.576Z</time>
</trkpt>
<trkpt lat="-27.3692239" lon="152.9792212">
<ele>55.117</ele>
<time>2015-12-02T04:49:17.648Z</time>
</trkpt>
<trkpt lat="-27.3689406" lon="152.9790805">
<ele>52.031</ele>
<time>2015-12-02T04:49:19.757Z</time>
</trkpt>
<trkpt lat="-27.3685317" lon="152.9788758">
<ele>50.095</ele>
<time>2015-12-02T04:49:22.904Z</time>
</trkpt>
<trkpt lat="-27.3681549" lon="152.9786550">
<ele>49.342</ele>
<time>2015-12-02T04:49:26.036Z</time>
</trkpt>
<trkpt lat="-27.3678999" lon="152.9784608">
<ele>49.702</ele>
<time>2015-12-02T04:49:28.200Z</time>
</trkpt>
<trkpt lat="-27.3675843" lon="152.9781732">
<ele>51.147</ele>
<time>2015-12-02T04:49:30.864Z</time>
</trkpt>
<trkpt lat="-27.3673216" lon="152.9778526">
<ele>53.039</ele>
<time>2015-12-02T04:49:33.369Z</time>
</trkpt>
<trkpt lat="-27.3671347" lon="152.9776047">
<ele>54.487</ele>
<time>2015-12-02T04:49:35.231Z</time>
</trkpt>
<trkpt lat="-27.3669507" lon="152.9773397">
<ele>55.197</ele>
<time>2015-12-02T04:49:37.161Z</time>
</trkpt>
<trkpt lat="-27.3667647" lon="152.9770654">
<ele>55.362</ele>
<time>2015-12-02T04:49:39.152Z</time>
</trkpt>
<trkpt lat="-27.3665003" lon="152.9766535">
<ele>55.098</ele>
<time>2015-12-02T04:49:42.080Z</time>
</trkpt>
<trkpt lat="-27.3663249" lon="152.9763738">
<ele>54.294</ele>
<time>2015-12-02T04:49:44.032Z</time>
</trkpt>
<trkpt lat="-27.3660487" lon="152.9759528">
<ele>53.216</ele>
<time>2015-12-02T04:49:46.980Z</time>
</trkpt>
<trkpt lat="-27.3657797" lon="152.9755240">
<ele>52.453</ele>
<time>2015-12-02T04:49:49.889Z</time>
</trkpt>
<trkpt lat="-27.3654831" lon="152.9751078">
<ele>52.711</ele>
<time>2015-12-02T04:49:52.816Z</time>
</trkpt>
<trkpt lat="-27.3651606" lon="152.9747213">
<ele>54.489</ele>
<time>2015-12-02T04:49:55.689Z</time>
</trkpt>
<trkpt lat="-27.3647996" lon="152.9743701">
<ele>57.170</ele>
<time>2015-12-02T04:49:58.466Z</time>
</trkpt>
<trkpt lat="-27.3645422" lon="152.9741618">
<ele>59.867</ele>
<time>2015-12-02T04:50:00.248Z</time>
</trkpt>
<trkpt lat="-27.3640915" lon="152.9738885">
<ele>62.482</ele>
<time>2015-12-02T04:50:03.053Z</time>
</trkpt>
<trkpt lat="-27.3637620" lon="152.9737180">
<ele>64.824</ele>
<time>2015-12-02T04:50:05.028Z</time>
</trkpt>
<trkpt lat="-27.3634375" lon="152.9735343">
<ele>66.460</ele>
<time>2015-12-02T04:50:07.030Z</time>
</trkpt>
<trkpt lat="-27.3629943" lon="152.9731804">
<ele>67.324</ele>
<time>2015-12-02T04:50:10.134Z</time>
</trkpt>
<trkpt lat="-27.3627351" lon="152.9729281">
<ele>67.280</ele>
<time>2015-12-02T04:50:12.176Z</time>
</trkpt>
<trkpt lat="-27.3623800" lon="152.9725733">
<ele>66.115</ele>
<time>2015-12-02T04:50:15.225Z</time>
</trkpt>
<trkpt lat="-27.3621387" lon="152.9723808">
<ele>64.089</ele>
<time>2015-12-02T04:50:17.346Z</time>
</trkpt>
<trkpt lat="-27.3618922" lon="152.9722003">
<ele>61.912</ele>
<time>2015-12-02T04:50:19.877Z</time>
</trkpt>
<trkpt lat="-27.3616643" lon="152.9720553">
<ele>60.149</ele>
<time>2015-12-02T04:50:24.372Z</time>
</trkpt>
<trkpt lat="-27.3613968" lon="152.9718854">
<ele>58.756</ele>
<time>2015-12-02T04:50:32.706Z</time>
</trkpt>
<trkpt lat="-27.3612851" lon="152.9718155">
<ele>56.916</ele>
<time>2015-12-02T04:50:34.403Z</time>
</trkpt>
<trkpt lat="-27.3612065" lon="152.9717665">
<ele>54.317</ele>
<time>2015-12-02T04:50:35.217Z</time>
</trkpt>
<trkpt lat="-27.3611205" lon="152.9717232">
<ele>51.685</ele>
<time>2015-12-02T04:50:36.072Z</time>
</trkpt>
<trkpt lat="-27.3608941" lon="152.9715840">
<ele>49.774</ele>
<time>2015-12-02T04:50:38.142Z</time>
</trkpt>
<trkpt lat="-27.3605618" lon="152.9713861">
<ele>49.052</ele>
<time>2015-12-02T04:50:40.794Z</time>
</trkpt>
<trkpt lat="-27.3603196" lon="152.9712379">
<ele>49.593</ele>
<time>2015-12-02T04:50:42.642Z</time>
</trkpt>
<trkpt lat="-27.3599474" lon="152.9710124">
<ele>50.609</ele>
<time>2015-12-02T04:50:45.230Z</time>
</trkpt>
<trkpt lat="-27.3596575" lon="152.9708353">
<ele>50.896</ele>
<time>2015-12-02T04:50:47.238Z</time>
</trkpt>
<trkpt lat="-27.3593524" lon="152.9706478">
<ele>50.008</ele>
<time>2015-12-02T04:50:49.595Z</time>
</trkpt>
<trkpt lat="-27.3589802" lon="152.9704078">
<ele>48.749</ele>
<time>2015-12-02T04:50:53.457Z</time>
</trkpt>
<trkpt lat="-27.3587985" lon="152.9702861">
<ele>47.314</ele>
<time>2015-12-02T04:50:55.621Z</time>
</trkpt>
<trkpt lat="-27.3586436" lon="152.9701599">
<ele>44.778</ele>
<time>2015-12-02T04:50:57.573Z</time>
</trkpt>
<trkpt lat="-27.3584105" lon="152.9699919">
<ele>41.282</ele>
<time>2015-12-02T04:51:00.376Z</time>
</trkpt>
<trkpt lat="-27.3581637" lon="152.9698261">
<ele>38.264</ele>
<time>2015-12-02T04:51:03.370Z</time>
</trkpt>
<trkpt lat="-27.3579874" lon="152.9697142">
<ele>36.773</ele>
<time>2015-12-02T04:51:05.816Z</time>
</trkpt>
<trkpt lat="-27.3578229" lon="152.9696213">
<ele>36.678</ele>
<time>2015-12-02T04:51:08.270Z</time>
</trkpt>
<trkpt lat="-27.3576918" lon="152.9694228">
<ele>37.040</ele>
<time>2015-12-02T04:51:10.879Z</time>
</trkpt>
<trkpt lat="-27.3577202" lon="152.9692601">
<ele>37.185</ele>
<time>2015-12-02T04:51:12.367Z</time>
</trkpt>
<trkpt lat="-27.3578397" lon="152.9689888">
<ele>37.099</ele>
<time>2015-12-02T04:51:14.995Z</time>
</trkpt>
<trkpt lat="-27.3579785" lon="152.9686768">
<ele>37.053</ele>
<time>2015-12-02T04:51:17.932Z</time>
</trkpt>
<trkpt lat="-27.3581250" lon="152.9683589">
<ele>37.416</ele>
<time>2015-12-02T04:51:20.951Z</time>
</trkpt>
<trkpt lat="-27.3582688" lon="152.9680585">
<ele>38.276</ele>
<time>2015-12-02T04:51:23.823Z</time>
</trkpt>
<trkpt lat="-27.3583676" lon="152.9678466">
<ele>39.289</ele>
<time>2015-12-02T04:51:25.848Z</time>
</trkpt>
<trkpt lat="-27.3585201" lon="152.9675419">
<ele>40.108</ele>
<time>2015-12-02T04:51:28.769Z</time>
</trkpt>
<trkpt lat="-27.3586737" lon="152.9672417">
<ele>40.719</ele>
<time>2015-12-02T04:51:31.223Z</time>
</trkpt>
<trkpt lat="-27.3587524" lon="152.9670083">
<ele>41.434</ele>
<time>2015-12-02T04:51:32.814Z</time>
</trkpt>
<trkpt lat="-27.3588375" lon="152.9664919">
<ele>42.645</ele>
<time>2015-12-02T04:51:35.633Z</time>
</trkpt>
<trkpt lat="-27.3588070" lon="152.9661307">
<ele>44.841</ele>
<time>2015-12-02T04:51:37.525Z</time>
</trkpt>
<trkpt lat="-27.3587297" lon="152.9657679">
<ele>47.994</ele>
<time>2015-12-02T04:51:39.505Z</time>
</trkpt>
<trkpt lat="-27.3585322" lon="152.9652879">
<ele>51.102</ele>
<time>2015-12-02T04:51:42.382Z</time>
</trkpt>
<trkpt lat="-27.3582532" lon="152.9648586">
<ele>53.302</ele>
<time>2015-12-02T04:51:45.295Z</time>
</trkpt>
<trkpt lat="-27.3579263" lon="152.9644659">
<ele>54.496</ele>
<time>2015-12-02T04:51:48.252Z</time>
</trkpt>
<trkpt lat="-27.3577026" lon="152.9642270">
<ele>54.815</ele>
<time>2015-12-02T04:51:50.165Z</time>
</trkpt>
<trkpt lat="-27.3573635" lon="152.9638589">
<ele>54.423</ele>
<time>2015-12-02T04:51:53.080Z</time>
</trkpt>
<trkpt lat="-27.3570404" lon="152.9634803">
<ele>53.051</ele>
<time>2015-12-02T04:51:55.955Z</time>
</trkpt>
<trkpt lat="-27.3568251" lon="152.9632279">
<ele>50.263</ele>
<time>2015-12-02T04:51:57.863Z</time>
</trkpt>
<trkpt lat="-27.3566303" lon="152.9629384">
<ele>46.520</ele>
<time>2015-12-02T04:51:59.877Z</time>
</trkpt>
<trkpt lat="-27.3564781" lon="152.9626475">
<ele>43.270</ele>
<time>2015-12-02T04:52:01.833Z</time>
</trkpt>
<trkpt lat="-27.3562666" lon="152.9622205">
<ele>41.415</ele>
<time>2015-12-02T04:52:04.785Z</time>
</trkpt>
<trkpt lat="-27.3561287" lon="152.9619458">
<ele>40.655</ele>
<time>2015-12-02T04:52:06.924Z</time>
</trkpt>
<trkpt lat="-27.3559586" lon="152.9615864">
<ele>40.102</ele>
<time>2015-12-02T04:52:09.991Z</time>
</trkpt>
<trkpt lat="-27.3558696" lon="152.9612450">
<ele>38.942</ele>
<time>2015-12-02T04:52:12.946Z</time>
</trkpt>
<trkpt lat="-27.3557689" lon="152.9610471">
<ele>37.121</ele>
<time>2015-12-02T04:52:14.702Z</time>
</trkpt>
<trkpt lat="-27.3556283" lon="152.9608158">
<ele>35.459</ele>
<time>2015-12-02T04:52:16.696Z</time>
</trkpt>
<trkpt lat="-27.3554523" lon="152.9604288">
<ele>34.921</ele>
<time>2015-12-02T04:52:19.677Z</time>
</trkpt>
<trkpt lat="-27.3553494" lon="152.9601518">
<ele>35.671</ele>
<time>2015-12-02T04:52:21.660Z</time>
</trkpt>
<trkpt lat="-27.3552363" lon="152.9598787">
<ele>36.894</ele>
<time>2015-12-02T04:52:23.658Z</time>
</trkpt>
<trkpt lat="-27.3550930" lon="152.9594863">
<ele>37.779</ele>
<time>2015-12-02T04:52:26.474Z</time>
</trkpt>
<trkpt lat="-27.3550010" lon="152.9590423">
<ele>38.039</ele>
<time>2015-12-02T04:52:29.475Z</time>
</trkpt>
<trkpt lat="-27.3549798" lon="152.9585975">
<ele>37.734</ele>
<time>2015-12-02T04:52:32.391Z</time>
</trkpt>
<trkpt lat="-27.3549801" lon="152.9583095">
<ele>37.174</ele>
<time>2015-12-02T04:52:34.302Z</time>
</trkpt>
<trkpt lat="-27.3549703" lon="152.9580229">
<ele>36.534</ele>
<time>2015-12-02T04:52:36.256Z</time>
</trkpt>
<trkpt lat="-27.3549634" lon="152.9577447">
<ele>35.874</ele>
<time>2015-12-02T04:52:38.323Z</time>
</trkpt>
<trkpt lat="-27.3549661" lon="152.9575198">
<ele>35.154</ele>
<time>2015-12-02T04:52:40.360Z</time>
</trkpt>
<trkpt lat="-27.3550268" lon="152.9573681">
<ele>34.017</ele>
<time>2015-12-02T04:52:42.072Z</time>
</trkpt>
<trkpt lat="-27.3552776" lon="152.9573020">
<ele>32.512</ele>
<time>2015-12-02T04:52:44.950Z</time>
</trkpt>
<trkpt lat="-27.3554892" lon="152.9572692">
<ele>31.320</ele>
<time>2015-12-02T04:52:46.975Z</time>
</trkpt>
<trkpt lat="-27.3558128" lon="152.9571760">
<ele>30.820</ele>
<time>2015-12-02T04:52:50.058Z</time>
</trkpt>
<trkpt lat="-27.3559827" lon="152.9570982">
<ele>30.781</ele>
<time>2015-12-02T04:52:51.959Z</time>
</trkpt>
<trkpt lat="-27.3561741" lon="152.9569458">
<ele>30.960</ele>
<time>2015-12-02T04:52:54.602Z</time>
</trkpt>
<trkpt lat="-27.3563196" lon="152.9568213">
<ele>31.238</ele>
<time>2015-12-02T04:52:56.707Z</time>
</trkpt>
<trkpt lat="-27.3564591" lon="152.9567156">
<ele>31.477</ele>
<time>2015-12-02T04:52:58.693Z</time>
</trkpt>
<trkpt lat="-27.3566395" lon="152.9565976">
<ele>31.462</ele>
<time>2015-12-02T04:53:01.453Z</time>
</trkpt>
<trkpt lat="-27.3567194" lon="152.9565450">
<ele>31.133</ele>
<time>2015-12-02T04:53:03.000Z</time>
</trkpt>
<trkpt lat="-27.3567194" lon="152.9565450">
<ele>30.707</ele>
<time>2015-12-02T04:53:08.000Z</time>
</trkpt>
<trkpt lat="-27.3567194" lon="152.9565450">
<ele>30.476</ele>
<time>2015-12-02T04:53:42.000Z</time>
</trkpt>
<trkpt lat="-27.3568754" lon="152.9566041">
<ele>32.884</ele>
<time>2015-12-02T04:54:31.000Z</time>
</trkpt>
<trkpt lat="-27.3568754" lon="152.9566041">
<ele>32.869</ele>
<time>2015-12-02T04:54:37.000Z</time>
</trkpt>
<trkpt lat="-27.3568500" lon="152.9565695">
<ele>32.485</ele>
<time>2015-12-02T04:56:01.000Z</time>
</trkpt>
</trkseg>
</trk>
<extensions>
<fpdata xmlns="http://www.motionx.com/GPX-Extensions/1/1" sfv="10" origin="MotionXGPSFull 24.1 Build 5049R64">
<bin enc="base64">
RgIAAAACAAAAH9cq94CX1UEBAAAAfzDwfp6X1UGR7Sz76yjCQLILAACb+RcBukcfkkCL
OkB3eqDhFj5AQAAAAAAPAAAAS2luZ3NjbGlmZiBSdW4AFAAAADIgRGVjIDIwMTUgIDc6
MzIgYW0AAAAAALIw8H6el9VB1uKvhZ6X1UGw3o4AJEz7PKLVnkAsAAAAAQAAAJQTnrKb
HmNAAxxMKGBbO8C6Rx+SQIs6QAAAAAAAACRAAAAAAAAAIEAAAAAAAJqrQAAAAAAAAAAA
AAAAAHI9CtejWGlATOyWnoxBQEABAAAAmqwDqOPbhr8BAAAAAQAAAAVM3TBuHbA/19IK
X68Brb8BAAAAAQAAAAIAAAB/2jA8r4lKQAAAAAAAAAAAAQAAAA4AAABUcmFja18wMDIu
Z3B4AAEAAACZ1w9/npfVQQoAAAABAAAACgAAAFRyYWNrIDAwMgAAAAAADAAAAAAAAAAA
AAAAGwAAAJkBQHiel9VBAAAAAAAAAAAAAAAAAAAAAP8lRLwCAAAAAAAAAAAAAAABAAAA
JwAAADI0LjEgQnVpbGQgNTA0OVI2NCwgTVhBRSA4LjEgYi4gNjI2UjY0AAAAAADmawAA
AQAAAAE0AAAA3ANeVvl5XlYEBaRE94CX1UEFpET3gJfVQQAAAADRzNk/AAAAAAJJ1yr3
gJfVQZgWR5aBl9VBAADg6Yfjg0AAAAAAAqshSa2Bl9VB9+UIvYGX1UEAAGBzgNuFQAAA
AAACcoZOwYGX1UF+cAfZgZfVQQAA4LSd0ohAAAAAAAJzoIrbgZfVQbcnyfyBl9VBAABg
nW76jEAAAAAAAmO0yQKCl9VBGCHGEIKX1UEAAAA0/LmOQAAAAAACQs9PHoKX1UFYrAgo
gpfVQQAAwNYX8Y9AAAAAAAJjJ4o3gpfVQZ1kiUmCl9VBAAAAv38YkUAAAAAAAgx1y1CC
l9VBl+TGW4KX1UEAALC3NsiRQAAAAAAC7beJZYKX1UGfIEZogpfVQQAA0EL985FAAAAA
AALIRAprgpfVQfBui3SCl9VBAABQ5Q+MkkAAAAAAAiDyDHmCl9VBkqyLhoKX1UEAAHCM
+2OTQAAAAAACfsoOkIKX1UEUQga7gpfVQQAA0AVzE5ZAAAAAAANS73rugpfVQVLveu6C
l9VBAACAOXjOl0AAAAAABH46hxuDl9VBfjqHG4OX1UEAALzsPJ+aQAAAAAADxM0/I4OX
1UHEzT8jg5fVQQAArCHGGptAAAAAAARV+UVcg5fVQVX5RVyDl9VBAAB02iirnkAAAAAA
AjmcytKCl9VBQIMIO4SX1UEAACC7qEumQAAAAAAC0CxKPISX1UFUAAdAhJfVQQAAQFeP
aaZAAAAAAAJI/g1NhJfVQQQeRlqEl9VBAAAgVVDTpkAAAAAAAk6Wx7KEl9VBxt4GtISX
1UEAAOCYSt2mQAAAAAACBJLMCIWX1UHGNkoOhZfVQQAA8L43CadAAAAAAAKDFMwQhZfV
QYJ1Rh+Fl9VBAADoxgp9p0AAAAAAA/d2TQ2Xl9VB93ZNDZeX1UEAAOjGCn2nQAAAAAAC
exG9EJeX1UFK68VAl5fVQQAAYJVR/ahAAAAAAAL0GUhDl5fVQRIWRIiXl9VBAABQdjEl
q0AAAAAAAjKRx46Xl9VB3qrEvZeX1UEAALBDGp2sQAAAAAAD7E53R5iX1UHsTndHmJfV
QQAA1JJRbLBAAAAAAAQVjgRLmJfVQRWOBEuYl9VBAABFj4Z6sEAAAAAAAsYyBsCXl9VB
rVDI65mX1UEAAHSZlf22QAAAAAACKH5IHJqX1UGWWQUhmpfVQQAALAeJELdAAAAAAAJA
aMmSmpfVQQD8xpSal9VBAAAsVn8Yt0AAAAAAA1JjubCcl9VBUmO5sJyX1UEAAKF4TPK+
QAAAAAAEXd/H5pyX1UFd38fmnJfVQQAAm2iGyr9AAAAAAAMiqHbunJfVQSKodu6cl9VB
AACNi0Hpv0AAAAAABBgICBCdl9VBGAgIEJ2X1UEAAJGFwzfAQAAAAAAC5xpGupqX1UG8
QcgunZfVQQAAwPhDdcBAAAAAAALed0pCnZfVQTCcx0mdl9VBAABkQT6EwEAAAAAAAsi2
yUqdl9VB4GRHV52X1UEAAJSdOZ3AQAAAAAAC3KILbJ2X1UHAJZJ9nZfVQQAAXKNGwMBA
AAAAAALkFcuAnZfVQTxlhYmdl9VBAAAMQrvRwEAAAAAAAmWoCI2dl9VBXW3Ekp2X1UEA
APzLMt3AQAAAAAACg8NImJ2X1UF+44ScnZfVQQAA8gur5cBAAAAAAALmBIq3nZfVQX4f
xMSdl9VBAAAiQR8AwUAAAAAAAoVDzsidl9VBlPRI652X1UEAAECjFEXBQAAAAAACgQhJ
7J2X1UGezwv2nZfVQQAAejGaWMFAAAAAAAJMjMkBnpfVQWr2Bk2el9VBAAC2BRXvwUAA
AAAAA3TPuFWel9VBdM+4VZ6X1UEAALYFFe/BQAAAAAAE6zjHYZ6X1UHrOMdhnpfVQQAA
tgUV78FAAAAAAANUAHdjnpfVQVQAd2Oel9VBkW0Je+jywUAAAAAABNhlR3iel9VB2GVH
eJ6X1UGRbQBGiRzCQAAAAAABiuXHYZ6X1UGHwHh+npfVQZHtLPvrKMJAAAAAAAAAAAA=

</bin>
</fpdata>
</extensions>
</gpx>